<?xml version='1.0' encoding='UTF-8'?><gpx version="1.1" creator="JPX - https://github.com/jenetics/jpx" xmlns="http://www.topografix.com/GPX/1/1"><trk><trkseg><trkpt lat="43.25043698656291" lon="12.970466147744238"><ele>408.0</ele><time>2026-04-04T07:30:24.47Z</time></trkpt><trkpt lat="43.25057407318371" lon="12.970308031093037"><ele>408.0</ele><time>2026-04-04T07:30:27.47Z</time></trkpt><trkpt lat="43.25044290760536" lon="12.970233734338635"><ele>408.0</ele><time>2026-04-04T07:30:57Z</time></trkpt><trkpt lat="43.25038057772475" lon="12.970135207766324"><ele>408.0</ele><time>2026-04-04T07:30:59Z</time></trkpt><trkpt lat="43.250328062766805" lon="12.97004999918993"><ele>408.0</ele><time>2026-04-04T07:31:01Z</time></trkpt><trkpt lat="43.250289381270555" lon="12.969979766888049"><ele>408.0</ele><time>2026-04-04T07:31:04Z</time></trkpt><trkpt lat="43.2502891666823" lon="12.969891230032607"><ele>408.0</ele><time>2026-04-04T07:31:09Z</time></trkpt><trkpt lat="43.25032029568402" lon="12.96972105178139"><ele>408.0</ele><time>2026-04-04T07:31:11Z</time></trkpt><trkpt lat="43.25035302952846" lon="12.969639491706523"><ele>408.0</ele><time>2026-04-04T07:31:12Z</time></trkpt><trkpt lat="43.25038690007036" lon="12.969526283126603"><ele>408.0</ele><time>2026-04-04T07:31:13Z</time></trkpt><trkpt lat="43.250491307106806" lon="12.969433185986356"><ele>408.0</ele><time>2026-04-04T07:31:14Z</time></trkpt><trkpt lat="43.250557672005456" lon="12.969260390650916"><ele>408.0</ele><time>2026-04-04T07:31:15Z</time></trkpt><trkpt lat="43.250643270339474" lon="12.969055090432665"><ele>408.0</ele><time>2026-04-04T07:31:16Z</time></trkpt><trkpt lat="43.25069180715639" lon="12.96886740820612"><ele>409.0</ele><time>2026-04-04T07:31:17Z</time></trkpt><trkpt lat="43.25075822200107" lon="12.968690284495437"><ele>410.0</ele><time>2026-04-04T07:31:18Z</time></trkpt><trkpt lat="43.250801550454334" lon="12.968507132951409"><ele>411.0</ele><time>2026-04-04T07:31:19Z</time></trkpt><trkpt lat="43.25082455008142" lon="12.96833538129547"><ele>412.0</ele><time>2026-04-04T07:31:20Z</time></trkpt><trkpt lat="43.250835056728086" lon="12.968169148791464"><ele>412.0</ele><time>2026-04-04T07:31:21Z</time></trkpt><trkpt lat="43.25083422841232" lon="12.968002139416383"><ele>412.0</ele><time>2026-04-04T07:31:22Z</time></trkpt><trkpt lat="43.25082479798561" lon="12.967841740062164"><ele>412.0</ele><time>2026-04-04T07:31:23Z</time></trkpt><trkpt lat="43.250806434844726" lon="12.967686203654614"><ele>412.0</ele><time>2026-04-04T07:31:24Z</time></trkpt><trkpt lat="43.250782115058065" lon="12.967523430302222"><ele>411.5</ele><time>2026-04-04T07:31:25Z</time></trkpt><trkpt lat="43.25074706344598" lon="12.96735815291534"><ele>411.0</ele><time>2026-04-04T07:31:26Z</time></trkpt><trkpt lat="43.250707591141115" lon="12.967196053499618"><ele>410.5</ele><time>2026-04-04T07:31:27Z</time></trkpt><trkpt lat="43.25066656025319" lon="12.96703810758577"><ele>410.0</ele><time>2026-04-04T07:31:28.001Z</time></trkpt><trkpt lat="43.2506262272827" lon="12.9668824539922"><ele>409.75</ele><time>2026-04-04T07:31:29.001Z</time></trkpt><trkpt lat="43.25057444732603" lon="12.966716342547102"><ele>409.5</ele><time>2026-04-04T07:31:30.001Z</time></trkpt><trkpt lat="43.25053028269367" lon="12.96654337869447"><ele>409.25</ele><time>2026-04-04T07:31:31.001Z</time></trkpt><trkpt lat="43.250483799744174" lon="12.966367273390594"><ele>409.0</ele><time>2026-04-04T07:31:32.001Z</time></trkpt><trkpt lat="43.25043296384843" lon="12.966180952350362"><ele>409.0</ele><time>2026-04-04T07:31:33.001Z</time></trkpt><trkpt lat="43.250400323206875" lon="12.965994293113795"><ele>409.0</ele><time>2026-04-04T07:31:34.001Z</time></trkpt><trkpt lat="43.25033489916425" lon="12.965816885701061"><ele>409.0</ele><time>2026-04-04T07:31:35.001Z</time></trkpt><trkpt lat="43.25028417143309" lon="12.965635927163417"><ele>409.0</ele><time>2026-04-04T07:31:36.001Z</time></trkpt><trkpt lat="43.25024936679103" lon="12.965491662120462"><ele>409.6666666666667</ele><time>2026-04-04T07:31:37.001Z</time></trkpt><trkpt lat="43.250214924405356" lon="12.965345370908043"><ele>410.33333333333337</ele><time>2026-04-04T07:31:38.001Z</time></trkpt><trkpt lat="43.250179864402604" lon="12.965235467955"><ele>411.0</ele><time>2026-04-04T07:31:39.001Z</time></trkpt><trkpt lat="43.250141080697766" lon="12.965126217276058"><ele>411.66666666666663</ele><time>2026-04-04T07:31:40.001Z</time></trkpt><trkpt lat="43.25010509753521" lon="12.965024853940038"><ele>412.3333333333333</ele><time>2026-04-04T07:31:41.001Z</time></trkpt><trkpt lat="43.25007251288864" lon="12.964940169406683"><ele>413.0</ele><time>2026-04-04T07:31:42.001Z</time></trkpt><trkpt lat="43.2500421468741" lon="12.96486396968997"><ele>413.0</ele><time>2026-04-04T07:31:43.001Z</time></trkpt><trkpt lat="43.249915994890614" lon="12.96493787487279"><ele>413.0</ele><time>2026-04-04T07:31:44.001Z</time></trkpt><trkpt lat="43.249850318068496" lon="12.964935753219304"><ele>413.0</ele><time>2026-04-04T07:31:45.001Z</time></trkpt><trkpt lat="43.2497498532333" lon="12.964934879042756"><ele>413.0</ele><time>2026-04-04T07:31:46.001Z</time></trkpt><trkpt lat="43.24960990807777" lon="12.964934882555138"><ele>413.0</ele><time>2026-04-04T07:31:47.001Z</time></trkpt><trkpt lat="43.24942809732898" lon="12.96498140101126"><ele>413.3333333333333</ele><time>2026-04-04T07:31:48.001Z</time></trkpt><trkpt lat="43.249246397349765" lon="12.964978913885574"><ele>413.66666666666663</ele><time>2026-04-04T07:31:49.001Z</time></trkpt><trkpt lat="43.24907401385896" lon="12.964971739772816"><ele>414.0</ele><time>2026-04-04T07:31:50.001Z</time></trkpt><trkpt lat="43.24889243014975" lon="12.964959527963131"><ele>414.0</ele><time>2026-04-04T07:31:51.001Z</time></trkpt><trkpt lat="43.24873042024261" lon="12.964940844902541"><ele>414.0</ele><time>2026-04-04T07:31:52.001Z</time></trkpt><trkpt lat="43.248586850706864" lon="12.96492096303549"><ele>414.0</ele><time>2026-04-04T07:31:53.001Z</time></trkpt><trkpt lat="43.24845278040837" lon="12.964907656423403"><ele>414.0</ele><time>2026-04-04T07:31:54.001Z</time></trkpt><trkpt lat="43.24832890264969" lon="12.964892436410253"><ele>414.0</ele><time>2026-04-04T07:31:55.001Z</time></trkpt><trkpt lat="43.24819783005724" lon="12.964898270130982"><ele>414.0</ele><time>2026-04-04T07:31:56.001Z</time></trkpt><trkpt lat="43.24807489124251" lon="12.964891671156792"><ele>414.0</ele><time>2026-04-04T07:31:57.001Z</time></trkpt><trkpt lat="43.24796316005647" lon="12.964883172238972"><ele>414.0</ele><time>2026-04-04T07:31:58.001Z</time></trkpt><trkpt lat="43.247850305775756" lon="12.964870765957224"><ele>413.79999999999995</ele><time>2026-04-04T07:31:59.001Z</time></trkpt><trkpt lat="43.24774433204511" lon="12.96486639154883"><ele>413.59999999999997</ele><time>2026-04-04T07:32:00.001Z</time></trkpt><trkpt lat="43.247644640594885" lon="12.964907415333789"><ele>413.4</ele><time>2026-04-04T07:32:01.001Z</time></trkpt><trkpt lat="43.24755408311028" lon="12.964939714072536"><ele>413.2</ele><time>2026-04-04T07:32:02.001Z</time></trkpt><trkpt lat="43.247467715611116" lon="12.964963863411379"><ele>413.0</ele><time>2026-04-04T07:32:03.001Z</time></trkpt><trkpt lat="43.24738746395112" lon="12.964988414672494"><ele>413.0</ele><time>2026-04-04T07:32:04.001Z</time></trkpt><trkpt lat="43.247302688344746" lon="12.965033168484224"><ele>413.0</ele><time>2026-04-04T07:32:05.001Z</time></trkpt><trkpt lat="43.247204712728944" lon="12.965074164385696"><ele>413.0</ele><time>2026-04-04T07:32:06.001Z</time></trkpt><trkpt lat="43.24710339591854" lon="12.965120322424498"><ele>413.0</ele><time>2026-04-04T07:32:07.001Z</time></trkpt><trkpt lat="43.24698531766713" lon="12.965158733737079"><ele>413.0</ele><time>2026-04-04T07:32:08.001Z</time></trkpt><trkpt lat="43.24685855462838" lon="12.96518476576351"><ele>413.0</ele><time>2026-04-04T07:32:09.001Z</time></trkpt><trkpt lat="43.24673432410697" lon="12.96523285155589"><ele>413.0</ele><time>2026-04-04T07:32:10.001Z</time></trkpt><trkpt lat="43.24660305160362" lon="12.965254000119156"><ele>413.0</ele><time>2026-04-04T07:32:11.002Z</time></trkpt><trkpt lat="43.24647599456947" lon="12.965317487778796"><ele>413.0</ele><time>2026-04-04T07:32:12.002Z</time></trkpt><trkpt lat="43.24635345136125" lon="12.965335612250128"><ele>413.75</ele><time>2026-04-04T07:32:13.002Z</time></trkpt><trkpt lat="43.24624178120691" lon="12.9653721251942"><ele>414.5</ele><time>2026-04-04T07:32:14.002Z</time></trkpt><trkpt lat="43.246104525599115" lon="12.965416997308937"><ele>415.25</ele><time>2026-04-04T07:32:15.002Z</time></trkpt><trkpt lat="43.24598541588365" lon="12.965466970951736"><ele>416.0</ele><time>2026-04-04T07:32:16.002Z</time></trkpt><trkpt lat="43.24586509191575" lon="12.965467588404312"><ele>416.0</ele><time>2026-04-04T07:32:17.002Z</time></trkpt><trkpt lat="43.24574895157704" lon="12.965498834261057"><ele>416.0</ele><time>2026-04-04T07:32:18.002Z</time></trkpt><trkpt lat="43.24562372309103" lon="12.965500535994986"><ele>416.0</ele><time>2026-04-04T07:32:19.002Z</time></trkpt><trkpt lat="43.24550797496047" lon="12.965549034523264"><ele>416.0</ele><time>2026-04-04T07:32:20.002Z</time></trkpt><trkpt lat="43.24538778205179" lon="12.965596178469804"><ele>416.20000000000005</ele><time>2026-04-04T07:32:21.002Z</time></trkpt><trkpt lat="43.245274903037426" lon="12.965652486400247"><ele>416.40000000000003</ele><time>2026-04-04T07:32:22.002Z</time></trkpt><trkpt lat="43.24517048524581" lon="12.965732086677688"><ele>416.6</ele><time>2026-04-04T07:32:23.002Z</time></trkpt><trkpt lat="43.245075107884496" lon="12.965766659564268"><ele>416.8</ele><time>2026-04-04T07:32:24.002Z</time></trkpt><trkpt lat="43.24496966901266" lon="12.965790016489327"><ele>417.0</ele><time>2026-04-04T07:32:25.002Z</time></trkpt><trkpt lat="43.244842168306704" lon="12.965784704326428"><ele>417.25</ele><time>2026-04-04T07:32:26.002Z</time></trkpt><trkpt lat="43.24472533212853" lon="12.965750554900321"><ele>417.5</ele><time>2026-04-04T07:32:27.002Z</time></trkpt><trkpt lat="43.24458639792078" lon="12.965679015712599"><ele>417.75</ele><time>2026-04-04T07:32:28.002Z</time></trkpt><trkpt lat="43.244446770524874" lon="12.965580643342419"><ele>418.0</ele><time>2026-04-04T07:32:29.002Z</time></trkpt><trkpt lat="43.24430103889503" lon="12.9654552501707"><ele>418.0</ele><time>2026-04-04T07:32:30.002Z</time></trkpt><trkpt lat="43.24416996078893" lon="12.965358722422879"><ele>418.0</ele><time>2026-04-04T07:32:31.002Z</time></trkpt><trkpt lat="43.244064482704665" lon="12.96529189172961"><ele>418.0</ele><time>2026-04-04T07:32:32.002Z</time></trkpt><trkpt lat="43.24393928274418" lon="12.965216197528724"><ele>418.0</ele><time>2026-04-04T07:32:33.002Z</time></trkpt><trkpt lat="43.24384337884977" lon="12.965125126703098"><ele>419.25</ele><time>2026-04-04T07:32:34.002Z</time></trkpt><trkpt lat="43.24378572005811" lon="12.965025830787058"><ele>420.5</ele><time>2026-04-04T07:32:35.002Z</time></trkpt><trkpt lat="43.24370751587222" lon="12.96489946342323"><ele>421.75</ele><time>2026-04-04T07:32:36.002Z</time></trkpt><trkpt lat="43.24362243276519" lon="12.964796174245837"><ele>423.0</ele><time>2026-04-04T07:32:37.002Z</time></trkpt><trkpt lat="43.24352082480268" lon="12.964686875705874"><ele>423.0</ele><time>2026-04-04T07:32:38.002Z</time></trkpt><trkpt lat="43.24341907606222" lon="12.964586792481958"><ele>423.0</ele><time>2026-04-04T07:32:39.002Z</time></trkpt><trkpt lat="43.24332353196045" lon="12.964486992469013"><ele>423.0</ele><time>2026-04-04T07:32:40.002Z</time></trkpt><trkpt lat="43.24324533724382" lon="12.964380282088005"><ele>423.0</ele><time>2026-04-04T07:32:41.002Z</time></trkpt><trkpt lat="43.243106955412394" lon="12.964289254291698"><ele>423.5</ele><time>2026-04-04T07:32:42.002Z</time></trkpt><trkpt lat="43.243000818860686" lon="12.964206629436152"><ele>424.0</ele><time>2026-04-04T07:32:43.002Z</time></trkpt><trkpt lat="43.242868749069366" lon="12.964140924105989"><ele>424.5</ele><time>2026-04-04T07:32:44.002Z</time></trkpt><trkpt lat="43.24275686066138" lon="12.964047608139554"><ele>425.0</ele><time>2026-04-04T07:32:45.002Z</time></trkpt><trkpt lat="43.242631141545296" lon="12.964013048135097"><ele>424.99999999999994</ele><time>2026-04-04T07:32:46.002Z</time></trkpt><trkpt lat="43.24253667906951" lon="12.963978911814849"><ele>425.0</ele><time>2026-04-04T07:32:47.002Z</time></trkpt><trkpt lat="43.242453082713894" lon="12.963938920488072"><ele>425.0</ele><time>2026-04-04T07:32:48.002Z</time></trkpt><trkpt lat="43.24239006474884" lon="12.963886707828227"><ele>425.0</ele><time>2026-04-04T07:32:49.002Z</time></trkpt><trkpt lat="43.242335149762674" lon="12.963842935231373"><ele>424.99999999999994</ele><time>2026-04-04T07:32:50.002Z</time></trkpt><trkpt lat="43.24220920829429" lon="12.963844762988417"><ele>425.0</ele><time>2026-04-04T07:32:52.002Z</time></trkpt><trkpt lat="43.24214476916895" lon="12.963850124194956"><ele>425.5</ele><time>2026-04-04T07:32:54.002Z</time></trkpt><trkpt lat="43.24221260222983" lon="12.964154411467112"><ele>426.0</ele><time>2026-04-04T07:32:57.003Z</time></trkpt><trkpt lat="43.24219235843585" lon="12.964262925726375"><ele>426.5</ele><time>2026-04-04T07:32:58.003Z</time></trkpt><trkpt lat="43.24216331670134" lon="12.964360822257238"><ele>427.0</ele><time>2026-04-04T07:32:59.003Z</time></trkpt><trkpt lat="43.2421287538024" lon="12.964470266376827"><ele>427.00000000000006</ele><time>2026-04-04T07:33:00.003Z</time></trkpt><trkpt lat="43.24209367642869" lon="12.964575295224744"><ele>427.0</ele><time>2026-04-04T07:33:01.003Z</time></trkpt><trkpt lat="43.242046575431715" lon="12.96468256449262"><ele>427.0</ele><time>2026-04-04T07:33:02.003Z</time></trkpt><trkpt lat="43.24199352688808" lon="12.964777203102582"><ele>427.0</ele><time>2026-04-04T07:33:03.003Z</time></trkpt><trkpt lat="43.24193906070725" lon="12.964862152607783"><ele>427.00000000000006</ele><time>2026-04-04T07:33:04.003Z</time></trkpt><trkpt lat="43.24188367334608" lon="12.964933727801634"><ele>427.0</ele><time>2026-04-04T07:33:05.003Z</time></trkpt><trkpt lat="43.24180388784183" lon="12.965019006034273"><ele>429.75</ele><time>2026-04-04T07:33:06.003Z</time></trkpt><trkpt lat="43.24173032027135" lon="12.96513222917808"><ele>432.5</ele><time>2026-04-04T07:33:07.003Z</time></trkpt><trkpt lat="43.241654139139584" lon="12.965269920361454"><ele>435.25</ele><time>2026-04-04T07:33:08.003Z</time></trkpt><trkpt lat="43.24157981516331" lon="12.965376810127587"><ele>438.0</ele><time>2026-04-04T07:33:09.003Z</time></trkpt><trkpt lat="43.241488321378725" lon="12.965478980983544"><ele>438.2</ele><time>2026-04-04T07:33:10.003Z</time></trkpt><trkpt lat="43.24138831677916" lon="12.965583708251394"><ele>438.4</ele><time>2026-04-04T07:33:11.003Z</time></trkpt><trkpt lat="43.24133578101668" lon="12.965695502610775"><ele>438.59999999999997</ele><time>2026-04-04T07:33:12.003Z</time></trkpt><trkpt lat="43.24128235038394" lon="12.965776682801966"><ele>438.79999999999995</ele><time>2026-04-04T07:33:13.003Z</time></trkpt><trkpt lat="43.241193027781186" lon="12.965808711721337"><ele>439.0</ele><time>2026-04-04T07:33:14.003Z</time></trkpt><trkpt lat="43.241127667651696" lon="12.965944452574949"><ele>440.6666666666667</ele><time>2026-04-04T07:33:15.003Z</time></trkpt><trkpt lat="43.24115479834836" lon="12.966046337567873"><ele>442.33333333333337</ele><time>2026-04-04T07:33:16.003Z</time></trkpt><trkpt lat="43.241220910073146" lon="12.966064898116956"><ele>444.0</ele><time>2026-04-04T07:33:17.003Z</time></trkpt><trkpt lat="43.24130296387902" lon="12.966073294446042"><ele>445.66666666666663</ele><time>2026-04-04T07:33:18.003Z</time></trkpt><trkpt lat="43.24139533354322" lon="12.96606419565329"><ele>447.3333333333333</ele><time>2026-04-04T07:33:19.003Z</time></trkpt><trkpt lat="43.24147580945287" lon="12.96606598703623"><ele>449.0</ele><time>2026-04-04T07:33:20.003Z</time></trkpt><trkpt lat="43.24154532981687" lon="12.966072789858082"><ele>449.0</ele><time>2026-04-04T07:33:21.003Z</time></trkpt><trkpt lat="43.24161299258611" lon="12.966101268562243"><ele>449.0</ele><time>2026-04-04T07:33:22.003Z</time></trkpt><trkpt lat="43.2416192191595" lon="12.96634030646814"><ele>449.0</ele><time>2026-04-04T07:33:27.003Z</time></trkpt><trkpt lat="43.24157416250283" lon="12.966432970957849"><ele>449.0</ele><time>2026-04-04T07:33:28.003Z</time></trkpt><trkpt lat="43.241543637580364" lon="12.966514059651285"><ele>449.0</ele><time>2026-04-04T07:33:29.003Z</time></trkpt><trkpt lat="43.241450820081525" lon="12.966661152636709"><ele>450.6</ele><time>2026-04-04T07:33:31.003Z</time></trkpt><trkpt lat="43.24135310056066" lon="12.966819655376433"><ele>452.2</ele><time>2026-04-04T07:33:32.003Z</time></trkpt><trkpt lat="43.24130550324148" lon="12.966944409385075"><ele>453.80000000000007</ele><time>2026-04-04T07:33:33.003Z</time></trkpt><trkpt lat="43.241251565750346" lon="12.967047367744668"><ele>455.40000000000003</ele><time>2026-04-04T07:33:34.003Z</time></trkpt><trkpt lat="43.241196195590014" lon="12.967156969941005"><ele>457.0</ele><time>2026-04-04T07:33:35.003Z</time></trkpt><trkpt lat="43.24114930429074" lon="12.967255440141075"><ele>457.00000000000006</ele><time>2026-04-04T07:33:36.003Z</time></trkpt><trkpt lat="43.2410965151276" lon="12.967352221800637"><ele>457.0</ele><time>2026-04-04T07:33:37.003Z</time></trkpt><trkpt lat="43.241036932363585" lon="12.967444299292968"><ele>457.0</ele><time>2026-04-04T07:33:38.004Z</time></trkpt><trkpt lat="43.24096200261338" lon="12.967513936308697"><ele>457.0</ele><time>2026-04-04T07:33:39.004Z</time></trkpt><trkpt lat="43.24087822912379" lon="12.96756529259379"><ele>457.00000000000006</ele><time>2026-04-04T07:33:40.004Z</time></trkpt><trkpt lat="43.240797968791476" lon="12.967609681931012"><ele>457.0</ele><time>2026-04-04T07:33:41.004Z</time></trkpt><trkpt lat="43.24071536052744" lon="12.967659999521125"><ele>458.1666666666667</ele><time>2026-04-04T07:33:42.004Z</time></trkpt><trkpt lat="43.24062184222664" lon="12.967688576272508"><ele>459.33333333333337</ele><time>2026-04-04T07:33:43.004Z</time></trkpt><trkpt lat="43.24052482463316" lon="12.967733607104826"><ele>460.5</ele><time>2026-04-04T07:33:44.004Z</time></trkpt><trkpt lat="43.24043994737998" lon="12.967781122954825"><ele>461.66666666666663</ele><time>2026-04-04T07:33:45.004Z</time></trkpt><trkpt lat="43.24036785821069" lon="12.967814382761073"><ele>462.8333333333333</ele><time>2026-04-04T07:33:46.004Z</time></trkpt><trkpt lat="43.240303055379854" lon="12.967867909675054"><ele>464.0</ele><time>2026-04-04T07:33:47.004Z</time></trkpt><trkpt lat="43.240235272604686" lon="12.96794631638863"><ele>464.0</ele><time>2026-04-04T07:33:48.004Z</time></trkpt><trkpt lat="43.240157315940934" lon="12.96799396779576"><ele>464.0</ele><time>2026-04-04T07:33:49.004Z</time></trkpt><trkpt lat="43.24009148205467" lon="12.968049455595871"><ele>464.0</ele><time>2026-04-04T07:33:50.004Z</time></trkpt><trkpt lat="43.23999380421083" lon="12.968120007722124"><ele>464.0</ele><time>2026-04-04T07:33:52.004Z</time></trkpt><trkpt lat="43.239883892253076" lon="12.96811689830216"><ele>464.0</ele><time>2026-04-04T07:33:54.004Z</time></trkpt><trkpt lat="43.23981865886109" lon="12.968091834489128"><ele>463.3333333333333</ele><time>2026-04-04T07:33:55.004Z</time></trkpt><trkpt lat="43.23975479632202" lon="12.968059315147062"><ele>462.66666666666663</ele><time>2026-04-04T07:33:56.004Z</time></trkpt><trkpt lat="43.2396895585383" lon="12.968012454838725"><ele>462.0</ele><time>2026-04-04T07:33:57.004Z</time></trkpt><trkpt lat="43.239620692892295" lon="12.967973146920489"><ele>461.33333333333337</ele><time>2026-04-04T07:33:58.004Z</time></trkpt><trkpt lat="43.23954242547237" lon="12.96792658403357"><ele>460.6666666666667</ele><time>2026-04-04T07:33:59.004Z</time></trkpt><trkpt lat="43.23946097328754" lon="12.967874347589053"><ele>460.0</ele><time>2026-04-04T07:34:00.004Z</time></trkpt><trkpt lat="43.23938521509463" lon="12.96781653472201"><ele>460.0</ele><time>2026-04-04T07:34:01.004Z</time></trkpt><trkpt lat="43.23931926938018" lon="12.967736617118884"><ele>460.0</ele><time>2026-04-04T07:34:02.004Z</time></trkpt><trkpt lat="43.23924922585985" lon="12.967655216055944"><ele>460.0</ele><time>2026-04-04T07:34:03.004Z</time></trkpt><trkpt lat="43.239177028654204" lon="12.967572570011436"><ele>460.0</ele><time>2026-04-04T07:34:04.004Z</time></trkpt><trkpt lat="43.239110171486566" lon="12.967481867388155"><ele>460.0</ele><time>2026-04-04T07:34:05.004Z</time></trkpt><trkpt lat="43.23905548112516" lon="12.967387704337934"><ele>461.4</ele><time>2026-04-04T07:34:06.004Z</time></trkpt><trkpt lat="43.2390090176143" lon="12.967293673037934"><ele>462.8</ele><time>2026-04-04T07:34:07.004Z</time></trkpt><trkpt lat="43.23894642681495" lon="12.967181863024267"><ele>464.20000000000005</ele><time>2026-04-04T07:34:08.004Z</time></trkpt><trkpt lat="43.23887502938426" lon="12.967073432962616"><ele>465.6</ele><time>2026-04-04T07:34:09.004Z</time></trkpt><trkpt lat="43.23880280607767" lon="12.966961346819618"><ele>467.0</ele><time>2026-04-04T07:34:10.004Z</time></trkpt><trkpt lat="43.23872704041701" lon="12.966854981744497"><ele>467.0</ele><time>2026-04-04T07:34:11.004Z</time></trkpt><trkpt lat="43.23864824393756" lon="12.966756683523142"><ele>467.00000000000006</ele><time>2026-04-04T07:34:12.004Z</time></trkpt><trkpt lat="43.23856525163845" lon="12.966657088574085"><ele>467.00000000000006</ele><time>2026-04-04T07:34:13.004Z</time></trkpt><trkpt lat="43.23846818194575" lon="12.966591029353314"><ele>467.0</ele><time>2026-04-04T07:34:14.004Z</time></trkpt><trkpt lat="43.23836762181031" lon="12.966518949843643"><ele>467.0</ele><time>2026-04-04T07:34:15.004Z</time></trkpt><trkpt lat="43.238255881892876" lon="12.966475030224343"><ele>470.75</ele><time>2026-04-04T07:34:16.004Z</time></trkpt><trkpt lat="43.23813238383933" lon="12.966449640928483"><ele>474.5</ele><time>2026-04-04T07:34:17.004Z</time></trkpt><trkpt lat="43.238013544284826" lon="12.96643031944108"><ele>478.25</ele><time>2026-04-04T07:34:18.004Z</time></trkpt><trkpt lat="43.237894090176255" lon="12.966414607562305"><ele>482.0</ele><time>2026-04-04T07:34:19.004Z</time></trkpt><trkpt lat="43.23777868720868" lon="12.966399957333904"><ele>482.0</ele><time>2026-04-04T07:34:20.004Z</time></trkpt><trkpt lat="43.23766484271245" lon="12.966371051540175"><ele>482.00000000000006</ele><time>2026-04-04T07:34:21.004Z</time></trkpt><trkpt lat="43.23756161841902" lon="12.966336332864278"><ele>482.00000000000006</ele><time>2026-04-04T07:34:22.005Z</time></trkpt><trkpt lat="43.23748297685148" lon="12.966316348141882"><ele>482.0</ele><time>2026-04-04T07:34:23.005Z</time></trkpt><trkpt lat="43.23742230636165" lon="12.966287584259806"><ele>482.0</ele><time>2026-04-04T07:34:24.005Z</time></trkpt><trkpt lat="43.237334710235835" lon="12.966177646411362"><ele>482.66666666666663</ele><time>2026-04-04T07:34:26.005Z</time></trkpt><trkpt lat="43.23728682748764" lon="12.966097241780421"><ele>483.3333333333333</ele><time>2026-04-04T07:34:27.005Z</time></trkpt><trkpt lat="43.23723249006521" lon="12.966016858643323"><ele>484.0</ele><time>2026-04-04T07:34:28.005Z</time></trkpt><trkpt lat="43.23717286662179" lon="12.965932242641836"><ele>484.66666666666663</ele><time>2026-04-04T07:34:29.005Z</time></trkpt><trkpt lat="43.23711002565228" lon="12.965850579794312"><ele>485.3333333333333</ele><time>2026-04-04T07:34:30.005Z</time></trkpt><trkpt lat="43.237046973890955" lon="12.96576804206348"><ele>486.0</ele><time>2026-04-04T07:34:31.005Z</time></trkpt><trkpt lat="43.23699569776948" lon="12.965671412905108"><ele>486.0</ele><time>2026-04-04T07:34:32.005Z</time></trkpt><trkpt lat="43.236940715337745" lon="12.965576702003563"><ele>486.0</ele><time>2026-04-04T07:34:33.005Z</time></trkpt><trkpt lat="43.23688873926219" lon="12.96547720426783"><ele>486.0</ele><time>2026-04-04T07:34:34.005Z</time></trkpt><trkpt lat="43.23684138039963" lon="12.965370702542032"><ele>486.0</ele><time>2026-04-04T07:34:35.005Z</time></trkpt><trkpt lat="43.236792179114204" lon="12.965253411404698"><ele>486.0</ele><time>2026-04-04T07:34:36.005Z</time></trkpt><trkpt lat="43.236736182303396" lon="12.965126915061097"><ele>487.75</ele><time>2026-04-04T07:34:37.005Z</time></trkpt><trkpt lat="43.236678250669996" lon="12.964991753058817"><ele>489.5</ele><time>2026-04-04T07:34:38.005Z</time></trkpt><trkpt lat="43.23662322935205" lon="12.964853154879572"><ele>491.25</ele><time>2026-04-04T07:34:39.005Z</time></trkpt><trkpt lat="43.2365674363519" lon="12.964718450046695"><ele>493.0</ele><time>2026-04-04T07:34:40.005Z</time></trkpt><trkpt lat="43.236515187759615" lon="12.964584011425437"><ele>494.5</ele><time>2026-04-04T07:34:41.005Z</time></trkpt><trkpt lat="43.23645551114816" lon="12.964448874868266"><ele>496.0</ele><time>2026-04-04T07:34:42.005Z</time></trkpt><trkpt lat="43.23639281111668" lon="12.964308357298242"><ele>497.5</ele><time>2026-04-04T07:34:43.005Z</time></trkpt><trkpt lat="43.23633966775873" lon="12.96417084895222"><ele>499.0</ele><time>2026-04-04T07:34:44.005Z</time></trkpt><trkpt lat="43.23627806293366" lon="12.964053860418245"><ele>501.33333333333337</ele><time>2026-04-04T07:34:45.005Z</time></trkpt><trkpt lat="43.236223459248095" lon="12.963948834031834"><ele>503.6666666666667</ele><time>2026-04-04T07:34:46.005Z</time></trkpt><trkpt lat="43.23617247544756" lon="12.963869198275031"><ele>506.0</ele><time>2026-04-04T07:34:47.005Z</time></trkpt><trkpt lat="43.23612730961329" lon="12.963803945835863"><ele>508.33333333333337</ele><time>2026-04-04T07:34:48.005Z</time></trkpt><trkpt lat="43.23602697385211" lon="12.963738915364942"><ele>510.6666666666667</ele><time>2026-04-04T07:34:50.005Z</time></trkpt><trkpt lat="43.23597793551982" lon="12.96368171159985"><ele>513.0</ele><time>2026-04-04T07:34:51.005Z</time></trkpt><trkpt lat="43.23589199841428" lon="12.963689578290483"><ele>513.0</ele><time>2026-04-04T07:34:53.005Z</time></trkpt><trkpt lat="43.235813671611105" lon="12.963700051690763"><ele>513.0</ele><time>2026-04-04T07:34:55.005Z</time></trkpt><trkpt lat="43.235727477982984" lon="12.963705547901293"><ele>513.0</ele><time>2026-04-04T07:34:58.005Z</time></trkpt><trkpt lat="43.2356560455069" lon="12.963658497322317"><ele>513.0</ele><time>2026-04-04T07:35:00.005Z</time></trkpt><trkpt lat="43.235577321573025" lon="12.96364039441342"><ele>513.0</ele><time>2026-04-04T07:35:02.005Z</time></trkpt><trkpt lat="43.23550143222534" lon="12.963610359482782"><ele>513.0</ele><time>2026-04-04T07:35:04.005Z</time></trkpt><trkpt lat="43.23542392196487" lon="12.963560780072678"><ele>514.4</ele><time>2026-04-04T07:35:06.006Z</time></trkpt><trkpt lat="43.235301249663365" lon="12.963661537952754"><ele>515.8</ele><time>2026-04-04T07:35:09.006Z</time></trkpt><trkpt lat="43.235234144387356" lon="12.963737669658354"><ele>517.2</ele><time>2026-04-04T07:35:11.006Z</time></trkpt><trkpt lat="43.23516350254023" lon="12.963711406455214"><ele>518.6</ele><time>2026-04-04T07:35:12.006Z</time></trkpt><trkpt lat="43.23509642842009" lon="12.963717102204448"><ele>520.0</ele><time>2026-04-04T07:35:14.006Z</time></trkpt><trkpt lat="43.23499837639194" lon="12.96368274767818"><ele>520.0</ele><time>2026-04-04T07:35:17.006Z</time></trkpt><trkpt lat="43.2348816830325" lon="12.96367440080961"><ele>520.0</ele><time>2026-04-04T07:35:19.006Z</time></trkpt><trkpt lat="43.23480931176016" lon="12.963673928264111"><ele>520.0</ele><time>2026-04-04T07:35:20.006Z</time></trkpt><trkpt lat="43.23473315163733" lon="12.963667875567065"><ele>520.0</ele><time>2026-04-04T07:35:21.006Z</time></trkpt><trkpt lat="43.23465801344774" lon="12.96365740466424"><ele>520.0</ele><time>2026-04-04T07:35:22.006Z</time></trkpt><trkpt lat="43.23459321691629" lon="12.96364531290999"><ele>520.0</ele><time>2026-04-04T07:35:23.006Z</time></trkpt><trkpt lat="43.234528474439564" lon="12.96362123494618"><ele>519.5</ele><time>2026-04-04T07:35:24.006Z</time></trkpt><trkpt lat="43.23446890212641" lon="12.963578808195702"><ele>519.0</ele><time>2026-04-04T07:35:25.006Z</time></trkpt><trkpt lat="43.234416384030276" lon="12.96350485333603"><ele>518.5</ele><time>2026-04-04T07:35:26.006Z</time></trkpt><trkpt lat="43.23437691031442" lon="12.963398386638051"><ele>518.0</ele><time>2026-04-04T07:35:27.006Z</time></trkpt><trkpt lat="43.234334124975554" lon="12.963291161749305"><ele>517.5</ele><time>2026-04-04T07:35:28.006Z</time></trkpt><trkpt lat="43.23429040294472" lon="12.963171233371055"><ele>517.0</ele><time>2026-04-04T07:35:29.006Z</time></trkpt><trkpt lat="43.23424988742164" lon="12.963049075937873"><ele>519.6</ele><time>2026-04-04T07:35:30.006Z</time></trkpt><trkpt lat="43.23420482641078" lon="12.962925289124877"><ele>522.2</ele><time>2026-04-04T07:35:31.006Z</time></trkpt><trkpt lat="43.23416298999282" lon="12.962805679611607"><ele>524.8</ele><time>2026-04-04T07:35:32.006Z</time></trkpt><trkpt lat="43.23412191261711" lon="12.962664921998945"><ele>527.4</ele><time>2026-04-04T07:35:33.006Z</time></trkpt><trkpt lat="43.2340762790067" lon="12.962526677961456"><ele>530.0</ele><time>2026-04-04T07:35:34.006Z</time></trkpt><trkpt lat="43.23401054049924" lon="12.962418221570365"><ele>532.0</ele><time>2026-04-04T07:35:35.006Z</time></trkpt><trkpt lat="43.23394995293254" lon="12.96230597044781"><ele>534.0</ele><time>2026-04-04T07:35:36.006Z</time></trkpt><trkpt lat="43.23389645222073" lon="12.962197919186545"><ele>536.0</ele><time>2026-04-04T07:35:37.006Z</time></trkpt><trkpt lat="43.23384935927202" lon="12.96211040162721"><ele>538.0</ele><time>2026-04-04T07:35:38.006Z</time></trkpt><trkpt lat="43.233813962762596" lon="12.962032785838524"><ele>540.0</ele><time>2026-04-04T07:35:39.006Z</time></trkpt><trkpt lat="43.23374907067952" lon="12.961919438107705"><ele>542.0</ele><time>2026-04-04T07:35:41.006Z</time></trkpt><trkpt lat="43.23368648223576" lon="12.961839044937138"><ele>542.0</ele><time>2026-04-04T07:35:43.006Z</time></trkpt><trkpt lat="43.23361182210041" lon="12.961771405466392"><ele>542.0</ele><time>2026-04-04T07:35:45.006Z</time></trkpt><trkpt lat="43.233507182130644" lon="12.961715980158782"><ele>542.0</ele><time>2026-04-04T07:35:47.006Z</time></trkpt><trkpt lat="43.23341100733213" lon="12.96163861518336"><ele>542.0</ele><time>2026-04-04T07:35:49.007Z</time></trkpt><trkpt lat="43.23330369982146" lon="12.96158081857881"><ele>542.0</ele><time>2026-04-04T07:35:51.007Z</time></trkpt><trkpt lat="43.23317126891326" lon="12.961611563976733"><ele>546.3333333333333</ele><time>2026-04-04T07:35:53.007Z</time></trkpt><trkpt lat="43.233100058125245" lon="12.961631863961365"><ele>550.6666666666666</ele><time>2026-04-04T07:35:54.007Z</time></trkpt><trkpt lat="43.23303776673529" lon="12.961650562496295"><ele>555.0</ele><time>2026-04-04T07:35:55.007Z</time></trkpt><trkpt lat="43.23297600379547" lon="12.961673526407631"><ele>559.3333333333334</ele><time>2026-04-04T07:35:56.007Z</time></trkpt><trkpt lat="43.232914588110894" lon="12.961705921576042"><ele>563.6666666666667</ele><time>2026-04-04T07:35:57.007Z</time></trkpt><trkpt lat="43.232796401276005" lon="12.961714364493446"><ele>568.0</ele><time>2026-04-04T07:36:03.007Z</time></trkpt><trkpt lat="43.23264421811454" lon="12.961605005281253"><ele>512.0</ele><time>2026-04-04T07:36:07.007Z</time></trkpt><trkpt lat="43.23256824033289" lon="12.965886408636123"><ele>514.2</ele><time>2026-04-04T07:36:54.008Z</time></trkpt><trkpt lat="43.23246625038547" lon="12.965814986833207"><ele>516.4000000000001</ele><time>2026-04-04T07:36:55.008Z</time></trkpt><trkpt lat="43.23235506406495" lon="12.965728012286442"><ele>518.5999999999999</ele><time>2026-04-04T07:36:57.008Z</time></trkpt><trkpt lat="43.232278264023996" lon="12.965695049008934"><ele>520.8</ele><time>2026-04-04T07:36:59.008Z</time></trkpt><trkpt lat="43.23218902108286" lon="12.965719907774456"><ele>523.0</ele><time>2026-04-04T07:37:01.008Z</time></trkpt><trkpt lat="43.232101114675594" lon="12.965709426277007"><ele>528.3333333333334</ele><time>2026-04-04T07:37:03.008Z</time></trkpt><trkpt lat="43.232018416326405" lon="12.965720766195801"><ele>533.6666666666666</ele><time>2026-04-04T07:37:08.008Z</time></trkpt><trkpt lat="43.23195047602414" lon="12.965710856954399"><ele>539.0</ele><time>2026-04-04T07:37:10.008Z</time></trkpt><trkpt lat="43.228677373033726" lon="12.965873077807954"><ele>547.5</ele><time>2026-04-04T07:37:47.009Z</time></trkpt><trkpt lat="43.22860835163323" lon="12.965904325076314"><ele>556.0</ele><time>2026-04-04T07:37:48.009Z</time></trkpt><trkpt lat="43.22843618357868" lon="12.9658688682446"><ele>564.5</ele><time>2026-04-04T07:37:49.009Z</time></trkpt><trkpt lat="43.228273649580764" lon="12.96583876176648"><ele>573.0</ele><time>2026-04-04T07:37:50.009Z</time></trkpt><trkpt lat="43.22818709694213" lon="12.965845539922539"><ele>704.0</ele><time>2026-04-04T07:37:51.009Z</time></trkpt><trkpt lat="43.224741754272415" lon="12.964623916659257"><ele>704.0</ele><time>2026-04-04T07:38:34.002Z</time></trkpt><trkpt lat="43.224696771255715" lon="12.96454050577385"><ele>704.0</ele><time>2026-04-04T07:38:38.002Z</time></trkpt><trkpt lat="43.22462747749085" lon="12.964508631604437"><ele>704.0</ele><time>2026-04-04T07:38:42.002Z</time></trkpt><trkpt lat="43.2245456870832" lon="12.964549330863436"><ele>704.0</ele><time>2026-04-04T07:38:44.002Z</time></trkpt><trkpt lat="43.22443176208394" lon="12.96455816890619"><ele>704.0</ele><time>2026-04-04T07:38:46.002Z</time></trkpt><trkpt lat="43.22434974001366" lon="12.96462706133812"><ele>704.0</ele><time>2026-04-04T07:38:47.002Z</time></trkpt><trkpt lat="43.224290112237924" lon="12.964596347677084"><ele>704.0</ele><time>2026-04-04T07:38:49.002Z</time></trkpt><trkpt lat="43.224247267608895" lon="12.964532663256922"><ele>704.0</ele><time>2026-04-04T07:38:51.002Z</time></trkpt><trkpt lat="43.22418337795541" lon="12.964508216231541"><ele>704.0</ele><time>2026-04-04T07:38:55.002Z</time></trkpt><trkpt lat="43.22433356375524" lon="12.964828186110685"><ele>704.0</ele><time>2026-04-04T07:39:17.002Z</time></trkpt><trkpt lat="43.22424398505574" lon="12.964814110779013"><ele>704.0</ele><time>2026-04-04T07:39:21.002Z</time></trkpt><trkpt lat="43.22415364309832" lon="12.964834978586047"><ele>704.0</ele><time>2026-04-04T07:39:23.002Z</time></trkpt><trkpt lat="43.2240629106185" lon="12.964835510407818"><ele>704.0</ele><time>2026-04-04T07:39:25.002Z</time></trkpt><trkpt lat="43.22400786520857" lon="12.96479148041819"><ele>704.0</ele><time>2026-04-04T07:39:27.002Z</time></trkpt><trkpt lat="43.22392838027247" lon="12.964783448531406"><ele>704.0</ele><time>2026-04-04T07:39:30.002Z</time></trkpt><trkpt lat="43.22384601870395" lon="12.964769541642859"><ele>704.0</ele><time>2026-04-04T07:39:33.002Z</time></trkpt><trkpt lat="43.22375826355487" lon="12.96475580976679"><ele>707.5</ele><time>2026-04-04T07:39:38.002Z</time></trkpt><trkpt lat="43.22367179294519" lon="12.964749031667079"><ele>711.0</ele><time>2026-04-04T07:39:41.002Z</time></trkpt><trkpt lat="43.22359112047999" lon="12.964767448265832"><ele>714.5</ele><time>2026-04-04T07:39:43.002Z</time></trkpt><trkpt lat="43.22350231676101" lon="12.96473327337856"><ele>718.0</ele><time>2026-04-04T07:39:45.002Z</time></trkpt><trkpt lat="43.223434945383836" lon="12.964712779970782"><ele>721.5</ele><time>2026-04-04T07:39:47.002Z</time></trkpt><trkpt lat="43.22337096298238" lon="12.964721979630932"><ele>725.0</ele><time>2026-04-04T07:39:49.002Z</time></trkpt><trkpt lat="43.22329546845579" lon="12.964679047234734"><ele>725.0</ele><time>2026-04-04T07:39:51.002Z</time></trkpt><trkpt lat="43.223216915028445" lon="12.964600216892126"><ele>725.0</ele><time>2026-04-04T07:39:53.002Z</time></trkpt><trkpt lat="43.22317549262244" lon="12.964482542447545"><ele>725.0</ele><time>2026-04-04T07:39:55.002Z</time></trkpt><trkpt lat="43.22313789706394" lon="12.964368162030796"><ele>725.0</ele><time>2026-04-04T07:39:57.002Z</time></trkpt><trkpt lat="43.22310126705092" lon="12.964253466835439"><ele>725.0</ele><time>2026-04-04T07:39:59.002Z</time></trkpt><trkpt lat="43.22305327365644" lon="12.964193753790964"><ele>725.0</ele><time>2026-04-04T07:40:03.002Z</time></trkpt><trkpt lat="43.223030583004586" lon="12.964093057107181"><ele>733.3333333333333</ele><time>2026-04-04T07:40:06.002Z</time></trkpt><trkpt lat="43.22294132151348" lon="12.964102637925116"><ele>741.6666666666666</ele><time>2026-04-04T07:40:10.002Z</time></trkpt><trkpt lat="43.22289230904233" lon="12.964019154706037"><ele>750.0</ele><time>2026-04-04T07:40:14.002Z</time></trkpt><trkpt lat="43.22280093961603" lon="12.964095902782457"><ele>758.3333333333333</ele><time>2026-04-04T07:40:15.002Z</time></trkpt><trkpt lat="43.22279034627388" lon="12.964006764894563"><ele>766.6666666666666</ele><time>2026-04-04T07:40:19.002Z</time></trkpt><trkpt lat="43.22270346716043" lon="12.96396514771474"><ele>775.0</ele><time>2026-04-04T07:40:20.002Z</time></trkpt><trkpt lat="43.22261988710893" lon="12.963951953050977"><ele>775.0</ele><time>2026-04-04T07:40:25.002Z</time></trkpt><trkpt lat="43.22255206755833" lon="12.963974352603824"><ele>775.0</ele><time>2026-04-04T07:40:27.002Z</time></trkpt><trkpt lat="43.222515520403576" lon="12.964058007104386"><ele>775.0</ele><time>2026-04-04T07:40:30.002Z</time></trkpt><trkpt lat="43.22246437316129" lon="12.964111792376679"><ele>775.0</ele><time>2026-04-04T07:40:32.002Z</time></trkpt><trkpt lat="43.222328376035456" lon="12.964224348426178"><ele>775.0</ele><time>2026-04-04T07:40:35.002Z</time></trkpt><trkpt lat="43.222200578367975" lon="12.96428979277854"><ele>774.4999999999999</ele><time>2026-04-04T07:40:36.002Z</time></trkpt><trkpt lat="43.22209524637398" lon="12.964343485617773"><ele>774.0</ele><time>2026-04-04T07:40:37.002Z</time></trkpt><trkpt lat="43.22203489377043" lon="12.964441085188225"><ele>773.5</ele><time>2026-04-04T07:40:39.002Z</time></trkpt><trkpt lat="43.221992203072524" lon="12.964532127967988"><ele>773.0</ele><time>2026-04-04T07:40:41.002Z</time></trkpt><trkpt lat="43.221928967490925" lon="12.964550621153027"><ele>772.4999999999999</ele><time>2026-04-04T07:40:44.002Z</time></trkpt><trkpt lat="43.22186168695698" lon="12.964563019429123"><ele>772.0</ele><time>2026-04-04T07:40:47.003Z</time></trkpt><trkpt lat="43.22179287144711" lon="12.964631162301291"><ele>771.9999999999999</ele><time>2026-04-04T07:40:51.003Z</time></trkpt><trkpt lat="43.22165796764434" lon="12.964645468629657"><ele>772.0</ele><time>2026-04-04T07:40:59.003Z</time></trkpt><trkpt lat="43.221584580686795" lon="12.964616277264621"><ele>772.0</ele><time>2026-04-04T07:41:01.003Z</time></trkpt><trkpt lat="43.221507832482146" lon="12.964552476057753"><ele>772.0</ele><time>2026-04-04T07:41:04.003Z</time></trkpt><trkpt lat="43.22145394258937" lon="12.964479934184386"><ele>771.9999999999999</ele><time>2026-04-04T07:41:06.003Z</time></trkpt><trkpt lat="43.221401842377745" lon="12.964421735001906"><ele>772.0</ele><time>2026-04-04T07:41:08.003Z</time></trkpt><trkpt lat="43.22134385503057" lon="12.964351303782106"><ele>774.9999999999999</ele><time>2026-04-04T07:41:10.003Z</time></trkpt><trkpt lat="43.22126932502849" lon="12.964290294238424"><ele>778.0</ele><time>2026-04-04T07:41:11.003Z</time></trkpt><trkpt lat="43.22118017042535" lon="12.964211702026022"><ele>781.0</ele><time>2026-04-04T07:41:13.003Z</time></trkpt><trkpt lat="43.22111168203817" lon="12.964196672983915"><ele>784.0</ele><time>2026-04-04T07:41:14.003Z</time></trkpt><trkpt lat="43.22103158860021" lon="12.964213717602533"><ele>786.9999999999999</ele><time>2026-04-04T07:41:15.003Z</time></trkpt><trkpt lat="43.220929582013206" lon="12.96422025517058"><ele>790.0</ele><time>2026-04-04T07:41:17.003Z</time></trkpt><trkpt lat="43.22085848988356" lon="12.964189059785243"><ele>801.0</ele><time>2026-04-04T07:41:21.003Z</time></trkpt><trkpt lat="43.2205658899337" lon="12.96426337588362"><ele>812.0</ele><time>2026-04-04T07:41:22.003Z</time></trkpt><trkpt lat="43.2203561174424" lon="12.964269309638183"><ele>812.0000000000001</ele><time>2026-04-04T07:41:23.003Z</time></trkpt><trkpt lat="43.2202481216129" lon="12.964253657496695"><ele>812.0</ele><time>2026-04-04T07:41:26.003Z</time></trkpt><trkpt lat="43.22013307648091" lon="12.964262795367524"><ele>812.0</ele><time>2026-04-04T07:41:28.003Z</time></trkpt><trkpt lat="43.220061503399" lon="12.964285481216708"><ele>812.0</ele><time>2026-04-04T07:41:29.003Z</time></trkpt><trkpt lat="43.21999126577519" lon="12.964332856379134"><ele>812.0000000000001</ele><time>2026-04-04T07:41:30.003Z</time></trkpt><trkpt lat="43.21993725115586" lon="12.96439190799774"><ele>812.0</ele><time>2026-04-04T07:41:31.003Z</time></trkpt><trkpt lat="43.219977482736056" lon="12.964460617614304"><ele>805.5</ele><time>2026-04-04T07:41:56.003Z</time></trkpt><trkpt lat="43.21978898059232" lon="12.964860579710342"><ele>799.0</ele><time>2026-04-04T07:42:12.003Z</time></trkpt><trkpt lat="43.21956351391862" lon="12.965034805528408"><ele>799.0</ele><time>2026-04-04T07:42:25.003Z</time></trkpt><trkpt lat="43.21942725642038" lon="12.965178546507671"><ele>799.0</ele><time>2026-04-04T07:42:26.003Z</time></trkpt><trkpt lat="43.21928032462188" lon="12.965040175142136"><ele>799.0</ele><time>2026-04-04T07:43:05.004Z</time></trkpt><trkpt lat="43.21923361132986" lon="12.964964491296621"><ele>799.0</ele><time>2026-04-04T07:43:08.004Z</time></trkpt><trkpt lat="43.21915971641247" lon="12.964962970510566"><ele>798.9999999999999</ele><time>2026-04-04T07:43:11.004Z</time></trkpt><trkpt lat="43.2190795690013" lon="12.964951020592217"><ele>799.0</ele><time>2026-04-04T07:43:19.004Z</time></trkpt><trkpt lat="43.219033993367034" lon="12.965021717459075"><ele>799.0</ele><time>2026-04-04T07:43:24.004Z</time></trkpt><trkpt lat="43.21899527974729" lon="12.96510366958231"><ele>799.0</ele><time>2026-04-04T07:43:30.004Z</time></trkpt><trkpt lat="43.21892938139804" lon="12.965145529665746"><ele>798.9999999999999</ele><time>2026-04-04T07:43:40.004Z</time></trkpt><trkpt lat="43.21890084861039" lon="12.965231806186871"><ele>799.0</ele><time>2026-04-04T07:43:50.003Z</time></trkpt><trkpt lat="43.21881229088831" lon="12.965243453049203"><ele>800.4285714285714</ele><time>2026-04-04T07:43:53.003Z</time></trkpt><trkpt lat="43.21874792097043" lon="12.965225946617378"><ele>801.8571428571428</ele><time>2026-04-04T07:43:58.003Z</time></trkpt><trkpt lat="43.218689699503976" lon="12.965277374114839"><ele>803.2857142857142</ele><time>2026-04-04T07:44:01.003Z</time></trkpt><trkpt lat="43.218642289470374" lon="12.965335604767128"><ele>804.7142857142858</ele><time>2026-04-04T07:44:04.003Z</time></trkpt><trkpt lat="43.21862465534197" lon="12.965424286685"><ele>806.1428571428571</ele><time>2026-04-04T07:44:20.003Z</time></trkpt><trkpt lat="43.2186593595383" lon="12.965503543365417"><ele>807.5714285714286</ele><time>2026-04-04T07:44:25.003Z</time></trkpt><trkpt lat="43.21864907004097" lon="12.965595056902675"><ele>809.0</ele><time>2026-04-04T07:44:31.003Z</time></trkpt><trkpt lat="43.21857741288073" lon="12.965619464570285"><ele>809.0000000000001</ele><time>2026-04-04T07:44:36.003Z</time></trkpt><trkpt lat="43.218497460273" lon="12.965666869051583"><ele>809.0</ele><time>2026-04-04T07:44:40.004Z</time></trkpt><trkpt lat="43.21843173296948" lon="12.965719167134166"><ele>809.0</ele><time>2026-04-04T07:44:43.004Z</time></trkpt><trkpt lat="43.21840385140235" lon="12.96580151524297"><ele>809.0</ele><time>2026-04-04T07:44:45.004Z</time></trkpt><trkpt lat="43.218382585160725" lon="12.96588461038211"><ele>809.0000000000001</ele><time>2026-04-04T07:44:47.004Z</time></trkpt><trkpt lat="43.21834087832221" lon="12.965988180502"><ele>809.0</ele><time>2026-04-04T07:44:50.004Z</time></trkpt><trkpt lat="43.2182792413087" lon="12.966098968689925"><ele>809.8333333333334</ele><time>2026-04-04T07:44:53.004Z</time></trkpt><trkpt lat="43.21822808098438" lon="12.966173452911727"><ele>810.6666666666667</ele><time>2026-04-04T07:44:55.004Z</time></trkpt><trkpt lat="43.21815479133434" lon="12.96626850026143"><ele>811.5</ele><time>2026-04-04T07:44:57.004Z</time></trkpt><trkpt lat="43.21810590950159" lon="12.96636713927717"><ele>812.3333333333333</ele><time>2026-04-04T07:44:59.003Z</time></trkpt><trkpt lat="43.218059352118125" lon="12.966447426026585"><ele>813.1666666666666</ele><time>2026-04-04T07:45:01.003Z</time></trkpt><trkpt lat="43.21800460472259" lon="12.966507117131163"><ele>814.0</ele><time>2026-04-04T07:45:03.002Z</time></trkpt><trkpt lat="43.217943435791085" lon="12.966590084146633"><ele>813.9999999999999</ele><time>2026-04-04T07:45:05.002Z</time></trkpt><trkpt lat="43.217852400011495" lon="12.96666478557018"><ele>814.0</ele><time>2026-04-04T07:45:06.002Z</time></trkpt><trkpt lat="43.21779541883523" lon="12.96672287839974"><ele>814.0</ele><time>2026-04-04T07:45:07.002Z</time></trkpt><trkpt lat="43.21773361102649" lon="12.96678237257663"><ele>814.0</ele><time>2026-04-04T07:45:09.002Z</time></trkpt><trkpt lat="43.21765073959419" lon="12.96686964434734"><ele>813.9999999999999</ele><time>2026-04-04T07:45:11.001Z</time></trkpt><trkpt lat="43.217580920996554" lon="12.966906434540366"><ele>814.0</ele><time>2026-04-04T07:45:13.001Z</time></trkpt><trkpt lat="43.21751346830207" lon="12.966939226546277"><ele>815.9999999999999</ele><time>2026-04-04T07:45:16.001Z</time></trkpt><trkpt lat="43.21746603806595" lon="12.967009800501293"><ele>818.0</ele><time>2026-04-04T07:45:25Z</time></trkpt><trkpt lat="43.21740096671497" lon="12.967132003297802"><ele>820.0</ele><time>2026-04-04T07:45:28Z</time></trkpt><trkpt lat="43.21732784891045" lon="12.967234264553335"><ele>822.0</ele><time>2026-04-04T07:45:30Z</time></trkpt><trkpt lat="43.217283045351806" lon="12.967302198949328"><ele>823.9999999999999</ele><time>2026-04-04T07:45:31Z</time></trkpt><trkpt lat="43.217243419913814" lon="12.967369435587244"><ele>826.0</ele><time>2026-04-04T07:45:32Z</time></trkpt><trkpt lat="43.21717362521599" lon="12.967464454906976"><ele>822.4999999999999</ele><time>2026-04-04T07:45:34Z</time></trkpt><trkpt lat="43.217127772316836" lon="12.967531322750263"><ele>819.0</ele><time>2026-04-04T07:45:35Z</time></trkpt><trkpt lat="43.21702013526684" lon="12.967638158315255"><ele>815.5</ele><time>2026-04-04T07:45:37Z</time></trkpt><trkpt lat="43.216939940397445" lon="12.967679803299529"><ele>812.0</ele><time>2026-04-04T07:45:39Z</time></trkpt><trkpt lat="43.21687041044624" lon="12.96769688684932"><ele>808.4999999999999</ele><time>2026-04-04T07:45:41Z</time></trkpt><trkpt lat="43.216785515686745" lon="12.967713485706398"><ele>805.0</ele><time>2026-04-04T07:45:43Z</time></trkpt><trkpt lat="43.21670454518966" lon="12.967771827338407"><ele>804.9999999999999</ele><time>2026-04-04T07:45:44Z</time></trkpt><trkpt lat="43.216657603696746" lon="12.967836084145794"><ele>805.0</ele><time>2026-04-04T07:45:45Z</time></trkpt><trkpt lat="43.216596576291316" lon="12.967901000034416"><ele>805.0</ele><time>2026-04-04T07:45:46Z</time></trkpt><trkpt lat="43.21650648538099" lon="12.96796993203069"><ele>805.0</ele><time>2026-04-04T07:45:48Z</time></trkpt><trkpt lat="43.216426735418445" lon="12.968039305362879"><ele>804.9999999999999</ele><time>2026-04-04T07:45:50Z</time></trkpt><trkpt lat="43.21635133553806" lon="12.968088180638055"><ele>805.0</ele><time>2026-04-04T07:45:52Z</time></trkpt><trkpt lat="43.216271155135914" lon="12.968102303590511"><ele>807.9999999999999</ele><time>2026-04-04T07:45:54Z</time></trkpt><trkpt lat="43.21618766977485" lon="12.968089512127285"><ele>811.0</ele><time>2026-04-04T07:45:56Z</time></trkpt><trkpt lat="43.21608800370595" lon="12.968139772279187"><ele>814.0</ele><time>2026-04-04T07:45:58Z</time></trkpt><trkpt lat="43.216009031478215" lon="12.968183511579708"><ele>817.0</ele><time>2026-04-04T07:46:00Z</time></trkpt><trkpt lat="43.215957833708195" lon="12.96824520103159"><ele>819.9999999999999</ele><time>2026-04-04T07:46:02Z</time></trkpt><trkpt lat="43.2158787261426" lon="12.968296816291897"><ele>823.0</ele><time>2026-04-04T07:46:06Z</time></trkpt><trkpt lat="43.21580808823451" lon="12.968313490279506"><ele>823.0</ele><time>2026-04-04T07:46:08Z</time></trkpt><trkpt lat="43.21569515615286" lon="12.968350656524716"><ele>823.0</ele><time>2026-04-04T07:46:10Z</time></trkpt><trkpt lat="43.2156169554581" lon="12.968365970554705"><ele>823.0</ele><time>2026-04-04T07:46:12Z</time></trkpt><trkpt lat="43.215546733039965" lon="12.96830969513669"><ele>823.0</ele><time>2026-04-04T07:46:13Z</time></trkpt><trkpt lat="43.215500318352504" lon="12.968245663304002"><ele>823.0</ele><time>2026-04-04T07:46:16Z</time></trkpt><trkpt lat="43.21539626088604" lon="12.968318808289638"><ele>820.1666666666666</ele><time>2026-04-04T07:46:18Z</time></trkpt><trkpt lat="43.21530630746772" lon="12.96838588764008"><ele>817.3333333333333</ele><time>2026-04-04T07:46:19Z</time></trkpt><trkpt lat="43.21523446107609" lon="12.968431695015793"><ele>814.5</ele><time>2026-04-04T07:46:20Z</time></trkpt><trkpt lat="43.21517113962851" lon="12.968461309759801"><ele>811.6666666666667</ele><time>2026-04-04T07:46:23Z</time></trkpt><trkpt lat="43.215102427490734" lon="12.968423696696235"><ele>808.8333333333334</ele><time>2026-04-04T07:46:29Z</time></trkpt><trkpt lat="43.2150406168369" lon="12.968461676967756"><ele>806.0</ele><time>2026-04-04T07:46:30Z</time></trkpt><trkpt lat="43.214939523927356" lon="12.968479216206596"><ele>806.0000000000001</ele><time>2026-04-04T07:46:32Z</time></trkpt><trkpt lat="43.21486266173043" lon="12.96851295887148"><ele>806.0</ele><time>2026-04-04T07:46:34Z</time></trkpt><trkpt lat="43.21477815469242" lon="12.968557281882035"><ele>806.0</ele><time>2026-04-04T07:46:36Z</time></trkpt><trkpt lat="43.214707015684695" lon="12.968601810723317"><ele>806.0</ele><time>2026-04-04T07:46:38Z</time></trkpt><trkpt lat="43.21464566909788" lon="12.96866811325483"><ele>806.0000000000001</ele><time>2026-04-04T07:46:40Z</time></trkpt><trkpt lat="43.214581881498134" lon="12.968751133766402"><ele>806.0</ele><time>2026-04-04T07:46:43Z</time></trkpt><trkpt lat="43.21455748882613" lon="12.968854277212328"><ele>804.1999999999999</ele><time>2026-04-04T07:46:45Z</time></trkpt><trkpt lat="43.21450263911509" lon="12.96893831564592"><ele>802.4</ele><time>2026-04-04T07:46:47Z</time></trkpt><trkpt lat="43.21437983525195" lon="12.969021741154934"><ele>800.6</ele><time>2026-04-04T07:46:48Z</time></trkpt><trkpt lat="43.214302530041145" lon="12.969110300831286"><ele>798.8</ele><time>2026-04-04T07:46:49Z</time></trkpt><trkpt lat="43.21422681544554" lon="12.969166660951354"><ele>797.0</ele><time>2026-04-04T07:46:51Z</time></trkpt><trkpt lat="43.2141248178829" lon="12.969218315066838"><ele>797.0</ele><time>2026-04-04T07:46:53Z</time></trkpt><trkpt lat="43.21403095871911" lon="12.969255446789907"><ele>797.0</ele><time>2026-04-04T07:46:55Z</time></trkpt><trkpt lat="43.213873909405294" lon="12.96937586461041"><ele>797.0</ele><time>2026-04-04T07:46:57Z</time></trkpt><trkpt lat="43.213797370779" lon="12.969416459924393"><ele>797.0</ele><time>2026-04-04T07:46:58Z</time></trkpt><trkpt lat="43.2137367239166" lon="12.969449728874347"><ele>797.0</ele><time>2026-04-04T07:46:59Z</time></trkpt><trkpt lat="43.21363385471995" lon="12.969505783451782"><ele>803.8</ele><time>2026-04-04T07:47:01Z</time></trkpt><trkpt lat="43.21352270574829" lon="12.969547986078311"><ele>810.6</ele><time>2026-04-04T07:47:03Z</time></trkpt><trkpt lat="43.21345064322929" lon="12.969596918237917"><ele>817.4</ele><time>2026-04-04T07:47:05Z</time></trkpt><trkpt lat="43.21338213533702" lon="12.969654133086442"><ele>824.1999999999999</ele><time>2026-04-04T07:47:08Z</time></trkpt><trkpt lat="43.21328652509289" lon="12.969708839816283"><ele>831.0</ele><time>2026-04-04T07:47:10Z</time></trkpt><trkpt lat="43.2132160188837" lon="12.969733028025464"><ele>829.8333333333334</ele><time>2026-04-04T07:47:12Z</time></trkpt><trkpt lat="43.21315537248066" lon="12.96976515958622"><ele>828.6666666666667</ele><time>2026-04-04T07:47:15Z</time></trkpt><trkpt lat="43.213107532352986" lon="12.969865598589237"><ele>827.5</ele><time>2026-04-04T07:47:17Z</time></trkpt><trkpt lat="43.21306773969144" lon="12.969965716380242"><ele>826.3333333333334</ele><time>2026-04-04T07:47:19Z</time></trkpt><trkpt lat="43.2130337212378" lon="12.97004240973868"><ele>825.1666666666667</ele><time>2026-04-04T07:47:21Z</time></trkpt><trkpt lat="43.21296318155996" lon="12.970080282941739"><ele>824.0</ele><time>2026-04-04T07:47:24Z</time></trkpt><trkpt lat="43.21287898982712" lon="12.970086548913168"><ele>824.0000000000001</ele><time>2026-04-04T07:47:26Z</time></trkpt><trkpt lat="43.212812184665886" lon="12.970161339025983"><ele>824.0</ele><time>2026-04-04T07:47:28Z</time></trkpt><trkpt lat="43.2127388070366" lon="12.970227416664308"><ele>824.0</ele><time>2026-04-04T07:47:30Z</time></trkpt><trkpt lat="43.21265475054302" lon="12.97029751813409"><ele>824.0</ele><time>2026-04-04T07:47:32Z</time></trkpt><trkpt lat="43.21259890117917" lon="12.970346222688928"><ele>824.0000000000001</ele><time>2026-04-04T07:47:33Z</time></trkpt><trkpt lat="43.21252323210659" lon="12.970383164242065"><ele>824.0</ele><time>2026-04-04T07:47:35Z</time></trkpt><trkpt lat="43.212500600730046" lon="12.970483154460446"><ele>824.0000000000001</ele><time>2026-04-04T07:47:37Z</time></trkpt><trkpt lat="43.212472033204925" lon="12.97057746907175"><ele>824.0</ele><time>2026-04-04T07:47:45Z</time></trkpt><trkpt lat="43.21244956939877" lon="12.970698374227428"><ele>824.0</ele><time>2026-04-04T07:47:48Z</time></trkpt><trkpt lat="43.21236591925434" lon="12.970771516251894"><ele>824.0</ele><time>2026-04-04T07:47:51Z</time></trkpt><trkpt lat="43.21229368362037" lon="12.970845799948986"><ele>824.0000000000001</ele><time>2026-04-04T07:47:53Z</time></trkpt><trkpt lat="43.2122449774627" lon="12.97092347789177"><ele>824.0</ele><time>2026-04-04T07:47:55Z</time></trkpt><trkpt lat="43.212196160333974" lon="12.971026119248663"><ele>825.2857142857142</ele><time>2026-04-04T07:47:58Z</time></trkpt><trkpt lat="43.21219672827199" lon="12.97114255414164"><ele>826.5714285714286</ele><time>2026-04-04T07:48:01Z</time></trkpt><trkpt lat="43.21223337972122" lon="12.971265777362435"><ele>827.8571428571429</ele><time>2026-04-04T07:48:04Z</time></trkpt><trkpt lat="43.21225234506558" lon="12.971349352259566"><ele>829.1428571428571</ele><time>2026-04-04T07:48:06Z</time></trkpt><trkpt lat="43.21224924580434" lon="12.971441784172558"><ele>830.4285714285714</ele><time>2026-04-04T07:48:09Z</time></trkpt><trkpt lat="43.21224773870239" lon="12.97153544343448"><ele>831.7142857142857</ele><time>2026-04-04T07:48:11Z</time></trkpt><trkpt lat="43.21223264300668" lon="12.971621818279884"><ele>833.0</ele><time>2026-04-04T07:48:14Z</time></trkpt><trkpt lat="43.21220687315195" lon="12.971733706669337"><ele>833.0000000000001</ele><time>2026-04-04T07:48:17Z</time></trkpt><trkpt lat="43.212185460817466" lon="12.971847694029254"><ele>833.0</ele><time>2026-04-04T07:48:20Z</time></trkpt><trkpt lat="43.21220572643887" lon="12.971950733801357"><ele>833.0</ele><time>2026-04-04T07:48:22Z</time></trkpt><trkpt lat="43.212199833538804" lon="12.972076553096755"><ele>833.0</ele><time>2026-04-04T07:48:24Z</time></trkpt><trkpt lat="43.21218549057408" lon="12.97218124018704"><ele>833.0000000000001</ele><time>2026-04-04T07:48:27Z</time></trkpt><trkpt lat="43.21220176897924" lon="12.97227968862338"><ele>833.0</ele><time>2026-04-04T07:48:29Z</time></trkpt><trkpt lat="43.21220087849677" lon="12.972369729266168"><ele>833.0000000000001</ele><time>2026-04-04T07:48:32Z</time></trkpt><trkpt lat="43.21215891572212" lon="12.97248134077685"><ele>833.0</ele><time>2026-04-04T07:48:35Z</time></trkpt><trkpt lat="43.212081683803156" lon="12.972518628770551"><ele>833.0</ele><time>2026-04-04T07:48:37Z</time></trkpt><trkpt lat="43.21200895677673" lon="12.972533298035794"><ele>833.0</ele><time>2026-04-04T07:48:39Z</time></trkpt><trkpt lat="43.21196302041897" lon="12.972457562271991"><ele>833.0000000000001</ele><time>2026-04-04T07:48:43Z</time></trkpt><trkpt lat="43.212014557908454" lon="12.972547846529794"><ele>833.0</ele><time>2026-04-04T07:48:52Z</time></trkpt><trkpt lat="43.21201478751227" lon="12.972647700047546"><ele>832.1666666666667</ele><time>2026-04-04T07:48:56Z</time></trkpt><trkpt lat="43.21193956344348" lon="12.972610970383702"><ele>831.3333333333334</ele><time>2026-04-04T07:49:02Z</time></trkpt><trkpt lat="43.21185507970533" lon="12.972574931410334"><ele>830.5</ele><time>2026-04-04T07:49:05Z</time></trkpt><trkpt lat="43.21177073095436" lon="12.972609940131438"><ele>829.6666666666667</ele><time>2026-04-04T07:49:09.001Z</time></trkpt><trkpt lat="43.211729770784025" lon="12.972692352139868"><ele>828.8333333333334</ele><time>2026-04-04T07:49:13.001Z</time></trkpt><trkpt lat="43.211628004142376" lon="12.972612163714984"><ele>828.0</ele><time>2026-04-04T07:49:23.001Z</time></trkpt><trkpt lat="43.21155650029447" lon="12.972677802643082"><ele>828.0</ele><time>2026-04-04T07:49:25.001Z</time></trkpt><trkpt lat="43.21151051444108" lon="12.97278391566635"><ele>828.0</ele><time>2026-04-04T07:49:32.001Z</time></trkpt><trkpt lat="43.21147806313693" lon="12.972869134344846"><ele>828.0</ele><time>2026-04-04T07:49:44.001Z</time></trkpt><trkpt lat="43.211650973289196" lon="12.972802955799631"><ele>828.0</ele><time>2026-04-04T07:50:22.001Z</time></trkpt><trkpt lat="43.211732496486825" lon="12.972771656103342"><ele>828.0</ele><time>2026-04-04T07:50:24.001Z</time></trkpt><trkpt lat="43.211855626674435" lon="12.9728408745548"><ele>828.0</ele><time>2026-04-04T07:50:27.001Z</time></trkpt><trkpt lat="43.21194442788773" lon="12.97287354615759"><ele>828.0</ele><time>2026-04-04T07:50:29.001Z</time></trkpt><trkpt lat="43.21200925650721" lon="12.972916646194006"><ele>828.0</ele><time>2026-04-04T07:50:31.001Z</time></trkpt><trkpt lat="43.21205572820846" lon="12.972977379441556"><ele>828.0</ele><time>2026-04-04T07:50:34.001Z</time></trkpt><trkpt lat="43.212067099553245" lon="12.973081728747328"><ele>828.0</ele><time>2026-04-04T07:50:37.001Z</time></trkpt><trkpt lat="43.2121224076228" lon="12.973193702957747"><ele>828.0</ele><time>2026-04-04T07:50:40.001Z</time></trkpt><trkpt lat="43.21217621536407" lon="12.973250042491433"><ele>828.0</ele><time>2026-04-04T07:50:42.001Z</time></trkpt><trkpt lat="43.21227334069887" lon="12.973295206961252"><ele>828.0</ele><time>2026-04-04T07:50:45.001Z</time></trkpt><trkpt lat="43.2123400629679" lon="12.973315407385817"><ele>828.0</ele><time>2026-04-04T07:50:47.001Z</time></trkpt><trkpt lat="43.21239584924764" lon="12.973395030512826"><ele>828.0</ele><time>2026-04-04T07:50:49.001Z</time></trkpt><trkpt lat="43.21245653839378" lon="12.973444730045664"><ele>828.0</ele><time>2026-04-04T07:50:51.001Z</time></trkpt><trkpt lat="43.21252787112443" lon="12.97356471940713"><ele>828.0</ele><time>2026-04-04T07:50:53.001Z</time></trkpt><trkpt lat="43.21260137303738" lon="12.973717924347845"><ele>823.0</ele><time>2026-04-04T07:50:55.001Z</time></trkpt><trkpt lat="43.21265481736142" lon="12.973800581900177"><ele>818.0</ele><time>2026-04-04T07:50:56.001Z</time></trkpt><trkpt lat="43.212728852784785" lon="12.973881675034919"><ele>813.0</ele><time>2026-04-04T07:50:57.001Z</time></trkpt><trkpt lat="43.212823843257404" lon="12.973936520828044"><ele>808.0</ele><time>2026-04-04T07:50:59.001Z</time></trkpt><trkpt lat="43.21292120394355" lon="12.974096245266809"><ele>803.0</ele><time>2026-04-04T07:51:01.001Z</time></trkpt><trkpt lat="43.21296401845648" lon="12.974163247772307"><ele>804.5999999999999</ele><time>2026-04-04T07:51:02.001Z</time></trkpt><trkpt lat="43.21304615953367" lon="12.974226939501996"><ele>806.1999999999999</ele><time>2026-04-04T07:51:04.001Z</time></trkpt><trkpt lat="43.213153418652205" lon="12.974272333128717"><ele>807.8</ele><time>2026-04-04T07:51:07.001Z</time></trkpt><trkpt lat="43.21318623202879" lon="12.974346194304959"><ele>809.4</ele><time>2026-04-04T07:51:08.001Z</time></trkpt><trkpt lat="43.21326742173251" lon="12.97440075118051"><ele>811.0</ele><time>2026-04-04T07:51:10.001Z</time></trkpt><trkpt lat="43.21335607369575" lon="12.974425422043518"><ele>805.0</ele><time>2026-04-04T07:51:13.001Z</time></trkpt><trkpt lat="43.21346514457531" lon="12.974377540600182"><ele>799.0</ele><time>2026-04-04T07:51:17.001Z</time></trkpt><trkpt lat="43.21363113294283" lon="12.974376435596772"><ele>793.0</ele><time>2026-04-04T07:51:19.001Z</time></trkpt><trkpt lat="43.2137152126894" lon="12.974362187913323"><ele>787.0</ele><time>2026-04-04T07:51:21.001Z</time></trkpt><trkpt lat="43.21383261713529" lon="12.974351695453652"><ele>787.0</ele><time>2026-04-04T07:51:22.001Z</time></trkpt><trkpt lat="43.21395243449111" lon="12.974822002649931"><ele>787.0</ele><time>2026-04-04T07:51:23.001Z</time></trkpt><trkpt lat="43.21405717176913" lon="12.974835931880715"><ele>776.0</ele><time>2026-04-04T07:51:25.001Z</time></trkpt><trkpt lat="43.21451476022496" lon="12.975027119431651"><ele>773.1999999999999</ele><time>2026-04-04T07:51:34.001Z</time></trkpt><trkpt lat="43.21460988284242" lon="12.97497808788569"><ele>770.4</ele><time>2026-04-04T07:51:35.001Z</time></trkpt><trkpt lat="43.21470726970722" lon="12.9749091639899"><ele>767.6</ele><time>2026-04-04T07:51:37.001Z</time></trkpt><trkpt lat="43.21484610145317" lon="12.974867897628695"><ele>764.8</ele><time>2026-04-04T07:51:42.001Z</time></trkpt><trkpt lat="43.21490896638314" lon="12.974838283658901"><ele>762.0</ele><time>2026-04-04T07:51:44.001Z</time></trkpt><trkpt lat="43.21498986358612" lon="12.974807027505248"><ele>755.5</ele><time>2026-04-04T07:51:46.001Z</time></trkpt><trkpt lat="43.21507391995716" lon="12.974760982709372"><ele>749.0</ele><time>2026-04-04T07:51:48.001Z</time></trkpt><trkpt lat="43.21514828801173" lon="12.974744667588524"><ele>742.5</ele><time>2026-04-04T07:51:51.001Z</time></trkpt><trkpt lat="43.21522872264687" lon="12.97472612327821"><ele>736.0</ele><time>2026-04-04T07:51:53.001Z</time></trkpt><trkpt lat="43.21549334758471" lon="12.974714230708408"><ele>736.0</ele><time>2026-04-04T07:52:08Z</time></trkpt><trkpt lat="43.21556077333716" lon="12.974658776079716"><ele>736.0</ele><time>2026-04-04T07:52:12Z</time></trkpt><trkpt lat="43.215619471544336" lon="12.974586406608768"><ele>736.0</ele><time>2026-04-04T07:52:15Z</time></trkpt><trkpt lat="43.21567970108622" lon="12.974529621541722"><ele>736.0</ele><time>2026-04-04T07:52:17Z</time></trkpt><trkpt lat="43.21572562118511" lon="12.974447643321454"><ele>736.0</ele><time>2026-04-04T07:52:19Z</time></trkpt><trkpt lat="43.21577921601855" lon="12.974394490587567"><ele>736.0</ele><time>2026-04-04T07:52:21Z</time></trkpt><trkpt lat="43.21584617766012" lon="12.974396971765971"><ele>736.0</ele><time>2026-04-04T07:52:23Z</time></trkpt><trkpt lat="43.215894228278046" lon="12.974487746960893"><ele>730.8</ele><time>2026-04-04T07:52:25Z</time></trkpt><trkpt lat="43.21603526894313" lon="12.974521789807818"><ele>725.5999999999999</ele><time>2026-04-04T07:52:29Z</time></trkpt><trkpt lat="43.216110139939794" lon="12.97457157211405"><ele>720.4</ele><time>2026-04-04T07:52:33Z</time></trkpt><trkpt lat="43.216168964672086" lon="12.974659895366198"><ele>715.2</ele><time>2026-04-04T07:52:35Z</time></trkpt><trkpt lat="43.21621707509727" lon="12.974716658219693"><ele>710.0</ele><time>2026-04-04T07:52:37Z</time></trkpt><trkpt lat="43.216240531892424" lon="12.974852419191675"><ele>710.0</ele><time>2026-04-04T07:52:40Z</time></trkpt><trkpt lat="43.216252367568885" lon="12.974959615487485"><ele>710.0</ele><time>2026-04-04T07:52:42Z</time></trkpt><trkpt lat="43.2162181281183" lon="12.975052464024577"><ele>710.0</ele><time>2026-04-04T07:52:44Z</time></trkpt><trkpt lat="43.216218615734284" lon="12.975153994816049"><ele>710.0</ele><time>2026-04-04T07:52:48Z</time></trkpt><trkpt lat="43.21623884785485" lon="12.975269892125233"><ele>710.0</ele><time>2026-04-04T07:52:51Z</time></trkpt><trkpt lat="43.216203243818434" lon="12.975393013973765"><ele>710.0</ele><time>2026-04-04T07:52:54Z</time></trkpt><trkpt lat="43.21619020964956" lon="12.975493915118745"><ele>712.5</ele><time>2026-04-04T07:52:56Z</time></trkpt><trkpt lat="43.21614976187247" lon="12.97558810232024"><ele>715.0</ele><time>2026-04-04T07:52:59Z</time></trkpt><trkpt lat="43.21608166220161" lon="12.975618082242526"><ele>717.5</ele><time>2026-04-04T07:53:02Z</time></trkpt><trkpt lat="43.216089369859844" lon="12.975722037958002"><ele>720.0</ele><time>2026-04-04T07:53:11Z</time></trkpt><trkpt lat="43.21607015080297" lon="12.975808617159423"><ele>722.5</ele><time>2026-04-04T07:53:13Z</time></trkpt><trkpt lat="43.216046714846215" lon="12.975936431543001"><ele>725.0</ele><time>2026-04-04T07:53:15Z</time></trkpt><trkpt lat="43.216014541618485" lon="12.976092690502387"><ele>725.4285714285714</ele><time>2026-04-04T07:53:17Z</time></trkpt><trkpt lat="43.21599862738342" lon="12.976180567969005"><ele>725.8571428571429</ele><time>2026-04-04T07:53:19Z</time></trkpt><trkpt lat="43.215966628397716" lon="12.976265713222277"><ele>726.2857142857142</ele><time>2026-04-04T07:53:21Z</time></trkpt><trkpt lat="43.215918463770805" lon="12.976348376814304"><ele>726.7142857142858</ele><time>2026-04-04T07:53:24Z</time></trkpt><trkpt lat="43.21587652513289" lon="12.97641483021493"><ele>727.1428571428571</ele><time>2026-04-04T07:53:26Z</time></trkpt><trkpt lat="43.21588785045949" lon="12.976518224235345"><ele>727.5714285714286</ele><time>2026-04-04T07:53:29Z</time></trkpt><trkpt lat="43.21587531702455" lon="12.976605350324618"><ele>728.0</ele><time>2026-04-04T07:53:31Z</time></trkpt><trkpt lat="43.2158677665942" lon="12.976707937692519"><ele>726.0</ele><time>2026-04-04T07:53:34.001Z</time></trkpt><trkpt lat="43.215853067095296" lon="12.976825270838125"><ele>724.0</ele><time>2026-04-04T07:53:36.001Z</time></trkpt><trkpt lat="43.215837247525855" lon="12.976924329436084"><ele>722.0</ele><time>2026-04-04T07:53:38.001Z</time></trkpt><trkpt lat="43.21574769558335" lon="12.976936747705876"><ele>720.0</ele><time>2026-04-04T07:53:41.001Z</time></trkpt><trkpt lat="43.21564442925447" lon="12.976954464734744"><ele>718.0</ele><time>2026-04-04T07:53:43.001Z</time></trkpt><trkpt lat="43.21549222726232" lon="12.977256444054829"><ele>715.6666666666667</ele><time>2026-04-04T07:53:44.001Z</time></trkpt><trkpt lat="43.215619346738414" lon="12.977342706790935"><ele>713.3333333333334</ele><time>2026-04-04T07:53:49.001Z</time></trkpt><trkpt lat="43.2155239293782" lon="12.977550424721464"><ele>711.0</ele><time>2026-04-04T07:53:57.001Z</time></trkpt><trkpt lat="43.21581231937101" lon="12.977705602092357"><ele>707.75</ele><time>2026-04-04T07:53:58.001Z</time></trkpt><trkpt lat="43.21583642340681" lon="12.977810374474101"><ele>704.5</ele><time>2026-04-04T07:54:17.001Z</time></trkpt><trkpt lat="43.21572810625592" lon="12.977899159514758"><ele>701.25</ele><time>2026-04-04T07:54:25.001Z</time></trkpt><trkpt lat="43.21569989969799" lon="12.9779994870979"><ele>698.0</ele><time>2026-04-04T07:54:31.001Z</time></trkpt><trkpt lat="43.21592537460282" lon="12.978172145238696"><ele>698.0</ele><time>2026-04-04T07:54:37.001Z</time></trkpt><trkpt lat="43.21599257157901" lon="12.978175512364368"><ele>698.0</ele><time>2026-04-04T07:54:39.001Z</time></trkpt><trkpt lat="43.21604603382811" lon="12.97822756201096"><ele>698.0</ele><time>2026-04-04T07:54:43.001Z</time></trkpt><trkpt lat="43.216090581776875" lon="12.97829779350066"><ele>698.0</ele><time>2026-04-04T07:54:46.001Z</time></trkpt><trkpt lat="43.216121844844004" lon="12.978378834624163"><ele>698.0</ele><time>2026-04-04T07:54:51.001Z</time></trkpt><trkpt lat="43.21607359478986" lon="12.978507148984132"><ele>698.0</ele><time>2026-04-04T07:54:54.001Z</time></trkpt><trkpt lat="43.21602971452097" lon="12.978616477281829"><ele>693.3333333333333</ele><time>2026-04-04T07:54:56.001Z</time></trkpt><trkpt lat="43.21600623096333" lon="12.978698650140474"><ele>688.6666666666666</ele><time>2026-04-04T07:54:58.001Z</time></trkpt><trkpt lat="43.21597216056163" lon="12.978821119360285"><ele>684.0</ele><time>2026-04-04T07:55:00.001Z</time></trkpt><trkpt lat="43.215946451344976" lon="12.978909778749816"><ele>679.3333333333334</ele><time>2026-04-04T07:55:01.001Z</time></trkpt><trkpt lat="43.21591471112572" lon="12.97900014939086"><ele>674.6666666666667</ele><time>2026-04-04T07:55:03.001Z</time></trkpt><trkpt lat="43.215873221987" lon="12.979143359762414"><ele>670.0</ele><time>2026-04-04T07:55:05.001Z</time></trkpt><trkpt lat="43.215840610190135" lon="12.979273945773999"><ele>664.25</ele><time>2026-04-04T07:55:07.001Z</time></trkpt><trkpt lat="43.215758611577634" lon="12.979436602410546"><ele>658.5</ele><time>2026-04-04T07:55:09.001Z</time></trkpt><trkpt lat="43.215675921648675" lon="12.979553790288277"><ele>652.75</ele><time>2026-04-04T07:55:11.001Z</time></trkpt><trkpt lat="43.21558283258858" lon="12.97967616489511"><ele>647.0</ele><time>2026-04-04T07:55:13.001Z</time></trkpt><trkpt lat="43.21553023869411" lon="12.979742992185047"><ele>647.0</ele><time>2026-04-04T07:55:14.001Z</time></trkpt><trkpt lat="43.215473719910335" lon="12.979810196543125"><ele>647.0</ele><time>2026-04-04T07:55:15.001Z</time></trkpt><trkpt lat="43.215418061159646" lon="12.979893490074076"><ele>647.0</ele><time>2026-04-04T07:55:16.001Z</time></trkpt><trkpt lat="43.21534720846823" lon="12.979974520746149"><ele>647.0</ele><time>2026-04-04T07:55:17.001Z</time></trkpt><trkpt lat="43.215287554666965" lon="12.98004910329558"><ele>647.0</ele><time>2026-04-04T07:55:18.001Z</time></trkpt><trkpt lat="43.21521582559794" lon="12.980113219220963"><ele>647.0</ele><time>2026-04-04T07:55:19.001Z</time></trkpt><trkpt lat="43.21522855645863" lon="12.980349000814941"><ele>641.0</ele><time>2026-04-04T07:55:20.001Z</time></trkpt><trkpt lat="43.2151674204709" lon="12.980417583784295"><ele>635.0</ele><time>2026-04-04T07:55:21.001Z</time></trkpt><trkpt lat="43.215113298648085" lon="12.98048765259193"><ele>629.0</ele><time>2026-04-04T07:55:22.001Z</time></trkpt><trkpt lat="43.21502623346364" lon="12.98059442967608"><ele>623.0</ele><time>2026-04-04T07:55:24.001Z</time></trkpt><trkpt lat="43.21495026460749" lon="12.980653202181742"><ele>617.0</ele><time>2026-04-04T07:55:26.001Z</time></trkpt><trkpt lat="43.214891193354475" lon="12.980715892691512"><ele>611.0</ele><time>2026-04-04T07:55:29.001Z</time></trkpt><trkpt lat="43.214824929098114" lon="12.980717351238962"><ele>612.0</ele><time>2026-04-04T07:55:32.001Z</time></trkpt><trkpt lat="43.21475476607948" lon="12.98078720386814"><ele>613.0</ele><time>2026-04-04T07:55:37.001Z</time></trkpt><trkpt lat="43.21476625273341" lon="12.980887711981179"><ele>614.0</ele><time>2026-04-04T07:55:41.001Z</time></trkpt><trkpt lat="43.21472118082272" lon="12.980955725559792"><ele>615.0</ele><time>2026-04-04T07:55:43.001Z</time></trkpt><trkpt lat="43.21464874786126" lon="12.981003300067524"><ele>616.0</ele><time>2026-04-04T07:55:47.001Z</time></trkpt><trkpt lat="43.214561154596566" lon="12.981023622132971"><ele>617.0</ele><time>2026-04-04T07:55:50.001Z</time></trkpt><trkpt lat="43.214493036600146" lon="12.981005083141744"><ele>617.0</ele><time>2026-04-04T07:55:53.001Z</time></trkpt><trkpt lat="43.214438454170896" lon="12.980930633488573"><ele>617.0</ele><time>2026-04-04T07:55:59.001Z</time></trkpt><trkpt lat="43.214386527400194" lon="12.98081569500716"><ele>617.0</ele><time>2026-04-04T07:56:03.001Z</time></trkpt><trkpt lat="43.2143738347801" lon="12.980634681973168"><ele>617.0</ele><time>2026-04-04T07:56:05.001Z</time></trkpt><trkpt lat="43.2143752133998" lon="12.980538832568865"><ele>617.0</ele><time>2026-04-04T07:56:07.001Z</time></trkpt><trkpt lat="43.214344241087716" lon="12.980422432706273"><ele>617.0</ele><time>2026-04-04T07:56:10.001Z</time></trkpt><trkpt lat="43.21427841008704" lon="12.98035267015486"><ele>617.0</ele><time>2026-04-04T07:56:15.001Z</time></trkpt><trkpt lat="43.21422785286156" lon="12.980294309083323"><ele>617.0</ele><time>2026-04-04T07:56:18.001Z</time></trkpt><trkpt lat="43.21416824751252" lon="12.980377026484328"><ele>617.0</ele><time>2026-04-04T07:56:23.001Z</time></trkpt><trkpt lat="43.21411661614326" lon="12.980461330352183"><ele>617.0</ele><time>2026-04-04T07:56:31.001Z</time></trkpt><trkpt lat="43.21404244524746" lon="12.980412097212808"><ele>617.0</ele><time>2026-04-04T07:56:35.001Z</time></trkpt><trkpt lat="43.21397831668745" lon="12.980363444038984"><ele>614.6666666666666</ele><time>2026-04-04T07:56:37.001Z</time></trkpt><trkpt lat="43.21391676680943" lon="12.980279811055961"><ele>612.3333333333333</ele><time>2026-04-04T07:56:41.001Z</time></trkpt><trkpt lat="43.213851739592236" lon="12.98024484819538"><ele>610.0</ele><time>2026-04-04T07:56:43.001Z</time></trkpt><trkpt lat="43.21379289243844" lon="12.980201415005757"><ele>607.6666666666666</ele><time>2026-04-04T07:56:46.001Z</time></trkpt><trkpt lat="43.213743027561165" lon="12.980288682534574"><ele>605.3333333333334</ele><time>2026-04-04T07:56:51Z</time></trkpt><trkpt lat="43.21371986859687" lon="12.980419533338054"><ele>603.0</ele><time>2026-04-04T07:56:53Z</time></trkpt><trkpt lat="43.21375122579315" lon="12.980611104228306"><ele>603.0</ele><time>2026-04-04T07:56:55Z</time></trkpt><trkpt lat="43.213787807626524" lon="12.980705952266486"><ele>603.0</ele><time>2026-04-04T07:56:56Z</time></trkpt><trkpt lat="43.21383594075427" lon="12.980805082498438"><ele>603.0</ele><time>2026-04-04T07:56:57Z</time></trkpt><trkpt lat="43.213875049007065" lon="12.980881777992575"><ele>603.0</ele><time>2026-04-04T07:56:58Z</time></trkpt><trkpt lat="43.21394413252754" lon="12.980931878555571"><ele>603.0</ele><time>2026-04-04T07:56:59Z</time></trkpt><trkpt lat="43.213996130498856" lon="12.981013488902732"><ele>603.0</ele><time>2026-04-04T07:57:00Z</time></trkpt><trkpt lat="43.21406793897504" lon="12.981111615474038"><ele>599.6</ele><time>2026-04-04T07:57:01Z</time></trkpt><trkpt lat="43.21414825136392" lon="12.981217098054783"><ele>596.1999999999999</ele><time>2026-04-04T07:57:02Z</time></trkpt><trkpt lat="43.214216241578434" lon="12.981328056002477"><ele>592.8</ele><time>2026-04-04T07:57:03Z</time></trkpt><trkpt lat="43.214227179150825" lon="12.981496090509589"><ele>589.4</ele><time>2026-04-04T07:57:04Z</time></trkpt><trkpt lat="43.214290158069225" lon="12.981604248664565"><ele>586.0</ele><time>2026-04-04T07:57:05Z</time></trkpt><trkpt lat="43.21433983268588" lon="12.981731869462077"><ele>583.8333333333334</ele><time>2026-04-04T07:57:06Z</time></trkpt><trkpt lat="43.214407635746504" lon="12.981820155075223"><ele>581.6666666666667</ele><time>2026-04-04T07:57:07Z</time></trkpt><trkpt lat="43.21446462635694" lon="12.981915093724824"><ele>579.5</ele><time>2026-04-04T07:57:08Z</time></trkpt><trkpt lat="43.21452904116901" lon="12.981991031313742"><ele>577.3333333333334</ele><time>2026-04-04T07:57:09Z</time></trkpt><trkpt lat="43.21455748193409" lon="12.982077936339534"><ele>575.1666666666666</ele><time>2026-04-04T07:57:10Z</time></trkpt><trkpt lat="43.21458830771368" lon="12.982153897314337"><ele>573.0</ele><time>2026-04-04T07:57:11Z</time></trkpt><trkpt lat="43.214493768054936" lon="12.982231900292707"><ele>573.0</ele><time>2026-04-04T07:57:14Z</time></trkpt><trkpt lat="43.21441460987688" lon="12.982260213092257"><ele>573.0</ele><time>2026-04-04T07:57:16Z</time></trkpt><trkpt lat="43.21433681066333" lon="12.982269641988152"><ele>573.0</ele><time>2026-04-04T07:57:17Z</time></trkpt><trkpt lat="43.2142594772058" lon="12.982299220175197"><ele>573.0</ele><time>2026-04-04T07:57:18Z</time></trkpt><trkpt lat="43.21416767965909" lon="12.982308971011827"><ele>573.0</ele><time>2026-04-04T07:57:19Z</time></trkpt><trkpt lat="43.21409095636035" lon="12.982338046997022"><ele>573.0</ele><time>2026-04-04T07:57:20Z</time></trkpt><trkpt lat="43.21399455517109" lon="12.982357570074244"><ele>575.0</ele><time>2026-04-04T07:57:21Z</time></trkpt><trkpt lat="43.21390142065825" lon="12.982383014814273"><ele>577.0</ele><time>2026-04-04T07:57:22Z</time></trkpt><trkpt lat="43.213819132100134" lon="12.982411301410531"><ele>579.0</ele><time>2026-04-04T07:57:23Z</time></trkpt><trkpt lat="43.213720502977296" lon="12.982451071009187"><ele>581.0</ele><time>2026-04-04T07:57:24Z</time></trkpt><trkpt lat="43.21362508996484" lon="12.982498813637378"><ele>583.0</ele><time>2026-04-04T07:57:25Z</time></trkpt><trkpt lat="43.21354965486656" lon="12.982547496758528"><ele>583.0000000000001</ele><time>2026-04-04T07:57:26Z</time></trkpt><trkpt lat="43.21347137608204" lon="12.982606924954393"><ele>583.0</ele><time>2026-04-04T07:57:27Z</time></trkpt><trkpt lat="43.213422128021286" lon="12.982683757056849"><ele>583.0</ele><time>2026-04-04T07:57:28Z</time></trkpt><trkpt lat="43.21340241194029" lon="12.982780211693363"><ele>583.0</ele><time>2026-04-04T07:57:29Z</time></trkpt><trkpt lat="43.21337977723547" lon="12.982871084382282"><ele>583.0</ele><time>2026-04-04T07:57:30Z</time></trkpt><trkpt lat="43.213353111513655" lon="12.982961081029497"><ele>583.0000000000001</ele><time>2026-04-04T07:57:31Z</time></trkpt><trkpt lat="43.21332253740042" lon="12.983038123692236"><ele>583.0</ele><time>2026-04-04T07:57:32Z</time></trkpt><trkpt lat="43.21330125000853" lon="12.983176584487927"><ele>583.0</ele><time>2026-04-04T07:57:34Z</time></trkpt><trkpt lat="43.213275445188295" lon="12.98327446446289"><ele>583.0</ele><time>2026-04-04T07:57:35Z</time></trkpt><trkpt lat="43.21319967329479" lon="12.98342533773885"><ele>583.0</ele><time>2026-04-04T07:57:37Z</time></trkpt><trkpt lat="43.213154883356125" lon="12.98349734090152"><ele>583.0</ele><time>2026-04-04T07:57:38Z</time></trkpt><trkpt lat="43.21313180328965" lon="12.983612742938979"><ele>583.0</ele><time>2026-04-04T07:57:39Z</time></trkpt><trkpt lat="43.213117935042675" lon="12.983705915870846"><ele>583.0</ele><time>2026-04-04T07:57:40Z</time></trkpt><trkpt lat="43.21309651400353" lon="12.983807363304946"><ele>582.0</ele><time>2026-04-04T07:57:41Z</time></trkpt><trkpt lat="43.213062288081794" lon="12.983913905955319"><ele>581.0</ele><time>2026-04-04T07:57:42Z</time></trkpt><trkpt lat="43.213025583413994" lon="12.984016077455438"><ele>580.0</ele><time>2026-04-04T07:57:43Z</time></trkpt><trkpt lat="43.21302059007937" lon="12.984104657434376"><ele>579.0</ele><time>2026-04-04T07:57:44Z</time></trkpt><trkpt lat="43.2130099772631" lon="12.98419600312904"><ele>578.0</ele><time>2026-04-04T07:57:45Z</time></trkpt><trkpt lat="43.212962143126965" lon="12.984326759659071"><ele>577.0</ele><time>2026-04-04T07:57:47Z</time></trkpt><trkpt lat="43.21294884422403" lon="12.984415496456197"><ele>574.6666666666667</ele><time>2026-04-04T07:57:48Z</time></trkpt><trkpt lat="43.21294113752347" lon="12.984557231282157"><ele>572.3333333333334</ele><time>2026-04-04T07:57:49Z</time></trkpt><trkpt lat="43.21291103438477" lon="12.984691837498001"><ele>570.0</ele><time>2026-04-04T07:57:50Z</time></trkpt><trkpt lat="43.21286598743278" lon="12.98478848849609"><ele>567.6666666666666</ele><time>2026-04-04T07:57:51Z</time></trkpt><trkpt lat="43.21280915747875" lon="12.984744382930627"><ele>565.3333333333333</ele><time>2026-04-04T07:57:52Z</time></trkpt><trkpt lat="43.21277277440209" lon="12.984848908004464"><ele>563.0</ele><time>2026-04-04T07:57:53Z</time></trkpt><trkpt lat="43.21274619171415" lon="12.984956430633611"><ele>561.3333333333333</ele><time>2026-04-04T07:57:54Z</time></trkpt><trkpt lat="43.21272267380187" lon="12.985077787304652"><ele>559.6666666666666</ele><time>2026-04-04T07:57:55Z</time></trkpt><trkpt lat="43.21270639350688" lon="12.985217292805196"><ele>558.0</ele><time>2026-04-04T07:57:56Z</time></trkpt><trkpt lat="43.21271093477122" lon="12.98533420332133"><ele>556.3333333333334</ele><time>2026-04-04T07:57:57Z</time></trkpt><trkpt lat="43.21272589544014" lon="12.985438490491076"><ele>554.6666666666667</ele><time>2026-04-04T07:57:58Z</time></trkpt><trkpt lat="43.21274125629865" lon="12.98554250920048"><ele>553.0</ele><time>2026-04-04T07:57:59Z</time></trkpt><trkpt lat="43.212741464950405" lon="12.985643300187693"><ele>553.0</ele><time>2026-04-04T07:58:00Z</time></trkpt><trkpt lat="43.21270386016861" lon="12.985841706786315"><ele>553.0</ele><time>2026-04-04T07:58:02Z</time></trkpt><trkpt lat="43.21266360030159" lon="12.985967011834614"><ele>553.0</ele><time>2026-04-04T07:58:03Z</time></trkpt><trkpt lat="43.212617056832684" lon="12.986072258877925"><ele>553.0</ele><time>2026-04-04T07:58:04Z</time></trkpt><trkpt lat="43.21257314090796" lon="12.986156913964686"><ele>553.0</ele><time>2026-04-04T07:58:05Z</time></trkpt><trkpt lat="43.212525456584835" lon="12.98625405189122"><ele>553.0</ele><time>2026-04-04T07:58:06Z</time></trkpt><trkpt lat="43.212473858141955" lon="12.986412938432634"><ele>553.0</ele><time>2026-04-04T07:58:08Z</time></trkpt><trkpt lat="43.212435572007436" lon="12.986530689873948"><ele>553.0</ele><time>2026-04-04T07:58:09Z</time></trkpt><trkpt lat="43.21238839430135" lon="12.98665251202655"><ele>553.0</ele><time>2026-04-04T07:58:10Z</time></trkpt><trkpt lat="43.21235505104376" lon="12.986803341795468"><ele>553.0</ele><time>2026-04-04T07:58:11Z</time></trkpt><trkpt lat="43.21233019505519" lon="12.986940533003839"><ele>556.1999999999999</ele><time>2026-04-04T07:58:12Z</time></trkpt><trkpt lat="43.21229904221252" lon="12.987086903426277"><ele>559.4</ele><time>2026-04-04T07:58:14Z</time></trkpt><trkpt lat="43.212285224947" lon="12.987210884453509"><ele>562.5999999999999</ele><time>2026-04-04T07:58:16Z</time></trkpt><trkpt lat="43.2122640306539" lon="12.98734705745235"><ele>565.8</ele><time>2026-04-04T07:58:18Z</time></trkpt><trkpt lat="43.212243316489484" lon="12.987494429727612"><ele>569.0</ele><time>2026-04-04T07:58:20Z</time></trkpt><trkpt lat="43.21223672533677" lon="12.987625465881157"><ele>570.0</ele><time>2026-04-04T07:58:22Z</time></trkpt><trkpt lat="43.21223237531267" lon="12.987730963037249"><ele>571.0</ele><time>2026-04-04T07:58:23Z</time></trkpt><trkpt lat="43.21220958212487" lon="12.987901763872863"><ele>572.0</ele><time>2026-04-04T07:58:25Z</time></trkpt><trkpt lat="43.21220760224923" lon="12.988003050403607"><ele>573.0</ele><time>2026-04-04T07:58:26Z</time></trkpt><trkpt lat="43.21222913333924" lon="12.988143451156299"><ele>574.0</ele><time>2026-04-04T07:58:28Z</time></trkpt><trkpt lat="43.21230681426025" lon="12.988293192960295"><ele>576.1666666666667</ele><time>2026-04-04T07:58:30Z</time></trkpt><trkpt lat="43.21228564176025" lon="12.988462128595607"><ele>578.3333333333334</ele><time>2026-04-04T07:58:31Z</time></trkpt><trkpt lat="43.212269203094706" lon="12.988552447160215"><ele>580.5</ele><time>2026-04-04T07:58:32Z</time></trkpt><trkpt lat="43.212267276718045" lon="12.988655429367146"><ele>582.6666666666666</ele><time>2026-04-04T07:58:33Z</time></trkpt><trkpt lat="43.2122508994982" lon="12.988776315281081"><ele>584.8333333333333</ele><time>2026-04-04T07:58:35Z</time></trkpt><trkpt lat="43.21226529117472" lon="12.988866418654245"><ele>587.0</ele><time>2026-04-04T07:58:37Z</time></trkpt><trkpt lat="43.212420135970454" lon="12.98881608682221"><ele>587.0</ele><time>2026-04-04T07:59:10Z</time></trkpt><trkpt lat="43.212402372892" lon="12.988722059598595"><ele>587.0</ele><time>2026-04-04T07:59:14Z</time></trkpt><trkpt lat="43.21233570334053" lon="12.9886772289006"><ele>587.0</ele><time>2026-04-04T07:59:17Z</time></trkpt><trkpt lat="43.21227240463568" lon="12.98859684982251"><ele>587.0</ele><time>2026-04-04T07:59:19Z</time></trkpt><trkpt lat="43.21216653819014" lon="12.988427746117424"><ele>587.0</ele><time>2026-04-04T07:59:20Z</time></trkpt><trkpt lat="43.21212110896191" lon="12.988354473554033"><ele>584.8333333333333</ele><time>2026-04-04T07:59:24Z</time></trkpt><trkpt lat="43.212087715414775" lon="12.988250223014232"><ele>582.6666666666666</ele><time>2026-04-04T07:59:29Z</time></trkpt><trkpt lat="43.21202334607572" lon="12.988219030129232"><ele>580.5</ele><time>2026-04-04T07:59:35Z</time></trkpt><trkpt lat="43.211920708401934" lon="12.988208189098403"><ele>578.3333333333334</ele><time>2026-04-04T07:59:38Z</time></trkpt><trkpt lat="43.21185254899892" lon="12.98817734055167"><ele>576.1666666666667</ele><time>2026-04-04T07:59:43Z</time></trkpt><trkpt lat="43.21178178784308" lon="12.988053621100695"><ele>574.0</ele><time>2026-04-04T07:59:45Z</time></trkpt><trkpt lat="43.21173760419678" lon="12.987970518767847"><ele>574.0</ele><time>2026-04-04T07:59:46Z</time></trkpt><trkpt lat="43.211689055342426" lon="12.987887020892922"><ele>574.0</ele><time>2026-04-04T07:59:47Z</time></trkpt><trkpt lat="43.2116498042492" lon="12.987808979310472"><ele>574.0</ele><time>2026-04-04T07:59:48Z</time></trkpt><trkpt lat="43.21157604349662" lon="12.98773526678554"><ele>574.0</ele><time>2026-04-04T07:59:50Z</time></trkpt><trkpt lat="43.21148041333367" lon="12.98756932534624"><ele>574.0</ele><time>2026-04-04T07:59:52Z</time></trkpt><trkpt lat="43.211426928535225" lon="12.987498514448315"><ele>580.0</ele><time>2026-04-04T07:59:53Z</time></trkpt><trkpt lat="43.211333720818374" lon="12.987376460006878"><ele>586.0</ele><time>2026-04-04T07:59:55Z</time></trkpt><trkpt lat="43.2113369299636" lon="12.987247767257177"><ele>592.0</ele><time>2026-04-04T07:59:57Z</time></trkpt><trkpt lat="43.211334082453924" lon="12.98711644999068"><ele>598.0</ele><time>2026-04-04T07:59:58Z</time></trkpt><trkpt lat="43.21135272443844" lon="12.986970988081334"><ele>604.0</ele><time>2026-04-04T07:59:59Z</time></trkpt><trkpt lat="43.211363086102445" lon="12.986822940444933"><ele>604.0</ele><time>2026-04-04T08:00:00Z</time></trkpt><trkpt lat="43.211378017006446" lon="12.986728848358545"><ele>604.0</ele><time>2026-04-04T08:00:01Z</time></trkpt><trkpt lat="43.211417398958496" lon="12.986651307769042"><ele>604.0</ele><time>2026-04-04T08:00:02Z</time></trkpt><trkpt lat="43.21144738208781" lon="12.98654866488883"><ele>604.0</ele><time>2026-04-04T08:00:03Z</time></trkpt><trkpt lat="43.21145371050814" lon="12.98643511131489"><ele>604.0</ele><time>2026-04-04T08:00:04Z</time></trkpt><trkpt lat="43.21146840282183" lon="12.986319901818431"><ele>604.0</ele><time>2026-04-04T08:00:05Z</time></trkpt><trkpt lat="43.21150155750644" lon="12.986221605549627"><ele>599.8333333333334</ele><time>2026-04-04T08:00:06Z</time></trkpt><trkpt lat="43.21151667970833" lon="12.986137734867556"><ele>595.6666666666667</ele><time>2026-04-04T08:00:07Z</time></trkpt><trkpt lat="43.21155718452173" lon="12.985996081094056"><ele>591.5</ele><time>2026-04-04T08:00:09Z</time></trkpt><trkpt lat="43.2115780195044" lon="12.985867598866296"><ele>587.3333333333334</ele><time>2026-04-04T08:00:11Z</time></trkpt><trkpt lat="43.211599738005944" lon="12.985785104697"><ele>583.1666666666666</ele><time>2026-04-04T08:00:12Z</time></trkpt><trkpt lat="43.21165734765235" lon="12.985679597255997"><ele>579.0</ele><time>2026-04-04T08:00:14Z</time></trkpt><trkpt lat="43.21172923171224" lon="12.985651152975011"><ele>579.0</ele><time>2026-04-04T08:00:16Z</time></trkpt><trkpt lat="43.21173090252406" lon="12.985553297399479"><ele>579.0</ele><time>2026-04-04T08:00:19Z</time></trkpt><trkpt lat="43.21173913671745" lon="12.985422680982726"><ele>579.0</ele><time>2026-04-04T08:00:23Z</time></trkpt><trkpt lat="43.21172011408515" lon="12.985289412223608"><ele>579.0</ele><time>2026-04-04T08:00:25Z</time></trkpt><trkpt lat="43.21173481110057" lon="12.985124290569468"><ele>579.0</ele><time>2026-04-04T08:00:27Z</time></trkpt><trkpt lat="43.21176162071192" lon="12.98502693045765"><ele>581.3333333333334</ele><time>2026-04-04T08:00:28Z</time></trkpt><trkpt lat="43.21178368989976" lon="12.984921268970604"><ele>583.6666666666666</ele><time>2026-04-04T08:00:29Z</time></trkpt><trkpt lat="43.211807180062586" lon="12.984820982290502"><ele>586.0</ele><time>2026-04-04T08:00:30Z</time></trkpt><trkpt lat="43.211849907769505" lon="12.984709320378332"><ele>588.3333333333333</ele><time>2026-04-04T08:00:31Z</time></trkpt><trkpt lat="43.211882069792864" lon="12.984599387809945"><ele>590.6666666666666</ele><time>2026-04-04T08:00:32Z</time></trkpt><trkpt lat="43.211919188535035" lon="12.984502057250564"><ele>593.0</ele><time>2026-04-04T08:00:33Z</time></trkpt><trkpt lat="43.21196831982416" lon="12.984411044378742"><ele>593.0</ele><time>2026-04-04T08:00:34Z</time></trkpt><trkpt lat="43.21201644871045" lon="12.984312657299284"><ele>593.0</ele><time>2026-04-04T08:00:35Z</time></trkpt><trkpt lat="43.21206763014071" lon="12.984215822449414"><ele>593.0</ele><time>2026-04-04T08:00:36Z</time></trkpt><trkpt lat="43.212115067315416" lon="12.984099959802226"><ele>593.0</ele><time>2026-04-04T08:00:37Z</time></trkpt><trkpt lat="43.21218596963797" lon="12.984008499126059"><ele>593.0</ele><time>2026-04-04T08:00:38Z</time></trkpt><trkpt lat="43.21223915882951" lon="12.983922366445732"><ele>595.4</ele><time>2026-04-04T08:00:39Z</time></trkpt><trkpt lat="43.21228811287963" lon="12.983805214979485"><ele>597.8</ele><time>2026-04-04T08:00:40Z</time></trkpt><trkpt lat="43.212335828237954" lon="12.983654321940595"><ele>600.2</ele><time>2026-04-04T08:00:41Z</time></trkpt><trkpt lat="43.21236745433081" lon="12.983543090997832"><ele>602.6</ele><time>2026-04-04T08:00:42Z</time></trkpt><trkpt lat="43.21240871693397" lon="12.983448866311988"><ele>605.0</ele><time>2026-04-04T08:00:43Z</time></trkpt><trkpt lat="43.21245870703246" lon="12.98337197408244"><ele>603.5</ele><time>2026-04-04T08:00:44Z</time></trkpt><trkpt lat="43.21250008218635" lon="12.983287748152621"><ele>602.0</ele><time>2026-04-04T08:00:45Z</time></trkpt><trkpt lat="43.21254169860741" lon="12.983179918350338"><ele>600.5</ele><time>2026-04-04T08:00:46Z</time></trkpt><trkpt lat="43.21257771692578" lon="12.983085857052853"><ele>599.0</ele><time>2026-04-04T08:00:47Z</time></trkpt><trkpt lat="43.21261595832113" lon="12.982986122038392"><ele>597.5</ele><time>2026-04-04T08:00:48Z</time></trkpt><trkpt lat="43.21264688713602" lon="12.982907049885323"><ele>596.0</ele><time>2026-04-04T08:00:49Z</time></trkpt><trkpt lat="43.212693361398806" lon="12.982817001792657"><ele>596.0</ele><time>2026-04-04T08:00:50Z</time></trkpt><trkpt lat="43.21273051478928" lon="12.982722881901914"><ele>596.0</ele><time>2026-04-04T08:00:51Z</time></trkpt><trkpt lat="43.21277366744521" lon="12.982637687818537"><ele>596.0</ele><time>2026-04-04T08:00:52Z</time></trkpt><trkpt lat="43.21283578958502" lon="12.98256516540149"><ele>596.0</ele><time>2026-04-04T08:00:53Z</time></trkpt><trkpt lat="43.21290313225299" lon="12.982536586149036"><ele>596.0</ele><time>2026-04-04T08:00:54Z</time></trkpt><trkpt lat="43.21298743407626" lon="12.982454817360907"><ele>596.0</ele><time>2026-04-04T08:00:56Z</time></trkpt><trkpt lat="43.21308599360423" lon="12.982395016205347"><ele>594.5</ele><time>2026-04-04T08:00:58Z</time></trkpt><trkpt lat="43.213167965848136" lon="12.982363206372142"><ele>593.0</ele><time>2026-04-04T08:01:00Z</time></trkpt><trkpt lat="43.21322046476626" lon="12.982315254767007"><ele>591.5</ele><time>2026-04-04T08:01:03Z</time></trkpt><trkpt lat="43.21313610484576" lon="12.982340257876963"><ele>590.0</ele><time>2026-04-04T08:01:10Z</time></trkpt><trkpt lat="43.213072059547855" lon="12.982339878635939"><ele>588.5</ele><time>2026-04-04T08:01:12Z</time></trkpt><trkpt lat="43.212992502878" lon="12.982341429542084"><ele>587.0</ele><time>2026-04-04T08:01:16Z</time></trkpt><trkpt lat="43.21291970230694" lon="12.98237680638259"><ele>588.2857142857143</ele><time>2026-04-04T08:01:19Z</time></trkpt><trkpt lat="43.21288419535067" lon="12.982450020627883"><ele>589.5714285714287</ele><time>2026-04-04T08:01:31Z</time></trkpt><trkpt lat="43.21286480000273" lon="12.98255073118975"><ele>590.8571428571429</ele><time>2026-04-04T08:01:38Z</time></trkpt><trkpt lat="43.21287693872166" lon="12.982636201724253"><ele>592.1428571428571</ele><time>2026-04-04T08:01:44Z</time></trkpt><trkpt lat="43.21289088248416" lon="12.982748659156687"><ele>593.4285714285713</ele><time>2026-04-04T08:01:50Z</time></trkpt><trkpt lat="43.212888112714275" lon="12.982841204797527"><ele>594.7142857142857</ele><time>2026-04-04T08:01:53Z</time></trkpt><trkpt lat="43.21287577031939" lon="12.982944083509427"><ele>596.0</ele><time>2026-04-04T08:01:57Z</time></trkpt><trkpt lat="43.212859266124916" lon="12.98302981511613"><ele>596.0</ele><time>2026-04-04T08:02:00Z</time></trkpt><trkpt lat="43.2128514362123" lon="12.983115692271605"><ele>596.0</ele><time>2026-04-04T08:02:16Z</time></trkpt><trkpt lat="43.21294542092714" lon="12.983127085653262"><ele>596.0</ele><time>2026-04-04T08:02:37Z</time></trkpt><trkpt lat="43.21301879428494" lon="12.983237934195552"><ele>596.0</ele><time>2026-04-04T08:02:55Z</time></trkpt><trkpt lat="43.212974825300776" lon="12.983310477658891"><ele>596.0</ele><time>2026-04-04T08:03:58Z</time></trkpt><trkpt lat="43.213072863077386" lon="12.983305108920318"><ele>596.0</ele><time>2026-04-04T08:04:39.001Z</time></trkpt><trkpt lat="43.213089906012456" lon="12.983221931483039"><ele>596.0</ele><time>2026-04-04T08:04:48.001Z</time></trkpt><trkpt lat="43.21305421340359" lon="12.983149571042226"><ele>596.0</ele><time>2026-04-04T08:04:59.001Z</time></trkpt><trkpt lat="43.212974364773665" lon="12.983173536712117"><ele>596.0</ele><time>2026-04-04T08:05:13.001Z</time></trkpt><trkpt lat="43.2129200099679" lon="12.983227742302185"><ele>596.0</ele><time>2026-04-04T08:05:18.001Z</time></trkpt><trkpt lat="43.212861216096634" lon="12.983191636220731"><ele>596.0</ele><time>2026-04-04T08:05:57.001Z</time></trkpt><trkpt lat="43.21290928809607" lon="12.98325544732317"><ele>596.0</ele><time>2026-04-04T08:06:50Z</time></trkpt><trkpt lat="43.2129328284475" lon="12.983347672119105"><ele>596.0</ele><time>2026-04-04T08:06:52Z</time></trkpt><trkpt lat="43.21294016953436" lon="12.983435450942336"><ele>596.0</ele><time>2026-04-04T08:06:54Z</time></trkpt><trkpt lat="43.213075624532685" lon="12.983460164209031"><ele>596.0</ele><time>2026-04-04T08:07:16Z</time></trkpt><trkpt lat="43.213013073901315" lon="12.983370342372563"><ele>596.0</ele><time>2026-04-04T08:07:44Z</time></trkpt><trkpt lat="43.21295165094075" lon="12.983346205180906"><ele>596.0</ele><time>2026-04-04T08:08:04.001Z</time></trkpt><trkpt lat="43.212887088110065" lon="12.983332189923194"><ele>596.0</ele><time>2026-04-04T08:08:29.001Z</time></trkpt><trkpt lat="43.21287402230142" lon="12.983242116515095"><ele>596.0</ele><time>2026-04-04T08:08:35.001Z</time></trkpt><trkpt lat="43.21297544681545" lon="12.983202682789846"><ele>596.0</ele><time>2026-04-04T08:08:57.001Z</time></trkpt><trkpt lat="43.212915991213045" lon="12.983248889661782"><ele>596.0</ele><time>2026-04-04T08:09:53Z</time></trkpt><trkpt lat="43.21297613554271" lon="12.98316427083483"><ele>596.0</ele><time>2026-04-04T08:11:20Z</time></trkpt><trkpt lat="43.21297029549212" lon="12.983250406552708"><ele>596.0</ele><time>2026-04-04T08:13:00Z</time></trkpt><trkpt lat="43.2129150693009" lon="12.983300058839069"><ele>596.0</ele><time>2026-04-04T08:13:27Z</time></trkpt><trkpt lat="43.212853645764326" lon="12.98327152543505"><ele>596.0</ele><time>2026-04-04T08:14:10Z</time></trkpt><trkpt lat="43.21285634386508" lon="12.983148682797797"><ele>596.0</ele><time>2026-04-04T08:14:21Z</time></trkpt><trkpt lat="43.212920624812824" lon="12.983107576826303"><ele>596.0</ele><time>2026-04-04T08:14:26Z</time></trkpt><trkpt lat="43.21286242306018" lon="12.983187602378985"><ele>596.0</ele><time>2026-04-04T08:14:45Z</time></trkpt><trkpt lat="43.212794840875816" lon="12.983204238860127"><ele>596.0</ele><time>2026-04-04T08:15:06Z</time></trkpt><trkpt lat="43.2127260840375" lon="12.983137306266782"><ele>596.0</ele><time>2026-04-04T08:15:09Z</time></trkpt><trkpt lat="43.212664193017766" lon="12.98311690788701"><ele>596.0</ele><time>2026-04-04T08:15:13Z</time></trkpt><trkpt lat="43.21259678256871" lon="12.983181897847919"><ele>596.0</ele><time>2026-04-04T08:15:16Z</time></trkpt><trkpt lat="43.21252861851926" lon="12.98322456035625"><ele>596.0</ele><time>2026-04-04T08:15:19Z</time></trkpt><trkpt lat="43.21247894471719" lon="12.983283376281614"><ele>596.0</ele><time>2026-04-04T08:15:22Z</time></trkpt><trkpt lat="43.212408778432824" lon="12.983385845754125"><ele>596.0</ele><time>2026-04-04T08:15:24Z</time></trkpt><trkpt lat="43.21235423820589" lon="12.983435269248785"><ele>596.0</ele><time>2026-04-04T08:15:26Z</time></trkpt><trkpt lat="43.21228187282771" lon="12.983549610866431"><ele>596.0</ele><time>2026-04-04T08:15:28Z</time></trkpt><trkpt lat="43.212224829677396" lon="12.983661175116255"><ele>596.0</ele><time>2026-04-04T08:15:30Z</time></trkpt><trkpt lat="43.21213904233755" lon="12.983813681989195"><ele>595.5714285714286</ele><time>2026-04-04T08:15:32Z</time></trkpt><trkpt lat="43.2120969648145" lon="12.98388981580141"><ele>595.1428571428571</ele><time>2026-04-04T08:15:33Z</time></trkpt><trkpt lat="43.21204377152571" lon="12.983959122757367"><ele>594.7142857142857</ele><time>2026-04-04T08:15:34Z</time></trkpt><trkpt lat="43.212002224844056" lon="12.984025698550676"><ele>594.2857142857142</ele><time>2026-04-04T08:15:35Z</time></trkpt><trkpt lat="43.211964995511984" lon="12.98409853416543"><ele>593.8571428571429</ele><time>2026-04-04T08:15:36Z</time></trkpt><trkpt lat="43.21194291370677" lon="12.984187135320798"><ele>593.4285714285713</ele><time>2026-04-04T08:15:37Z</time></trkpt><trkpt lat="43.21192218548978" lon="12.984278838786475"><ele>593.0</ele><time>2026-04-04T08:15:38Z</time></trkpt><trkpt lat="43.211863360403605" lon="12.984419103678679"><ele>593.0</ele><time>2026-04-04T08:15:40Z</time></trkpt><trkpt lat="43.21182410187543" lon="12.984501433982352"><ele>593.0</ele><time>2026-04-04T08:15:41Z</time></trkpt><trkpt lat="43.211785781818406" lon="12.984596062793745"><ele>593.0</ele><time>2026-04-04T08:15:42Z</time></trkpt><trkpt lat="43.211743382191194" lon="12.984693686751694"><ele>593.0</ele><time>2026-04-04T08:15:43Z</time></trkpt><trkpt lat="43.21171375498581" lon="12.984776975651297"><ele>593.0</ele><time>2026-04-04T08:15:44Z</time></trkpt><trkpt lat="43.21164695708341" lon="12.984890586787703"><ele>593.0</ele><time>2026-04-04T08:15:46Z</time></trkpt><trkpt lat="43.21157437320801" lon="12.985024279613636"><ele>590.6666666666666</ele><time>2026-04-04T08:15:48Z</time></trkpt><trkpt lat="43.21154608901826" lon="12.985120529687991"><ele>588.3333333333333</ele><time>2026-04-04T08:15:49Z</time></trkpt><trkpt lat="43.211522064442626" lon="12.985218092255138"><ele>586.0</ele><time>2026-04-04T08:15:50Z</time></trkpt><trkpt lat="43.21149329859266" lon="12.985308985301932"><ele>583.6666666666666</ele><time>2026-04-04T08:15:51Z</time></trkpt><trkpt lat="43.21142908102665" lon="12.985470276684815"><ele>581.3333333333334</ele><time>2026-04-04T08:15:53Z</time></trkpt><trkpt lat="43.21139191208884" lon="12.985572915536757"><ele>579.0</ele><time>2026-04-04T08:15:54Z</time></trkpt><trkpt lat="43.211356915170484" lon="12.985667805820519"><ele>585.3333333333334</ele><time>2026-04-04T08:15:55Z</time></trkpt><trkpt lat="43.21133547058304" lon="12.98576139370581"><ele>591.6666666666666</ele><time>2026-04-04T08:15:56Z</time></trkpt><trkpt lat="43.211317307101524" lon="12.985936007192104"><ele>598.0</ele><time>2026-04-04T08:15:58Z</time></trkpt><trkpt lat="43.21130411778537" lon="12.986034257036877"><ele>604.3333333333333</ele><time>2026-04-04T08:15:59Z</time></trkpt><trkpt lat="43.21128801695572" lon="12.986124165458829"><ele>610.6666666666666</ele><time>2026-04-04T08:16:00Z</time></trkpt><trkpt lat="43.21126804960712" lon="12.986212665559373"><ele>617.0</ele><time>2026-04-04T08:16:01Z</time></trkpt><trkpt lat="43.211241369103085" lon="12.986359767846922"><ele>617.0</ele><time>2026-04-04T08:16:03Z</time></trkpt><trkpt lat="43.21121710176767" lon="12.986488453059497"><ele>617.0</ele><time>2026-04-04T08:16:05Z</time></trkpt><trkpt lat="43.21118933709423" lon="12.986617911084814"><ele>617.0</ele><time>2026-04-04T08:16:07Z</time></trkpt><trkpt lat="43.21115339933921" lon="12.986689152076861"><ele>617.0</ele><time>2026-04-04T08:16:08Z</time></trkpt><trkpt lat="43.21112540617891" lon="12.986767391060775"><ele>617.0</ele><time>2026-04-04T08:16:09Z</time></trkpt><trkpt lat="43.21105275153891" lon="12.986892454627252"><ele>617.0</ele><time>2026-04-04T08:16:11Z</time></trkpt><trkpt lat="43.210988494202994" lon="12.987025932793433"><ele>614.8333333333333</ele><time>2026-04-04T08:16:13Z</time></trkpt><trkpt lat="43.210945595982665" lon="12.987099385623416"><ele>612.6666666666666</ele><time>2026-04-04T08:16:14Z</time></trkpt><trkpt lat="43.21091351929761" lon="12.987194142516303"><ele>610.5</ele><time>2026-04-04T08:16:15Z</time></trkpt><trkpt lat="43.21089034710858" lon="12.987303025509537"><ele>608.3333333333334</ele><time>2026-04-04T08:16:16Z</time></trkpt><trkpt lat="43.21086294175697" lon="12.9874043590292"><ele>606.1666666666667</ele><time>2026-04-04T08:16:17Z</time></trkpt><trkpt lat="43.210836146712694" lon="12.987498012678126"><ele>604.0</ele><time>2026-04-04T08:16:18Z</time></trkpt><trkpt lat="43.210815855524935" lon="12.987602201378925"><ele>603.6666666666667</ele><time>2026-04-04T08:16:19Z</time></trkpt><trkpt lat="43.21080013215009" lon="12.987700992458747"><ele>603.3333333333334</ele><time>2026-04-04T08:16:20Z</time></trkpt><trkpt lat="43.210792395544864" lon="12.987796471903733"><ele>603.0</ele><time>2026-04-04T08:16:21Z</time></trkpt><trkpt lat="43.21079316863959" lon="12.987897948700146"><ele>602.6666666666666</ele><time>2026-04-04T08:16:22Z</time></trkpt><trkpt lat="43.21080067698274" lon="12.988019891672801"><ele>602.3333333333333</ele><time>2026-04-04T08:16:23Z</time></trkpt><trkpt lat="43.21080499939072" lon="12.988150292924354"><ele>602.0</ele><time>2026-04-04T08:16:24Z</time></trkpt><trkpt lat="43.21082138653963" lon="12.98827641372396"><ele>602.0</ele><time>2026-04-04T08:16:25Z</time></trkpt><trkpt lat="43.21083510432509" lon="12.988385319707632"><ele>602.0</ele><time>2026-04-04T08:16:26Z</time></trkpt><trkpt lat="43.21085119462226" lon="12.988489981403621"><ele>602.0</ele><time>2026-04-04T08:16:27Z</time></trkpt><trkpt lat="43.210886890082165" lon="12.988590337218737"><ele>602.0</ele><time>2026-04-04T08:16:28Z</time></trkpt><trkpt lat="43.210935876879965" lon="12.988678889048314"><ele>602.0</ele><time>2026-04-04T08:16:29Z</time></trkpt><trkpt lat="43.21099956393709" lon="12.988761673973482"><ele>602.0</ele><time>2026-04-04T08:16:30Z</time></trkpt><trkpt lat="43.2110735222084" lon="12.988839035288125"><ele>602.0</ele><time>2026-04-04T08:16:31Z</time></trkpt><trkpt lat="43.21115089481431" lon="12.98891709537952"><ele>602.0</ele><time>2026-04-04T08:16:32Z</time></trkpt><trkpt lat="43.211206350928684" lon="12.988991491462702"><ele>602.0</ele><time>2026-04-04T08:16:33Z</time></trkpt><trkpt lat="43.21128140568982" lon="12.98912242472467"><ele>602.0</ele><time>2026-04-04T08:16:35Z</time></trkpt><trkpt lat="43.211303771593066" lon="12.989304934715593"><ele>602.0</ele><time>2026-04-04T08:16:37Z</time></trkpt><trkpt lat="43.21131592555341" lon="12.989397100848874"><ele>602.0</ele><time>2026-04-04T08:16:38Z</time></trkpt><trkpt lat="43.21133047954623" lon="12.989505543974522"><ele>602.0</ele><time>2026-04-04T08:16:40Z</time></trkpt><trkpt lat="43.211295946617845" lon="12.98958633779859"><ele>602.0</ele><time>2026-04-04T08:16:42Z</time></trkpt><trkpt lat="43.2111914847286" lon="12.989637927771177"><ele>602.0</ele><time>2026-04-04T08:16:44Z</time></trkpt><trkpt lat="43.2111208100808" lon="12.989667443660473"><ele>602.0</ele><time>2026-04-04T08:16:45Z</time></trkpt><trkpt lat="43.211044489133414" lon="12.989701995604316"><ele>602.0</ele><time>2026-04-04T08:16:46Z</time></trkpt><trkpt lat="43.21097257852179" lon="12.989735824501285"><ele>602.0</ele><time>2026-04-04T08:16:47Z</time></trkpt><trkpt lat="43.210893656874255" lon="12.989755583532498"><ele>602.0</ele><time>2026-04-04T08:16:48Z</time></trkpt><trkpt lat="43.21080051042155" lon="12.98978997795"><ele>602.0</ele><time>2026-04-04T08:16:49Z</time></trkpt><trkpt lat="43.210700806103006" lon="12.989841713482498"><ele>602.0</ele><time>2026-04-04T08:16:50Z</time></trkpt><trkpt lat="43.21059394845606" lon="12.98992276356645"><ele>602.0</ele><time>2026-04-04T08:16:51Z</time></trkpt><trkpt lat="43.21049046412799" lon="12.990012555356358"><ele>603.6</ele><time>2026-04-04T08:16:52Z</time></trkpt><trkpt lat="43.21038062766924" lon="12.990084321137832"><ele>605.2</ele><time>2026-04-04T08:16:53Z</time></trkpt><trkpt lat="43.21028366113978" lon="12.990172905870597"><ele>606.8</ele><time>2026-04-04T08:16:54Z</time></trkpt><trkpt lat="43.210190095825716" lon="12.990232894376208"><ele>608.4</ele><time>2026-04-04T08:16:55Z</time></trkpt><trkpt lat="43.21009095723055" lon="12.990277619308115"><ele>610.0</ele><time>2026-04-04T08:16:56Z</time></trkpt><trkpt lat="43.20999829363564" lon="12.990333119240585"><ele>610.0</ele><time>2026-04-04T08:16:57Z</time></trkpt><trkpt lat="43.209911284342176" lon="12.990376177705365"><ele>610.0</ele><time>2026-04-04T08:16:58Z</time></trkpt><trkpt lat="43.20982246880872" lon="12.990401598341629"><ele>610.0</ele><time>2026-04-04T08:16:59Z</time></trkpt><trkpt lat="43.20972413910077" lon="12.99041561051835"><ele>610.0</ele><time>2026-04-04T08:17:00Z</time></trkpt><trkpt lat="43.20960924793056" lon="12.990414110583897"><ele>610.0</ele><time>2026-04-04T08:17:01Z</time></trkpt><trkpt lat="43.20950499740417" lon="12.99042996688403"><ele>613.2</ele><time>2026-04-04T08:17:02Z</time></trkpt><trkpt lat="43.209416388542216" lon="12.990443028034026"><ele>616.4</ele><time>2026-04-04T08:17:03Z</time></trkpt><trkpt lat="43.209331297283235" lon="12.990456636349496"><ele>619.6</ele><time>2026-04-04T08:17:04Z</time></trkpt><trkpt lat="43.2092328945978" lon="12.990477753841077"><ele>622.8</ele><time>2026-04-04T08:17:06Z</time></trkpt><trkpt lat="43.20915815209148" lon="12.990457466102068"><ele>626.0</ele><time>2026-04-04T08:17:09Z</time></trkpt><trkpt lat="43.20916346739512" lon="12.990306223328295"><ele>626.0</ele><time>2026-04-04T08:17:11Z</time></trkpt><trkpt lat="43.20924284660621" lon="12.990200052940121"><ele>626.0</ele><time>2026-04-04T08:17:13Z</time></trkpt><trkpt lat="43.20929882373302" lon="12.990121118347055"><ele>626.0</ele><time>2026-04-04T08:17:14Z</time></trkpt><trkpt lat="43.209374628402095" lon="12.990028862023532"><ele>626.0</ele><time>2026-04-04T08:17:16Z</time></trkpt><trkpt lat="43.20943174751474" lon="12.989916916900453"><ele>626.0</ele><time>2026-04-04T08:17:18Z</time></trkpt><trkpt lat="43.209464096075614" lon="12.989827862593515"><ele>629.0</ele><time>2026-04-04T08:17:19Z</time></trkpt><trkpt lat="43.20950019689436" lon="12.989742187385161"><ele>632.0</ele><time>2026-04-04T08:17:20Z</time></trkpt><trkpt lat="43.20954940260838" lon="12.98964883779992"><ele>635.0</ele><time>2026-04-04T08:17:21Z</time></trkpt><trkpt lat="43.209589460418755" lon="12.98957435597115"><ele>638.0</ele><time>2026-04-04T08:17:22Z</time></trkpt><trkpt lat="43.20964382394015" lon="12.989497559974897"><ele>641.0</ele><time>2026-04-04T08:17:23Z</time></trkpt><trkpt lat="43.2096983751687" lon="12.989437921128326"><ele>644.0</ele><time>2026-04-04T08:17:24Z</time></trkpt><trkpt lat="43.209749104711435" lon="12.989357936397477"><ele>647.0</ele><time>2026-04-04T08:17:25Z</time></trkpt><trkpt lat="43.209796632535685" lon="12.98926973900751"><ele>646.0</ele><time>2026-04-04T08:17:26Z</time></trkpt><trkpt lat="43.20983093346283" lon="12.98919345835427"><ele>645.0</ele><time>2026-04-04T08:17:27Z</time></trkpt><trkpt lat="43.20986744316752" lon="12.989082913096977"><ele>644.0</ele><time>2026-04-04T08:17:29Z</time></trkpt><trkpt lat="43.20983816182125" lon="12.988927452436029"><ele>643.0</ele><time>2026-04-04T08:17:31Z</time></trkpt><trkpt lat="43.20975793192352" lon="12.988810092306966"><ele>642.0</ele><time>2026-04-04T08:17:33Z</time></trkpt><trkpt lat="43.20969357252188" lon="12.988737572731294"><ele>645.3333333333334</ele><time>2026-04-04T08:17:34Z</time></trkpt><trkpt lat="43.20960832904438" lon="12.988641532801054"><ele>648.6666666666666</ele><time>2026-04-04T08:17:36Z</time></trkpt><trkpt lat="43.20956064369052" lon="12.988575677597092"><ele>652.0</ele><time>2026-04-04T08:17:37Z</time></trkpt><trkpt lat="43.209503751403766" lon="12.988511205493886"><ele>655.3333333333333</ele><time>2026-04-04T08:17:38Z</time></trkpt><trkpt lat="43.20944681176654" lon="12.988455233308967"><ele>658.6666666666666</ele><time>2026-04-04T08:17:39Z</time></trkpt><trkpt lat="43.20936033851662" lon="12.988399182880674"><ele>662.0</ele><time>2026-04-04T08:17:40Z</time></trkpt><trkpt lat="43.209265596417026" lon="12.988340786587408"><ele>663.8333333333333</ele><time>2026-04-04T08:17:41Z</time></trkpt><trkpt lat="43.209184643346816" lon="12.9883045781809"><ele>665.6666666666666</ele><time>2026-04-04T08:17:42Z</time></trkpt><trkpt lat="43.20911680828449" lon="12.98826123195696"><ele>667.5</ele><time>2026-04-04T08:17:43Z</time></trkpt><trkpt lat="43.209051352358316" lon="12.988222247073663"><ele>669.3333333333334</ele><time>2026-04-04T08:17:44Z</time></trkpt><trkpt lat="43.208988498008644" lon="12.988175508155894"><ele>671.1666666666667</ele><time>2026-04-04T08:17:45Z</time></trkpt><trkpt lat="43.2089275853309" lon="12.98811069486256"><ele>673.0</ele><time>2026-04-04T08:17:46Z</time></trkpt><trkpt lat="43.208867238134125" lon="12.98803535043398"><ele>677.2</ele><time>2026-04-04T08:17:47Z</time></trkpt><trkpt lat="43.208810861626105" lon="12.987920147750875"><ele>681.4</ele><time>2026-04-04T08:17:48Z</time></trkpt><trkpt lat="43.20877069716747" lon="12.987809945244818"><ele>685.6</ele><time>2026-04-04T08:17:49Z</time></trkpt><trkpt lat="43.20875675302021" lon="12.987682219827821"><ele>689.8000000000001</ele><time>2026-04-04T08:17:50Z</time></trkpt><trkpt lat="43.20874990624907" lon="12.987575493942973"><ele>694.0</ele><time>2026-04-04T08:17:51Z</time></trkpt><trkpt lat="43.20873398416281" lon="12.987439925858451"><ele>694.0</ele><time>2026-04-04T08:17:53Z</time></trkpt><trkpt lat="43.20867082654535" lon="12.987382044062917"><ele>694.0</ele><time>2026-04-04T08:17:55Z</time></trkpt><trkpt lat="43.20855365579212" lon="12.987400515560056"><ele>694.0</ele><time>2026-04-04T08:17:57Z</time></trkpt><trkpt lat="43.208468957239475" lon="12.987458400189219"><ele>694.0</ele><time>2026-04-04T08:17:58Z</time></trkpt><trkpt lat="43.208387474859656" lon="12.987520238848319"><ele>694.0</ele><time>2026-04-04T08:17:59Z</time></trkpt><trkpt lat="43.20830229999393" lon="12.987575818557065"><ele>694.0</ele><time>2026-04-04T08:18:00Z</time></trkpt><trkpt lat="43.20821777570589" lon="12.987637344659573"><ele>694.0</ele><time>2026-04-04T08:18:01Z</time></trkpt><trkpt lat="43.20815440847568" lon="12.987689924285613"><ele>694.0</ele><time>2026-04-04T08:18:02Z</time></trkpt><trkpt lat="43.20806055643932" lon="12.987777472619632"><ele>694.0</ele><time>2026-04-04T08:18:04Z</time></trkpt><trkpt lat="43.20799947201573" lon="12.987803879052347"><ele>694.0</ele><time>2026-04-04T08:18:05Z</time></trkpt><trkpt lat="43.2080301582043" lon="12.987677566956318"><ele>694.0</ele><time>2026-04-04T08:18:10Z</time></trkpt><trkpt lat="43.208063291664025" lon="12.987588290627883"><ele>697.8333333333334</ele><time>2026-04-04T08:18:11Z</time></trkpt><trkpt lat="43.208087789400224" lon="12.987493192343292"><ele>701.6666666666667</ele><time>2026-04-04T08:18:12.001Z</time></trkpt><trkpt lat="43.20813347806331" lon="12.987429167884489"><ele>705.5</ele><time>2026-04-04T08:18:13.001Z</time></trkpt><trkpt lat="43.20818067415135" lon="12.987360330500204"><ele>709.3333333333334</ele><time>2026-04-04T08:18:14.001Z</time></trkpt><trkpt lat="43.20824136814825" lon="12.987265853104986"><ele>713.1666666666666</ele><time>2026-04-04T08:18:15.001Z</time></trkpt><trkpt lat="43.208305758814" lon="12.98718148491162"><ele>717.0</ele><time>2026-04-04T08:18:16.001Z</time></trkpt><trkpt lat="43.20835197620735" lon="12.987103565955836"><ele>717.0</ele><time>2026-04-04T08:18:17.001Z</time></trkpt><trkpt lat="43.208379972995985" lon="12.987010979888078"><ele>717.0</ele><time>2026-04-04T08:18:18.001Z</time></trkpt><trkpt lat="43.208426480185146" lon="12.98692074171665"><ele>717.0</ele><time>2026-04-04T08:18:19.001Z</time></trkpt><trkpt lat="43.20847236989896" lon="12.98683546047523"><ele>717.0</ele><time>2026-04-04T08:18:20.001Z</time></trkpt><trkpt lat="43.20851044072962" lon="12.986678686473313"><ele>717.0</ele><time>2026-04-04T08:18:22.001Z</time></trkpt><trkpt lat="43.20850694029677" lon="12.986584354635955"><ele>717.0</ele><time>2026-04-04T08:18:23.001Z</time></trkpt><trkpt lat="43.20852002368174" lon="12.986490531846687"><ele>720.8333333333334</ele><time>2026-04-04T08:18:24.001Z</time></trkpt><trkpt lat="43.20853050136845" lon="12.986391784146866"><ele>724.6666666666666</ele><time>2026-04-04T08:18:25.001Z</time></trkpt><trkpt lat="43.20851345513841" lon="12.986259820376482"><ele>728.5</ele><time>2026-04-04T08:18:27.001Z</time></trkpt><trkpt lat="43.20843995242511" lon="12.986257308429623"><ele>732.3333333333333</ele><time>2026-04-04T08:18:29.001Z</time></trkpt><trkpt lat="43.208375975607694" lon="12.986304656880348"><ele>736.1666666666666</ele><time>2026-04-04T08:18:30.001Z</time></trkpt><trkpt lat="43.20830210551261" lon="12.986362745647288"><ele>740.0</ele><time>2026-04-04T08:18:31.001Z</time></trkpt><trkpt lat="43.20823382542199" lon="12.986428659920023"><ele>741.1666666666666</ele><time>2026-04-04T08:18:32.001Z</time></trkpt><trkpt lat="43.20815174107737" lon="12.986482832112815"><ele>742.3333333333333</ele><time>2026-04-04T08:18:33.001Z</time></trkpt><trkpt lat="43.208075431939704" lon="12.98654062473554"><ele>743.5</ele><time>2026-04-04T08:18:34.001Z</time></trkpt><trkpt lat="43.20800357957635" lon="12.986603128548008"><ele>744.6666666666666</ele><time>2026-04-04T08:18:35.001Z</time></trkpt><trkpt lat="43.207928760817325" lon="12.986662046917626"><ele>745.8333333333334</ele><time>2026-04-04T08:18:36.001Z</time></trkpt><trkpt lat="43.20785583189369" lon="12.98672190037384"><ele>747.0</ele><time>2026-04-04T08:18:37.001Z</time></trkpt><trkpt lat="43.20778787559274" lon="12.98679132061217"><ele>747.0</ele><time>2026-04-04T08:18:38.001Z</time></trkpt><trkpt lat="43.20769928989816" lon="12.986900403516652"><ele>747.0</ele><time>2026-04-04T08:18:39.001Z</time></trkpt><trkpt lat="43.20761466557664" lon="12.986998625154431"><ele>747.0</ele><time>2026-04-04T08:18:40.001Z</time></trkpt><trkpt lat="43.20753425130857" lon="12.987088351318857"><ele>747.0</ele><time>2026-04-04T08:18:41.001Z</time></trkpt><trkpt lat="43.207442203563104" lon="12.98718639144572"><ele>747.0</ele><time>2026-04-04T08:18:42.001Z</time></trkpt><trkpt lat="43.20736001535158" lon="12.987296864043419"><ele>747.0</ele><time>2026-04-04T08:18:43.001Z</time></trkpt><trkpt lat="43.20728412501597" lon="12.9874011949246"><ele>747.0</ele><time>2026-04-04T08:18:44.001Z</time></trkpt><trkpt lat="43.20720457686401" lon="12.987506706125549"><ele>747.0</ele><time>2026-04-04T08:18:45.001Z</time></trkpt><trkpt lat="43.20713689641339" lon="12.98762718299732"><ele>747.0</ele><time>2026-04-04T08:18:46.001Z</time></trkpt><trkpt lat="43.20707198637564" lon="12.987736714960453"><ele>749.6</ele><time>2026-04-04T08:18:47.001Z</time></trkpt><trkpt lat="43.20700894542506" lon="12.987849122142647"><ele>752.2</ele><time>2026-04-04T08:18:48.001Z</time></trkpt><trkpt lat="43.20693482573002" lon="12.987967232100944"><ele>754.8</ele><time>2026-04-04T08:18:49.001Z</time></trkpt><trkpt lat="43.20685517556277" lon="12.988095639943518"><ele>757.4</ele><time>2026-04-04T08:18:50.001Z</time></trkpt><trkpt lat="43.20679965280866" lon="12.988193618436863"><ele>760.0</ele><time>2026-04-04T08:18:51.001Z</time></trkpt><trkpt lat="43.20674659030557" lon="12.98827632186776"><ele>756.4</ele><time>2026-04-04T08:18:52.001Z</time></trkpt><trkpt lat="43.2066802197288" lon="12.98837285131709"><ele>752.8</ele><time>2026-04-04T08:18:53.001Z</time></trkpt><trkpt lat="43.20660025914036" lon="12.98848544482428"><ele>749.2</ele><time>2026-04-04T08:18:54.001Z</time></trkpt><trkpt lat="43.20653437318185" lon="12.988587433822126"><ele>745.6</ele><time>2026-04-04T08:18:55.001Z</time></trkpt><trkpt lat="43.20647111425519" lon="12.988662301105117"><ele>742.0</ele><time>2026-04-04T08:18:56.001Z</time></trkpt><trkpt lat="43.20641144799272" lon="12.988713540019749"><ele>742.0</ele><time>2026-04-04T08:18:57.001Z</time></trkpt><trkpt lat="43.20634329595362" lon="12.988755507288769"><ele>742.0</ele><time>2026-04-04T08:18:58.001Z</time></trkpt><trkpt lat="43.20627966989358" lon="12.988791101786646"><ele>742.0</ele><time>2026-04-04T08:18:59.001Z</time></trkpt><trkpt lat="43.206187776120366" lon="12.988857854195542"><ele>742.0</ele><time>2026-04-04T08:19:01.001Z</time></trkpt><trkpt lat="43.20607141206734" lon="12.98885264659708"><ele>742.0</ele><time>2026-04-04T08:19:03.001Z</time></trkpt><trkpt lat="43.20600741377966" lon="12.988830370199581"><ele>742.0</ele><time>2026-04-04T08:19:04.001Z</time></trkpt><trkpt lat="43.20591814765413" lon="12.98878440693629"><ele>742.0</ele><time>2026-04-04T08:19:05.001Z</time></trkpt><trkpt lat="43.20583662862174" lon="12.988746391373246"><ele>742.0</ele><time>2026-04-04T08:19:06.001Z</time></trkpt><trkpt lat="43.20576650451541" lon="12.988721062793749"><ele>742.0</ele><time>2026-04-04T08:19:07.001Z</time></trkpt><trkpt lat="43.20570776827576" lon="12.988682982964992"><ele>742.0</ele><time>2026-04-04T08:19:08.001Z</time></trkpt><trkpt lat="43.205607326497145" lon="12.98859908777487"><ele>742.0</ele><time>2026-04-04T08:19:10.001Z</time></trkpt><trkpt lat="43.20555321878495" lon="12.988541365852823"><ele>742.0</ele><time>2026-04-04T08:19:11.001Z</time></trkpt><trkpt lat="43.205496615089345" lon="12.98847828456335"><ele>739.3333333333334</ele><time>2026-04-04T08:19:12.001Z</time></trkpt><trkpt lat="43.20544040955451" lon="12.988404574006282"><ele>736.6666666666667</ele><time>2026-04-04T08:19:13.001Z</time></trkpt><trkpt lat="43.2053857577433" lon="12.988325736294291"><ele>734.0</ele><time>2026-04-04T08:19:14.001Z</time></trkpt><trkpt lat="43.20532302398029" lon="12.988232369000253"><ele>731.3333333333334</ele><time>2026-04-04T08:19:15.001Z</time></trkpt><trkpt lat="43.205259154793396" lon="12.988142907497682"><ele>728.6666666666666</ele><time>2026-04-04T08:19:16.001Z</time></trkpt><trkpt lat="43.205193450254754" lon="12.98804886527212"><ele>726.0</ele><time>2026-04-04T08:19:17.001Z</time></trkpt><trkpt lat="43.20511831478706" lon="12.98794509408344"><ele>732.4</ele><time>2026-04-04T08:19:18.001Z</time></trkpt><trkpt lat="43.205041443276635" lon="12.98783371796726"><ele>738.8</ele><time>2026-04-04T08:19:19.001Z</time></trkpt><trkpt lat="43.20496642849557" lon="12.98771632276285"><ele>745.1999999999999</ele><time>2026-04-04T08:19:20.001Z</time></trkpt><trkpt lat="43.204893737434155" lon="12.987599914486337"><ele>751.5999999999999</ele><time>2026-04-04T08:19:21.001Z</time></trkpt><trkpt lat="43.20482882102381" lon="12.98748983873035"><ele>758.0</ele><time>2026-04-04T08:19:22.001Z</time></trkpt><trkpt lat="43.20476054154328" lon="12.987394725003261"><ele>760.5999999999999</ele><time>2026-04-04T08:19:23.001Z</time></trkpt><trkpt lat="43.2046988756239" lon="12.98729937626303"><ele>763.1999999999999</ele><time>2026-04-04T08:19:24.001Z</time></trkpt><trkpt lat="43.20463697777055" lon="12.9871981426948"><ele>765.8</ele><time>2026-04-04T08:19:25.001Z</time></trkpt><trkpt lat="43.20457200338047" lon="12.987088828895354"><ele>768.4</ele><time>2026-04-04T08:19:26.001Z</time></trkpt><trkpt lat="43.20451091097238" lon="12.986987678195714"><ele>771.0</ele><time>2026-04-04T08:19:27.001Z</time></trkpt><trkpt lat="43.2044493361692" lon="12.98689455400464"><ele>771.0</ele><time>2026-04-04T08:19:28.001Z</time></trkpt><trkpt lat="43.204381463567415" lon="12.986799551538265"><ele>771.0</ele><time>2026-04-04T08:19:29.001Z</time></trkpt><trkpt lat="43.204307470503046" lon="12.986705444872898"><ele>771.0</ele><time>2026-04-04T08:19:30.001Z</time></trkpt><trkpt lat="43.20423119927756" lon="12.986613465650237"><ele>771.0</ele><time>2026-04-04T08:19:31.001Z</time></trkpt><trkpt lat="43.20416033421032" lon="12.986543722596013"><ele>771.0</ele><time>2026-04-04T08:19:32.001Z</time></trkpt><trkpt lat="43.20408569299252" lon="12.986476251866142"><ele>772.8</ele><time>2026-04-04T08:19:33.001Z</time></trkpt><trkpt lat="43.20401055126947" lon="12.9864277692046"><ele>774.5999999999999</ele><time>2026-04-04T08:19:34.001Z</time></trkpt><trkpt lat="43.2039352567106" lon="12.986382057065212"><ele>776.4</ele><time>2026-04-04T08:19:35.001Z</time></trkpt><trkpt lat="43.203834583113746" lon="12.98632249197514"><ele>778.2</ele><time>2026-04-04T08:19:37.001Z</time></trkpt><trkpt lat="43.20374705367124" lon="12.98624615367694"><ele>780.0</ele><time>2026-04-04T08:19:39.001Z</time></trkpt><trkpt lat="43.20367255351282" lon="12.986163658486294"><ele>780.0</ele><time>2026-04-04T08:19:41.001Z</time></trkpt><trkpt lat="43.20361255720898" lon="12.986026192151549"><ele>780.0</ele><time>2026-04-04T08:19:43.001Z</time></trkpt><trkpt lat="43.203559747044764" lon="12.985915638379458"><ele>780.0</ele><time>2026-04-04T08:19:45.001Z</time></trkpt><trkpt lat="43.20350545125295" lon="12.985844156823102"><ele>780.0</ele><time>2026-04-04T08:19:48.001Z</time></trkpt><trkpt lat="43.20344980524047" lon="12.98580120633381"><ele>780.0</ele><time>2026-04-04T08:19:56.001Z</time></trkpt><trkpt lat="43.203379514390306" lon="12.985750777599193"><ele>780.0</ele><time>2026-04-04T08:19:58.001Z</time></trkpt><trkpt lat="43.20330069611129" lon="12.98582453423539"><ele>780.0</ele><time>2026-04-04T08:20:01.001Z</time></trkpt><trkpt lat="43.203245681015524" lon="12.98590672216581"><ele>780.0</ele><time>2026-04-04T08:20:03.001Z</time></trkpt><trkpt lat="43.20321080838995" lon="12.985986821070567"><ele>780.0</ele><time>2026-04-04T08:20:05.001Z</time></trkpt><trkpt lat="43.203163421216246" lon="12.98605715598022"><ele>780.0</ele><time>2026-04-04T08:20:06.001Z</time></trkpt><trkpt lat="43.20313349837673" lon="12.986143353840083"><ele>780.0</ele><time>2026-04-04T08:20:07.001Z</time></trkpt><trkpt lat="43.203103857703816" lon="12.986232363518349"><ele>780.0</ele><time>2026-04-04T08:20:09.001Z</time></trkpt><trkpt lat="43.20304866224171" lon="12.986316526781835"><ele>780.0</ele><time>2026-04-04T08:20:10.001Z</time></trkpt><trkpt lat="43.20299769679683" lon="12.986425468041022"><ele>778.4</ele><time>2026-04-04T08:20:11.001Z</time></trkpt><trkpt lat="43.202963225442964" lon="12.986546226285604"><ele>776.8</ele><time>2026-04-04T08:20:12.001Z</time></trkpt><trkpt lat="43.20293259878679" lon="12.986676682104108"><ele>775.2</ele><time>2026-04-04T08:20:13.001Z</time></trkpt><trkpt lat="43.20291106287759" lon="12.98678316427216"><ele>773.6</ele><time>2026-04-04T08:20:14.001Z</time></trkpt><trkpt lat="43.20288895789528" lon="12.986898392031396"><ele>772.0</ele><time>2026-04-04T08:20:15.001Z</time></trkpt><trkpt lat="43.20286012363069" lon="12.987013477144766"><ele>771.9999999999999</ele><time>2026-04-04T08:20:16.001Z</time></trkpt><trkpt lat="43.20284110972952" lon="12.987119744294146"><ele>772.0</ele><time>2026-04-04T08:20:17.001Z</time></trkpt><trkpt lat="43.2028176193256" lon="12.987218028188767"><ele>772.0</ele><time>2026-04-04T08:20:18.001Z</time></trkpt><trkpt lat="43.20278182751945" lon="12.987325054725396"><ele>772.0</ele><time>2026-04-04T08:20:19.001Z</time></trkpt><trkpt lat="43.202739282096225" lon="12.987425956069291"><ele>771.9999999999999</ele><time>2026-04-04T08:20:20.001Z</time></trkpt><trkpt lat="43.20268813915814" lon="12.987525452838725"><ele>772.0</ele><time>2026-04-04T08:20:21.001Z</time></trkpt><trkpt lat="43.20263040264674" lon="12.98761591302194"><ele>766.8333333333333</ele><time>2026-04-04T08:20:22.001Z</time></trkpt><trkpt lat="43.20257979215865" lon="12.987718677957938"><ele>761.6666666666666</ele><time>2026-04-04T08:20:23.001Z</time></trkpt><trkpt lat="43.20253055640419" lon="12.987828757007364"><ele>756.5</ele><time>2026-04-04T08:20:24.001Z</time></trkpt><trkpt lat="43.202492332480176" lon="12.98792907126022"><ele>751.3333333333333</ele><time>2026-04-04T08:20:25.001Z</time></trkpt><trkpt lat="43.202463344607445" lon="12.98801997742627"><ele>746.1666666666666</ele><time>2026-04-04T08:20:26.001Z</time></trkpt><trkpt lat="43.20243496731666" lon="12.988107258256678"><ele>741.0</ele><time>2026-04-04T08:20:27.001Z</time></trkpt><trkpt lat="43.20236698222204" lon="12.988267748575172"><ele>737.5999999999999</ele><time>2026-04-04T08:20:29.001Z</time></trkpt><trkpt lat="43.20232962848159" lon="12.988340201927686"><ele>734.2</ele><time>2026-04-04T08:20:30.001Z</time></trkpt><trkpt lat="43.20224174498074" lon="12.98845284969709"><ele>730.8</ele><time>2026-04-04T08:20:32.001Z</time></trkpt><trkpt lat="43.20211798875129" lon="12.98851496549602"><ele>727.4000000000001</ele><time>2026-04-04T08:20:34.001Z</time></trkpt><trkpt lat="43.20204329099512" lon="12.988532561662657"><ele>724.0</ele><time>2026-04-04T08:20:35.001Z</time></trkpt><trkpt lat="43.201946735223714" lon="12.98857977540399"><ele>724.0</ele><time>2026-04-04T08:20:36.001Z</time></trkpt><trkpt lat="43.20186096859783" lon="12.988627667105504"><ele>724.0</ele><time>2026-04-04T08:20:37.001Z</time></trkpt><trkpt lat="43.201772730267045" lon="12.988694419312829"><ele>724.0</ele><time>2026-04-04T08:20:38.001Z</time></trkpt><trkpt lat="43.20168359201232" lon="12.988782090550114"><ele>724.0</ele><time>2026-04-04T08:20:39.001Z</time></trkpt><trkpt lat="43.2015920708772" lon="12.988861009607763"><ele>724.0</ele><time>2026-04-04T08:20:40.001Z</time></trkpt><trkpt lat="43.201502559116165" lon="12.988944834980314"><ele>721.4000000000001</ele><time>2026-04-04T08:20:41.001Z</time></trkpt><trkpt lat="43.201423293014585" lon="12.989020028114036"><ele>718.8</ele><time>2026-04-04T08:20:42.001Z</time></trkpt><trkpt lat="43.20135063409788" lon="12.989089973640178"><ele>716.2</ele><time>2026-04-04T08:20:43.001Z</time></trkpt><trkpt lat="43.2012837643787" lon="12.989150538647737"><ele>713.5999999999999</ele><time>2026-04-04T08:20:44.001Z</time></trkpt><trkpt lat="43.201209496988305" lon="12.989225786428369"><ele>711.0</ele><time>2026-04-04T08:20:45.001Z</time></trkpt><trkpt lat="43.201128391867194" lon="12.989315516530924"><ele>711.0</ele><time>2026-04-04T08:20:46.001Z</time></trkpt><trkpt lat="43.20105788526927" lon="12.989425850169846"><ele>711.0</ele><time>2026-04-04T08:20:47.001Z</time></trkpt><trkpt lat="43.20100139864432" lon="12.989555739856605"><ele>711.0</ele><time>2026-04-04T08:20:48.001Z</time></trkpt><trkpt lat="43.20094588461363" lon="12.989678907834723"><ele>711.0</ele><time>2026-04-04T08:20:49Z</time></trkpt><trkpt lat="43.200895473577205" lon="12.989784577556861"><ele>711.0</ele><time>2026-04-04T08:20:50Z</time></trkpt><trkpt lat="43.20083763055706" lon="12.989879706967661"><ele>711.0</ele><time>2026-04-04T08:20:51Z</time></trkpt><trkpt lat="43.20073433056341" lon="12.989984756407136"><ele>711.0</ele><time>2026-04-04T08:20:52Z</time></trkpt><trkpt lat="43.200648543267285" lon="12.99008140061408"><ele>711.0</ele><time>2026-04-04T08:20:53Z</time></trkpt><trkpt lat="43.20056202550828" lon="12.99015219663863"><ele>711.0</ele><time>2026-04-04T08:20:54Z</time></trkpt><trkpt lat="43.200483779349376" lon="12.99021375310493"><ele>711.0</ele><time>2026-04-04T08:20:55Z</time></trkpt><trkpt lat="43.20041937496257" lon="12.990264794035294"><ele>710.6666666666666</ele><time>2026-04-04T08:20:56Z</time></trkpt><trkpt lat="43.20036103363612" lon="12.990319321290977"><ele>710.3333333333334</ele><time>2026-04-04T08:20:57Z</time></trkpt><trkpt lat="43.200300117134226" lon="12.990392027734465"><ele>710.0</ele><time>2026-04-04T08:20:58Z</time></trkpt><trkpt lat="43.200230615931055" lon="12.990494840517227"><ele>709.6666666666667</ele><time>2026-04-04T08:20:59Z</time></trkpt><trkpt lat="43.200159121153824" lon="12.990595763655714"><ele>709.3333333333334</ele><time>2026-04-04T08:21:00Z</time></trkpt><trkpt lat="43.200105562040854" lon="12.990681660000728"><ele>709.0</ele><time>2026-04-04T08:21:01Z</time></trkpt><trkpt lat="43.200047339058564" lon="12.99076099594819"><ele>713.25</ele><time>2026-04-04T08:21:02Z</time></trkpt><trkpt lat="43.19996949985658" lon="12.990867456892499"><ele>717.5</ele><time>2026-04-04T08:21:04Z</time></trkpt><trkpt lat="43.19994107337224" lon="12.990996846614147"><ele>721.75</ele><time>2026-04-04T08:21:06Z</time></trkpt><trkpt lat="43.19992665893676" lon="12.991103926044902"><ele>726.0</ele><time>2026-04-04T08:21:07Z</time></trkpt><trkpt lat="43.199779574137736" lon="12.991223443358846"><ele>726.0</ele><time>2026-04-04T08:21:08Z</time></trkpt><trkpt lat="43.1997366437831" lon="12.991326054827319"><ele>726.0</ele><time>2026-04-04T08:21:09Z</time></trkpt><trkpt lat="43.1996812870671" lon="12.991417697582458"><ele>726.0</ele><time>2026-04-04T08:21:10Z</time></trkpt><trkpt lat="43.19963026717502" lon="12.991537462850097"><ele>726.0</ele><time>2026-04-04T08:21:11Z</time></trkpt><trkpt lat="43.19957488178408" lon="12.991645740489805"><ele>726.0</ele><time>2026-04-04T08:21:12Z</time></trkpt><trkpt lat="43.1995019816055" lon="12.991743527940255"><ele>721.0</ele><time>2026-04-04T08:21:13Z</time></trkpt><trkpt lat="43.19943480489322" lon="12.991830739348936"><ele>716.0</ele><time>2026-04-04T08:21:14Z</time></trkpt><trkpt lat="43.19937459525751" lon="12.991933024725093"><ele>711.0</ele><time>2026-04-04T08:21:15Z</time></trkpt><trkpt lat="43.19931599588357" lon="12.99202116467865"><ele>706.0</ele><time>2026-04-04T08:21:16Z</time></trkpt><trkpt lat="43.199258984291994" lon="12.992116860894955"><ele>701.0</ele><time>2026-04-04T08:21:17Z</time></trkpt><trkpt lat="43.19920113526882" lon="12.992215852371864"><ele>701.0</ele><time>2026-04-04T08:21:18Z</time></trkpt><trkpt lat="43.19914405611367" lon="12.992294848912241"><ele>701.0</ele><time>2026-04-04T08:21:19Z</time></trkpt><trkpt lat="43.19908604133291" lon="12.992361924639834"><ele>701.0</ele><time>2026-04-04T08:21:20Z</time></trkpt><trkpt lat="43.19902483666197" lon="12.992442190904216"><ele>701.0</ele><time>2026-04-04T08:21:21Z</time></trkpt><trkpt lat="43.198974081125556" lon="12.992507327802356"><ele>701.0</ele><time>2026-04-04T08:21:22Z</time></trkpt><trkpt lat="43.19892947109128" lon="12.992568826629821"><ele>701.0</ele><time>2026-04-04T08:21:23Z</time></trkpt><trkpt lat="43.19888867941673" lon="12.992638033065786"><ele>701.0</ele><time>2026-04-04T08:21:24Z</time></trkpt><trkpt lat="43.19879080224667" lon="12.992742844096423"><ele>701.3333333333333</ele><time>2026-04-04T08:21:26Z</time></trkpt><trkpt lat="43.19873755156263" lon="12.992815620677964"><ele>701.6666666666666</ele><time>2026-04-04T08:21:27Z</time></trkpt><trkpt lat="43.19868148749544" lon="12.992905475753927"><ele>702.0</ele><time>2026-04-04T08:21:28Z</time></trkpt><trkpt lat="43.1986345440143" lon="12.993007067121967"><ele>702.3333333333334</ele><time>2026-04-04T08:21:29Z</time></trkpt><trkpt lat="43.19859613842678" lon="12.993096709152622"><ele>702.6666666666667</ele><time>2026-04-04T08:21:30Z</time></trkpt><trkpt lat="43.198565481860754" lon="12.993176278732445"><ele>703.0</ele><time>2026-04-04T08:21:31Z</time></trkpt><trkpt lat="43.19852505656197" lon="12.993263348999653"><ele>703.0</ele><time>2026-04-04T08:21:32Z</time></trkpt><trkpt lat="43.19843731274692" lon="12.993322863151526"><ele>703.0</ele><time>2026-04-04T08:21:34Z</time></trkpt><trkpt lat="43.19837195141896" lon="12.993355987163897"><ele>703.0</ele><time>2026-04-04T08:21:37Z</time></trkpt><trkpt lat="43.19832834484014" lon="12.993436517959259"><ele>703.0</ele><time>2026-04-04T08:21:42Z</time></trkpt><trkpt lat="43.19830469953505" lon="12.993520554775746"><ele>703.0</ele><time>2026-04-04T08:21:48Z</time></trkpt><trkpt lat="43.19827936800646" lon="12.993612634392871"><ele>703.0</ele><time>2026-04-04T08:21:52.001Z</time></trkpt><trkpt lat="43.19825960935217" lon="12.993698770875657"><ele>703.0</ele><time>2026-04-04T08:21:54.001Z</time></trkpt><trkpt lat="43.19823663982478" lon="12.993799703740896"><ele>702.8333333333334</ele><time>2026-04-04T08:21:57.001Z</time></trkpt><trkpt lat="43.19817633660024" lon="12.993889046062085"><ele>702.6666666666667</ele><time>2026-04-04T08:22:02.001Z</time></trkpt><trkpt lat="43.19811373329925" lon="12.993918569969372"><ele>702.5</ele><time>2026-04-04T08:22:11.001Z</time></trkpt><trkpt lat="43.19802199811837" lon="12.99396810990847"><ele>702.3333333333334</ele><time>2026-04-04T08:22:14.001Z</time></trkpt><trkpt lat="43.197954092007144" lon="12.994021629764083"><ele>702.1666666666666</ele><time>2026-04-04T08:22:16.001Z</time></trkpt><trkpt lat="43.19788998132807" lon="12.99407474395839"><ele>702.0</ele><time>2026-04-04T08:22:20.001Z</time></trkpt><trkpt lat="43.197812885530205" lon="12.99407819301033"><ele>702.0</ele><time>2026-04-04T08:22:24Z</time></trkpt><trkpt lat="43.19776498512965" lon="12.99401800407745"><ele>702.0</ele><time>2026-04-04T08:22:31Z</time></trkpt><trkpt lat="43.197691173701294" lon="12.994013200298008"><ele>702.0</ele><time>2026-04-04T08:22:45Z</time></trkpt><trkpt lat="43.197668463244426" lon="12.993923627287806"><ele>702.0</ele><time>2026-04-04T08:23:12Z</time></trkpt><trkpt lat="43.19772269778582" lon="12.993841345846706"><ele>702.0</ele><time>2026-04-04T08:23:14Z</time></trkpt><trkpt lat="43.1977710026228" lon="12.993732315384806"><ele>702.0</ele><time>2026-04-04T08:23:16Z</time></trkpt><trkpt lat="43.19780751425975" lon="12.993652569374898"><ele>702.0</ele><time>2026-04-04T08:23:18Z</time></trkpt><trkpt lat="43.19779739586187" lon="12.993560928919369"><ele>702.0</ele><time>2026-04-04T08:23:20Z</time></trkpt><trkpt lat="43.19773759766545" lon="12.993482489778122"><ele>702.0</ele><time>2026-04-04T08:23:23Z</time></trkpt><trkpt lat="43.19765788755549" lon="12.993464106335498"><ele>702.0</ele><time>2026-04-04T08:23:26Z</time></trkpt><trkpt lat="43.19758024133827" lon="12.993462712388279"><ele>702.0</ele><time>2026-04-04T08:23:28Z</time></trkpt><trkpt lat="43.19747048456386" lon="12.993445564567596"><ele>702.0</ele><time>2026-04-04T08:23:30Z</time></trkpt><trkpt lat="43.197386627578595" lon="12.99343633779958"><ele>707.8333333333334</ele><time>2026-04-04T08:23:32Z</time></trkpt><trkpt lat="43.19730902575258" lon="12.993418370624935"><ele>713.6666666666666</ele><time>2026-04-04T08:23:35Z</time></trkpt><trkpt lat="43.197232217068866" lon="12.993395102972114"><ele>719.5</ele><time>2026-04-04T08:23:38Z</time></trkpt><trkpt lat="43.1971668350799" lon="12.993365593426189"><ele>725.3333333333333</ele><time>2026-04-04T08:23:41Z</time></trkpt><trkpt lat="43.197088289751974" lon="12.993369055109431"><ele>731.1666666666666</ele><time>2026-04-04T08:23:43Z</time></trkpt><trkpt lat="43.196984651771636" lon="12.993423372337805"><ele>737.0</ele><time>2026-04-04T08:23:45Z</time></trkpt><trkpt lat="43.19687685907766" lon="12.993483728854688"><ele>737.0</ele><time>2026-04-04T08:23:47Z</time></trkpt><trkpt lat="43.196778467555546" lon="12.993529267775434"><ele>737.0</ele><time>2026-04-04T08:23:49Z</time></trkpt><trkpt lat="43.196660360121975" lon="12.993589897043659"><ele>737.0</ele><time>2026-04-04T08:23:51Z</time></trkpt><trkpt lat="43.196547033172344" lon="12.993636733872648"><ele>737.0</ele><time>2026-04-04T08:23:53Z</time></trkpt><trkpt lat="43.19645464744253" lon="12.99366279555749"><ele>737.0</ele><time>2026-04-04T08:23:55Z</time></trkpt><trkpt lat="43.19636385392696" lon="12.993693579588019"><ele>745.2</ele><time>2026-04-04T08:23:57Z</time></trkpt><trkpt lat="43.19628086637282" lon="12.993716213664731"><ele>753.4000000000001</ele><time>2026-04-04T08:23:59Z</time></trkpt><trkpt lat="43.196179418213866" lon="12.993749946914555"><ele>761.5999999999999</ele><time>2026-04-04T08:24:01Z</time></trkpt><trkpt lat="43.196068819506245" lon="12.993779881195636"><ele>769.8</ele><time>2026-04-04T08:24:03Z</time></trkpt><trkpt lat="43.19596375504015" lon="12.993812376626089"><ele>778.0</ele><time>2026-04-04T08:24:05Z</time></trkpt><trkpt lat="43.19589963607842" lon="12.99384029983955"><ele>778.0</ele><time>2026-04-04T08:24:06Z</time></trkpt><trkpt lat="43.19579806146329" lon="12.993871751313556"><ele>778.0</ele><time>2026-04-04T08:24:08Z</time></trkpt><trkpt lat="43.195734093484006" lon="12.993891686359756"><ele>778.0</ele><time>2026-04-04T08:24:11Z</time></trkpt><trkpt lat="43.195702113831764" lon="12.99406630733764"><ele>778.0</ele><time>2026-04-04T08:24:15Z</time></trkpt><trkpt lat="43.19565113490371" lon="12.994129573044484"><ele>778.0</ele><time>2026-04-04T08:24:28Z</time></trkpt><trkpt lat="43.19550785312691" lon="12.994148784970665"><ele>783.4</ele><time>2026-04-04T08:24:31Z</time></trkpt><trkpt lat="43.19542505147304" lon="12.994203912729663"><ele>788.8</ele><time>2026-04-04T08:24:33Z</time></trkpt><trkpt lat="43.19534321228597" lon="12.994273911178702"><ele>794.2</ele><time>2026-04-04T08:24:35Z</time></trkpt><trkpt lat="43.19525719048094" lon="12.994328912094678"><ele>799.6</ele><time>2026-04-04T08:24:37Z</time></trkpt><trkpt lat="43.195172683994514" lon="12.994386712699704"><ele>805.0</ele><time>2026-04-04T08:24:39Z</time></trkpt><trkpt lat="43.19509204576259" lon="12.994437674750937"><ele>805.0</ele><time>2026-04-04T08:24:41Z</time></trkpt><trkpt lat="43.19502759865268" lon="12.994461694021771"><ele>805.0</ele><time>2026-04-04T08:24:43Z</time></trkpt><trkpt lat="43.19496542343702" lon="12.994509033912264"><ele>805.0</ele><time>2026-04-04T08:24:45Z</time></trkpt><trkpt lat="43.1948572891656" lon="12.994556171255313"><ele>805.0</ele><time>2026-04-04T08:24:47Z</time></trkpt><trkpt lat="43.194734146984956" lon="12.99457234687408"><ele>805.0</ele><time>2026-04-04T08:24:49Z</time></trkpt><trkpt lat="43.19462282078148" lon="12.994581267896999"><ele>812.1666666666666</ele><time>2026-04-04T08:24:51Z</time></trkpt><trkpt lat="43.1945436295452" lon="12.994579991615307"><ele>819.3333333333333</ele><time>2026-04-04T08:24:54Z</time></trkpt><trkpt lat="43.19446996583482" lon="12.994600123996843"><ele>826.5</ele><time>2026-04-04T08:25:09Z</time></trkpt><trkpt lat="43.19439899857808" lon="12.99463756392025"><ele>833.6666666666667</ele><time>2026-04-04T08:25:12Z</time></trkpt><trkpt lat="43.19433946401708" lon="12.994671433695016"><ele>840.8333333333334</ele><time>2026-04-04T08:25:16Z</time></trkpt><trkpt lat="43.194211284539236" lon="12.994558793594186"><ele>848.0</ele><time>2026-04-04T08:25:24Z</time></trkpt><trkpt lat="43.19414046922794" lon="12.994569205889949"><ele>848.0000000000001</ele><time>2026-04-04T08:25:33Z</time></trkpt><trkpt lat="43.19404852423576" lon="12.99454871073822"><ele>848.0</ele><time>2026-04-04T08:25:38Z</time></trkpt><trkpt lat="43.19397408504507" lon="12.994601234429188"><ele>848.0</ele><time>2026-04-04T08:25:41Z</time></trkpt><trkpt lat="43.19391037800143" lon="12.994661872570587"><ele>848.0</ele><time>2026-04-04T08:25:43Z</time></trkpt><trkpt lat="43.19383531202534" lon="12.994739543176022"><ele>848.0000000000001</ele><time>2026-04-04T08:25:45Z</time></trkpt><trkpt lat="43.19378238913761" lon="12.994788435657805"><ele>848.0</ele><time>2026-04-04T08:25:47Z</time></trkpt><trkpt lat="43.193729943763536" lon="12.994845278528462"><ele>847.8</ele><time>2026-04-04T08:25:50Z</time></trkpt><trkpt lat="43.193669337077345" lon="12.994947830749599"><ele>847.5999999999999</ele><time>2026-04-04T08:25:52Z</time></trkpt><trkpt lat="43.193593640160834" lon="12.994992701130979"><ele>847.4000000000001</ele><time>2026-04-04T08:25:55Z</time></trkpt><trkpt lat="43.19350763346113" lon="12.995038695292896"><ele>847.2</ele><time>2026-04-04T08:25:57Z</time></trkpt><trkpt lat="43.19340651911777" lon="12.995102149932537"><ele>847.0</ele><time>2026-04-04T08:25:59Z</time></trkpt><trkpt lat="43.19332947831131" lon="12.995172921297621"><ele>846.9999999999999</ele><time>2026-04-04T08:26:01Z</time></trkpt><trkpt lat="43.19326246113937" lon="12.995207935887956"><ele>847.0</ele><time>2026-04-04T08:26:04Z</time></trkpt><trkpt lat="43.193191236861175" lon="12.995234445796662"><ele>847.0</ele><time>2026-04-04T08:26:07Z</time></trkpt><trkpt lat="43.193103323251954" lon="12.995203987125835"><ele>847.0</ele><time>2026-04-04T08:26:10Z</time></trkpt><trkpt lat="43.193024304180675" lon="12.995134290095173"><ele>846.9999999999999</ele><time>2026-04-04T08:26:13Z</time></trkpt><trkpt lat="43.1929636344535" lon="12.995091352598369"><ele>847.0</ele><time>2026-04-04T08:26:16Z</time></trkpt><trkpt lat="43.192867056571046" lon="12.995229423608965"><ele>853.8</ele><time>2026-04-04T08:26:18Z</time></trkpt><trkpt lat="43.19282952950574" lon="12.995303071635703"><ele>860.6</ele><time>2026-04-04T08:26:19Z</time></trkpt><trkpt lat="43.19268456902224" lon="12.995470329747823"><ele>867.3999999999999</ele><time>2026-04-04T08:26:21Z</time></trkpt><trkpt lat="43.19260070866872" lon="12.995491912761308"><ele>874.1999999999999</ele><time>2026-04-04T08:26:24Z</time></trkpt><trkpt lat="43.19255205905807" lon="12.995555252901822"><ele>881.0</ele><time>2026-04-04T08:26:26Z</time></trkpt><trkpt lat="43.19247438985228" lon="12.995681893355432"><ele>881.0</ele><time>2026-04-04T08:26:29Z</time></trkpt><trkpt lat="43.19237732085312" lon="12.995815280076616"><ele>880.9999999999999</ele><time>2026-04-04T08:26:31Z</time></trkpt><trkpt lat="43.19230025699291" lon="12.995849030586168"><ele>880.9999999999999</ele><time>2026-04-04T08:26:34Z</time></trkpt><trkpt lat="43.19219788351952" lon="12.995747092485168"><ele>881.0</ele><time>2026-04-04T08:26:55Z</time></trkpt><trkpt lat="43.19214738600754" lon="12.99580492323442"><ele>881.0</ele><time>2026-04-04T08:26:59Z</time></trkpt><trkpt lat="43.19209723899011" lon="12.995862296021402"><ele>878.1999999999999</ele><time>2026-04-04T08:27:11Z</time></trkpt><trkpt lat="43.19204780938352" lon="12.995923996024048"><ele>875.3999999999999</ele><time>2026-04-04T08:27:16Z</time></trkpt><trkpt lat="43.19196864487448" lon="12.9959797906424"><ele>872.6</ele><time>2026-04-04T08:27:19Z</time></trkpt><trkpt lat="43.191898074053476" lon="12.996032601764274"><ele>869.8</ele><time>2026-04-04T08:27:24Z</time></trkpt><trkpt lat="43.191862613212805" lon="12.996207991564834"><ele>867.0</ele><time>2026-04-04T08:27:30Z</time></trkpt><trkpt lat="43.19181961051137" lon="12.996322745639862"><ele>867.0</ele><time>2026-04-04T08:27:35Z</time></trkpt><trkpt lat="43.19183279107463" lon="12.996421147978888"><ele>867.0</ele><time>2026-04-04T08:27:40Z</time></trkpt><trkpt lat="43.191830573870135" lon="12.996514766478546"><ele>867.0</ele><time>2026-04-04T08:27:41Z</time></trkpt><trkpt lat="43.191820435146035" lon="12.996645755668567"><ele>867.0</ele><time>2026-04-04T08:27:43Z</time></trkpt><trkpt lat="43.19179909870828" lon="12.996748782349908"><ele>867.0</ele><time>2026-04-04T08:27:46Z</time></trkpt><trkpt lat="43.19178568215913" lon="12.996837116991243"><ele>867.0</ele><time>2026-04-04T08:27:48Z</time></trkpt><trkpt lat="43.19175023341264" lon="12.996928473582674"><ele>861.1666666666666</ele><time>2026-04-04T08:27:53Z</time></trkpt><trkpt lat="43.19170945736542" lon="12.997027550253353"><ele>855.3333333333333</ele><time>2026-04-04T08:27:56Z</time></trkpt><trkpt lat="43.19171204511322" lon="12.997131108530638"><ele>849.5</ele><time>2026-04-04T08:28:00Z</time></trkpt><trkpt lat="43.19167654322891" lon="12.99723616521587"><ele>843.6666666666666</ele><time>2026-04-04T08:28:02Z</time></trkpt><trkpt lat="43.19167783520708" lon="12.997328160939066"><ele>837.8333333333333</ele><time>2026-04-04T08:28:05Z</time></trkpt><trkpt lat="43.191657856891375" lon="12.99746637864292"><ele>832.0</ele><time>2026-04-04T08:28:08Z</time></trkpt><trkpt lat="43.19164332900213" lon="12.997570257960481"><ele>826.1666666666666</ele><time>2026-04-04T08:28:09Z</time></trkpt><trkpt lat="43.19164071571184" lon="12.997681777332238"><ele>820.3333333333333</ele><time>2026-04-04T08:28:10Z</time></trkpt><trkpt lat="43.19161441364517" lon="12.9977699660914"><ele>814.5</ele><time>2026-04-04T08:28:12Z</time></trkpt><trkpt lat="43.19158553357941" lon="12.997846900286387"><ele>808.6666666666667</ele><time>2026-04-04T08:28:14Z</time></trkpt><trkpt lat="43.19158344749288" lon="12.997985662821621"><ele>802.8333333333334</ele><time>2026-04-04T08:28:16Z</time></trkpt><trkpt lat="43.19157729133122" lon="12.99814745345575"><ele>797.0</ele><time>2026-04-04T08:28:18Z</time></trkpt><trkpt lat="43.19152323982374" lon="12.998235615960438"><ele>797.5000000000001</ele><time>2026-04-04T08:28:20Z</time></trkpt><trkpt lat="43.191449463444" lon="12.998272681023751"><ele>798.0</ele><time>2026-04-04T08:28:23Z</time></trkpt><trkpt lat="43.19138133752477" lon="12.998330169332498"><ele>798.5</ele><time>2026-04-04T08:28:25Z</time></trkpt><trkpt lat="43.19132147387823" lon="12.998418795151672"><ele>799.0</ele><time>2026-04-04T08:28:27Z</time></trkpt><trkpt lat="43.19127277818039" lon="12.998478976911828"><ele>799.5000000000001</ele><time>2026-04-04T08:28:29Z</time></trkpt><trkpt lat="43.19122392031422" lon="12.99855430980386"><ele>800.0</ele><time>2026-04-04T08:28:31Z</time></trkpt><trkpt lat="43.191170996015295" lon="12.998628822254084"><ele>794.6666666666667</ele><time>2026-04-04T08:28:33Z</time></trkpt><trkpt lat="43.19111810682938" lon="12.998686751040461"><ele>789.3333333333334</ele><time>2026-04-04T08:28:40Z</time></trkpt><trkpt lat="43.191080726732075" lon="12.998797402158917"><ele>784.0</ele><time>2026-04-04T08:28:42Z</time></trkpt><trkpt lat="43.19103772852021" lon="12.998922109916359"><ele>778.6666666666667</ele><time>2026-04-04T08:28:45Z</time></trkpt><trkpt lat="43.19096759632342" lon="12.999007140455994"><ele>773.3333333333334</ele><time>2026-04-04T08:28:47Z</time></trkpt><trkpt lat="43.19092213106497" lon="12.999068761796334"><ele>768.0</ele><time>2026-04-04T08:28:48Z</time></trkpt><trkpt lat="43.190875184220886" lon="12.999131457263438"><ele>763.0</ele><time>2026-04-04T08:28:49Z</time></trkpt><trkpt lat="43.19079862372652" lon="12.99922997359684"><ele>758.0</ele><time>2026-04-04T08:28:51Z</time></trkpt><trkpt lat="43.19072712478462" lon="12.999309573168738"><ele>753.0</ele><time>2026-04-04T08:28:53Z</time></trkpt><trkpt lat="43.190684502759005" lon="12.999412096650602"><ele>748.0</ele><time>2026-04-04T08:28:54Z</time></trkpt><trkpt lat="43.19063123912353" lon="12.99953002091084"><ele>743.0</ele><time>2026-04-04T08:28:56Z</time></trkpt><trkpt lat="43.19052318279901" lon="12.99962272971981"><ele>743.0</ele><time>2026-04-04T08:28:58Z</time></trkpt><trkpt lat="43.19043154807259" lon="12.99971943418593"><ele>743.0</ele><time>2026-04-04T08:29:00Z</time></trkpt><trkpt lat="43.19035145804176" lon="12.999805104778984"><ele>743.0</ele><time>2026-04-04T08:29:02Z</time></trkpt><trkpt lat="43.190302510435416" lon="12.99986554568987"><ele>743.0</ele><time>2026-04-04T08:29:03Z</time></trkpt><trkpt lat="43.19022044850045" lon="12.999945293023702"><ele>743.0</ele><time>2026-04-04T08:29:05Z</time></trkpt><trkpt lat="43.19015493218991" lon="12.999989030034618"><ele>743.0</ele><time>2026-04-04T08:29:07Z</time></trkpt><trkpt lat="43.19009690459807" lon="12.999944335879507"><ele>743.0</ele><time>2026-04-04T08:29:09Z</time></trkpt><trkpt lat="43.190033195175886" lon="12.999883971151789"><ele>743.0</ele><time>2026-04-04T08:29:11Z</time></trkpt><trkpt lat="43.18995812703497" lon="12.999885182002199"><ele>743.0</ele><time>2026-04-04T08:29:14Z</time></trkpt><trkpt lat="43.18988546619801" lon="12.999872318704945"><ele>743.0</ele><time>2026-04-04T08:29:18Z</time></trkpt><trkpt lat="43.189792247834724" lon="12.999840407359184"><ele>743.0</ele><time>2026-04-04T08:29:20Z</time></trkpt><trkpt lat="43.189715869060734" lon="12.999837882949556"><ele>743.1666666666666</ele><time>2026-04-04T08:29:21Z</time></trkpt><trkpt lat="43.18964597425613" lon="12.999809840488359"><ele>743.3333333333333</ele><time>2026-04-04T08:29:22Z</time></trkpt><trkpt lat="43.189522744400236" lon="12.999805211850967"><ele>743.5</ele><time>2026-04-04T08:29:24Z</time></trkpt><trkpt lat="43.18943706398197" lon="12.999831795537713"><ele>743.6666666666666</ele><time>2026-04-04T08:29:27Z</time></trkpt><trkpt lat="43.18938767264731" lon="12.999895263123562"><ele>743.8333333333334</ele><time>2026-04-04T08:29:30Z</time></trkpt><trkpt lat="43.18930421357881" lon="12.999927545008761"><ele>744.0</ele><time>2026-04-04T08:29:34Z</time></trkpt><trkpt lat="43.1892319898458" lon="12.999885368420143"><ele>744.0</ele><time>2026-04-04T08:29:36Z</time></trkpt><trkpt lat="43.189155279433415" lon="12.99984007441656"><ele>744.0</ele><time>2026-04-04T08:29:38Z</time></trkpt><trkpt lat="43.18911513354405" lon="12.99977149995904"><ele>744.0</ele><time>2026-04-04T08:29:39Z</time></trkpt><trkpt lat="43.189057717919674" lon="12.999692928131052"><ele>744.0</ele><time>2026-04-04T08:29:41Z</time></trkpt><trkpt lat="43.18898513402429" lon="12.999654767231089"><ele>744.0</ele><time>2026-04-04T08:29:43Z</time></trkpt><trkpt lat="43.18890873217823" lon="12.999626591557329"><ele>744.0</ele><time>2026-04-04T08:29:46Z</time></trkpt><trkpt lat="43.18884458844872" lon="12.999618834546508"><ele>743.2</ele><time>2026-04-04T08:29:49Z</time></trkpt><trkpt lat="43.18876760540043" lon="12.999589437079235"><ele>742.4000000000001</ele><time>2026-04-04T08:29:52Z</time></trkpt><trkpt lat="43.18872135588335" lon="12.999467181883789"><ele>741.6</ele><time>2026-04-04T08:29:55Z</time></trkpt><trkpt lat="43.18869120185663" lon="12.999359928157554"><ele>740.8</ele><time>2026-04-04T08:29:57Z</time></trkpt><trkpt lat="43.188645508427264" lon="12.999253423046838"><ele>740.0</ele><time>2026-04-04T08:29:59Z</time></trkpt><trkpt lat="43.188607596200114" lon="12.999131696901088"><ele>748.2</ele><time>2026-04-04T08:30:01Z</time></trkpt><trkpt lat="43.18857060057061" lon="12.99903798143357"><ele>756.4</ele><time>2026-04-04T08:30:04Z</time></trkpt><trkpt lat="43.188581553878514" lon="12.998940095317332"><ele>764.5999999999999</ele><time>2026-04-04T08:30:07Z</time></trkpt><trkpt lat="43.188457979070634" lon="12.998979395794105"><ele>772.8</ele><time>2026-04-04T08:30:09Z</time></trkpt><trkpt lat="43.18836710829083" lon="12.99880634601923"><ele>781.0</ele><time>2026-04-04T08:30:21Z</time></trkpt><trkpt lat="43.188292309753514" lon="12.998721079860788"><ele>781.0</ele><time>2026-04-04T08:30:23Z</time></trkpt><trkpt lat="43.188224124867055" lon="12.99876932978107"><ele>781.0</ele><time>2026-04-04T08:30:24Z</time></trkpt><trkpt lat="43.18816187671812" lon="12.999178227527215"><ele>781.0</ele><time>2026-04-04T08:30:25Z</time></trkpt><trkpt lat="43.18806816830671" lon="12.999131523671537"><ele>781.4</ele><time>2026-04-04T08:30:27Z</time></trkpt><trkpt lat="43.1879368042076" lon="12.99902698666505"><ele>781.8</ele><time>2026-04-04T08:30:28Z</time></trkpt><trkpt lat="43.18784871944846" lon="12.998971244406533"><ele>782.1999999999999</ele><time>2026-04-04T08:30:30Z</time></trkpt><trkpt lat="43.187758697856125" lon="12.998973603536504"><ele>782.5999999999999</ele><time>2026-04-04T08:30:32Z</time></trkpt><trkpt lat="43.187662033007776" lon="12.998964872790273"><ele>783.0</ele><time>2026-04-04T08:30:34Z</time></trkpt><trkpt lat="43.18757596297857" lon="12.998940446525399"><ele>783.0</ele><time>2026-04-04T08:30:36Z</time></trkpt><trkpt lat="43.187446369396156" lon="12.998866195403489"><ele>783.0</ele><time>2026-04-04T08:30:38Z</time></trkpt><trkpt lat="43.18738245652746" lon="12.998834129039883"><ele>783.0</ele><time>2026-04-04T08:30:39Z</time></trkpt><trkpt lat="43.1873202785874" lon="12.998814275682253"><ele>783.0</ele><time>2026-04-04T08:30:40Z</time></trkpt><trkpt lat="43.18725450425226" lon="12.998792964683307"><ele>783.0</ele><time>2026-04-04T08:30:41Z</time></trkpt><trkpt lat="43.18717466703202" lon="12.998747997012416"><ele>783.0</ele><time>2026-04-04T08:30:42Z</time></trkpt><trkpt lat="43.18710859034894" lon="12.998705670422497"><ele>781.8333333333334</ele><time>2026-04-04T08:30:43Z</time></trkpt><trkpt lat="43.18704171865628" lon="12.998667185791293"><ele>780.6666666666667</ele><time>2026-04-04T08:30:44Z</time></trkpt><trkpt lat="43.18695904394881" lon="12.9986117486199"><ele>779.5</ele><time>2026-04-04T08:30:45Z</time></trkpt><trkpt lat="43.186884830381814" lon="12.998562473946182"><ele>778.3333333333334</ele><time>2026-04-04T08:30:46Z</time></trkpt><trkpt lat="43.186805234509336" lon="12.99850446867476"><ele>777.1666666666667</ele><time>2026-04-04T08:30:47Z</time></trkpt><trkpt lat="43.186698793427894" lon="12.998509521039596"><ele>776.0</ele><time>2026-04-04T08:30:48Z</time></trkpt><trkpt lat="43.18660716911349" lon="12.998512270518791"><ele>776.0000000000001</ele><time>2026-04-04T08:30:49Z</time></trkpt><trkpt lat="43.186534669100105" lon="12.99851788319228"><ele>776.0</ele><time>2026-04-04T08:30:50Z</time></trkpt><trkpt lat="43.18645342487829" lon="12.998526973182283"><ele>776.0</ele><time>2026-04-04T08:30:51Z</time></trkpt><trkpt lat="43.18638799209855" lon="12.998538462332995"><ele>776.0</ele><time>2026-04-04T08:30:52Z</time></trkpt><trkpt lat="43.18630517526012" lon="12.998558808743871"><ele>776.0000000000001</ele><time>2026-04-04T08:30:53Z</time></trkpt><trkpt lat="43.186225681693934" lon="12.99857053767346"><ele>776.0</ele><time>2026-04-04T08:30:54Z</time></trkpt><trkpt lat="43.18609316337193" lon="12.998537271095023"><ele>773.8</ele><time>2026-04-04T08:30:56Z</time></trkpt><trkpt lat="43.18601376977003" lon="12.998542315076149"><ele>771.5999999999999</ele><time>2026-04-04T08:30:57Z</time></trkpt><trkpt lat="43.18594109514076" lon="12.998536461707484"><ele>769.4</ele><time>2026-04-04T08:30:58Z</time></trkpt><trkpt lat="43.18582573084333" lon="12.998513922830051"><ele>767.2</ele><time>2026-04-04T08:31:00Z</time></trkpt><trkpt lat="43.185708172747695" lon="12.998474057166703"><ele>765.0</ele><time>2026-04-04T08:31:02Z</time></trkpt><trkpt lat="43.18561426050835" lon="12.998401591442306"><ele>763.4</ele><time>2026-04-04T08:31:04Z</time></trkpt><trkpt lat="43.18553297344547" lon="12.998393293943318"><ele>761.8</ele><time>2026-04-04T08:31:06Z</time></trkpt><trkpt lat="43.185411860792854" lon="12.99840894946476"><ele>760.2</ele><time>2026-04-04T08:31:08Z</time></trkpt><trkpt lat="43.18533750229503" lon="12.99838644476345"><ele>758.6</ele><time>2026-04-04T08:31:09Z</time></trkpt><trkpt lat="43.18527795605614" lon="12.99835025474087"><ele>757.0</ele><time>2026-04-04T08:31:10Z</time></trkpt><trkpt lat="43.1851645893369" lon="12.998290913585597"><ele>760.1666666666667</ele><time>2026-04-04T08:31:12Z</time></trkpt><trkpt lat="43.18509736300018" lon="12.998262959862902"><ele>763.3333333333334</ele><time>2026-04-04T08:31:13Z</time></trkpt><trkpt lat="43.18503516647018" lon="12.99824555958408"><ele>766.5</ele><time>2026-04-04T08:31:14Z</time></trkpt><trkpt lat="43.18493807830367" lon="12.998215512705528"><ele>769.6666666666667</ele><time>2026-04-04T08:31:16Z</time></trkpt><trkpt lat="43.184846727562125" lon="12.998168393751046"><ele>772.8333333333334</ele><time>2026-04-04T08:31:18Z</time></trkpt><trkpt lat="43.18476796601841" lon="12.99811819528196"><ele>776.0</ele><time>2026-04-04T08:31:20Z</time></trkpt><trkpt lat="43.18470110899408" lon="12.998037586113158"><ele>776.0000000000001</ele><time>2026-04-04T08:31:22Z</time></trkpt><trkpt lat="43.18465916051389" lon="12.997972182626505"><ele>776.0</ele><time>2026-04-04T08:31:24Z</time></trkpt><trkpt lat="43.184596659184365" lon="12.997883390178025"><ele>776.0</ele><time>2026-04-04T08:31:26Z</time></trkpt><trkpt lat="43.184545291199" lon="12.997805039328977"><ele>776.0</ele><time>2026-04-04T08:31:28Z</time></trkpt><trkpt lat="43.1844838976121" lon="12.997717273984009"><ele>776.0000000000001</ele><time>2026-04-04T08:31:30Z</time></trkpt><trkpt lat="43.18443305502047" lon="12.997648474174383"><ele>776.0</ele><time>2026-04-04T08:31:32Z</time></trkpt><trkpt lat="43.184400715112545" lon="12.997558081094697"><ele>780.6666666666667</ele><time>2026-04-04T08:31:35Z</time></trkpt><trkpt lat="43.18438533941636" lon="12.997465220008577"><ele>785.3333333333334</ele><time>2026-04-04T08:31:37Z</time></trkpt><trkpt lat="43.18439586562578" lon="12.99735760535008"><ele>790.0</ele><time>2026-04-04T08:31:40Z</time></trkpt><trkpt lat="43.18442603675105" lon="12.99723987286099"><ele>794.6666666666667</ele><time>2026-04-04T08:31:42Z</time></trkpt><trkpt lat="43.18447880915041" lon="12.99710679895034"><ele>799.3333333333334</ele><time>2026-04-04T08:31:44Z</time></trkpt><trkpt lat="43.18451311201766" lon="12.997021029075112"><ele>804.0</ele><time>2026-04-04T08:31:45Z</time></trkpt><trkpt lat="43.18454130578971" lon="12.99693890791749"><ele>804.0</ele><time>2026-04-04T08:31:46Z</time></trkpt><trkpt lat="43.1845743095883" lon="12.996861526807555"><ele>804.0</ele><time>2026-04-04T08:31:47Z</time></trkpt><trkpt lat="43.18464486806877" lon="12.996719972609238"><ele>804.0</ele><time>2026-04-04T08:31:49Z</time></trkpt><trkpt lat="43.18469239237921" lon="12.996647838808936"><ele>804.0</ele><time>2026-04-04T08:31:50Z</time></trkpt><trkpt lat="43.184726402542815" lon="12.996570484042211"><ele>804.0</ele><time>2026-04-04T08:31:51Z</time></trkpt><trkpt lat="43.18476346521913" lon="12.99649064904733"><ele>804.0</ele><time>2026-04-04T08:31:52Z</time></trkpt><trkpt lat="43.18483569090674" lon="12.996350128575191"><ele>812.0</ele><time>2026-04-04T08:31:54Z</time></trkpt><trkpt lat="43.184872474814775" lon="12.996277020442504"><ele>820.0</ele><time>2026-04-04T08:31:55Z</time></trkpt><trkpt lat="43.18491728909695" lon="12.996209216309426"><ele>828.0</ele><time>2026-04-04T08:31:56Z</time></trkpt><trkpt lat="43.184985712932196" lon="12.996068780180774"><ele>836.0</ele><time>2026-04-04T08:31:58Z</time></trkpt><trkpt lat="43.18501098149409" lon="12.995971886632429"><ele>844.0</ele><time>2026-04-04T08:31:59Z</time></trkpt><trkpt lat="43.185037812029336" lon="12.995874987537123"><ele>852.0</ele><time>2026-04-04T08:32:00Z</time></trkpt><trkpt lat="43.185069724110065" lon="12.99573594558611"><ele>852.0</ele><time>2026-04-04T08:32:02Z</time></trkpt><trkpt lat="43.185119112707234" lon="12.995607413588639"><ele>852.0</ele><time>2026-04-04T08:32:04Z</time></trkpt><trkpt lat="43.18517379578176" lon="12.995482181105858"><ele>852.0</ele><time>2026-04-04T08:32:06Z</time></trkpt><trkpt lat="43.1852408281961" lon="12.995382751672997"><ele>852.0</ele><time>2026-04-04T08:32:08Z</time></trkpt><trkpt lat="43.18528936904884" lon="12.995312668665822"><ele>852.0</ele><time>2026-04-04T08:32:09Z</time></trkpt><trkpt lat="43.18535408077935" lon="12.99516126045421"><ele>851.9999999999999</ele><time>2026-04-04T08:32:11Z</time></trkpt><trkpt lat="43.18538990391337" lon="12.995083273707111"><ele>852.0</ele><time>2026-04-04T08:32:12Z</time></trkpt><trkpt lat="43.18541576512922" lon="12.995000235581907"><ele>852.0</ele><time>2026-04-04T08:32:13Z</time></trkpt><trkpt lat="43.185438345628654" lon="12.994905040288675"><ele>852.0</ele><time>2026-04-04T08:32:14Z</time></trkpt><trkpt lat="43.1854597834108" lon="12.994812103548954"><ele>852.0</ele><time>2026-04-04T08:32:15Z</time></trkpt><trkpt lat="43.18548408929236" lon="12.99471329400878"><ele>851.9999999999999</ele><time>2026-04-04T08:32:16Z</time></trkpt><trkpt lat="43.185481108709176" lon="12.994622598681882"><ele>852.0</ele><time>2026-04-04T08:32:17Z</time></trkpt><trkpt lat="43.18551093227721" lon="12.994530412633875"><ele>851.3333333333334</ele><time>2026-04-04T08:32:18Z</time></trkpt><trkpt lat="43.185515329734514" lon="12.994436272062028"><ele>850.6666666666667</ele><time>2026-04-04T08:32:19Z</time></trkpt><trkpt lat="43.18553193725612" lon="12.994317601700244"><ele>850.0</ele><time>2026-04-04T08:32:21Z</time></trkpt><trkpt lat="43.18553485129794" lon="12.994227797606154"><ele>849.3333333333334</ele><time>2026-04-04T08:32:24Z</time></trkpt><trkpt lat="43.185490689675575" lon="12.994159188489729"><ele>848.6666666666667</ele><time>2026-04-04T08:32:29Z</time></trkpt><trkpt lat="43.18545321243027" lon="12.994032617490088"><ele>848.0</ele><time>2026-04-04T08:32:33Z</time></trkpt><trkpt lat="43.185423144996285" lon="12.993925016073375"><ele>847.5000000000001</ele><time>2026-04-04T08:32:35Z</time></trkpt><trkpt lat="43.18536070050908" lon="12.993778502769862"><ele>847.0</ele><time>2026-04-04T08:32:37Z</time></trkpt><trkpt lat="43.185335445208345" lon="12.99368902361838"><ele>846.5</ele><time>2026-04-04T08:32:38Z</time></trkpt><trkpt lat="43.185317059708574" lon="12.993588234487031"><ele>846.0</ele><time>2026-04-04T08:32:39Z</time></trkpt><trkpt lat="43.185282125854336" lon="12.993507636620294"><ele>845.5000000000001</ele><time>2026-04-04T08:32:40Z</time></trkpt><trkpt lat="43.18526154902972" lon="12.993425783121792"><ele>845.0</ele><time>2026-04-04T08:32:41Z</time></trkpt><trkpt lat="43.185188148721764" lon="12.993283742872705"><ele>845.0</ele><time>2026-04-04T08:32:43Z</time></trkpt><trkpt lat="43.18511009879775" lon="12.993198405472652"><ele>845.0</ele><time>2026-04-04T08:32:45Z</time></trkpt><trkpt lat="43.185023705605005" lon="12.993142246840806"><ele>845.0</ele><time>2026-04-04T08:32:48Z</time></trkpt><trkpt lat="43.18492931375324" lon="12.993070286210543"><ele>845.0</ele><time>2026-04-04T08:32:50Z</time></trkpt><trkpt lat="43.18486969160086" lon="12.993012752704281"><ele>845.0</ele><time>2026-04-04T08:32:52.001Z</time></trkpt><trkpt lat="43.1848428484514" lon="12.992878406157086"><ele>845.0</ele><time>2026-04-04T08:32:55.001Z</time></trkpt><trkpt lat="43.184860340612815" lon="12.992759393777911"><ele>845.0</ele><time>2026-04-04T08:32:57.001Z</time></trkpt><trkpt lat="43.184908336905124" lon="12.992633183673968"><ele>845.0</ele><time>2026-04-04T08:32:59.001Z</time></trkpt><trkpt lat="43.184961173396566" lon="12.992488985035399"><ele>845.0</ele><time>2026-04-04T08:33:01.001Z</time></trkpt><trkpt lat="43.18505400011308" lon="12.992380764595305"><ele>845.0</ele><time>2026-04-04T08:33:03.001Z</time></trkpt><trkpt lat="43.18510339920273" lon="12.992306495264936"><ele>843.3333333333334</ele><time>2026-04-04T08:33:04.001Z</time></trkpt><trkpt lat="43.18514999131144" lon="12.99223563340104"><ele>841.6666666666667</ele><time>2026-04-04T08:33:05.001Z</time></trkpt><trkpt lat="43.18520334013829" lon="12.992167905685514"><ele>840.0</ele><time>2026-04-04T08:33:06.001Z</time></trkpt><trkpt lat="43.18524977884142" lon="12.992105444377234"><ele>838.3333333333333</ele><time>2026-04-04T08:33:07.001Z</time></trkpt><trkpt lat="43.18529373638708" lon="12.992035455609015"><ele>836.6666666666666</ele><time>2026-04-04T08:33:08.001Z</time></trkpt><trkpt lat="43.1853419814359" lon="12.991932131624745"><ele>835.0</ele><time>2026-04-04T08:33:10.001Z</time></trkpt><trkpt lat="43.185390592592384" lon="12.99179892159887"><ele>834.9999999999999</ele><time>2026-04-04T08:33:12.001Z</time></trkpt><trkpt lat="43.18541867955387" lon="12.991677676245864"><ele>835.0</ele><time>2026-04-04T08:33:14.001Z</time></trkpt><trkpt lat="43.18545079774197" lon="12.99156581251095"><ele>835.0</ele><time>2026-04-04T08:33:16.001Z</time></trkpt><trkpt lat="43.18547660485861" lon="12.991480253383473"><ele>835.0</ele><time>2026-04-04T08:33:18.001Z</time></trkpt><trkpt lat="43.18550749235039" lon="12.991373112223279"><ele>834.9999999999999</ele><time>2026-04-04T08:33:20.001Z</time></trkpt><trkpt lat="43.18554468096984" lon="12.991302030633785"><ele>835.0</ele><time>2026-04-04T08:33:21.001Z</time></trkpt><trkpt lat="43.18557157861734" lon="12.991186932754442"><ele>837.4999999999999</ele><time>2026-04-04T08:33:23.001Z</time></trkpt><trkpt lat="43.18558847480122" lon="12.991095486387563"><ele>840.0</ele><time>2026-04-04T08:33:26.001Z</time></trkpt><trkpt lat="43.1856587308453" lon="12.990992819081681"><ele>842.5</ele><time>2026-04-04T08:33:29.001Z</time></trkpt><trkpt lat="43.18569063890503" lon="12.990885838755196"><ele>845.0</ele><time>2026-04-04T08:33:31.001Z</time></trkpt><trkpt lat="43.18575426488687" lon="12.990812007632117"><ele>847.4999999999999</ele><time>2026-04-04T08:33:33.001Z</time></trkpt><trkpt lat="43.18579642516457" lon="12.990714038298359"><ele>850.0</ele><time>2026-04-04T08:33:35.001Z</time></trkpt><trkpt lat="43.18586098819501" lon="12.990610836453545"><ele>844.1666666666666</ele><time>2026-04-04T08:33:37.001Z</time></trkpt><trkpt lat="43.18593558616696" lon="12.99053125809136"><ele>838.3333333333333</ele><time>2026-04-04T08:33:39.001Z</time></trkpt><trkpt lat="43.18599104719742" lon="12.990431036348006"><ele>832.5</ele><time>2026-04-04T08:33:41.001Z</time></trkpt><trkpt lat="43.186022103441275" lon="12.99035482534513"><ele>826.6666666666667</ele><time>2026-04-04T08:33:42.001Z</time></trkpt><trkpt lat="43.18606283276451" lon="12.990270705253783"><ele>820.8333333333334</ele><time>2026-04-04T08:33:43.001Z</time></trkpt><trkpt lat="43.186105493556205" lon="12.990181253521243"><ele>815.0</ele><time>2026-04-04T08:33:44.001Z</time></trkpt><trkpt lat="43.18613774837774" lon="12.990079212607185"><ele>808.2</ele><time>2026-04-04T08:33:45.001Z</time></trkpt><trkpt lat="43.186183177000444" lon="12.98999538526211"><ele>801.4</ele><time>2026-04-04T08:33:46.001Z</time></trkpt><trkpt lat="43.18624302537688" lon="12.989855917147016"><ele>794.5999999999999</ele><time>2026-04-04T08:33:48.001Z</time></trkpt><trkpt lat="43.18629225737488" lon="12.989721208294686"><ele>787.8</ele><time>2026-04-04T08:33:50.001Z</time></trkpt><trkpt lat="43.18629586423565" lon="12.989622081871113"><ele>781.0</ele><time>2026-04-04T08:33:53.001Z</time></trkpt><trkpt lat="43.18627353783429" lon="12.98950547999483"><ele>780.9999999999999</ele><time>2026-04-04T08:33:55.001Z</time></trkpt><trkpt lat="43.18621700953748" lon="12.989377905681419"><ele>781.0</ele><time>2026-04-04T08:33:57.001Z</time></trkpt><trkpt lat="43.186166065448326" lon="12.989307691113781"><ele>781.0</ele><time>2026-04-04T08:33:58.001Z</time></trkpt><trkpt lat="43.18613926390409" lon="12.989205048999633"><ele>781.0</ele><time>2026-04-04T08:33:59.001Z</time></trkpt><trkpt lat="43.186072304454036" lon="12.989082381700692"><ele>780.9999999999999</ele><time>2026-04-04T08:34:01.001Z</time></trkpt><trkpt lat="43.18604649837285" lon="12.988992301582876"><ele>781.0</ele><time>2026-04-04T08:34:02.001Z</time></trkpt><trkpt lat="43.1860200240851" lon="12.988886539860578"><ele>780.6666666666666</ele><time>2026-04-04T08:34:04.001Z</time></trkpt><trkpt lat="43.1859976310536" lon="12.988790700653004"><ele>780.3333333333333</ele><time>2026-04-04T08:34:06.001Z</time></trkpt><trkpt lat="43.18594961774544" lon="12.988656923828964"><ele>780.0</ele><time>2026-04-04T08:34:08.001Z</time></trkpt><trkpt lat="43.18592501591497" lon="12.988571941803677"><ele>779.6666666666667</ele><time>2026-04-04T08:34:09.001Z</time></trkpt><trkpt lat="43.185915525051165" lon="12.988479529104122"><ele>779.3333333333334</ele><time>2026-04-04T08:34:10.001Z</time></trkpt><trkpt lat="43.18587767444938" lon="12.988389340135031"><ele>779.0</ele><time>2026-04-04T08:34:11.001Z</time></trkpt><trkpt lat="43.1858644666031" lon="12.988288537479702"><ele>784.4000000000001</ele><time>2026-04-04T08:34:12.001Z</time></trkpt><trkpt lat="43.18591931366592" lon="12.988167881002664"><ele>789.8</ele><time>2026-04-04T08:34:14.001Z</time></trkpt><trkpt lat="43.18597050795732" lon="12.988061660448661"><ele>795.2</ele><time>2026-04-04T08:34:16.001Z</time></trkpt><trkpt lat="43.18601690393805" lon="12.98791567940979"><ele>800.5999999999999</ele><time>2026-04-04T08:34:18.001Z</time></trkpt><trkpt lat="43.18604806381376" lon="12.987815469907009"><ele>806.0</ele><time>2026-04-04T08:34:19.001Z</time></trkpt><trkpt lat="43.18607063286858" lon="12.987711641997773"><ele>806.0</ele><time>2026-04-04T08:34:20.001Z</time></trkpt><trkpt lat="43.18609188888444" lon="12.987620377758311"><ele>806.0</ele><time>2026-04-04T08:34:21.001Z</time></trkpt><trkpt lat="43.18611845184288" lon="12.98750735697184"><ele>806.0</ele><time>2026-04-04T08:34:22.001Z</time></trkpt><trkpt lat="43.18615866821394" lon="12.987401686031735"><ele>806.0</ele><time>2026-04-04T08:34:23.001Z</time></trkpt><trkpt lat="43.18618223351891" lon="12.987292985994054"><ele>806.0</ele><time>2026-04-04T08:34:24.001Z</time></trkpt><trkpt lat="43.186209765706174" lon="12.987127086967885"><ele>809.8</ele><time>2026-04-04T08:34:26.001Z</time></trkpt><trkpt lat="43.186226169457555" lon="12.987006174265156"><ele>813.5999999999999</ele><time>2026-04-04T08:34:28.001Z</time></trkpt><trkpt lat="43.18622610496193" lon="12.986900164870326"><ele>817.4</ele><time>2026-04-04T08:34:30.001Z</time></trkpt><trkpt lat="43.186214450591436" lon="12.986775760145841"><ele>821.2</ele><time>2026-04-04T08:34:32.001Z</time></trkpt><trkpt lat="43.18621144666988" lon="12.98664272890615"><ele>825.0</ele><time>2026-04-04T08:34:34.001Z</time></trkpt><trkpt lat="43.18621985968878" lon="12.986495082062369"><ele>825.0</ele><time>2026-04-04T08:34:36.001Z</time></trkpt><trkpt lat="43.18622717366866" lon="12.986381350081574"><ele>825.0</ele><time>2026-04-04T08:34:38.001Z</time></trkpt><trkpt lat="43.18623299146411" lon="12.986279372267537"><ele>825.0</ele><time>2026-04-04T08:34:40.001Z</time></trkpt><trkpt lat="43.1862447202076" lon="12.986161030610981"><ele>825.0</ele><time>2026-04-04T08:34:42.001Z</time></trkpt><trkpt lat="43.18624603776844" lon="12.986073928559538"><ele>825.0</ele><time>2026-04-04T08:34:44.001Z</time></trkpt><trkpt lat="43.186237378991564" lon="12.985983541895804"><ele>825.0</ele><time>2026-04-04T08:34:46Z</time></trkpt><trkpt lat="43.186198364334224" lon="12.985905128158334"><ele>825.0</ele><time>2026-04-04T08:34:47.001Z</time></trkpt><trkpt lat="43.18614846888215" lon="12.985782270248441"><ele>824.6</ele><time>2026-04-04T08:34:49.001Z</time></trkpt><trkpt lat="43.18613077375011" lon="12.985645612429883"><ele>824.2</ele><time>2026-04-04T08:34:51.001Z</time></trkpt><trkpt lat="43.18615864105067" lon="12.985565001325025"><ele>823.8</ele><time>2026-04-04T08:34:52Z</time></trkpt><trkpt lat="43.18621987176445" lon="12.985389853450465"><ele>823.4</ele><time>2026-04-04T08:34:54Z</time></trkpt><trkpt lat="43.186237298006915" lon="12.985234197611254"><ele>823.0</ele><time>2026-04-04T08:34:55Z</time></trkpt><trkpt lat="43.18630058827323" lon="12.985173812559706"><ele>823.0</ele><time>2026-04-04T08:34:59Z</time></trkpt><trkpt lat="43.18616849607155" lon="12.985046558629286"><ele>823.0</ele><time>2026-04-04T08:35:20Z</time></trkpt><trkpt lat="43.18623222103289" lon="12.984989347864692"><ele>823.0</ele><time>2026-04-04T08:35:22Z</time></trkpt><trkpt lat="43.18629916667015" lon="12.984920522292438"><ele>823.0</ele><time>2026-04-04T08:35:24Z</time></trkpt><trkpt lat="43.186370474427555" lon="12.984800986540984"><ele>823.0</ele><time>2026-04-04T08:35:25Z</time></trkpt><trkpt lat="43.18642701198353" lon="12.98475012759117"><ele>823.5</ele><time>2026-04-04T08:35:26Z</time></trkpt><trkpt lat="43.18650655161908" lon="12.984508246853714"><ele>824.0</ele><time>2026-04-04T08:35:28Z</time></trkpt><trkpt lat="43.18655468549114" lon="12.984439286598839"><ele>824.5</ele><time>2026-04-04T08:35:29Z</time></trkpt><trkpt lat="43.186631381505826" lon="12.984308215304875"><ele>825.0</ele><time>2026-04-04T08:35:30Z</time></trkpt><trkpt lat="43.18670695492453" lon="12.984187233081459"><ele>830.1666666666666</ele><time>2026-04-04T08:35:31Z</time></trkpt><trkpt lat="43.1867751963199" lon="12.984097240043365"><ele>835.3333333333333</ele><time>2026-04-04T08:35:32Z</time></trkpt><trkpt lat="43.18684699293686" lon="12.983976894809237"><ele>840.5</ele><time>2026-04-04T08:35:33Z</time></trkpt><trkpt lat="43.18690959534018" lon="12.98388807182094"><ele>845.6666666666666</ele><time>2026-04-04T08:35:34Z</time></trkpt><trkpt lat="43.186943329000556" lon="12.983808618741046"><ele>850.8333333333333</ele><time>2026-04-04T08:35:35Z</time></trkpt><trkpt lat="43.18695795888417" lon="12.983714506484283"><ele>856.0</ele><time>2026-04-04T08:35:36Z</time></trkpt><trkpt lat="43.18697811501185" lon="12.98359460242691"><ele>855.9999999999999</ele><time>2026-04-04T08:35:37Z</time></trkpt><trkpt lat="43.18701370756584" lon="12.983417414247727"><ele>856.0</ele><time>2026-04-04T08:35:39Z</time></trkpt><trkpt lat="43.18702988376809" lon="12.983320067857292"><ele>856.0</ele><time>2026-04-04T08:35:40Z</time></trkpt><trkpt lat="43.1870555774396" lon="12.983226819048497"><ele>856.0</ele><time>2026-04-04T08:35:41Z</time></trkpt><trkpt lat="43.187093870053005" lon="12.98312535955849"><ele>855.9999999999999</ele><time>2026-04-04T08:35:42Z</time></trkpt><trkpt lat="43.18712471507941" lon="12.98302644504452"><ele>856.0</ele><time>2026-04-04T08:35:44Z</time></trkpt><trkpt lat="43.18713127753955" lon="12.982825150589614"><ele>852.0</ele><time>2026-04-04T08:35:47Z</time></trkpt><trkpt lat="43.18718493493445" lon="12.982680930677251"><ele>847.9999999999999</ele><time>2026-04-04T08:35:49Z</time></trkpt><trkpt lat="43.187275172508635" lon="12.982541671697634"><ele>844.0</ele><time>2026-04-04T08:35:51Z</time></trkpt><trkpt lat="43.18732305749644" lon="12.982423769176755"><ele>840.0</ele><time>2026-04-04T08:35:52Z</time></trkpt><trkpt lat="43.18737300353691" lon="12.982324276745109"><ele>836.0</ele><time>2026-04-04T08:35:53Z</time></trkpt><trkpt lat="43.18743664963001" lon="12.982201099933784"><ele>836.0</ele><time>2026-04-04T08:35:54Z</time></trkpt><trkpt lat="43.187508760750134" lon="12.982066548892204"><ele>836.0</ele><time>2026-04-04T08:35:55Z</time></trkpt><trkpt lat="43.18759714888694" lon="12.981955355278277"><ele>836.0</ele><time>2026-04-04T08:35:56Z</time></trkpt><trkpt lat="43.187722903257985" lon="12.981795760526987"><ele>836.0</ele><time>2026-04-04T08:35:57Z</time></trkpt><trkpt lat="43.18782187052584" lon="12.981613886955495"><ele>828.0</ele><time>2026-04-04T08:35:58Z</time></trkpt><trkpt lat="43.18792370091114" lon="12.98149646937003"><ele>820.0</ele><time>2026-04-04T08:35:59Z</time></trkpt><trkpt lat="43.18803958963415" lon="12.981323458275119"><ele>812.0</ele><time>2026-04-04T08:36:00Z</time></trkpt><trkpt lat="43.18816096820297" lon="12.98112909197335"><ele>812.3333333333334</ele><time>2026-04-04T08:36:01Z</time></trkpt><trkpt lat="43.18829547947759" lon="12.980918189042296"><ele>812.6666666666667</ele><time>2026-04-04T08:36:02Z</time></trkpt><trkpt lat="43.18841569790027" lon="12.98071130582527"><ele>813.0</ele><time>2026-04-04T08:36:03Z</time></trkpt><trkpt lat="43.18851090033107" lon="12.980552214626085"><ele>813.0</ele><time>2026-04-04T08:36:04Z</time></trkpt><trkpt lat="43.18860998670034" lon="12.980379075212937"><ele>813.0</ele><time>2026-04-04T08:36:05Z</time></trkpt><trkpt lat="43.188687605810124" lon="12.980205000798131"><ele>813.0</ele><time>2026-04-04T08:36:06Z</time></trkpt><trkpt lat="43.18875934051816" lon="12.980033941784889"><ele>812.75</ele><time>2026-04-04T08:36:07Z</time></trkpt><trkpt lat="43.18883016001968" lon="12.979892814385659"><ele>812.5</ele><time>2026-04-04T08:36:08Z</time></trkpt><trkpt lat="43.18890468555084" lon="12.979740942707801"><ele>812.25</ele><time>2026-04-04T08:36:09Z</time></trkpt><trkpt lat="43.18900239367353" lon="12.979584110148709"><ele>812.0</ele><time>2026-04-04T08:36:10Z</time></trkpt><trkpt lat="43.189084891929916" lon="12.979424307935211"><ele>812.0</ele><time>2026-04-04T08:36:11Z</time></trkpt><trkpt lat="43.18917656755732" lon="12.9792585066979"><ele>812.0</ele><time>2026-04-04T08:36:12Z</time></trkpt><trkpt lat="43.18927450586335" lon="12.979110856487932"><ele>812.0</ele><time>2026-04-04T08:36:13Z</time></trkpt><trkpt lat="43.189377506663206" lon="12.978909009443766"><ele>803.0</ele><time>2026-04-04T08:36:14Z</time></trkpt><trkpt lat="43.18937171484164" lon="12.978598666378101"><ele>794.0</ele><time>2026-04-04T08:36:15Z</time></trkpt><trkpt lat="43.18945024929663" lon="12.978505781702708"><ele>785.0</ele><time>2026-04-04T08:36:16Z</time></trkpt><trkpt lat="43.189536516429925" lon="12.97838759021329"><ele>786.75</ele><time>2026-04-04T08:36:17Z</time></trkpt><trkpt lat="43.18965142400012" lon="12.978252716416664"><ele>788.5</ele><time>2026-04-04T08:36:18Z</time></trkpt><trkpt lat="43.18976137613487" lon="12.978127769368706"><ele>790.25</ele><time>2026-04-04T08:36:19Z</time></trkpt><trkpt lat="43.18987225976582" lon="12.978015651563469"><ele>792.0</ele><time>2026-04-04T08:36:20Z</time></trkpt><trkpt lat="43.1899709724639" lon="12.977891134218233"><ele>792.0</ele><time>2026-04-04T08:36:21Z</time></trkpt><trkpt lat="43.19008995947292" lon="12.977788807294761"><ele>792.0</ele><time>2026-04-04T08:36:22Z</time></trkpt><trkpt lat="43.190207392062135" lon="12.977641305406072"><ele>792.0</ele><time>2026-04-04T08:36:23Z</time></trkpt><trkpt lat="43.190334402466554" lon="12.977522824976198"><ele>794.0</ele><time>2026-04-04T08:36:24Z</time></trkpt><trkpt lat="43.190441586717036" lon="12.97741666478518"><ele>796.0</ele><time>2026-04-04T08:36:25Z</time></trkpt><trkpt lat="43.19052349298203" lon="12.977340622069407"><ele>798.0</ele><time>2026-04-04T08:36:26Z</time></trkpt><trkpt lat="43.19060538018936" lon="12.97727719994358"><ele>800.0</ele><time>2026-04-04T08:36:27Z</time></trkpt><trkpt lat="43.190685181769794" lon="12.977213950136953"><ele>802.0</ele><time>2026-04-04T08:36:28Z</time></trkpt><trkpt lat="43.19078226243567" lon="12.977150266713164"><ele>802.0</ele><time>2026-04-04T08:36:29Z</time></trkpt><trkpt lat="43.19088527910478" lon="12.977092380019597"><ele>802.0</ele><time>2026-04-04T08:36:30Z</time></trkpt><trkpt lat="43.19099687213844" lon="12.97703833228671"><ele>802.0</ele><time>2026-04-04T08:36:31Z</time></trkpt><trkpt lat="43.191104717581304" lon="12.976985533234803"><ele>802.0</ele><time>2026-04-04T08:36:32Z</time></trkpt><trkpt lat="43.19120827360578" lon="12.97691450394515"><ele>802.0</ele><time>2026-04-04T08:36:33Z</time></trkpt><trkpt lat="43.19129766201302" lon="12.976851459848092"><ele>802.0</ele><time>2026-04-04T08:36:34Z</time></trkpt><trkpt lat="43.191368814800114" lon="12.976794989846315"><ele>802.0</ele><time>2026-04-04T08:36:35Z</time></trkpt><trkpt lat="43.19142686749349" lon="12.976688303603485"><ele>802.0</ele><time>2026-04-04T08:36:36Z</time></trkpt><trkpt lat="43.1914780825753" lon="12.976589218335855"><ele>802.0</ele><time>2026-04-04T08:36:37Z</time></trkpt><trkpt lat="43.19153781400367" lon="12.97647261336435"><ele>802.6</ele><time>2026-04-04T08:36:38Z</time></trkpt><trkpt lat="43.19164413665709" lon="12.97635183293677"><ele>803.2</ele><time>2026-04-04T08:36:39Z</time></trkpt><trkpt lat="43.19172164649673" lon="12.976278048278765"><ele>803.8</ele><time>2026-04-04T08:36:40Z</time></trkpt><trkpt lat="43.191794158159325" lon="12.97620003211014"><ele>804.4</ele><time>2026-04-04T08:36:41Z</time></trkpt><trkpt lat="43.19186039447942" lon="12.97612180557597"><ele>805.0</ele><time>2026-04-04T08:36:42Z</time></trkpt><trkpt lat="43.191927147649615" lon="12.97602746293265"><ele>805.0</ele><time>2026-04-04T08:36:43Z</time></trkpt><trkpt lat="43.19199787562712" lon="12.97590651589902"><ele>805.0</ele><time>2026-04-04T08:36:44Z</time></trkpt><trkpt lat="43.19207251095455" lon="12.975770529648896"><ele>805.0</ele><time>2026-04-04T08:36:45Z</time></trkpt><trkpt lat="43.19214106628183" lon="12.975644606864897"><ele>805.0</ele><time>2026-04-04T08:36:46Z</time></trkpt><trkpt lat="43.19220198511801" lon="12.975531380283492"><ele>805.8</ele><time>2026-04-04T08:36:47Z</time></trkpt><trkpt lat="43.19225866442223" lon="12.975426034613497"><ele>806.6</ele><time>2026-04-04T08:36:48Z</time></trkpt><trkpt lat="43.19230919389203" lon="12.975321894996686"><ele>807.4000000000001</ele><time>2026-04-04T08:36:49Z</time></trkpt><trkpt lat="43.1923650850534" lon="12.975199973347712"><ele>808.2</ele><time>2026-04-04T08:36:50Z</time></trkpt><trkpt lat="43.19241517038369" lon="12.975080387690785"><ele>809.0</ele><time>2026-04-04T08:36:51Z</time></trkpt><trkpt lat="43.19245878384679" lon="12.974968641556217"><ele>809.0</ele><time>2026-04-04T08:36:52Z</time></trkpt><trkpt lat="43.192501452579975" lon="12.974855070472243"><ele>809.0</ele><time>2026-04-04T08:36:53Z</time></trkpt><trkpt lat="43.19255454438898" lon="12.97472955447175"><ele>809.0</ele><time>2026-04-04T08:36:54Z</time></trkpt><trkpt lat="43.19261861206358" lon="12.974600521965728"><ele>809.0</ele><time>2026-04-04T08:36:55Z</time></trkpt><trkpt lat="43.19268928079022" lon="12.974466230709785"><ele>809.0</ele><time>2026-04-04T08:36:56Z</time></trkpt><trkpt lat="43.192765107759534" lon="12.974323981856301"><ele>804.75</ele><time>2026-04-04T08:36:57Z</time></trkpt><trkpt lat="43.192844720474376" lon="12.974179438883146"><ele>800.5</ele><time>2026-04-04T08:36:58Z</time></trkpt><trkpt lat="43.19292769842296" lon="12.97404073634346"><ele>796.25</ele><time>2026-04-04T08:36:59Z</time></trkpt><trkpt lat="43.193021895987535" lon="12.973911309954149"><ele>792.0</ele><time>2026-04-04T08:37:00Z</time></trkpt><trkpt lat="43.1931258499786" lon="12.973792631053888"><ele>797.75</ele><time>2026-04-04T08:37:01Z</time></trkpt><trkpt lat="43.1932344169061" lon="12.973681498656678"><ele>803.5</ele><time>2026-04-04T08:37:02Z</time></trkpt><trkpt lat="43.19334132966234" lon="12.973574686885158"><ele>809.25</ele><time>2026-04-04T08:37:03Z</time></trkpt><trkpt lat="43.19343354824659" lon="12.97346226697056"><ele>815.0</ele><time>2026-04-04T08:37:04Z</time></trkpt><trkpt lat="43.193508933183224" lon="12.973344604384376"><ele>815.0</ele><time>2026-04-04T08:37:05Z</time></trkpt><trkpt lat="43.19358169289854" lon="12.9732232508213"><ele>815.0</ele><time>2026-04-04T08:37:06Z</time></trkpt><trkpt lat="43.19365199928257" lon="12.97310257731534"><ele>815.0</ele><time>2026-04-04T08:37:07Z</time></trkpt><trkpt lat="43.19371835165435" lon="12.972987450166851"><ele>815.0</ele><time>2026-04-04T08:37:08Z</time></trkpt><trkpt lat="43.19377115325179" lon="12.972891611787748"><ele>815.0</ele><time>2026-04-04T08:37:09Z</time></trkpt><trkpt lat="43.193824130654995" lon="12.972794379940039"><ele>815.0</ele><time>2026-04-04T08:37:10Z</time></trkpt><trkpt lat="43.19388873728164" lon="12.972693881119492"><ele>815.0</ele><time>2026-04-04T08:37:11Z</time></trkpt><trkpt lat="43.193942664658465" lon="12.972573494689257"><ele>815.0</ele><time>2026-04-04T08:37:12Z</time></trkpt><trkpt lat="43.194001201360024" lon="12.972454901421312"><ele>815.0</ele><time>2026-04-04T08:37:13Z</time></trkpt><trkpt lat="43.19406138888948" lon="12.972329653527412"><ele>815.0</ele><time>2026-04-04T08:37:14Z</time></trkpt><trkpt lat="43.19412590570936" lon="12.972208571535829"><ele>818.8</ele><time>2026-04-04T08:37:15Z</time></trkpt><trkpt lat="43.19418606468341" lon="12.972110444848333"><ele>822.6</ele><time>2026-04-04T08:37:16Z</time></trkpt><trkpt lat="43.19424474708293" lon="12.971999198909245"><ele>826.4000000000001</ele><time>2026-04-04T08:37:17Z</time></trkpt><trkpt lat="43.19429898120398" lon="12.971896624729869"><ele>830.2</ele><time>2026-04-04T08:37:18Z</time></trkpt><trkpt lat="43.194332605423476" lon="12.971804632251866"><ele>834.0</ele><time>2026-04-04T08:37:19Z</time></trkpt><trkpt lat="43.19437328147149" lon="12.971682172640168"><ele>835.1666666666666</ele><time>2026-04-04T08:37:21Z</time></trkpt><trkpt lat="43.19427916441708" lon="12.971712145142064"><ele>836.3333333333333</ele><time>2026-04-04T08:37:33Z</time></trkpt><trkpt lat="43.19421352639611" lon="12.971714451999974"><ele>837.5</ele><time>2026-04-04T08:37:35Z</time></trkpt><trkpt lat="43.194181821517105" lon="12.971789567539316"><ele>838.6666666666666</ele><time>2026-04-04T08:37:39Z</time></trkpt><trkpt lat="43.19412021635674" lon="12.97186174309595"><ele>839.8333333333333</ele><time>2026-04-04T08:37:42Z</time></trkpt><trkpt lat="43.1940749264863" lon="12.971932046930977"><ele>841.0</ele><time>2026-04-04T08:37:44Z</time></trkpt><trkpt lat="43.19399576282538" lon="12.97202335250521"><ele>833.5999999999999</ele><time>2026-04-04T08:37:46Z</time></trkpt><trkpt lat="43.193915608132926" lon="12.97209839059287"><ele>826.2</ele><time>2026-04-04T08:37:48Z</time></trkpt><trkpt lat="43.1938340511046" lon="12.972174064989701"><ele>818.8</ele><time>2026-04-04T08:37:50Z</time></trkpt><trkpt lat="43.193749095782756" lon="12.972268263141068"><ele>811.4000000000001</ele><time>2026-04-04T08:37:52Z</time></trkpt><trkpt lat="43.193691471075894" lon="12.972319439982165"><ele>804.0</ele><time>2026-04-04T08:37:53Z</time></trkpt><trkpt lat="43.19362137232029" lon="12.97237455653993"><ele>804.0</ele><time>2026-04-04T08:37:54Z</time></trkpt><trkpt lat="43.193555450429095" lon="12.97242943462466"><ele>804.0</ele><time>2026-04-04T08:37:55Z</time></trkpt><trkpt lat="43.19348902397479" lon="12.972486472284846"><ele>804.0</ele><time>2026-04-04T08:37:56Z</time></trkpt><trkpt lat="43.19343218485372" lon="12.972540809599334"><ele>804.0</ele><time>2026-04-04T08:37:57Z</time></trkpt><trkpt lat="43.193363145054946" lon="12.972591642525101"><ele>804.0</ele><time>2026-04-04T08:37:58Z</time></trkpt><trkpt lat="43.19329914043465" lon="12.972638908634712"><ele>804.0</ele><time>2026-04-04T08:37:59Z</time></trkpt><trkpt lat="43.19324302705963" lon="12.972683811378205"><ele>804.0</ele><time>2026-04-04T08:38:00Z</time></trkpt><trkpt lat="43.19313814834678" lon="12.97277869549464"><ele>799.6666666666666</ele><time>2026-04-04T08:38:02Z</time></trkpt><trkpt lat="43.19308157432564" lon="12.972845559771393"><ele>795.3333333333333</ele><time>2026-04-04T08:38:03Z</time></trkpt><trkpt lat="43.19301921134374" lon="12.972910047537628"><ele>791.0</ele><time>2026-04-04T08:38:04Z</time></trkpt><trkpt lat="43.19295726396025" lon="12.97293989313158"><ele>786.6666666666666</ele><time>2026-04-04T08:38:05Z</time></trkpt><trkpt lat="43.192872219341524" lon="12.972950716819213"><ele>782.3333333333333</ele><time>2026-04-04T08:38:07Z</time></trkpt><trkpt lat="43.19280342206808" lon="12.97295163735608"><ele>778.0</ele><time>2026-04-04T08:38:09Z</time></trkpt><trkpt lat="43.192716036829054" lon="12.973002238998543"><ele>777.9999999999999</ele><time>2026-04-04T08:38:11Z</time></trkpt><trkpt lat="43.19267109137177" lon="12.973074916985924"><ele>778.0</ele><time>2026-04-04T08:38:12Z</time></trkpt><trkpt lat="43.19265295515017" lon="12.973201149245027"><ele>778.0</ele><time>2026-04-04T08:38:14Z</time></trkpt><trkpt lat="43.19258436409058" lon="12.973306502206588"><ele>778.0</ele><time>2026-04-04T08:38:16Z</time></trkpt><trkpt lat="43.192508804928075" lon="12.973365245588292"><ele>777.9999999999999</ele><time>2026-04-04T08:38:18Z</time></trkpt><trkpt lat="43.192448687697265" lon="12.973390934599655"><ele>778.0</ele><time>2026-04-04T08:38:22Z</time></trkpt><trkpt lat="43.19238498665521" lon="12.973389434330267"><ele>773.4285714285714</ele><time>2026-04-04T08:38:32Z</time></trkpt><trkpt lat="43.192323415133345" lon="12.973430417807581"><ele>768.8571428571428</ele><time>2026-04-04T08:38:41Z</time></trkpt><trkpt lat="43.19225728378179" lon="12.97346818626684"><ele>764.2857142857142</ele><time>2026-04-04T08:38:46Z</time></trkpt><trkpt lat="43.19219373795651" lon="12.973500215373527"><ele>759.7142857142858</ele><time>2026-04-04T08:38:53Z</time></trkpt><trkpt lat="43.19210784831092" lon="12.973506722914376"><ele>755.1428571428571</ele><time>2026-04-04T08:39:00Z</time></trkpt><trkpt lat="43.192051886730965" lon="12.973464410112873"><ele>750.5714285714286</ele><time>2026-04-04T08:39:03Z</time></trkpt><trkpt lat="43.191986703161476" lon="12.97342032789508"><ele>746.0</ele><time>2026-04-04T08:39:06Z</time></trkpt><trkpt lat="43.191900065940764" lon="12.973370804149651"><ele>746.0</ele><time>2026-04-04T08:39:09Z</time></trkpt><trkpt lat="43.191829038246865" lon="12.973393499370626"><ele>746.0</ele><time>2026-04-04T08:39:12Z</time></trkpt><trkpt lat="43.19176169950783" lon="12.973474153898948"><ele>746.0</ele><time>2026-04-04T08:39:14Z</time></trkpt><trkpt lat="43.19171294883758" lon="12.973576234480348"><ele>746.0</ele><time>2026-04-04T08:39:16Z</time></trkpt><trkpt lat="43.19163908165933" lon="12.973687944710123"><ele>746.0</ele><time>2026-04-04T08:39:18Z</time></trkpt><trkpt lat="43.191585578535985" lon="12.973792549065527"><ele>746.0</ele><time>2026-04-04T08:39:20Z</time></trkpt><trkpt lat="43.191512658046115" lon="12.973960327408525"><ele>746.0</ele><time>2026-04-04T08:39:22Z</time></trkpt><trkpt lat="43.191463765339556" lon="12.974030257058951"><ele>746.0</ele><time>2026-04-04T08:39:23Z</time></trkpt><trkpt lat="43.19137279187089" lon="12.974127941221802"><ele>746.0</ele><time>2026-04-04T08:39:25Z</time></trkpt><trkpt lat="43.19129098797633" lon="12.974193989563656"><ele>746.0</ele><time>2026-04-04T08:39:27Z</time></trkpt><trkpt lat="43.191241322132186" lon="12.974266476861297"><ele>742.3333333333333</ele><time>2026-04-04T08:39:29Z</time></trkpt><trkpt lat="43.191162300430065" lon="12.974337938925693"><ele>738.6666666666666</ele><time>2026-04-04T08:39:31Z</time></trkpt><trkpt lat="43.19110622431878" lon="12.974384798329911"><ele>735.0</ele><time>2026-04-04T08:39:32Z</time></trkpt><trkpt lat="43.191048387768774" lon="12.974442346807933"><ele>731.3333333333334</ele><time>2026-04-04T08:39:34Z</time></trkpt><trkpt lat="43.190962372031564" lon="12.974433106105964"><ele>727.6666666666667</ele><time>2026-04-04T08:39:37Z</time></trkpt><trkpt lat="43.19088040926836" lon="12.97443732181356"><ele>724.0</ele><time>2026-04-04T08:39:39Z</time></trkpt><trkpt lat="43.19080028892977" lon="12.974450426189485"><ele>724.0</ele><time>2026-04-04T08:39:42Z</time></trkpt><trkpt lat="43.19072988462092" lon="12.974445658347276"><ele>724.0</ele><time>2026-04-04T08:39:44Z</time></trkpt><trkpt lat="43.19065730257306" lon="12.974420552635829"><ele>724.0</ele><time>2026-04-04T08:39:46Z</time></trkpt><trkpt lat="43.19054804696845" lon="12.974362710335171"><ele>724.0</ele><time>2026-04-04T08:39:48Z</time></trkpt><trkpt lat="43.19048028585648" lon="12.974333923096221"><ele>724.0</ele><time>2026-04-04T08:39:49Z</time></trkpt><trkpt lat="43.19039505983036" lon="12.974308362543796"><ele>724.0</ele><time>2026-04-04T08:39:51Z</time></trkpt><trkpt lat="43.19031407995198" lon="12.97429636421312"><ele>718.8333333333334</ele><time>2026-04-04T08:39:52Z</time></trkpt><trkpt lat="43.19025239102436" lon="12.974314950841567"><ele>713.6666666666667</ele><time>2026-04-04T08:40:01Z</time></trkpt><trkpt lat="43.19017079236613" lon="12.9742684824926"><ele>708.5</ele><time>2026-04-04T08:40:05Z</time></trkpt><trkpt lat="43.190105229685884" lon="12.974295994394833"><ele>703.3333333333334</ele><time>2026-04-04T08:40:11Z</time></trkpt><trkpt lat="43.19005124186773" lon="12.974376639638281"><ele>698.1666666666666</ele><time>2026-04-04T08:40:18Z</time></trkpt><trkpt lat="43.19001414064395" lon="12.974467079983167"><ele>693.0</ele><time>2026-04-04T08:40:20Z</time></trkpt><trkpt lat="43.18992003367498" lon="12.974508483283936"><ele>693.0</ele><time>2026-04-04T08:40:23Z</time></trkpt><trkpt lat="43.18985925336425" lon="12.974564566610587"><ele>693.0</ele><time>2026-04-04T08:40:25Z</time></trkpt><trkpt lat="43.18977279914204" lon="12.974618491581296"><ele>693.0</ele><time>2026-04-04T08:40:27Z</time></trkpt><trkpt lat="43.18968346580536" lon="12.97460917545541"><ele>693.0</ele><time>2026-04-04T08:40:29Z</time></trkpt><trkpt lat="43.189567656219765" lon="12.974608649251982"><ele>693.0</ele><time>2026-04-04T08:40:32Z</time></trkpt><trkpt lat="43.18943014082966" lon="12.974628043870522"><ele>686.8</ele><time>2026-04-04T08:40:34Z</time></trkpt><trkpt lat="43.18934546986491" lon="12.974637869474904"><ele>680.5999999999999</ele><time>2026-04-04T08:40:35Z</time></trkpt><trkpt lat="43.18927705823215" lon="12.974756062713842"><ele>674.4000000000001</ele><time>2026-04-04T08:40:36Z</time></trkpt><trkpt lat="43.18918579902112" lon="12.974763914482274"><ele>668.2</ele><time>2026-04-04T08:40:37Z</time></trkpt><trkpt lat="43.18905159199831" lon="12.974775461644429"><ele>662.0</ele><time>2026-04-04T08:40:38Z</time></trkpt><trkpt lat="43.188971099021124" lon="12.974782387811953"><ele>657.8333333333333</ele><time>2026-04-04T08:40:39Z</time></trkpt><trkpt lat="43.18889457575504" lon="12.974788971361347"><ele>653.6666666666666</ele><time>2026-04-04T08:40:40Z</time></trkpt><trkpt lat="43.18879601323143" lon="12.974797451025822"><ele>649.5</ele><time>2026-04-04T08:40:41Z</time></trkpt><trkpt lat="43.1887135803576" lon="12.974814549763833"><ele>645.3333333333334</ele><time>2026-04-04T08:40:42Z</time></trkpt><trkpt lat="43.18864741993594" lon="12.974808018770576"><ele>641.1666666666667</ele><time>2026-04-04T08:40:43Z</time></trkpt><trkpt lat="43.18853482258961" lon="12.974782254652474"><ele>637.0</ele><time>2026-04-04T08:40:45Z</time></trkpt><trkpt lat="43.188418174974615" lon="12.974789505960354"><ele>637.0</ele><time>2026-04-04T08:40:47Z</time></trkpt><trkpt lat="43.188348322940044" lon="12.974783991315226"><ele>637.0</ele><time>2026-04-04T08:40:48Z</time></trkpt><trkpt lat="43.18827415569197" lon="12.974768448207623"><ele>637.0</ele><time>2026-04-04T08:40:49Z</time></trkpt><trkpt lat="43.18819584422176" lon="12.974762209884881"><ele>637.0</ele><time>2026-04-04T08:40:50Z</time></trkpt><trkpt lat="43.188097742095756" lon="12.974766591114715"><ele>637.0</ele><time>2026-04-04T08:40:51Z</time></trkpt><trkpt lat="43.188005344432376" lon="12.97477531219388"><ele>637.0</ele><time>2026-04-04T08:40:52Z</time></trkpt><trkpt lat="43.18790547769979" lon="12.974778633019756"><ele>632.6666666666667</ele><time>2026-04-04T08:40:53Z</time></trkpt><trkpt lat="43.18781114137312" lon="12.974779138152286"><ele>628.3333333333334</ele><time>2026-04-04T08:40:54Z</time></trkpt><trkpt lat="43.18772300689225" lon="12.974777867082615"><ele>624.0</ele><time>2026-04-04T08:40:55Z</time></trkpt><trkpt lat="43.18765049371406" lon="12.974742897562153"><ele>619.6666666666666</ele><time>2026-04-04T08:40:56Z</time></trkpt><trkpt lat="43.187545556262066" lon="12.97474550376552"><ele>615.3333333333333</ele><time>2026-04-04T08:40:57Z</time></trkpt><trkpt lat="43.18746947211632" lon="12.97477233773606"><ele>611.0</ele><time>2026-04-04T08:40:58Z</time></trkpt><trkpt lat="43.18740742501787" lon="12.97487558527783"><ele>607.8333333333333</ele><time>2026-04-04T08:40:59Z</time></trkpt><trkpt lat="43.18731956051774" lon="12.974900263424058"><ele>604.6666666666666</ele><time>2026-04-04T08:41:00Z</time></trkpt><trkpt lat="43.18724597660134" lon="12.974905718925935"><ele>601.5</ele><time>2026-04-04T08:41:01Z</time></trkpt><trkpt lat="43.18717024100497" lon="12.97491133405375"><ele>598.3333333333334</ele><time>2026-04-04T08:41:02Z</time></trkpt><trkpt lat="43.18705933894089" lon="12.974919556463261"><ele>595.1666666666667</ele><time>2026-04-04T08:41:04Z</time></trkpt><trkpt lat="43.1869964634206" lon="12.974935053921989"><ele>592.0</ele><time>2026-04-04T08:41:05Z</time></trkpt><trkpt lat="43.18693452244036" lon="12.974983343088645"><ele>591.5</ele><time>2026-04-04T08:41:06Z</time></trkpt><trkpt lat="43.186872208282814" lon="12.975026297286682"><ele>591.0</ele><time>2026-04-04T08:41:07Z</time></trkpt><trkpt lat="43.18675092289786" lon="12.975102489199404"><ele>590.5</ele><time>2026-04-04T08:41:09Z</time></trkpt><trkpt lat="43.18667456441245" lon="12.975135238510992"><ele>590.0</ele><time>2026-04-04T08:41:10Z</time></trkpt><trkpt lat="43.186603813379456" lon="12.975177887563556"><ele>589.5</ele><time>2026-04-04T08:41:11Z</time></trkpt><trkpt lat="43.186532995071865" lon="12.975224666002479"><ele>589.0</ele><time>2026-04-04T08:41:12Z</time></trkpt><trkpt lat="43.18646845091375" lon="12.97527058216109"><ele>585.8571428571429</ele><time>2026-04-04T08:41:13Z</time></trkpt><trkpt lat="43.18641148833681" lon="12.975323825065997"><ele>582.7142857142857</ele><time>2026-04-04T08:41:14Z</time></trkpt><trkpt lat="43.18635797824767" lon="12.975377525922498"><ele>579.5714285714286</ele><time>2026-04-04T08:41:15Z</time></trkpt><trkpt lat="43.18631164593903" lon="12.975444273831979"><ele>576.4285714285714</ele><time>2026-04-04T08:41:16Z</time></trkpt><trkpt lat="43.18624954811235" lon="12.975495404231738"><ele>573.2857142857142</ele><time>2026-04-04T08:41:17Z</time></trkpt><trkpt lat="43.186187777896656" lon="12.97554278794283"><ele>570.1428571428571</ele><time>2026-04-04T08:41:18Z</time></trkpt><trkpt lat="43.186111608854844" lon="12.975583288754207"><ele>567.0</ele><time>2026-04-04T08:41:19Z</time></trkpt><trkpt lat="43.18603869343793" lon="12.975622883134028"><ele>567.0</ele><time>2026-04-04T08:41:20Z</time></trkpt><trkpt lat="43.18597155158763" lon="12.975657505064703"><ele>567.0</ele><time>2026-04-04T08:41:21Z</time></trkpt><trkpt lat="43.18583983334761" lon="12.97564078581939"><ele>567.0</ele><time>2026-04-04T08:41:22Z</time></trkpt><trkpt lat="43.18576960586639" lon="12.9756635812466"><ele>567.0</ele><time>2026-04-04T08:41:23Z</time></trkpt><trkpt lat="43.18564322795307" lon="12.97570070060632"><ele>567.0</ele><time>2026-04-04T08:41:25Z</time></trkpt><trkpt lat="43.185544759687055" lon="12.97576039696853"><ele>564.0</ele><time>2026-04-04T08:41:27Z</time></trkpt><trkpt lat="43.18545973610027" lon="12.97579427282259"><ele>561.0</ele><time>2026-04-04T08:41:29Z</time></trkpt><trkpt lat="43.185346364885504" lon="12.975810440285965"><ele>558.0</ele><time>2026-04-04T08:41:31Z</time></trkpt><trkpt lat="43.18528618062684" lon="12.975837594978469"><ele>555.0</ele><time>2026-04-04T08:41:32Z</time></trkpt><trkpt lat="43.185191132476376" lon="12.975848509690643"><ele>552.0</ele><time>2026-04-04T08:41:33Z</time></trkpt><trkpt lat="43.185082389760375" lon="12.975875817972472"><ele>552.0</ele><time>2026-04-04T08:41:35Z</time></trkpt><trkpt lat="43.18501756827978" lon="12.975893397889118"><ele>552.0</ele><time>2026-04-04T08:41:37Z</time></trkpt><trkpt lat="43.18491161331357" lon="12.975917115159511"><ele>552.0</ele><time>2026-04-04T08:41:39Z</time></trkpt><trkpt lat="43.184850612696444" lon="12.975938809724296"><ele>552.0</ele><time>2026-04-04T08:41:40Z</time></trkpt><trkpt lat="43.18473770659133" lon="12.975994481696784"><ele>552.0</ele><time>2026-04-04T08:41:42Z</time></trkpt><trkpt lat="43.18465659188241" lon="12.976029635185265"><ele>552.0</ele><time>2026-04-04T08:41:44Z</time></trkpt><trkpt lat="43.18458198330139" lon="12.976077138636988"><ele>547.6</ele><time>2026-04-04T08:41:46Z</time></trkpt><trkpt lat="43.18448216902775" lon="12.976121992188425"><ele>543.2</ele><time>2026-04-04T08:41:48Z</time></trkpt><trkpt lat="43.18438141677122" lon="12.976139160747989"><ele>538.8</ele><time>2026-04-04T08:41:49Z</time></trkpt><trkpt lat="43.18427457986054" lon="12.97616755915847"><ele>534.4</ele><time>2026-04-04T08:41:51Z</time></trkpt><trkpt lat="43.184198223592816" lon="12.976180825261112"><ele>530.0</ele><time>2026-04-04T08:41:53Z</time></trkpt><trkpt lat="43.18411645552979" lon="12.976160692888156"><ele>530.0</ele><time>2026-04-04T08:41:55Z</time></trkpt><trkpt lat="43.18403125658039" lon="12.976164720132795"><ele>530.0</ele><time>2026-04-04T08:41:58Z</time></trkpt><trkpt lat="43.183939089812924" lon="12.976149949226405"><ele>530.0</ele><time>2026-04-04T08:42:01Z</time></trkpt><trkpt lat="43.18386311429997" lon="12.976156309116663"><ele>530.0</ele><time>2026-04-04T08:42:04Z</time></trkpt><trkpt lat="43.18391549739528" lon="12.976221017075602"><ele>530.0</ele><time>2026-04-04T08:42:13Z</time></trkpt><trkpt lat="43.18384472191022" lon="12.976254009781945"><ele>530.0</ele><time>2026-04-04T08:42:20Z</time></trkpt><trkpt lat="43.18377919931665" lon="12.976243729718753"><ele>528.5</ele><time>2026-04-04T08:42:21Z</time></trkpt><trkpt lat="43.183654477002925" lon="12.976229345104663"><ele>527.0</ele><time>2026-04-04T08:42:23Z</time></trkpt><trkpt lat="43.18358151478289" lon="12.976211403715322"><ele>525.5</ele><time>2026-04-04T08:42:24Z</time></trkpt><trkpt lat="43.18350008190745" lon="12.976180878524922"><ele>524.0</ele><time>2026-04-04T08:42:25Z</time></trkpt><trkpt lat="43.183424432242084" lon="12.976163175218108"><ele>522.5</ele><time>2026-04-04T08:42:26Z</time></trkpt><trkpt lat="43.18334259374459" lon="12.976148934392057"><ele>521.0</ele><time>2026-04-04T08:42:27Z</time></trkpt><trkpt lat="43.18325879170973" lon="12.976135840268075"><ele>521.0</ele><time>2026-04-04T08:42:28Z</time></trkpt><trkpt lat="43.18318268660932" lon="12.976123158629967"><ele>521.0</ele><time>2026-04-04T08:42:29Z</time></trkpt><trkpt lat="43.18311093980121" lon="12.976102580471505"><ele>521.0</ele><time>2026-04-04T08:42:30Z</time></trkpt><trkpt lat="43.18303797656142" lon="12.976073448850512"><ele>521.0</ele><time>2026-04-04T08:42:31Z</time></trkpt><trkpt lat="43.18295753196902" lon="12.97603976187475"><ele>521.0</ele><time>2026-04-04T08:42:32Z</time></trkpt><trkpt lat="43.182871411613114" lon="12.976003886461285"><ele>521.0</ele><time>2026-04-04T08:42:33Z</time></trkpt><trkpt lat="43.1827507562604" lon="12.975956761585273"><ele>520.4</ele><time>2026-04-04T08:42:34Z</time></trkpt><trkpt lat="43.182656897934244" lon="12.975933062560845"><ele>519.8</ele><time>2026-04-04T08:42:35Z</time></trkpt><trkpt lat="43.18258496944049" lon="12.975921199117659"><ele>519.1999999999999</ele><time>2026-04-04T08:42:36Z</time></trkpt><trkpt lat="43.18249107385193" lon="12.975872949507725"><ele>518.6</ele><time>2026-04-04T08:42:38Z</time></trkpt><trkpt lat="43.18237593972673" lon="12.975865937905132"><ele>518.0</ele><time>2026-04-04T08:42:40Z</time></trkpt><trkpt lat="43.18231506948267" lon="12.975821868285411"><ele>509.0</ele><time>2026-04-04T08:42:41Z</time></trkpt><trkpt lat="43.18221297931479" lon="12.975725842716743"><ele>499.99999999999994</ele><time>2026-04-04T08:42:43Z</time></trkpt><trkpt lat="43.18212315459166" lon="12.975712695068667"><ele>490.99999999999994</ele><time>2026-04-04T08:42:45Z</time></trkpt><trkpt lat="43.182050484965664" lon="12.975672763094929"><ele>482.0</ele><time>2026-04-04T08:42:47Z</time></trkpt><trkpt lat="43.181970856314315" lon="12.975603517783403"><ele>473.0</ele><time>2026-04-04T08:42:49Z</time></trkpt><trkpt lat="43.18187785464506" lon="12.97553029142157"><ele>473.0</ele><time>2026-04-04T08:42:51Z</time></trkpt><trkpt lat="43.18180080022966" lon="12.975501324315422"><ele>473.0</ele><time>2026-04-04T08:42:53Z</time></trkpt><trkpt lat="43.181820700801566" lon="12.975417743813535"><ele>473.0</ele><time>2026-04-04T08:42:54Z</time></trkpt><trkpt lat="43.18186878846389" lon="12.975356948386336"><ele>473.0</ele><time>2026-04-04T08:42:58Z</time></trkpt><trkpt lat="43.181946920365526" lon="12.975318368470276"><ele>473.0</ele><time>2026-04-04T08:43:00Z</time></trkpt><trkpt lat="43.18198063999828" lon="12.975232153305553"><ele>473.0</ele><time>2026-04-04T08:43:03Z</time></trkpt><trkpt lat="43.18196225714441" lon="12.975127777204793"><ele>473.0</ele><time>2026-04-04T08:43:06Z</time></trkpt><trkpt lat="43.18194353399304" lon="12.975044181284696"><ele>469.99999999999994</ele><time>2026-04-04T08:43:08Z</time></trkpt><trkpt lat="43.18192765777982" lon="12.974943081048451"><ele>467.0</ele><time>2026-04-04T08:43:10Z</time></trkpt><trkpt lat="43.18192336656252" lon="12.974846761003839"><ele>464.0</ele><time>2026-04-04T08:43:12Z</time></trkpt><trkpt lat="43.18191745657587" lon="12.974747829566333"><ele>461.0</ele><time>2026-04-04T08:43:14Z</time></trkpt><trkpt lat="43.181881961965125" lon="12.974655668319526"><ele>457.99999999999994</ele><time>2026-04-04T08:43:16Z</time></trkpt><trkpt lat="43.18184478790228" lon="12.974583639752161"><ele>455.0</ele><time>2026-04-04T08:43:18Z</time></trkpt><trkpt lat="43.18193896159614" lon="12.97439656073221"><ele>454.99999999999994</ele><time>2026-04-04T08:43:25Z</time></trkpt><trkpt lat="43.181936759408096" lon="12.97421160546696"><ele>455.0</ele><time>2026-04-04T08:43:26Z</time></trkpt><trkpt lat="43.18192158303592" lon="12.974104851668516"><ele>455.0</ele><time>2026-04-04T08:43:29Z</time></trkpt><trkpt lat="43.181904199815996" lon="12.974021469313394"><ele>455.0</ele><time>2026-04-04T08:43:32Z</time></trkpt><trkpt lat="43.18185418375015" lon="12.973924956168306"><ele>454.99999999999994</ele><time>2026-04-04T08:43:35Z</time></trkpt><trkpt lat="43.18184818315756" lon="12.973829637392795"><ele>455.0</ele><time>2026-04-04T08:43:36Z</time></trkpt><trkpt lat="43.181860066378974" lon="12.97373218868466"><ele>453.0</ele><time>2026-04-04T08:43:37Z</time></trkpt><trkpt lat="43.18187416972391" lon="12.973573223161347"><ele>451.0</ele><time>2026-04-04T08:43:38Z</time></trkpt><trkpt lat="43.1818746812857" lon="12.973401875614691"><ele>449.0</ele><time>2026-04-04T08:43:39Z</time></trkpt><trkpt lat="43.18187398329456" lon="12.973059479529889"><ele>448.75</ele><time>2026-04-04T08:43:41Z</time></trkpt><trkpt lat="43.181875118926385" lon="12.972875975797248"><ele>448.5</ele><time>2026-04-04T08:43:42Z</time></trkpt><trkpt lat="43.18187302756128" lon="12.972680722163553"><ele>448.25</ele><time>2026-04-04T08:43:43Z</time></trkpt><trkpt lat="43.18187186573117" lon="12.972474795602926"><ele>448.0</ele><time>2026-04-04T08:43:44Z</time></trkpt><trkpt lat="43.181874578566585" lon="12.972277261565404"><ele>449.75</ele><time>2026-04-04T08:43:45Z</time></trkpt><trkpt lat="43.18187710999934" lon="12.972081150522826"><ele>451.5</ele><time>2026-04-04T08:43:46Z</time></trkpt><trkpt lat="43.18187739419129" lon="12.971883034757665"><ele>453.25</ele><time>2026-04-04T08:43:47Z</time></trkpt><trkpt lat="43.18189278543205" lon="12.971670845732532"><ele>455.0</ele><time>2026-04-04T08:43:48Z</time></trkpt><trkpt lat="43.181890529817956" lon="12.971484437370849"><ele>456.0</ele><time>2026-04-04T08:43:49Z</time></trkpt><trkpt lat="43.18188984956469" lon="12.971292844657688"><ele>457.0</ele><time>2026-04-04T08:43:50Z</time></trkpt><trkpt lat="43.18177988497807" lon="12.971099941519041"><ele>458.0</ele><time>2026-04-04T08:43:51Z</time></trkpt><trkpt lat="43.18179302331319" lon="12.970917160119681"><ele>458.75</ele><time>2026-04-04T08:43:52Z</time></trkpt><trkpt lat="43.18180658875704" lon="12.970739873094779"><ele>459.5</ele><time>2026-04-04T08:43:53Z</time></trkpt><trkpt lat="43.18181876537278" lon="12.970560534143102"><ele>460.25</ele><time>2026-04-04T08:43:54Z</time></trkpt><trkpt lat="43.18184474794492" lon="12.970377362100175"><ele>461.0</ele><time>2026-04-04T08:43:55Z</time></trkpt><trkpt lat="43.181840483991074" lon="12.97019805407858"><ele>459.75</ele><time>2026-04-04T08:43:56Z</time></trkpt><trkpt lat="43.181837572662175" lon="12.970005183529443"><ele>458.5</ele><time>2026-04-04T08:43:57Z</time></trkpt><trkpt lat="43.18188194356141" lon="12.969825597341986"><ele>457.25</ele><time>2026-04-04T08:43:58Z</time></trkpt><trkpt lat="43.18190377512809" lon="12.969646461090015"><ele>456.0</ele><time>2026-04-04T08:43:59Z</time></trkpt><trkpt lat="43.18192018412761" lon="12.969460819996414"><ele>456.0</ele><time>2026-04-04T08:44:00Z</time></trkpt><trkpt lat="43.18192893457384" lon="12.969283062806813"><ele>456.0</ele><time>2026-04-04T08:44:01Z</time></trkpt><trkpt lat="43.181931823387785" lon="12.969102674233813"><ele>456.0</ele><time>2026-04-04T08:44:02Z</time></trkpt><trkpt lat="43.18193393212665" lon="12.968933691852047"><ele>456.0</ele><time>2026-04-04T08:44:03Z</time></trkpt><trkpt lat="43.18194480638854" lon="12.968765607877863"><ele>456.25</ele><time>2026-04-04T08:44:04Z</time></trkpt><trkpt lat="43.181961887315246" lon="12.968614834042363"><ele>456.5</ele><time>2026-04-04T08:44:05Z</time></trkpt><trkpt lat="43.181985074673314" lon="12.968437680875946"><ele>456.75</ele><time>2026-04-04T08:44:06Z</time></trkpt><trkpt lat="43.182012224506416" lon="12.96827459411076"><ele>457.0</ele><time>2026-04-04T08:44:07Z</time></trkpt><trkpt lat="43.18204710552358" lon="12.968104780945405"><ele>456.0</ele><time>2026-04-04T08:44:08Z</time></trkpt><trkpt lat="43.18208773750942" lon="12.967949857381992"><ele>455.0</ele><time>2026-04-04T08:44:09Z</time></trkpt><trkpt lat="43.18214966171818" lon="12.967802842842193"><ele>454.0</ele><time>2026-04-04T08:44:10Z</time></trkpt><trkpt lat="43.18220224095309" lon="12.967651278679197"><ele>453.0</ele><time>2026-04-04T08:44:11Z</time></trkpt><trkpt lat="43.18225745943367" lon="12.9674985512981"><ele>452.5</ele><time>2026-04-04T08:44:12Z</time></trkpt><trkpt lat="43.182331583689894" lon="12.967345636930858"><ele>452.0</ele><time>2026-04-04T08:44:13Z</time></trkpt><trkpt lat="43.18238682589513" lon="12.96719583832932"><ele>451.5</ele><time>2026-04-04T08:44:14Z</time></trkpt><trkpt lat="43.18243944862226" lon="12.96704879579913"><ele>451.0</ele><time>2026-04-04T08:44:15Z</time></trkpt><trkpt lat="43.18249911152625" lon="12.96688919245275"><ele>456.5</ele><time>2026-04-04T08:44:16Z</time></trkpt><trkpt lat="43.1825614147553" lon="12.966715106920324"><ele>462.0</ele><time>2026-04-04T08:44:17Z</time></trkpt><trkpt lat="43.18265211510107" lon="12.966587323271813"><ele>467.5</ele><time>2026-04-04T08:44:18Z</time></trkpt><trkpt lat="43.182744933853066" lon="12.966492617412461"><ele>473.0</ele><time>2026-04-04T08:44:19Z</time></trkpt><trkpt lat="43.18283841188448" lon="12.96642186530894"><ele>473.0</ele><time>2026-04-04T08:44:20Z</time></trkpt><trkpt lat="43.182940111205454" lon="12.966239376424642"><ele>473.0</ele><time>2026-04-04T08:44:22Z</time></trkpt><trkpt lat="43.18331321584102" lon="12.96558338391065"><ele>471.66666666666663</ele><time>2026-04-04T08:44:23Z</time></trkpt><trkpt lat="43.18315943269782" lon="12.965156085618514"><ele>470.33333333333337</ele><time>2026-04-04T08:44:24Z</time></trkpt><trkpt lat="43.183075268390816" lon="12.965118684038739"><ele>469.0</ele><time>2026-04-04T08:44:25Z</time></trkpt><trkpt lat="43.183116899835" lon="12.964977989528714"><ele>469.0</ele><time>2026-04-04T08:44:26Z</time></trkpt><trkpt lat="43.18313602972962" lon="12.964812055465757"><ele>469.0</ele><time>2026-04-04T08:44:27Z</time></trkpt><trkpt lat="43.18316752144967" lon="12.964734161730606"><ele>469.0</ele><time>2026-04-04T08:44:28Z</time></trkpt><trkpt lat="43.18320875212949" lon="12.964611684931466"><ele>469.0</ele><time>2026-04-04T08:44:29Z</time></trkpt><trkpt lat="43.1832720861159" lon="12.964465214725964"><ele>469.0</ele><time>2026-04-04T08:44:30Z</time></trkpt><trkpt lat="43.183320556373296" lon="12.96432219731502"><ele>475.2</ele><time>2026-04-04T08:44:31Z</time></trkpt><trkpt lat="43.183368218883935" lon="12.964181563567363"><ele>481.4</ele><time>2026-04-04T08:44:32Z</time></trkpt><trkpt lat="43.18339154371275" lon="12.964089841370566"><ele>487.6</ele><time>2026-04-04T08:44:33Z</time></trkpt><trkpt lat="43.18343169181738" lon="12.963908832210327"><ele>493.8</ele><time>2026-04-04T08:44:35Z</time></trkpt><trkpt lat="43.18346111622953" lon="12.963751949353489"><ele>500.0</ele><time>2026-04-04T08:44:36Z</time></trkpt><trkpt lat="43.18349587881029" lon="12.963604873700834"><ele>455.0</ele><time>2026-04-04T08:44:38Z</time></trkpt><trkpt lat="43.18302327857298" lon="12.96263232336797"><ele>454.75</ele><time>2026-04-04T08:44:39Z</time></trkpt><trkpt lat="43.183067926738126" lon="12.962437850092291"><ele>454.5</ele><time>2026-04-04T08:44:40Z</time></trkpt><trkpt lat="43.183115969122085" lon="12.962295085722364"><ele>454.25</ele><time>2026-04-04T08:44:41Z</time></trkpt><trkpt lat="43.18314465249279" lon="12.962054649430614"><ele>454.0</ele><time>2026-04-04T08:44:42Z</time></trkpt><trkpt lat="43.183186737148105" lon="12.961711239217186"><ele>457.6666666666667</ele><time>2026-04-04T08:44:43Z</time></trkpt><trkpt lat="43.18324776677043" lon="12.961495029988626"><ele>461.33333333333337</ele><time>2026-04-04T08:44:44Z</time></trkpt><trkpt lat="43.18330652031626" lon="12.961282010702138"><ele>465.0</ele><time>2026-04-04T08:44:45Z</time></trkpt><trkpt lat="43.18336215682301" lon="12.961077244311493"><ele>465.0</ele><time>2026-04-04T08:44:46Z</time></trkpt><trkpt lat="43.18341769301752" lon="12.960877960726142"><ele>465.0</ele><time>2026-04-04T08:44:47Z</time></trkpt><trkpt lat="43.18348417542521" lon="12.960654923136756"><ele>465.0</ele><time>2026-04-04T08:44:48Z</time></trkpt><trkpt lat="43.1835570138558" lon="12.960441692951782"><ele>466.0</ele><time>2026-04-04T08:44:49Z</time></trkpt><trkpt lat="43.183622856826574" lon="12.960240939556998"><ele>467.0</ele><time>2026-04-04T08:44:50Z</time></trkpt><trkpt lat="43.1836828162167" lon="12.960052983538906"><ele>468.0</ele><time>2026-04-04T08:44:51Z</time></trkpt><trkpt lat="43.183740985345494" lon="12.959838228094844"><ele>466.0</ele><time>2026-04-04T08:44:52Z</time></trkpt><trkpt lat="43.18381261966031" lon="12.959642173099624"><ele>464.0</ele><time>2026-04-04T08:44:53Z</time></trkpt><trkpt lat="43.18388335546655" lon="12.959437769676638"><ele>462.0</ele><time>2026-04-04T08:44:54Z</time></trkpt><trkpt lat="43.1839580846011" lon="12.959240602337236"><ele>456.0</ele><time>2026-04-04T08:44:55Z</time></trkpt><trkpt lat="43.183749998398746" lon="12.958795476773311"><ele>450.0</ele><time>2026-04-04T08:44:56Z</time></trkpt><trkpt lat="43.183842774381056" lon="12.95859388189979"><ele>450.0</ele><time>2026-04-04T08:44:57Z</time></trkpt><trkpt lat="43.183921074032746" lon="12.958416262005292"><ele>450.0</ele><time>2026-04-04T08:44:58Z</time></trkpt><trkpt lat="43.18399366397604" lon="12.958242159520905"><ele>450.0</ele><time>2026-04-04T08:44:59Z</time></trkpt><trkpt lat="43.18405164818523" lon="12.95808091162418"><ele>450.0</ele><time>2026-04-04T08:45:00Z</time></trkpt><trkpt lat="43.184102960727586" lon="12.957906768625927"><ele>449.75</ele><time>2026-04-04T08:45:01Z</time></trkpt><trkpt lat="43.184146643915" lon="12.95772199083941"><ele>449.5</ele><time>2026-04-04T08:45:02Z</time></trkpt><trkpt lat="43.1841804677638" lon="12.957536058868257"><ele>449.25</ele><time>2026-04-04T08:45:03Z</time></trkpt><trkpt lat="43.184209261008974" lon="12.957336163905088"><ele>449.0</ele><time>2026-04-04T08:45:04Z</time></trkpt><trkpt lat="43.18416394291454" lon="12.957057367106502"><ele>449.0</ele><time>2026-04-04T08:45:05Z</time></trkpt><trkpt lat="43.18417641150625" lon="12.956844794481313"><ele>449.0</ele><time>2026-04-04T08:45:06Z</time></trkpt><trkpt lat="43.184182855605776" lon="12.956645545073364"><ele>449.0</ele><time>2026-04-04T08:45:07Z</time></trkpt><trkpt lat="43.18417774007896" lon="12.956434996702074"><ele>449.0</ele><time>2026-04-04T08:45:08Z</time></trkpt><trkpt lat="43.18416304451201" lon="12.956224635198968"><ele>449.0</ele><time>2026-04-04T08:45:09Z</time></trkpt><trkpt lat="43.18415654491291" lon="12.956012338199479"><ele>449.0</ele><time>2026-04-04T08:45:10Z</time></trkpt><trkpt lat="43.184147375417886" lon="12.955821372036413"><ele>449.0</ele><time>2026-04-04T08:45:11Z</time></trkpt><trkpt lat="43.18413434397659" lon="12.955652992622596"><ele>447.6</ele><time>2026-04-04T08:45:12Z</time></trkpt><trkpt lat="43.18411274404609" lon="12.955506532318957"><ele>446.2</ele><time>2026-04-04T08:45:13Z</time></trkpt><trkpt lat="43.18400986236397" lon="12.955375454794194"><ele>444.80000000000007</ele><time>2026-04-04T08:45:14Z</time></trkpt><trkpt lat="43.183991429415705" lon="12.955260936986386"><ele>443.40000000000003</ele><time>2026-04-04T08:45:15Z</time></trkpt><trkpt lat="43.18397043188579" lon="12.95516653556648"><ele>442.0</ele><time>2026-04-04T08:45:16Z</time></trkpt><trkpt lat="43.18391726267782" lon="12.955050653265147"><ele>442.00000000000006</ele><time>2026-04-04T08:45:18Z</time></trkpt><trkpt lat="43.18384358396356" lon="12.955044860472809"><ele>442.0</ele><time>2026-04-04T08:45:20Z</time></trkpt><trkpt lat="43.18376598531712" lon="12.955173361749576"><ele>442.0</ele><time>2026-04-04T08:45:22Z</time></trkpt><trkpt lat="43.183706113990645" lon="12.955208202854635"><ele>442.0</ele><time>2026-04-04T08:45:23Z</time></trkpt><trkpt lat="43.18364078484314" lon="12.95524031928768"><ele>442.00000000000006</ele><time>2026-04-04T08:45:24Z</time></trkpt><trkpt lat="43.183568979661096" lon="12.955278336178857"><ele>442.0</ele><time>2026-04-04T08:45:25Z</time></trkpt><trkpt lat="43.183482724721074" lon="12.955304753731689"><ele>442.0</ele><time>2026-04-04T08:45:26Z</time></trkpt><trkpt lat="43.18339296459886" lon="12.9553626718435"><ele>442.0</ele><time>2026-04-04T08:45:27.001Z</time></trkpt><trkpt lat="43.183287231564215" lon="12.955436280006065"><ele>442.0</ele><time>2026-04-04T08:45:28.001Z</time></trkpt><trkpt lat="43.183182802345236" lon="12.955513887342102"><ele>442.0</ele><time>2026-04-04T08:45:29.001Z</time></trkpt><trkpt lat="43.18307804370894" lon="12.955600753920837"><ele>442.25</ele><time>2026-04-04T08:45:30.001Z</time></trkpt><trkpt lat="43.18297361298928" lon="12.955680709348918"><ele>442.5</ele><time>2026-04-04T08:45:31.001Z</time></trkpt><trkpt lat="43.182875687706755" lon="12.955791459184347"><ele>442.75</ele><time>2026-04-04T08:45:32.001Z</time></trkpt><trkpt lat="43.182768926153024" lon="12.95584873003577"><ele>443.0</ele><time>2026-04-04T08:45:33.001Z</time></trkpt><trkpt lat="43.182666321496185" lon="12.955913984549946"><ele>443.0</ele><time>2026-04-04T08:45:34.001Z</time></trkpt><trkpt lat="43.18257515354641" lon="12.955957712863226"><ele>442.99999999999994</ele><time>2026-04-04T08:45:35.001Z</time></trkpt><trkpt lat="43.18247981769088" lon="12.955972308376614"><ele>442.99999999999994</ele><time>2026-04-04T08:45:36.001Z</time></trkpt><trkpt lat="43.18237090682309" lon="12.955958305478127"><ele>443.0</ele><time>2026-04-04T08:45:37.001Z</time></trkpt><trkpt lat="43.182249445622226" lon="12.955936772099347"><ele>443.0</ele><time>2026-04-04T08:45:38.001Z</time></trkpt><trkpt lat="43.182127094459815" lon="12.955915622370414"><ele>444.4</ele><time>2026-04-04T08:45:39.001Z</time></trkpt><trkpt lat="43.18201022755613" lon="12.955896501449974"><ele>445.79999999999995</ele><time>2026-04-04T08:45:40.001Z</time></trkpt><trkpt lat="43.181903210865386" lon="12.955880307054871"><ele>447.2</ele><time>2026-04-04T08:45:41.001Z</time></trkpt><trkpt lat="43.181807314630376" lon="12.95587134037282"><ele>448.6</ele><time>2026-04-04T08:45:42.001Z</time></trkpt><trkpt lat="43.181729103505496" lon="12.955805521092154"><ele>450.0</ele><time>2026-04-04T08:45:43.001Z</time></trkpt><trkpt lat="43.18166312420233" lon="12.955689655353302"><ele>450.4</ele><time>2026-04-04T08:45:44.001Z</time></trkpt><trkpt lat="43.181572891062736" lon="12.955597304670906"><ele>450.8</ele><time>2026-04-04T08:45:45.001Z</time></trkpt><trkpt lat="43.18149564517273" lon="12.95548525324264"><ele>451.20000000000005</ele><time>2026-04-04T08:45:46.001Z</time></trkpt><trkpt lat="43.18140808017102" lon="12.955380251505577"><ele>451.6</ele><time>2026-04-04T08:45:47.001Z</time></trkpt><trkpt lat="43.18132927420027" lon="12.95530483340756"><ele>452.0</ele><time>2026-04-04T08:45:48.001Z</time></trkpt><trkpt lat="43.181220517126434" lon="12.955222716088327"><ele>452.20000000000005</ele><time>2026-04-04T08:45:49.001Z</time></trkpt><trkpt lat="43.181127129528946" lon="12.955169825766173"><ele>452.40000000000003</ele><time>2026-04-04T08:45:50.001Z</time></trkpt><trkpt lat="43.181035683099516" lon="12.955121057583963"><ele>452.59999999999997</ele><time>2026-04-04T08:45:51.001Z</time></trkpt><trkpt lat="43.18095587548545" lon="12.955081844291092"><ele>452.79999999999995</ele><time>2026-04-04T08:45:52.001Z</time></trkpt><trkpt lat="43.18087096972605" lon="12.95503995584427"><ele>453.0</ele><time>2026-04-04T08:45:53.001Z</time></trkpt><trkpt lat="43.18078501046514" lon="12.954995303613593"><ele>453.0</ele><time>2026-04-04T08:45:54.001Z</time></trkpt><trkpt lat="43.18069246206112" lon="12.954943783049865"><ele>453.0</ele><time>2026-04-04T08:45:55.001Z</time></trkpt><trkpt lat="43.18059268842423" lon="12.9548720437105"><ele>453.0</ele><time>2026-04-04T08:45:56.001Z</time></trkpt><trkpt lat="43.180484165823145" lon="12.95478637771326"><ele>453.0</ele><time>2026-04-04T08:45:57.001Z</time></trkpt><trkpt lat="43.180373635065365" lon="12.954693313110825"><ele>456.3333333333333</ele><time>2026-04-04T08:45:58.001Z</time></trkpt><trkpt lat="43.180281880303674" lon="12.954611376573823"><ele>459.66666666666663</ele><time>2026-04-04T08:45:59.001Z</time></trkpt><trkpt lat="43.18021841234549" lon="12.954549601853516"><ele>463.0</ele><time>2026-04-04T08:46:00.001Z</time></trkpt><trkpt lat="43.18015180349407" lon="12.954478869883275"><ele>466.3333333333333</ele><time>2026-04-04T08:46:02.001Z</time></trkpt><trkpt lat="43.180102246933565" lon="12.954425217327948"><ele>469.66666666666663</ele><time>2026-04-04T08:46:04.001Z</time></trkpt><trkpt lat="43.18005271373623" lon="12.954366548040593"><ele>473.0</ele><time>2026-04-04T08:46:07.001Z</time></trkpt><trkpt lat="43.17998741225553" lon="12.954383216750802"><ele>473.0</ele><time>2026-04-04T08:46:08.001Z</time></trkpt><trkpt lat="43.17995853324518" lon="12.954227329114707"><ele>472.99999999999994</ele><time>2026-04-04T08:46:10.001Z</time></trkpt><trkpt lat="43.179912253855925" lon="12.95414210857103"><ele>472.99999999999994</ele><time>2026-04-04T08:46:11.001Z</time></trkpt><trkpt lat="43.17985543835497" lon="12.954036470958187"><ele>473.0</ele><time>2026-04-04T08:46:12.001Z</time></trkpt><trkpt lat="43.1797977258412" lon="12.953929165179105"><ele>473.0</ele><time>2026-04-04T08:46:13.001Z</time></trkpt><trkpt lat="43.179734108828704" lon="12.953817848502956"><ele>471.4</ele><time>2026-04-04T08:46:14.001Z</time></trkpt><trkpt lat="43.17966508721844" lon="12.953697418488291"><ele>469.79999999999995</ele><time>2026-04-04T08:46:15.001Z</time></trkpt><trkpt lat="43.17959867560788" lon="12.953581542643986"><ele>468.2</ele><time>2026-04-04T08:46:16.001Z</time></trkpt><trkpt lat="43.17952954520356" lon="12.953458444914387"><ele>466.6</ele><time>2026-04-04T08:46:17.001Z</time></trkpt><trkpt lat="43.17946057564202" lon="12.953332604445597"><ele>465.0</ele><time>2026-04-04T08:46:18.001Z</time></trkpt><trkpt lat="43.179392153502796" lon="12.953199606079536"><ele>465.0</ele><time>2026-04-04T08:46:19.001Z</time></trkpt><trkpt lat="43.17930439001236" lon="12.953048550606672"><ele>465.0</ele><time>2026-04-04T08:46:20.001Z</time></trkpt><trkpt lat="43.17924117176741" lon="12.952889622874475"><ele>465.0</ele><time>2026-04-04T08:46:21.001Z</time></trkpt><trkpt lat="43.179180344143255" lon="12.952708213867332"><ele>465.0</ele><time>2026-04-04T08:46:22.001Z</time></trkpt><trkpt lat="43.179123506555555" lon="12.952537378479164"><ele>461.5</ele><time>2026-04-04T08:46:23.001Z</time></trkpt><trkpt lat="43.179070204936146" lon="12.952367597404644"><ele>458.0</ele><time>2026-04-04T08:46:24.001Z</time></trkpt><trkpt lat="43.179011999199176" lon="12.952204619986114"><ele>454.5</ele><time>2026-04-04T08:46:25.001Z</time></trkpt><trkpt lat="43.17898410564274" lon="12.952060168511961"><ele>451.0</ele><time>2026-04-04T08:46:26.001Z</time></trkpt><trkpt lat="43.178937641641525" lon="12.95190196137075"><ele>452.0</ele><time>2026-04-04T08:46:27.001Z</time></trkpt><trkpt lat="43.178863111196314" lon="12.951746931431305"><ele>453.0</ele><time>2026-04-04T08:46:28.001Z</time></trkpt><trkpt lat="43.17877016764166" lon="12.95162470056951"><ele>454.0</ele><time>2026-04-04T08:46:29.001Z</time></trkpt><trkpt lat="43.17864958365676" lon="12.951528295218901"><ele>455.0</ele><time>2026-04-04T08:46:30.001Z</time></trkpt><trkpt lat="43.17852358964589" lon="12.951452946205539"><ele>455.0</ele><time>2026-04-04T08:46:31.001Z</time></trkpt><trkpt lat="43.178398997977276" lon="12.951436024355"><ele>455.0</ele><time>2026-04-04T08:46:32.001Z</time></trkpt><trkpt lat="43.178292329465684" lon="12.951390188109524"><ele>455.0</ele><time>2026-04-04T08:46:33.001Z</time></trkpt><trkpt lat="43.17822793322275" lon="12.951412818063329"><ele>455.0</ele><time>2026-04-04T08:46:34.001Z</time></trkpt><trkpt lat="43.178124341044494" lon="12.951411777246621"><ele>455.0</ele><time>2026-04-04T08:46:35.001Z</time></trkpt><trkpt lat="43.17801688599484" lon="12.951411472459013"><ele>455.66666666666663</ele><time>2026-04-04T08:46:36.001Z</time></trkpt><trkpt lat="43.17792847350044" lon="12.951414429880128"><ele>456.3333333333333</ele><time>2026-04-04T08:46:37.001Z</time></trkpt><trkpt lat="43.17785036582449" lon="12.95139868980087"><ele>457.0</ele><time>2026-04-04T08:46:38.001Z</time></trkpt><trkpt lat="43.177735631459775" lon="12.951353145490105"><ele>457.66666666666663</ele><time>2026-04-04T08:46:40.001Z</time></trkpt><trkpt lat="43.17767088390023" lon="12.951327443862366"><ele>458.3333333333333</ele><time>2026-04-04T08:46:41.001Z</time></trkpt><trkpt lat="43.177641062085414" lon="12.951245573367288"><ele>459.0</ele><time>2026-04-04T08:46:42.001Z</time></trkpt><trkpt lat="43.17758651880949" lon="12.951180191446156"><ele>459.0</ele><time>2026-04-04T08:46:43.001Z</time></trkpt><trkpt lat="43.177543353439766" lon="12.95110481427814"><ele>459.0</ele><time>2026-04-04T08:46:44.001Z</time></trkpt><trkpt lat="43.177492727395645" lon="12.951012886787785"><ele>459.0</ele><time>2026-04-04T08:46:45.001Z</time></trkpt><trkpt lat="43.177430787747234" lon="12.950900683198052"><ele>459.0</ele><time>2026-04-04T08:46:46.001Z</time></trkpt><trkpt lat="43.177358120227304" lon="12.950782595078596"><ele>459.0</ele><time>2026-04-04T08:46:47.001Z</time></trkpt><trkpt lat="43.17728415044147" lon="12.950682654208352"><ele>458.0</ele><time>2026-04-04T08:46:48.001Z</time></trkpt><trkpt lat="43.17719499617864" lon="12.950585937760925"><ele>457.0</ele><time>2026-04-04T08:46:49.001Z</time></trkpt><trkpt lat="43.177108515508664" lon="12.950507706668072"><ele>456.0</ele><time>2026-04-04T08:46:50.001Z</time></trkpt><trkpt lat="43.1770186637318" lon="12.950429379144873"><ele>455.0</ele><time>2026-04-04T08:46:51.001Z</time></trkpt><trkpt lat="43.17693327384683" lon="12.950338081453697"><ele>454.0</ele><time>2026-04-04T08:46:52.001Z</time></trkpt><trkpt lat="43.17684999339226" lon="12.950204948270153"><ele>454.0</ele><time>2026-04-04T08:46:53.001Z</time></trkpt><trkpt lat="43.176772474732076" lon="12.95006697879674"><ele>454.0</ele><time>2026-04-04T08:46:54.001Z</time></trkpt><trkpt lat="43.176691894845185" lon="12.949929691117108"><ele>454.0</ele><time>2026-04-04T08:46:55.001Z</time></trkpt><trkpt lat="43.176620852098885" lon="12.949806292087649"><ele>454.0</ele><time>2026-04-04T08:46:56.001Z</time></trkpt><trkpt lat="43.17656567303978" lon="12.949687127466497"><ele>454.33333333333337</ele><time>2026-04-04T08:46:57.001Z</time></trkpt><trkpt lat="43.17653458966676" lon="12.949574327964621"><ele>454.6666666666667</ele><time>2026-04-04T08:46:58.001Z</time></trkpt><trkpt lat="43.176517652665666" lon="12.949458175205274"><ele>455.0</ele><time>2026-04-04T08:46:59.001Z</time></trkpt><trkpt lat="43.17650870705677" lon="12.949342852277963"><ele>455.33333333333337</ele><time>2026-04-04T08:47:00.001Z</time></trkpt><trkpt lat="43.17650398442601" lon="12.949244626365402"><ele>455.6666666666667</ele><time>2026-04-04T08:47:01.001Z</time></trkpt><trkpt lat="43.17650049141061" lon="12.949154583234595"><ele>456.0</ele><time>2026-04-04T08:47:02.001Z</time></trkpt><trkpt lat="43.176358106411186" lon="12.94893406774979"><ele>456.0</ele><time>2026-04-04T08:47:04.001Z</time></trkpt><trkpt lat="43.17627751639278" lon="12.948916054397374"><ele>456.0</ele><time>2026-04-04T08:47:05.001Z</time></trkpt><trkpt lat="43.17620453823363" lon="12.948849279168224"><ele>456.0</ele><time>2026-04-04T08:47:06.001Z</time></trkpt><trkpt lat="43.1761274493115" lon="12.948798878728956"><ele>456.0</ele><time>2026-04-04T08:47:07.001Z</time></trkpt><trkpt lat="43.176026623300594" lon="12.94876150120672"><ele>456.0</ele><time>2026-04-04T08:47:08.001Z</time></trkpt><trkpt lat="43.17591873840947" lon="12.94872581932175"><ele>456.0</ele><time>2026-04-04T08:47:09.001Z</time></trkpt><trkpt lat="43.17580317192007" lon="12.948720410816126"><ele>456.0</ele><time>2026-04-04T08:47:10.001Z</time></trkpt><trkpt lat="43.17569790081634" lon="12.948691465031281"><ele>456.0</ele><time>2026-04-04T08:47:11.001Z</time></trkpt><trkpt lat="43.175598436422156" lon="12.948627137855283"><ele>456.0</ele><time>2026-04-04T08:47:12.001Z</time></trkpt><trkpt lat="43.17551144590157" lon="12.948587509354345"><ele>456.0</ele><time>2026-04-04T08:47:13.001Z</time></trkpt><trkpt lat="43.17544051570757" lon="12.948584667575709"><ele>458.6</ele><time>2026-04-04T08:47:14.001Z</time></trkpt><trkpt lat="43.175347284982074" lon="12.948518228820049"><ele>461.20000000000005</ele><time>2026-04-04T08:47:16.001Z</time></trkpt><trkpt lat="43.17526661994905" lon="12.948467218649784"><ele>463.79999999999995</ele><time>2026-04-04T08:47:18.001Z</time></trkpt><trkpt lat="43.1751858659939" lon="12.948416152244754"><ele>466.4</ele><time>2026-04-04T08:47:20.001Z</time></trkpt><trkpt lat="43.17511483374248" lon="12.948393635526061"><ele>469.0</ele><time>2026-04-04T08:47:23.001Z</time></trkpt><trkpt lat="43.17497952414558" lon="12.948310511398432"><ele>469.0</ele><time>2026-04-04T08:48:05Z</time></trkpt><trkpt lat="43.174890978309406" lon="12.948262438881388"><ele>469.0</ele><time>2026-04-04T08:48:07Z</time></trkpt><trkpt lat="43.17482531651883" lon="12.948213994934052"><ele>469.0</ele><time>2026-04-04T08:48:08Z</time></trkpt><trkpt lat="43.17473893035535" lon="12.94816545298401"><ele>469.0</ele><time>2026-04-04T08:48:09Z</time></trkpt><trkpt lat="43.17464292370521" lon="12.948068574141026"><ele>469.0</ele><time>2026-04-04T08:48:10Z</time></trkpt><trkpt lat="43.174520080441816" lon="12.948021981481189"><ele>471.6</ele><time>2026-04-04T08:48:11Z</time></trkpt><trkpt lat="43.17441459289028" lon="12.94800635653782"><ele>474.2</ele><time>2026-04-04T08:48:12Z</time></trkpt><trkpt lat="43.174320204083756" lon="12.94798714112121"><ele>476.80000000000007</ele><time>2026-04-04T08:48:13Z</time></trkpt><trkpt lat="43.17423710671202" lon="12.947971848424691"><ele>479.40000000000003</ele><time>2026-04-04T08:48:14Z</time></trkpt><trkpt lat="43.174146095803195" lon="12.947933964804685"><ele>482.0</ele><time>2026-04-04T08:48:16Z</time></trkpt><trkpt lat="43.174072690088934" lon="12.947932695627182"><ele>482.0</ele><time>2026-04-04T08:48:19Z</time></trkpt><trkpt lat="43.17410271349476" lon="12.948133610929116"><ele>482.00000000000006</ele><time>2026-04-04T08:48:20Z</time></trkpt><trkpt lat="43.17406743783024" lon="12.948205388712028"><ele>482.00000000000006</ele><time>2026-04-04T08:48:21Z</time></trkpt><trkpt lat="43.17403173872555" lon="12.948278932985644"><ele>482.0</ele><time>2026-04-04T08:48:22Z</time></trkpt><trkpt lat="43.17396611648628" lon="12.9484278425057"><ele>482.0</ele><time>2026-04-04T08:48:24Z</time></trkpt><trkpt lat="43.17393028415493" lon="12.9485625224577"><ele>487.20000000000005</ele><time>2026-04-04T08:48:26Z</time></trkpt><trkpt lat="43.17389118498503" lon="12.948715627337931"><ele>492.40000000000003</ele><time>2026-04-04T08:48:28Z</time></trkpt><trkpt lat="43.17385381564274" lon="12.948797803839136"><ele>497.59999999999997</ele><time>2026-04-04T08:48:29Z</time></trkpt><trkpt lat="43.173789383280806" lon="12.94886889458135"><ele>502.79999999999995</ele><time>2026-04-04T08:48:30Z</time></trkpt><trkpt lat="43.173734590438855" lon="12.9489471602607"><ele>508.0</ele><time>2026-04-04T08:48:32Z</time></trkpt><trkpt lat="43.173703321381026" lon="12.949102633227525"><ele>508.0</ele><time>2026-04-04T08:48:36Z</time></trkpt><trkpt lat="43.17358827994541" lon="12.949182213137137"><ele>507.99999999999994</ele><time>2026-04-04T08:48:38Z</time></trkpt><trkpt lat="43.17357546648757" lon="12.949297936086909"><ele>507.99999999999994</ele><time>2026-04-04T08:48:40Z</time></trkpt><trkpt lat="43.17355285851643" lon="12.94940905318039"><ele>508.0</ele><time>2026-04-04T08:48:43Z</time></trkpt><trkpt lat="43.173482541511284" lon="12.949493871341737"><ele>508.0</ele><time>2026-04-04T08:48:45Z</time></trkpt><trkpt lat="43.173400032944876" lon="12.94955206147529"><ele>512.1666666666667</ele><time>2026-04-04T08:48:47Z</time></trkpt><trkpt lat="43.173327686715915" lon="12.949609969134375"><ele>516.3333333333334</ele><time>2026-04-04T08:48:49Z</time></trkpt><trkpt lat="43.17325631197352" lon="12.949702945016956"><ele>520.5</ele><time>2026-04-04T08:48:51.999Z</time></trkpt><trkpt lat="43.17324760699618" lon="12.949825585600907"><ele>524.6666666666666</ele><time>2026-04-04T08:48:53.999Z</time></trkpt><trkpt lat="43.173249042671344" lon="12.949922333169198"><ele>528.8333333333333</ele><time>2026-04-04T08:48:55.999Z</time></trkpt><trkpt lat="43.17326549394589" lon="12.950017260875084"><ele>533.0</ele><time>2026-04-04T08:48:57.999Z</time></trkpt><trkpt lat="43.173287261151934" lon="12.950120510560167"><ele>538.4</ele><time>2026-04-04T08:48:59.999Z</time></trkpt><trkpt lat="43.17331946315808" lon="12.950246839115747"><ele>543.8</ele><time>2026-04-04T08:49:02Z</time></trkpt><trkpt lat="43.1733478863375" lon="12.950391571326717"><ele>549.2</ele><time>2026-04-04T08:49:04Z</time></trkpt><trkpt lat="43.173361762479296" lon="12.950548970618142"><ele>554.6</ele><time>2026-04-04T08:49:06Z</time></trkpt><trkpt lat="43.17335416796927" lon="12.950683960229918"><ele>560.0</ele><time>2026-04-04T08:49:08Z</time></trkpt><trkpt lat="43.17333644954398" lon="12.950782623703741"><ele>560.8333333333333</ele><time>2026-04-04T08:49:10Z</time></trkpt><trkpt lat="43.17334187974771" lon="12.95089733653584"><ele>561.6666666666666</ele><time>2026-04-04T08:49:12Z</time></trkpt><trkpt lat="43.17327838954088" lon="12.950953576037524"><ele>562.5</ele><time>2026-04-04T08:49:18Z</time></trkpt><trkpt lat="43.17319646573725" lon="12.950952148061734"><ele>563.3333333333334</ele><time>2026-04-04T08:49:20Z</time></trkpt><trkpt lat="43.173115747476714" lon="12.950948371095512"><ele>564.1666666666667</ele><time>2026-04-04T08:49:22Z</time></trkpt><trkpt lat="43.17304536234688" lon="12.950951885557558"><ele>565.0</ele><time>2026-04-04T08:49:24Z</time></trkpt><trkpt lat="43.173000532028695" lon="12.95089105057494"><ele>569.6</ele><time>2026-04-04T08:49:36Z</time></trkpt><trkpt lat="43.17292028251003" lon="12.95100031097169"><ele>574.2</ele><time>2026-04-04T08:49:42Z</time></trkpt><trkpt lat="43.17287803887916" lon="12.951094085799262"><ele>578.8</ele><time>2026-04-04T08:49:45Z</time></trkpt><trkpt lat="43.172759373126425" lon="12.951221511168601"><ele>583.4</ele><time>2026-04-04T08:49:48Z</time></trkpt><trkpt lat="43.17267251417798" lon="12.951265075544782"><ele>588.0</ele><time>2026-04-04T08:49:53Z</time></trkpt><trkpt lat="43.17262364098922" lon="12.951337906006545"><ele>588.0</ele><time>2026-04-04T08:49:57Z</time></trkpt><trkpt lat="43.172578461148106" lon="12.95140691352015"><ele>588.0</ele><time>2026-04-04T08:49:59Z</time></trkpt><trkpt lat="43.17251956485652" lon="12.951486537813437"><ele>588.0</ele><time>2026-04-04T08:50:03Z</time></trkpt><trkpt lat="43.172472882124225" lon="12.95154886741782"><ele>588.0</ele><time>2026-04-04T08:50:05Z</time></trkpt><trkpt lat="43.17240816982266" lon="12.951614101270042"><ele>588.0</ele><time>2026-04-04T08:50:08Z</time></trkpt><trkpt lat="43.17236731944471" lon="12.95167985236606"><ele>588.0</ele><time>2026-04-04T08:50:15Z</time></trkpt><trkpt lat="43.17243337141168" lon="12.951693065567156"><ele>588.0</ele><time>2026-04-04T08:50:17Z</time></trkpt><trkpt lat="43.172525416596564" lon="12.951768896937335"><ele>585.8</ele><time>2026-04-04T08:50:19Z</time></trkpt><trkpt lat="43.17259390711382" lon="12.951838642457465"><ele>583.5999999999999</ele><time>2026-04-04T08:50:22Z</time></trkpt><trkpt lat="43.17265096396761" lon="12.951958583846126"><ele>581.4000000000001</ele><time>2026-04-04T08:50:23Z</time></trkpt><trkpt lat="43.172769228331326" lon="12.952055463332586"><ele>579.2</ele><time>2026-04-04T08:50:28Z</time></trkpt><trkpt lat="43.17287117941623" lon="12.95206658079496"><ele>577.0</ele><time>2026-04-04T08:50:29Z</time></trkpt><trkpt lat="43.172943345902596" lon="12.952103228334275"><ele>577.0</ele><time>2026-04-04T08:50:30Z</time></trkpt><trkpt lat="43.17301555039536" lon="12.952199293216676"><ele>577.0</ele><time>2026-04-04T08:50:33Z</time></trkpt><trkpt lat="43.173107304659084" lon="12.952216491779428"><ele>577.0</ele><time>2026-04-04T08:50:36Z</time></trkpt><trkpt lat="43.173135781366206" lon="12.95264077551737"><ele>575.2</ele><time>2026-04-04T08:50:39Z</time></trkpt><trkpt lat="43.173071890784186" lon="12.952680036465662"><ele>573.4000000000001</ele><time>2026-04-04T08:50:43Z</time></trkpt><trkpt lat="43.173026870934756" lon="12.95290296966949"><ele>571.5999999999999</ele><time>2026-04-04T08:50:45Z</time></trkpt><trkpt lat="43.17295852820376" lon="12.953007211876981"><ele>569.8</ele><time>2026-04-04T08:50:48Z</time></trkpt><trkpt lat="43.1729433991847" lon="12.953128620589487"><ele>568.0</ele><time>2026-04-04T08:50:50Z</time></trkpt><trkpt lat="43.172885752008064" lon="12.95327448247133"><ele>568.0</ele><time>2026-04-04T08:50:51Z</time></trkpt><trkpt lat="43.172803945004134" lon="12.953339621337463"><ele>568.0</ele><time>2026-04-04T08:50:52Z</time></trkpt><trkpt lat="43.172832494014365" lon="12.953422898790844"><ele>568.0</ele><time>2026-04-04T08:50:57Z</time></trkpt><trkpt lat="43.172880794710274" lon="12.953488664633104"><ele>568.0</ele><time>2026-04-04T08:50:58Z</time></trkpt><trkpt lat="43.17297205474492" lon="12.953593180250518"><ele>568.0</ele><time>2026-04-04T08:51:00Z</time></trkpt><trkpt lat="43.173060831222266" lon="12.953537701140588"><ele>568.0</ele><time>2026-04-04T08:51:04Z</time></trkpt><trkpt lat="43.17322749929979" lon="12.953539000461012"><ele>569.5</ele><time>2026-04-04T08:51:08Z</time></trkpt><trkpt lat="43.17330921341503" lon="12.953571811408708"><ele>571.0</ele><time>2026-04-04T08:51:10Z</time></trkpt><trkpt lat="43.17338540650222" lon="12.95363073260081"><ele>572.5</ele><time>2026-04-04T08:51:12Z</time></trkpt><trkpt lat="43.173491852088546" lon="12.95368888266697"><ele>574.0</ele><time>2026-04-04T08:51:19Z</time></trkpt><trkpt lat="43.17351832079125" lon="12.953778127281954"><ele>575.5</ele><time>2026-04-04T08:51:21Z</time></trkpt><trkpt lat="43.17358061838104" lon="12.953824964197928"><ele>577.0</ele><time>2026-04-04T08:51:24Z</time></trkpt><trkpt lat="43.17386040231068" lon="12.953860197813308"><ele>573.75</ele><time>2026-04-04T08:51:35Z</time></trkpt><trkpt lat="43.17402941405575" lon="12.953866585568989"><ele>570.5</ele><time>2026-04-04T08:51:39Z</time></trkpt><trkpt lat="43.17416566295649" lon="12.953901156138347"><ele>567.25</ele><time>2026-04-04T08:51:43Z</time></trkpt><trkpt lat="43.17423151010557" lon="12.953962772377007"><ele>564.0</ele><time>2026-04-04T08:51:47Z</time></trkpt><trkpt lat="43.174288933146656" lon="12.954069434882346"><ele>571.25</ele><time>2026-04-04T08:51:50Z</time></trkpt><trkpt lat="43.174272709472675" lon="12.95424618904846"><ele>578.5</ele><time>2026-04-04T08:51:52Z</time></trkpt><trkpt lat="43.17424811769807" lon="12.954376570705763"><ele>585.75</ele><time>2026-04-04T08:51:53Z</time></trkpt><trkpt lat="43.17421925241481" lon="12.954605350637047"><ele>593.0</ele><time>2026-04-04T08:51:55Z</time></trkpt><trkpt lat="43.17415849166607" lon="12.954664904987146"><ele>593.0</ele><time>2026-04-04T08:51:56Z</time></trkpt><trkpt lat="43.1740719969947" lon="12.95471940085163"><ele>593.0</ele><time>2026-04-04T08:51:58Z</time></trkpt><trkpt lat="43.17397419497201" lon="12.954794225949357"><ele>593.0</ele><time>2026-04-04T08:52:00Z</time></trkpt><trkpt lat="43.173901323525065" lon="12.95480554915751"><ele>593.0</ele><time>2026-04-04T08:52:02Z</time></trkpt><trkpt lat="43.17381801420055" lon="12.954858077618571"><ele>593.0</ele><time>2026-04-04T08:52:04Z</time></trkpt><trkpt lat="43.17371119995385" lon="12.954907906378814"><ele>596.0</ele><time>2026-04-04T08:52:06Z</time></trkpt><trkpt lat="43.17363123689368" lon="12.954952266620461"><ele>599.0</ele><time>2026-04-04T08:52:08Z</time></trkpt><trkpt lat="43.17355729265847" lon="12.955041801623556"><ele>602.0</ele><time>2026-04-04T08:52:09Z</time></trkpt><trkpt lat="43.17347549538119" lon="12.955117049136765"><ele>605.0</ele><time>2026-04-04T08:52:10Z</time></trkpt><trkpt lat="43.173462561427044" lon="12.955485333180059"><ele>611.6</ele><time>2026-04-04T08:52:11Z</time></trkpt><trkpt lat="43.173387552537974" lon="12.955505668940322"><ele>618.2</ele><time>2026-04-04T08:52:12Z</time></trkpt><trkpt lat="43.17327778826321" lon="12.95546509431476"><ele>624.8</ele><time>2026-04-04T08:52:14Z</time></trkpt><trkpt lat="43.173178524035905" lon="12.955447432670814"><ele>631.4</ele><time>2026-04-04T08:52:16Z</time></trkpt><trkpt lat="43.173066968413785" lon="12.955401752642945"><ele>638.0</ele><time>2026-04-04T08:52:18Z</time></trkpt><trkpt lat="43.17295815133431" lon="12.95540708682488"><ele>636.4</ele><time>2026-04-04T08:52:20Z</time></trkpt><trkpt lat="43.17289267497672" lon="12.955362788469582"><ele>634.8</ele><time>2026-04-04T08:52:21Z</time></trkpt><trkpt lat="43.172811280414926" lon="12.95517262995454"><ele>633.2</ele><time>2026-04-04T08:52:23Z</time></trkpt><trkpt lat="43.17271998675379" lon="12.955095854832209"><ele>631.6</ele><time>2026-04-04T08:52:24Z</time></trkpt><trkpt lat="43.17264321185524" lon="12.955007018797192"><ele>630.0</ele><time>2026-04-04T08:52:26Z</time></trkpt><trkpt lat="43.172612467054826" lon="12.954855353714017"><ele>630.0</ele><time>2026-04-04T08:52:27Z</time></trkpt><trkpt lat="43.1725720957242" lon="12.954709725252785"><ele>630.0</ele><time>2026-04-04T08:52:28Z</time></trkpt><trkpt lat="43.17251543214213" lon="12.954616532146758"><ele>630.0</ele><time>2026-04-04T08:52:29Z</time></trkpt><trkpt lat="43.17240514604314" lon="12.954483790107645"><ele>630.0</ele><time>2026-04-04T08:52:30Z</time></trkpt><trkpt lat="43.1721157352308" lon="12.954331220839032"><ele>634.75</ele><time>2026-04-04T08:52:32Z</time></trkpt><trkpt lat="43.17205454630294" lon="12.954289650799371"><ele>639.5</ele><time>2026-04-04T08:52:33Z</time></trkpt><trkpt lat="43.172226879082935" lon="12.954373479993077"><ele>644.25</ele><time>2026-04-04T08:52:34Z</time></trkpt><trkpt lat="43.17214211422002" lon="12.95427335768059"><ele>649.0</ele><time>2026-04-04T08:52:39Z</time></trkpt><trkpt lat="43.17203196656106" lon="12.954277434756287"><ele>649.0</ele><time>2026-04-04T08:52:40Z</time></trkpt><trkpt lat="43.17192519247099" lon="12.95427155666861"><ele>649.0</ele><time>2026-04-04T08:52:41Z</time></trkpt><trkpt lat="43.171806677018566" lon="12.954272737717362"><ele>649.0</ele><time>2026-04-04T08:52:42Z</time></trkpt><trkpt lat="43.17169271333936" lon="12.954271282442027"><ele>649.0</ele><time>2026-04-04T08:52:43Z</time></trkpt><trkpt lat="43.17158911454726" lon="12.954277875223493"><ele>649.0</ele><time>2026-04-04T08:52:44Z</time></trkpt><trkpt lat="43.17148930347478" lon="12.954261652820186"><ele>649.0</ele><time>2026-04-04T08:52:45Z</time></trkpt><trkpt lat="43.17140102703104" lon="12.954232126413311"><ele>649.0</ele><time>2026-04-04T08:52:46Z</time></trkpt><trkpt lat="43.17155871322517" lon="12.954368822615699"><ele>649.0</ele><time>2026-04-04T08:52:47Z</time></trkpt><trkpt lat="43.17147949757902" lon="12.95426518800232"><ele>649.0</ele><time>2026-04-04T08:52:48Z</time></trkpt><trkpt lat="43.171408851827984" lon="12.954191782647513"><ele>645.0</ele><time>2026-04-04T08:52:49Z</time></trkpt><trkpt lat="43.17133072754544" lon="12.954125732402737"><ele>641.0</ele><time>2026-04-04T08:52:52Z</time></trkpt><trkpt lat="43.171221618077546" lon="12.95405172464942"><ele>637.0</ele><time>2026-04-04T08:52:53Z</time></trkpt><trkpt lat="43.17112586355661" lon="12.95397235236759"><ele>633.0</ele><time>2026-04-04T08:52:54Z</time></trkpt><trkpt lat="43.17100284521298" lon="12.95389821708109"><ele>671.0</ele><time>2026-04-04T08:52:55Z</time></trkpt><trkpt lat="43.170655176584006" lon="12.953382194130493"><ele>672.0</ele><time>2026-04-04T08:52:59Z</time></trkpt><trkpt lat="43.17059089453021" lon="12.953267075608272"><ele>673.0</ele><time>2026-04-04T08:53:00Z</time></trkpt><trkpt lat="43.17055719013399" lon="12.953165552318616"><ele>674.0</ele><time>2026-04-04T08:53:01Z</time></trkpt><trkpt lat="43.17050173537865" lon="12.953070054755644"><ele>675.0</ele><time>2026-04-04T08:53:02Z</time></trkpt><trkpt lat="43.170434338434035" lon="12.953008316416584"><ele>676.0</ele><time>2026-04-04T08:53:03Z</time></trkpt><trkpt lat="43.17027226387117" lon="12.952796966683591"><ele>482.0</ele><time>2026-04-04T08:53:05Z</time></trkpt><trkpt lat="43.17414477934366" lon="12.948156179203727"><ele>482.0</ele><time>2026-04-04T08:54:04.924Z</time></trkpt><trkpt lat="43.17422813819437" lon="12.948121333686228"><ele>482.0</ele><time>2026-04-04T08:54:06.12Z</time></trkpt><trkpt lat="43.173043391700105" lon="12.949819442765"><ele>493.66666666666663</ele><time>2026-04-04T08:54:13Z</time></trkpt><trkpt lat="43.17299062612363" lon="12.9498715988003"><ele>505.3333333333333</ele><time>2026-04-04T08:54:14Z</time></trkpt><trkpt lat="43.17291684499553" lon="12.949854756905347"><ele>517.0</ele><time>2026-04-04T08:54:18Z</time></trkpt><trkpt lat="43.17283842448342" lon="12.949891589615024"><ele>528.6666666666666</ele><time>2026-04-04T08:54:20Z</time></trkpt><trkpt lat="43.1727887594454" lon="12.949987119518767"><ele>540.3333333333334</ele><time>2026-04-04T08:54:22Z</time></trkpt><trkpt lat="43.172719730676825" lon="12.949994386458277"><ele>552.0</ele><time>2026-04-04T08:54:24Z</time></trkpt><trkpt lat="43.17263312469766" lon="12.950018336111025"><ele>552.0</ele><time>2026-04-04T08:54:26Z</time></trkpt><trkpt lat="43.17253081487109" lon="12.950003782461737"><ele>552.0</ele><time>2026-04-04T08:54:28Z</time></trkpt><trkpt lat="43.1724125222118" lon="12.950046078166276"><ele>552.0</ele><time>2026-04-04T08:54:30Z</time></trkpt><trkpt lat="43.172341159204144" lon="12.95006162199168"><ele>552.0</ele><time>2026-04-04T08:54:31Z</time></trkpt><trkpt lat="43.17226834613806" lon="12.950086852397575"><ele>552.0</ele><time>2026-04-04T08:54:32Z</time></trkpt><trkpt lat="43.17220081785114" lon="12.950109566067646"><ele>552.0</ele><time>2026-04-04T08:54:33Z</time></trkpt><trkpt lat="43.17212655595019" lon="12.950123697649573"><ele>564.0</ele><time>2026-04-04T08:54:34Z</time></trkpt><trkpt lat="43.172047877297665" lon="12.950131054320542"><ele>576.0</ele><time>2026-04-04T08:54:35Z</time></trkpt><trkpt lat="43.17195805761189" lon="12.950135168289602"><ele>588.0</ele><time>2026-04-04T08:54:36Z</time></trkpt><trkpt lat="43.17185476028768" lon="12.950153473391344"><ele>600.0</ele><time>2026-04-04T08:54:37Z</time></trkpt><trkpt lat="43.17175069966186" lon="12.950169567863659"><ele>612.0</ele><time>2026-04-04T08:54:38Z</time></trkpt><trkpt lat="43.17164819219648" lon="12.95018046971774"><ele>612.0</ele><time>2026-04-04T08:54:39Z</time></trkpt><trkpt lat="43.171546230710206" lon="12.950164061979311"><ele>612.0</ele><time>2026-04-04T08:54:40Z</time></trkpt><trkpt lat="43.171461812551286" lon="12.950159094675081"><ele>612.0</ele><time>2026-04-04T08:54:41Z</time></trkpt><trkpt lat="43.17134872882511" lon="12.95016433685359"><ele>612.0</ele><time>2026-04-04T08:54:42Z</time></trkpt><trkpt lat="43.171268348483636" lon="12.950159257075866"><ele>612.0</ele><time>2026-04-04T08:54:43Z</time></trkpt><trkpt lat="43.17117176563695" lon="12.950144288596654"><ele>610.0</ele><time>2026-04-04T08:54:44Z</time></trkpt><trkpt lat="43.171097135808694" lon="12.95012824125629"><ele>608.0</ele><time>2026-04-04T08:54:45Z</time></trkpt><trkpt lat="43.17101920586126" lon="12.950094038186132"><ele>606.0</ele><time>2026-04-04T08:54:46Z</time></trkpt><trkpt lat="43.1709335471234" lon="12.950056058318632"><ele>604.0</ele><time>2026-04-04T08:54:47Z</time></trkpt><trkpt lat="43.17083939570759" lon="12.949998860914741"><ele>602.0</ele><time>2026-04-04T08:54:48Z</time></trkpt><trkpt lat="43.17075823453767" lon="12.94994673882936"><ele>600.0</ele><time>2026-04-04T08:54:49Z</time></trkpt><trkpt lat="43.170681245825236" lon="12.94987825619708"><ele>607.0</ele><time>2026-04-04T08:54:50Z</time></trkpt><trkpt lat="43.1706120572896" lon="12.949819293240957"><ele>614.0</ele><time>2026-04-04T08:54:51Z</time></trkpt><trkpt lat="43.17055157996233" lon="12.949754985686926"><ele>621.0</ele><time>2026-04-04T08:54:52Z</time></trkpt><trkpt lat="43.17046824112794" lon="12.949680827276186"><ele>628.0</ele><time>2026-04-04T08:54:54.001Z</time></trkpt><trkpt lat="43.17036570673436" lon="12.949610045705475"><ele>635.0</ele><time>2026-04-04T08:54:56.001Z</time></trkpt><trkpt lat="43.170254131646956" lon="12.949551912534952"><ele>635.0</ele><time>2026-04-04T08:54:58.001Z</time></trkpt><trkpt lat="43.17013176990808" lon="12.949492272666983"><ele>635.0</ele><time>2026-04-04T08:55:00.001Z</time></trkpt><trkpt lat="43.17007638238365" lon="12.949436791928287"><ele>635.0</ele><time>2026-04-04T08:55:01.001Z</time></trkpt><trkpt lat="43.17002117114735" lon="12.949353740994354"><ele>635.0</ele><time>2026-04-04T08:55:02.001Z</time></trkpt><trkpt lat="43.169976862134725" lon="12.949277111580226"><ele>635.0</ele><time>2026-04-04T08:55:03.001Z</time></trkpt><trkpt lat="43.16989240442797" lon="12.949186584992795"><ele>633.0</ele><time>2026-04-04T08:55:05.001Z</time></trkpt><trkpt lat="43.16980306679887" lon="12.949144475939866"><ele>631.0</ele><time>2026-04-04T08:55:07.001Z</time></trkpt><trkpt lat="43.16971791216944" lon="12.949068458596289"><ele>629.0</ele><time>2026-04-04T08:55:09.001Z</time></trkpt><trkpt lat="43.16965090679726" lon="12.949027503735609"><ele>627.0</ele><time>2026-04-04T08:55:11.001Z</time></trkpt><trkpt lat="43.169534002530696" lon="12.949031397387973"><ele>625.0</ele><time>2026-04-04T08:55:13.001Z</time></trkpt><trkpt lat="43.16945330113491" lon="12.949061714486334"><ele>625.0000000000001</ele><time>2026-04-04T08:55:15.001Z</time></trkpt><trkpt lat="43.16938895486809" lon="12.949057812970805"><ele>625.0</ele><time>2026-04-04T08:55:33.001Z</time></trkpt><trkpt lat="43.169332956663126" lon="12.949016331183913"><ele>625.0</ele><time>2026-04-04T08:56:17Z</time></trkpt><trkpt lat="43.169331445487515" lon="12.948914240725868"><ele>625.0</ele><time>2026-04-04T08:56:28Z</time></trkpt><trkpt lat="43.169392583911915" lon="12.948878104891177"><ele>625.0</ele><time>2026-04-04T08:57:17Z</time></trkpt><trkpt lat="43.16945551223627" lon="12.94887232598165"><ele>625.0000000000001</ele><time>2026-04-04T08:57:36Z</time></trkpt><trkpt lat="43.169533608158794" lon="12.94889903568948"><ele>625.0</ele><time>2026-04-04T08:57:47Z</time></trkpt><trkpt lat="43.16958078625394" lon="12.948972892889154"><ele>625.0000000000001</ele><time>2026-04-04T08:57:56Z</time></trkpt><trkpt lat="43.16963991165762" lon="12.949013482951093"><ele>625.0</ele><time>2026-04-04T08:58:06Z</time></trkpt><trkpt lat="43.169667167989324" lon="12.949097684954792"><ele>625.0</ele><time>2026-04-04T08:58:16Z</time></trkpt><trkpt lat="43.16959762009683" lon="12.949049498885364"><ele>625.0</ele><time>2026-04-04T08:58:59.001Z</time></trkpt><trkpt lat="43.16954640051514" lon="12.948981917541056"><ele>625.0</ele><time>2026-04-04T09:00:06.001Z</time></trkpt><trkpt lat="43.169616517884165" lon="12.949014344323944"><ele>625.0000000000001</ele><time>2026-04-04T09:00:11.001Z</time></trkpt><trkpt lat="43.169643256024685" lon="12.949126567901112"><ele>625.0</ele><time>2026-04-04T09:00:14.001Z</time></trkpt><trkpt lat="43.169717800896066" lon="12.949180259955073"><ele>625.0</ele><time>2026-04-04T09:00:15.001Z</time></trkpt><trkpt lat="43.16979188567005" lon="12.949186977608619"><ele>625.0</ele><time>2026-04-04T09:00:16.001Z</time></trkpt><trkpt lat="43.16984155898535" lon="12.949254651615176"><ele>625.0</ele><time>2026-04-04T09:00:17.001Z</time></trkpt><trkpt lat="43.16989123230064" lon="12.94932232567677"><ele>625.0</ele><time>2026-04-04T09:00:18.001Z</time></trkpt><trkpt lat="43.16994090561594" lon="12.9493899997934"><ele>625.0</ele><time>2026-04-04T09:00:19.001Z</time></trkpt><trkpt lat="43.169990578931234" lon="12.94945767396507"><ele>625.0</ele><time>2026-04-04T09:00:20.001Z</time></trkpt><trkpt lat="43.16911849318506" lon="12.953154074497371"><ele>727.0</ele><time>2026-04-04T09:00:28.001Z</time></trkpt><trkpt lat="43.16893073599398" lon="12.95184392187659"><ele>723.5</ele><time>2026-04-04T09:00:29.001Z</time></trkpt><trkpt lat="43.16881184687358" lon="12.951689778990673"><ele>720.0</ele><time>2026-04-04T09:00:30.001Z</time></trkpt><trkpt lat="43.168954225131216" lon="12.950349385180594"><ele>699.0</ele><time>2026-04-04T09:00:31.001Z</time></trkpt><trkpt lat="43.168996278154836" lon="12.949771450610363"><ele>678.0</ele><time>2026-04-04T09:00:33.001Z</time></trkpt><trkpt lat="43.16899482608121" lon="12.94961117569828"><ele>674.5</ele><time>2026-04-04T09:00:34.001Z</time></trkpt><trkpt lat="43.169030442868014" lon="12.949488672154072"><ele>671.0</ele><time>2026-04-04T09:00:35.001Z</time></trkpt><trkpt lat="43.1690918402473" lon="12.949331559248026"><ele>667.5</ele><time>2026-04-04T09:00:36.001Z</time></trkpt><trkpt lat="43.169140431218786" lon="12.94927515433331"><ele>664.0</ele><time>2026-04-04T09:00:38Z</time></trkpt><trkpt lat="43.16918193925355" lon="12.949197153542318"><ele>660.5</ele><time>2026-04-04T09:00:44Z</time></trkpt><trkpt lat="43.16924108247327" lon="12.949160043074158"><ele>657.0</ele><time>2026-04-04T09:00:47Z</time></trkpt><trkpt lat="43.16926816937791" lon="12.949065794637633"><ele>660.0</ele><time>2026-04-04T09:00:52Z</time></trkpt><trkpt lat="43.169241048537465" lon="12.948978447326718"><ele>663.0</ele><time>2026-04-04T09:01:01Z</time></trkpt><trkpt lat="43.16924751185318" lon="12.949064508279148"><ele>666.0</ele><time>2026-04-04T09:02:13Z</time></trkpt><trkpt lat="43.1691867058866" lon="12.949114110630026"><ele>669.0</ele><time>2026-04-04T09:02:16Z</time></trkpt><trkpt lat="43.16912536405398" lon="12.949136819504115"><ele>672.0</ele><time>2026-04-04T09:02:20Z</time></trkpt><trkpt lat="43.169062979284945" lon="12.949153405895505"><ele>675.0</ele><time>2026-04-04T09:02:26Z</time></trkpt><trkpt lat="43.168989915721525" lon="12.949244353257379"><ele>678.0</ele><time>2026-04-04T09:02:33Z</time></trkpt><trkpt lat="43.168938688564616" lon="12.949298568790342"><ele>678.0</ele><time>2026-04-04T09:02:38Z</time></trkpt><trkpt lat="43.168883684016215" lon="12.949344345887475"><ele>678.0</ele><time>2026-04-04T09:02:59Z</time></trkpt><trkpt lat="43.168831892212886" lon="12.94927775435764"><ele>678.0</ele><time>2026-04-04T09:03:47Z</time></trkpt><trkpt lat="43.16875749143471" lon="12.949316229712897"><ele>678.0</ele><time>2026-04-04T09:04:57Z</time></trkpt><trkpt lat="43.16880927020344" lon="12.949389456730012"><ele>678.0</ele><time>2026-04-04T09:08:49.001Z</time></trkpt><trkpt lat="43.16881498354901" lon="12.94950808123556"><ele>678.0</ele><time>2026-04-04T09:08:51.001Z</time></trkpt><trkpt lat="43.168812822622925" lon="12.949643504368728"><ele>678.0</ele><time>2026-04-04T09:08:53.001Z</time></trkpt><trkpt lat="43.16882111446516" lon="12.949768316981201"><ele>678.0</ele><time>2026-04-04T09:08:55.001Z</time></trkpt><trkpt lat="43.16883769727668" lon="12.949874003873926"><ele>678.0</ele><time>2026-04-04T09:08:57.001Z</time></trkpt><trkpt lat="43.168882071272115" lon="12.949985657391709"><ele>678.0</ele><time>2026-04-04T09:08:59.001Z</time></trkpt><trkpt lat="43.16892263560949" lon="12.950058525115995"><ele>678.0</ele><time>2026-04-04T09:09:01.001Z</time></trkpt><trkpt lat="43.16900973479433" lon="12.950116936953261"><ele>678.0</ele><time>2026-04-04T09:09:03.001Z</time></trkpt><trkpt lat="43.169094216980014" lon="12.950189613629812"><ele>678.5999999999999</ele><time>2026-04-04T09:09:05.001Z</time></trkpt><trkpt lat="43.16918830689863" lon="12.95026102548858"><ele>679.1999999999999</ele><time>2026-04-04T09:09:07.001Z</time></trkpt><trkpt lat="43.16927217986137" lon="12.950419782051394"><ele>679.8</ele><time>2026-04-04T09:09:09.001Z</time></trkpt><trkpt lat="43.1693196891787" lon="12.950510644644437"><ele>680.4</ele><time>2026-04-04T09:09:10.001Z</time></trkpt><trkpt lat="43.169357077748764" lon="12.950596287706164"><ele>681.0</ele><time>2026-04-04T09:09:11.001Z</time></trkpt><trkpt lat="43.16938536193914" lon="12.950683525692947"><ele>681.0</ele><time>2026-04-04T09:09:12.001Z</time></trkpt><trkpt lat="43.16942344714495" lon="12.950776772372176"><ele>681.0</ele><time>2026-04-04T09:09:13.001Z</time></trkpt><trkpt lat="43.1694500570858" lon="12.950875700887634"><ele>681.0</ele><time>2026-04-04T09:09:14.001Z</time></trkpt><trkpt lat="43.16946605370852" lon="12.950974369849067"><ele>681.0</ele><time>2026-04-04T09:09:15.001Z</time></trkpt><trkpt lat="43.16946726289482" lon="12.951081081464705"><ele>681.0</ele><time>2026-04-04T09:09:16.001Z</time></trkpt><trkpt lat="43.16947256501107" lon="12.951199653847203"><ele>681.0</ele><time>2026-04-04T09:09:17.001Z</time></trkpt><trkpt lat="43.16946750820107" lon="12.951292969138994"><ele>683.8333333333334</ele><time>2026-04-04T09:09:18.001Z</time></trkpt><trkpt lat="43.16945470923835" lon="12.951392800438152"><ele>686.6666666666666</ele><time>2026-04-04T09:09:19.001Z</time></trkpt><trkpt lat="43.16941116156321" lon="12.951549800184946"><ele>689.5</ele><time>2026-04-04T09:09:21.001Z</time></trkpt><trkpt lat="43.16936897783077" lon="12.95168484028399"><ele>692.3333333333333</ele><time>2026-04-04T09:09:23.001Z</time></trkpt><trkpt lat="43.16933558950606" lon="12.951760419075333"><ele>695.1666666666666</ele><time>2026-04-04T09:09:24.001Z</time></trkpt><trkpt lat="43.16929108244179" lon="12.951839914753624"><ele>698.0</ele><time>2026-04-04T09:09:25.001Z</time></trkpt><trkpt lat="43.169209464251416" lon="12.951989982035888"><ele>699.3333333333333</ele><time>2026-04-04T09:09:27.001Z</time></trkpt><trkpt lat="43.16916208344763" lon="12.952063064794874"><ele>700.6666666666666</ele><time>2026-04-04T09:09:28.001Z</time></trkpt><trkpt lat="43.16911195271384" lon="12.952138343463686"><ele>702.0</ele><time>2026-04-04T09:09:29.001Z</time></trkpt><trkpt lat="43.16906321170981" lon="12.952216051146133"><ele>703.3333333333334</ele><time>2026-04-04T09:09:30.001Z</time></trkpt><trkpt lat="43.16900184769664" lon="12.952295466002512"><ele>704.6666666666667</ele><time>2026-04-04T09:09:31.001Z</time></trkpt><trkpt lat="43.16894154456005" lon="12.952375855853148"><ele>706.0</ele><time>2026-04-04T09:09:32.001Z</time></trkpt><trkpt lat="43.16889935989509" lon="12.952444577156035"><ele>711.3333333333334</ele><time>2026-04-04T09:09:33.001Z</time></trkpt><trkpt lat="43.16883661321703" lon="12.952571271156506"><ele>716.6666666666667</ele><time>2026-04-04T09:09:35.001Z</time></trkpt><trkpt lat="43.16880579276676" lon="12.952676223838674"><ele>722.0</ele><time>2026-04-04T09:09:36.001Z</time></trkpt><trkpt lat="43.16878044917466" lon="12.952767106417069"><ele>727.3333333333334</ele><time>2026-04-04T09:09:37.001Z</time></trkpt><trkpt lat="43.16877437443197" lon="12.95286521216147"><ele>732.6666666666666</ele><time>2026-04-04T09:09:39.001Z</time></trkpt><trkpt lat="43.168772141005505" lon="12.952957457104816"><ele>738.0</ele><time>2026-04-04T09:09:52.001Z</time></trkpt><trkpt lat="43.1687030039005" lon="12.953032310530793"><ele>738.0</ele><time>2026-04-04T09:09:54.001Z</time></trkpt><trkpt lat="43.16859984478814" lon="12.953119449843243"><ele>738.0</ele><time>2026-04-04T09:09:56.001Z</time></trkpt><trkpt lat="43.16852408962851" lon="12.953228762366047"><ele>738.0</ele><time>2026-04-04T09:09:58.001Z</time></trkpt><trkpt lat="43.16847216488498" lon="12.953360672697222"><ele>738.0</ele><time>2026-04-04T09:10:00.001Z</time></trkpt><trkpt lat="43.16841839742866" lon="12.953487064493391"><ele>738.0</ele><time>2026-04-04T09:10:02.001Z</time></trkpt><trkpt lat="43.16838415143148" lon="12.953579749338306"><ele>739.8333333333334</ele><time>2026-04-04T09:10:03.001Z</time></trkpt><trkpt lat="43.16834402156378" lon="12.953677055351285"><ele>741.6666666666666</ele><time>2026-04-04T09:10:04.001Z</time></trkpt><trkpt lat="43.16830389614526" lon="12.953770221342186"><ele>743.5</ele><time>2026-04-04T09:10:05.001Z</time></trkpt><trkpt lat="43.16825731366423" lon="12.953855250402832"><ele>745.3333333333333</ele><time>2026-04-04T09:10:06.001Z</time></trkpt><trkpt lat="43.168210942326525" lon="12.953939449444382"><ele>747.1666666666666</ele><time>2026-04-04T09:10:07.001Z</time></trkpt><trkpt lat="43.16816627228273" lon="12.954019479704733"><ele>749.0</ele><time>2026-04-04T09:10:08.001Z</time></trkpt><trkpt lat="43.16812946342384" lon="12.95409440250471"><ele>757.6666666666666</ele><time>2026-04-04T09:10:09.001Z</time></trkpt><trkpt lat="43.16808626641768" lon="12.95418596634345"><ele>766.3333333333333</ele><time>2026-04-04T09:10:11.001Z</time></trkpt><trkpt lat="43.16805014517822" lon="12.954271718001474"><ele>775.0</ele><time>2026-04-04T09:10:17Z</time></trkpt><trkpt lat="43.16802108441805" lon="12.954348775777182"><ele>783.6666666666666</ele><time>2026-04-04T09:10:28Z</time></trkpt><trkpt lat="43.16798376748972" lon="12.95443813758616"><ele>792.3333333333334</ele><time>2026-04-04T09:10:34Z</time></trkpt><trkpt lat="43.1679771618307" lon="12.954582333163827"><ele>801.0</ele><time>2026-04-04T09:10:39Z</time></trkpt><trkpt lat="43.167972729846774" lon="12.954706026470772"><ele>803.4</ele><time>2026-04-04T09:10:41Z</time></trkpt><trkpt lat="43.167955595913064" lon="12.954841705243252"><ele>805.8</ele><time>2026-04-04T09:10:43Z</time></trkpt><trkpt lat="43.16792965450266" lon="12.954985307292237"><ele>808.1999999999999</ele><time>2026-04-04T09:10:45Z</time></trkpt><trkpt lat="43.1678926071002" lon="12.955109889790675"><ele>810.5999999999999</ele><time>2026-04-04T09:10:47Z</time></trkpt><trkpt lat="43.16788155452371" lon="12.955253460925821"><ele>813.0</ele><time>2026-04-04T09:10:49Z</time></trkpt><trkpt lat="43.16787623166036" lon="12.95537660808393"><ele>813.6666666666666</ele><time>2026-04-04T09:10:51Z</time></trkpt><trkpt lat="43.16785263340774" lon="12.95545972674081"><ele>814.3333333333333</ele><time>2026-04-04T09:10:53Z</time></trkpt><trkpt lat="43.16782856104583" lon="12.955542260255319"><ele>815.0</ele><time>2026-04-04T09:10:55Z</time></trkpt><trkpt lat="43.16779351867336" lon="12.955674328643003"><ele>815.6666666666666</ele><time>2026-04-04T09:10:58Z</time></trkpt><trkpt lat="43.167749171826436" lon="12.955772582295847"><ele>816.3333333333333</ele><time>2026-04-04T09:11:00Z</time></trkpt><trkpt lat="43.16771198858659" lon="12.955868629742941"><ele>817.0</ele><time>2026-04-04T09:11:03Z</time></trkpt><trkpt lat="43.167699299656505" lon="12.955965827498732"><ele>819.6666666666666</ele><time>2026-04-04T09:11:06Z</time></trkpt><trkpt lat="43.16770322487211" lon="12.956080516192973"><ele>822.3333333333333</ele><time>2026-04-04T09:11:09Z</time></trkpt><trkpt lat="43.16771219604786" lon="12.956204122758106"><ele>825.0</ele><time>2026-04-04T09:11:12Z</time></trkpt><trkpt lat="43.167725319450454" lon="12.95629456397647"><ele>827.6666666666667</ele><time>2026-04-04T09:11:14Z</time></trkpt><trkpt lat="43.16775443601923" lon="12.956373265057422"><ele>830.3333333333334</ele><time>2026-04-04T09:11:16Z</time></trkpt><trkpt lat="43.16781337819366" lon="12.956454489383969"><ele>833.0</ele><time>2026-04-04T09:11:19Z</time></trkpt><trkpt lat="43.16786149501037" lon="12.956545298261803"><ele>833.0</ele><time>2026-04-04T09:11:21Z</time></trkpt><trkpt lat="43.16793512508302" lon="12.956658572381208"><ele>833.0</ele><time>2026-04-04T09:11:23Z</time></trkpt><trkpt lat="43.168003354789015" lon="12.956760933175838"><ele>833.0</ele><time>2026-04-04T09:11:25Z</time></trkpt><trkpt lat="43.168080744271315" lon="12.956868741767885"><ele>833.0</ele><time>2026-04-04T09:11:27Z</time></trkpt><trkpt lat="43.168140185073995" lon="12.956965912410595"><ele>833.0</ele><time>2026-04-04T09:11:29Z</time></trkpt><trkpt lat="43.16821209086287" lon="12.957055940407242"><ele>833.6666666666667</ele><time>2026-04-04T09:11:31Z</time></trkpt><trkpt lat="43.16823063441511" lon="12.957141029836903"><ele>834.3333333333334</ele><time>2026-04-04T09:11:32Z</time></trkpt><trkpt lat="43.16825314661411" lon="12.957287172140724"><ele>835.0</ele><time>2026-04-04T09:11:34Z</time></trkpt><trkpt lat="43.168275920022715" lon="12.957373893401984"><ele>835.6666666666667</ele><time>2026-04-04T09:11:36Z</time></trkpt><trkpt lat="43.16829046515041" lon="12.957507275778964"><ele>836.3333333333334</ele><time>2026-04-04T09:11:38Z</time></trkpt><trkpt lat="43.16828056686467" lon="12.957610173154977"><ele>837.0</ele><time>2026-04-04T09:11:40Z</time></trkpt><trkpt lat="43.168281220561624" lon="12.957700658095828"><ele>843.3333333333334</ele><time>2026-04-04T09:11:46Z</time></trkpt><trkpt lat="43.168283211456014" lon="12.957792556528728"><ele>849.6666666666667</ele><time>2026-04-04T09:17:51Z</time></trkpt><trkpt lat="43.16832834069531" lon="12.957853205979074"><ele>856.0</ele><time>2026-04-04T09:17:54Z</time></trkpt><trkpt lat="43.16838362557679" lon="12.957937860278738"><ele>862.3333333333334</ele><time>2026-04-04T09:17:57Z</time></trkpt><trkpt lat="43.168433539586395" lon="12.958003161661376"><ele>868.6666666666667</ele><time>2026-04-04T09:17:59Z</time></trkpt><trkpt lat="43.16848898696417" lon="12.95810441322002"><ele>875.0</ele><time>2026-04-04T09:18:02Z</time></trkpt><trkpt lat="43.16854531538347" lon="12.95818227510735"><ele>875.0</ele><time>2026-04-04T09:18:05Z</time></trkpt><trkpt lat="43.16859831382587" lon="12.958241058204996"><ele>875.0</ele><time>2026-04-04T09:18:11Z</time></trkpt><trkpt lat="43.168571185385936" lon="12.958343230155247"><ele>875.0</ele><time>2026-04-04T09:19:14Z</time></trkpt><trkpt lat="43.16864205732909" lon="12.958381062034375"><ele>875.0</ele><time>2026-04-04T09:20:44Z</time></trkpt><trkpt lat="43.168641709663895" lon="12.958292771944324"><ele>875.0</ele><time>2026-04-04T09:21:37Z</time></trkpt><trkpt lat="43.16856557039029" lon="12.95823956607174"><ele>875.0</ele><time>2026-04-04T09:23:06.001Z</time></trkpt><trkpt lat="43.16860698625354" lon="12.958307982099873"><ele>875.0</ele><time>2026-04-04T09:23:30.001Z</time></trkpt><trkpt lat="43.16866512324918" lon="12.958392098782278"><ele>881.8333333333334</ele><time>2026-04-04T09:23:33.001Z</time></trkpt><trkpt lat="43.16868676962251" lon="12.958484339897"><ele>888.6666666666667</ele><time>2026-04-04T09:23:35.001Z</time></trkpt><trkpt lat="43.16873366920485" lon="12.958583520638406"><ele>895.5</ele><time>2026-04-04T09:23:38.001Z</time></trkpt><trkpt lat="43.16875309525399" lon="12.958691402046142"><ele>902.3333333333333</ele><time>2026-04-04T09:23:41.001Z</time></trkpt><trkpt lat="43.168798521959616" lon="12.958751654846626"><ele>909.1666666666666</ele><time>2026-04-04T09:23:43.001Z</time></trkpt><trkpt lat="43.16884045431239" lon="12.958829110215385"><ele>916.0</ele><time>2026-04-04T09:23:45.001Z</time></trkpt><trkpt lat="43.16888756043066" lon="12.958922834844193"><ele>915.9999999999999</ele><time>2026-04-04T09:23:49.001Z</time></trkpt><trkpt lat="43.168928446937514" lon="12.95901403516372"><ele>916.0</ele><time>2026-04-04T09:23:52.001Z</time></trkpt><trkpt lat="43.16895753681435" lon="12.95909884230461"><ele>916.0</ele><time>2026-04-04T09:23:55.001Z</time></trkpt><trkpt lat="43.16899836683118" lon="12.959164750342325"><ele>916.0</ele><time>2026-04-04T09:23:57.001Z</time></trkpt><trkpt lat="43.1690366649075" lon="12.959248213473947"><ele>915.9999999999999</ele><time>2026-04-04T09:23:59.001Z</time></trkpt><trkpt lat="43.16908430683256" lon="12.959354590588473"><ele>916.0</ele><time>2026-04-04T09:24:01.001Z</time></trkpt><trkpt lat="43.169119747289336" lon="12.959469788839968"><ele>916.1666666666666</ele><time>2026-04-04T09:24:03.001Z</time></trkpt><trkpt lat="43.16915379604404" lon="12.959559686715204"><ele>916.3333333333333</ele><time>2026-04-04T09:24:05.001Z</time></trkpt><trkpt lat="43.16918150742456" lon="12.959675190753556"><ele>916.5</ele><time>2026-04-04T09:24:07.001Z</time></trkpt><trkpt lat="43.16920733319317" lon="12.959779878507526"><ele>916.6666666666667</ele><time>2026-04-04T09:24:09.001Z</time></trkpt><trkpt lat="43.169266435739274" lon="12.959878638300944"><ele>916.8333333333334</ele><time>2026-04-04T09:24:11.001Z</time></trkpt><trkpt lat="43.169339095905876" lon="12.959948618218917"><ele>917.0</ele><time>2026-04-04T09:24:13.001Z</time></trkpt><trkpt lat="43.16941048235031" lon="12.960035723426948"><ele>922.0000000000001</ele><time>2026-04-04T09:24:15.001Z</time></trkpt><trkpt lat="43.16946826975944" lon="12.96015632044889"><ele>927.0</ele><time>2026-04-04T09:24:17.001Z</time></trkpt><trkpt lat="43.169539405673035" lon="12.960278639403569"><ele>932.0</ele><time>2026-04-04T09:24:19.001Z</time></trkpt><trkpt lat="43.169578548220954" lon="12.9603564634456"><ele>937.0</ele><time>2026-04-04T09:24:20.001Z</time></trkpt><trkpt lat="43.169612681720444" lon="12.960435938824283"><ele>942.0000000000001</ele><time>2026-04-04T09:24:21Z</time></trkpt><trkpt lat="43.16964756640079" lon="12.96051745196677"><ele>947.0</ele><time>2026-04-04T09:24:22Z</time></trkpt><trkpt lat="43.16968662194486" lon="12.960600823653749"><ele>947.0</ele><time>2026-04-04T09:24:23Z</time></trkpt><trkpt lat="43.16975292885598" lon="12.960721883580089"><ele>947.0</ele><time>2026-04-04T09:24:25Z</time></trkpt><trkpt lat="43.16980823571458" lon="12.960845853924917"><ele>947.0</ele><time>2026-04-04T09:24:27Z</time></trkpt><trkpt lat="43.16986263750561" lon="12.960987593785916"><ele>947.0</ele><time>2026-04-04T09:24:29Z</time></trkpt><trkpt lat="43.16989659908488" lon="12.961139288542487"><ele>947.0</ele><time>2026-04-04T09:24:31Z</time></trkpt><trkpt lat="43.16993461334205" lon="12.961279654478139"><ele>947.3333333333334</ele><time>2026-04-04T09:24:33Z</time></trkpt><trkpt lat="43.16998388013108" lon="12.961433073169808"><ele>947.6666666666667</ele><time>2026-04-04T09:24:35Z</time></trkpt><trkpt lat="43.17001151751209" lon="12.961511255936069"><ele>948.0</ele><time>2026-04-04T09:24:36Z</time></trkpt><trkpt lat="43.17004423337896" lon="12.96160477923194"><ele>948.3333333333333</ele><time>2026-04-04T09:24:37Z</time></trkpt><trkpt lat="43.170080885817555" lon="12.961701778309722"><ele>948.6666666666666</ele><time>2026-04-04T09:24:38Z</time></trkpt><trkpt lat="43.17011684939458" lon="12.961797749317949"><ele>949.0</ele><time>2026-04-04T09:24:39Z</time></trkpt><trkpt lat="43.17016005802846" lon="12.961906251908635"><ele>949.0</ele><time>2026-04-04T09:24:40Z</time></trkpt><trkpt lat="43.170191808101585" lon="12.962000647191136"><ele>949.0000000000001</ele><time>2026-04-04T09:24:41Z</time></trkpt><trkpt lat="43.17025285083543" lon="12.962125006549424"><ele>949.0000000000001</ele><time>2026-04-04T09:24:43Z</time></trkpt><trkpt lat="43.170321910783706" lon="12.962228037504062"><ele>949.0</ele><time>2026-04-04T09:24:45Z</time></trkpt><trkpt lat="43.17037103287123" lon="12.96234244797758"><ele>949.0</ele><time>2026-04-04T09:24:47Z</time></trkpt><trkpt lat="43.17041252193354" lon="12.962453767187828"><ele>952.4000000000001</ele><time>2026-04-04T09:24:49Z</time></trkpt><trkpt lat="43.17044107887175" lon="12.96260785401264"><ele>955.8000000000001</ele><time>2026-04-04T09:24:51Z</time></trkpt><trkpt lat="43.17045776049357" lon="12.962696481266152"><ele>959.1999999999999</ele><time>2026-04-04T09:24:52Z</time></trkpt><trkpt lat="43.17047854157403" lon="12.962840884034113"><ele>962.5999999999999</ele><time>2026-04-04T09:24:54Z</time></trkpt><trkpt lat="43.170495728276" lon="12.962933323413278"><ele>966.0</ele><time>2026-04-04T09:24:56Z</time></trkpt><trkpt lat="43.1705095493055" lon="12.963085880383064"><ele>966.0</ele><time>2026-04-04T09:24:58Z</time></trkpt><trkpt lat="43.17052354471671" lon="12.963209820307155"><ele>966.0</ele><time>2026-04-04T09:25:00Z</time></trkpt><trkpt lat="43.17051563381909" lon="12.963331468437854"><ele>966.0</ele><time>2026-04-04T09:25:03Z</time></trkpt><trkpt lat="43.170498636893264" lon="12.96343518746534"><ele>966.0</ele><time>2026-04-04T09:25:05Z</time></trkpt><trkpt lat="43.170495732232524" lon="12.96352991756029"><ele>966.0</ele><time>2026-04-04T09:25:07Z</time></trkpt><trkpt lat="43.17049041216579" lon="12.963623831917715"><ele>966.0</ele><time>2026-04-04T09:25:10Z</time></trkpt><trkpt lat="43.17048478018523" lon="12.963729322891547"><ele>966.0</ele><time>2026-04-04T09:25:29Z</time></trkpt><trkpt lat="43.17052917271676" lon="12.963663439854521"><ele>966.0</ele><time>2026-04-04T09:27:40Z</time></trkpt><trkpt lat="43.170560409148024" lon="12.963578691046127"><ele>966.0</ele><time>2026-04-04T09:27:45Z</time></trkpt><trkpt lat="43.170570530976455" lon="12.963469598596305"><ele>966.0</ele><time>2026-04-04T09:27:49Z</time></trkpt><trkpt lat="43.1705515748411" lon="12.963355101251416"><ele>966.0</ele><time>2026-04-04T09:27:52Z</time></trkpt><trkpt lat="43.17052948389304" lon="12.96326067298007"><ele>966.0</ele><time>2026-04-04T09:27:55Z</time></trkpt><trkpt lat="43.1705297021937" lon="12.96317060678261"><ele>966.0</ele><time>2026-04-04T09:28:02Z</time></trkpt><trkpt lat="43.17050047280303" lon="12.96305552587021"><ele>966.0</ele><time>2026-04-04T09:28:05Z</time></trkpt><trkpt lat="43.17048001836554" lon="12.962953025121944"><ele>966.0</ele><time>2026-04-04T09:28:08Z</time></trkpt><trkpt lat="43.17045592912088" lon="12.962853531831863"><ele>966.0</ele><time>2026-04-04T09:28:10Z</time></trkpt><trkpt lat="43.17041156495086" lon="12.962709437617889"><ele>966.0</ele><time>2026-04-04T09:28:12Z</time></trkpt><trkpt lat="43.170385807405076" lon="12.962627579941126"><ele>966.0</ele><time>2026-04-04T09:28:13Z</time></trkpt><trkpt lat="43.17033361489073" lon="12.96248560147858"><ele>966.0</ele><time>2026-04-04T09:28:15Z</time></trkpt><trkpt lat="43.17030081660918" lon="12.962380041122323"><ele>963.1666666666666</ele><time>2026-04-04T09:28:18Z</time></trkpt><trkpt lat="43.17026583591136" lon="12.962297356283003"><ele>960.3333333333333</ele><time>2026-04-04T09:28:22Z</time></trkpt><trkpt lat="43.1702273308467" lon="12.962218588526158"><ele>957.5</ele><time>2026-04-04T09:28:25Z</time></trkpt><trkpt lat="43.17019209669564" lon="12.962051897875098"><ele>954.6666666666666</ele><time>2026-04-04T09:28:27Z</time></trkpt><trkpt lat="43.17015201117457" lon="12.961908296412295"><ele>951.8333333333333</ele><time>2026-04-04T09:28:29Z</time></trkpt><trkpt lat="43.17012994056705" lon="12.961825898274764"><ele>949.0</ele><time>2026-04-04T09:28:31Z</time></trkpt><trkpt lat="43.17011635425065" lon="12.961721158577218"><ele>944.6</ele><time>2026-04-04T09:28:33Z</time></trkpt><trkpt lat="43.17009542145619" lon="12.961592714705487"><ele>940.2</ele><time>2026-04-04T09:28:36Z</time></trkpt><trkpt lat="43.17004755814313" lon="12.961477795858949"><ele>935.8000000000001</ele><time>2026-04-04T09:28:39Z</time></trkpt><trkpt lat="43.17001231600486" lon="12.961383502896407"><ele>931.4000000000001</ele><time>2026-04-04T09:28:41Z</time></trkpt><trkpt lat="43.16994776459311" lon="12.961251751639105"><ele>927.0</ele><time>2026-04-04T09:28:43Z</time></trkpt><trkpt lat="43.16989621233425" lon="12.96113711201241"><ele>930.3333333333334</ele><time>2026-04-04T09:28:45Z</time></trkpt><trkpt lat="43.169828105219196" lon="12.961032569934185"><ele>933.6666666666667</ele><time>2026-04-04T09:28:47Z</time></trkpt><trkpt lat="43.16976854426564" lon="12.96092785425486"><ele>937.0</ele><time>2026-04-04T09:28:49Z</time></trkpt><trkpt lat="43.16971975846443" lon="12.960807739896484"><ele>940.3333333333334</ele><time>2026-04-04T09:28:51Z</time></trkpt><trkpt lat="43.16966643542766" lon="12.960714585127182"><ele>943.6666666666667</ele><time>2026-04-04T09:28:53Z</time></trkpt><trkpt lat="43.169644843841276" lon="12.960633007279498"><ele>947.0</ele><time>2026-04-04T09:28:55Z</time></trkpt><trkpt lat="43.16960165228094" lon="12.960543043153715"><ele>947.0000000000001</ele><time>2026-04-04T09:28:57Z</time></trkpt><trkpt lat="43.16953806640284" lon="12.960439424185301"><ele>947.0</ele><time>2026-04-04T09:28:59Z</time></trkpt><trkpt lat="43.16947080971854" lon="12.960349013793092"><ele>947.0</ele><time>2026-04-04T09:29:01Z</time></trkpt><trkpt lat="43.1694154823788" lon="12.960289289190227"><ele>947.0</ele><time>2026-04-04T09:29:03Z</time></trkpt><trkpt lat="43.169351456305655" lon="12.960209133690975"><ele>947.0000000000001</ele><time>2026-04-04T09:29:06Z</time></trkpt><trkpt lat="43.16929035716909" lon="12.960137547837084"><ele>947.0</ele><time>2026-04-04T09:29:10Z</time></trkpt><trkpt lat="43.169226540856016" lon="12.960081888699197"><ele>947.8571428571428</ele><time>2026-04-04T09:29:13Z</time></trkpt><trkpt lat="43.16917623731676" lon="12.960024540893405"><ele>948.7142857142856</ele><time>2026-04-04T09:29:17Z</time></trkpt><trkpt lat="43.169115626205816" lon="12.959966443473594"><ele>949.5714285714286</ele><time>2026-04-04T09:29:21Z</time></trkpt><trkpt lat="43.169053035361834" lon="12.959893847000993"><ele>950.4285714285713</ele><time>2026-04-04T09:29:24Z</time></trkpt><trkpt lat="43.16899028942117" lon="12.959812503251575"><ele>951.2857142857142</ele><time>2026-04-04T09:29:32Z</time></trkpt><trkpt lat="43.168946923909964" lon="12.959736293222225"><ele>952.1428571428571</ele><time>2026-04-04T09:29:34Z</time></trkpt><trkpt lat="43.168894146907284" lon="12.959686899508444"><ele>953.0</ele><time>2026-04-04T09:29:35Z</time></trkpt><trkpt lat="43.168798468523136" lon="12.959584566580352"><ele>953.0</ele><time>2026-04-04T09:29:37Z</time></trkpt><trkpt lat="43.168712045670844" lon="12.959489518442759"><ele>953.0</ele><time>2026-04-04T09:29:39Z</time></trkpt><trkpt lat="43.16861938977894" lon="12.959436327775917"><ele>953.0</ele><time>2026-04-04T09:29:41Z</time></trkpt><trkpt lat="43.16852488709445" lon="12.959374134101637"><ele>953.0</ele><time>2026-04-04T09:29:43Z</time></trkpt><trkpt lat="43.16843691389893" lon="12.959297529168612"><ele>953.0</ele><time>2026-04-04T09:29:45Z</time></trkpt><trkpt lat="43.1683620569659" lon="12.959193175140557"><ele>952.2</ele><time>2026-04-04T09:29:47Z</time></trkpt><trkpt lat="43.16826026454628" lon="12.959081098972407"><ele>951.4</ele><time>2026-04-04T09:29:49Z</time></trkpt><trkpt lat="43.168159619953244" lon="12.958997200830861"><ele>950.6000000000001</ele><time>2026-04-04T09:29:51Z</time></trkpt><trkpt lat="43.16810413804717" lon="12.958926941331065"><ele>949.8000000000001</ele><time>2026-04-04T09:29:52Z</time></trkpt><trkpt lat="43.16804883769332" lon="12.958848053462049"><ele>949.0</ele><time>2026-04-04T09:29:53Z</time></trkpt><trkpt lat="43.16799500546178" lon="12.9587837094066"><ele>949.0000000000001</ele><time>2026-04-04T09:29:54Z</time></trkpt><trkpt lat="43.16793586899499" lon="12.958728210088687"><ele>949.0</ele><time>2026-04-04T09:29:55Z</time></trkpt><trkpt lat="43.16788025520833" lon="12.958669829467334"><ele>949.0000000000001</ele><time>2026-04-04T09:29:56Z</time></trkpt><trkpt lat="43.167827150339086" lon="12.95862090953807"><ele>949.0000000000001</ele><time>2026-04-04T09:29:57Z</time></trkpt><trkpt lat="43.16776878804278" lon="12.958568883199694"><ele>949.0</ele><time>2026-04-04T09:29:58Z</time></trkpt><trkpt lat="43.16770596359022" lon="12.958538610980096"><ele>949.0000000000001</ele><time>2026-04-04T09:29:59Z</time></trkpt><trkpt lat="43.16761420910573" lon="12.958474150056848"><ele>949.0000000000001</ele><time>2026-04-04T09:30:01Z</time></trkpt><trkpt lat="43.167524417859646" lon="12.958388625618472"><ele>945.0</ele><time>2026-04-04T09:30:03Z</time></trkpt><trkpt lat="43.16742186253828" lon="12.958326461949213"><ele>941.0000000000001</ele><time>2026-04-04T09:30:05Z</time></trkpt><trkpt lat="43.16731591774412" lon="12.958271623974207"><ele>937.0000000000001</ele><time>2026-04-04T09:30:07Z</time></trkpt><trkpt lat="43.16722231780572" lon="12.958224325698385"><ele>933.0</ele><time>2026-04-04T09:30:09Z</time></trkpt><trkpt lat="43.16711558010197" lon="12.958176144068988"><ele>929.0</ele><time>2026-04-04T09:30:11Z</time></trkpt><trkpt lat="43.1669999922933" lon="12.958152535858162"><ele>929.0000000000001</ele><time>2026-04-04T09:30:13Z</time></trkpt><trkpt lat="43.16691065426465" lon="12.958154597590632"><ele>929.0</ele><time>2026-04-04T09:30:15Z</time></trkpt><trkpt lat="43.166829657613015" lon="12.958161842434983"><ele>929.0</ele><time>2026-04-04T09:30:17Z</time></trkpt><trkpt lat="43.16674523594859" lon="12.958160930346445"><ele>929.0</ele><time>2026-04-04T09:30:19Z</time></trkpt><trkpt lat="43.16668074803276" lon="12.95812131496346"><ele>929.0000000000001</ele><time>2026-04-04T09:30:21Z</time></trkpt><trkpt lat="43.16661531514426" lon="12.958057106708948"><ele>929.0</ele><time>2026-04-04T09:30:23Z</time></trkpt><trkpt lat="43.1665581725378" lon="12.95800439048944"><ele>933.6666666666667</ele><time>2026-04-04T09:30:26Z</time></trkpt><trkpt lat="43.1664820992457" lon="12.957979699814347"><ele>938.3333333333334</ele><time>2026-04-04T09:30:29Z</time></trkpt><trkpt lat="43.16642223112427" lon="12.957930698883914"><ele>943.0</ele><time>2026-04-04T09:30:33Z</time></trkpt><trkpt lat="43.16635090885074" lon="12.95789703882819"><ele>947.6666666666667</ele><time>2026-04-04T09:30:38Z</time></trkpt><trkpt lat="43.16635191614481" lon="12.957765146830436"><ele>952.3333333333334</ele><time>2026-04-04T09:30:43Z</time></trkpt><trkpt lat="43.16633125062451" lon="12.957657914507404"><ele>957.0</ele><time>2026-04-04T09:30:45Z</time></trkpt><trkpt lat="43.16631697410758" lon="12.957549824704417"><ele>955.6</ele><time>2026-04-04T09:30:47Z</time></trkpt><trkpt lat="43.16631547921073" lon="12.957431417917117"><ele>954.2</ele><time>2026-04-04T09:30:49Z</time></trkpt><trkpt lat="43.166308464874604" lon="12.957345105306443"><ele>952.8</ele><time>2026-04-04T09:30:50Z</time></trkpt><trkpt lat="43.16629993167714" lon="12.95725867425457"><ele>951.4</ele><time>2026-04-04T09:30:51Z</time></trkpt><trkpt lat="43.16629039943062" lon="12.957078233645413"><ele>950.0</ele><time>2026-04-04T09:30:53Z</time></trkpt><trkpt lat="43.16630156338788" lon="12.956897865843116"><ele>950.0000000000001</ele><time>2026-04-04T09:30:55Z</time></trkpt><trkpt lat="43.16633150931454" lon="12.9567661886121"><ele>950.0</ele><time>2026-04-04T09:30:57Z</time></trkpt><trkpt lat="43.16635604109082" lon="12.956648561029688"><ele>950.0</ele><time>2026-04-04T09:30:59Z</time></trkpt><trkpt lat="43.16636168662516" lon="12.956555143939962"><ele>950.0</ele><time>2026-04-04T09:31:01Z</time></trkpt><trkpt lat="43.16635976887859" lon="12.956429477948536"><ele>950.0000000000001</ele><time>2026-04-04T09:31:03Z</time></trkpt><trkpt lat="43.16636221127402" lon="12.95633624955436"><ele>950.0</ele><time>2026-04-04T09:31:05Z</time></trkpt><trkpt lat="43.166359319260884" lon="12.956229118697973"><ele>950.0000000000001</ele><time>2026-04-04T09:31:08Z</time></trkpt><trkpt lat="43.16636000189003" lon="12.95610755593996"><ele>950.0</ele><time>2026-04-04T09:31:11Z</time></trkpt><trkpt lat="43.166365018362455" lon="12.956017543973646"><ele>950.0</ele><time>2026-04-04T09:31:13Z</time></trkpt><trkpt lat="43.16636792002899" lon="12.955927851399196"><ele>950.0</ele><time>2026-04-04T09:31:15Z</time></trkpt><trkpt lat="43.16637850981958" lon="12.955815676536035"><ele>950.0000000000001</ele><time>2026-04-04T09:31:18Z</time></trkpt><trkpt lat="43.166397496589404" lon="12.955714758824113"><ele>950.0</ele><time>2026-04-04T09:31:20Z</time></trkpt><trkpt lat="43.166412551004164" lon="12.955589839536673"><ele>950.5000000000001</ele><time>2026-04-04T09:31:23Z</time></trkpt><trkpt lat="43.166407302773436" lon="12.955466129075004"><ele>951.0</ele><time>2026-04-04T09:31:25Z</time></trkpt><trkpt lat="43.16639907468365" lon="12.955349979007924"><ele>951.5</ele><time>2026-04-04T09:31:27Z</time></trkpt><trkpt lat="43.166392994091744" lon="12.955251665003958"><ele>952.0</ele><time>2026-04-04T09:31:29Z</time></trkpt><trkpt lat="43.16637963378396" lon="12.955128764457925"><ele>952.5000000000001</ele><time>2026-04-04T09:31:31Z</time></trkpt><trkpt lat="43.166376077565516" lon="12.955029311663328"><ele>953.0</ele><time>2026-04-04T09:31:33Z</time></trkpt><trkpt lat="43.166358283511194" lon="12.954937758333939"><ele>951.0</ele><time>2026-04-04T09:31:35Z</time></trkpt><trkpt lat="43.16632463065581" lon="12.954829816883063"><ele>949.0</ele><time>2026-04-04T09:31:37Z</time></trkpt><trkpt lat="43.166357549261264" lon="12.954661235148462"><ele>947.0</ele><time>2026-04-04T09:31:40Z</time></trkpt><trkpt lat="43.16635923225001" lon="12.954553245554896"><ele>945.0</ele><time>2026-04-04T09:31:41Z</time></trkpt><trkpt lat="43.16637421429474" lon="12.954438591200462"><ele>943.0</ele><time>2026-04-04T09:31:43Z</time></trkpt><trkpt lat="43.16638112746844" lon="12.954209060767157"><ele>940.0</ele><time>2026-04-04T09:31:44Z</time></trkpt><trkpt lat="43.16638758050547" lon="12.954084501344596"><ele>937.0</ele><time>2026-04-04T09:31:46Z</time></trkpt><trkpt lat="43.16638966897801" lon="12.953982152420027"><ele>934.0</ele><time>2026-04-04T09:31:48Z</time></trkpt><trkpt lat="43.166391480072974" lon="12.953809209538589"><ele>931.0</ele><time>2026-04-04T09:31:50Z</time></trkpt><trkpt lat="43.16638602680791" lon="12.953695671917798"><ele>928.0</ele><time>2026-04-04T09:31:51Z</time></trkpt><trkpt lat="43.16638580723547" lon="12.953577474154446"><ele>928.0</ele><time>2026-04-04T09:31:52Z</time></trkpt><trkpt lat="43.166375387382196" lon="12.953444763124512"><ele>928.0</ele><time>2026-04-04T09:31:53Z</time></trkpt><trkpt lat="43.16636996919322" lon="12.953302328176733"><ele>928.0</ele><time>2026-04-04T09:31:54Z</time></trkpt><trkpt lat="43.16637207946626" lon="12.95318738823604"><ele>928.0</ele><time>2026-04-04T09:31:55Z</time></trkpt><trkpt lat="43.16637467641389" lon="12.953062208247639"><ele>928.0</ele><time>2026-04-04T09:31:56Z</time></trkpt><trkpt lat="43.166363149979084" lon="12.95292352877609"><ele>925.4999999999999</ele><time>2026-04-04T09:31:57Z</time></trkpt><trkpt lat="43.166353666233036" lon="12.952778745193264"><ele>923.0</ele><time>2026-04-04T09:31:58Z</time></trkpt><trkpt lat="43.1663528048395" lon="12.952664617265045"><ele>920.5</ele><time>2026-04-04T09:31:59Z</time></trkpt><trkpt lat="43.16635201123692" lon="12.952555045535153"><ele>918.0</ele><time>2026-04-04T09:32:00Z</time></trkpt><trkpt lat="43.166349058111436" lon="12.952445104087612"><ele>915.4999999999999</ele><time>2026-04-04T09:32:01Z</time></trkpt><trkpt lat="43.16634921485139" lon="12.952348946874862"><ele>913.0</ele><time>2026-04-04T09:32:02Z</time></trkpt><trkpt lat="43.166340609034265" lon="12.952182404534138"><ele>910.4999999999999</ele><time>2026-04-04T09:32:04Z</time></trkpt><trkpt lat="43.166305965120046" lon="12.952043086869416"><ele>908.0</ele><time>2026-04-04T09:32:06Z</time></trkpt><trkpt lat="43.16626677995616" lon="12.951953087952214"><ele>905.5</ele><time>2026-04-04T09:32:09Z</time></trkpt><trkpt lat="43.16621471571796" lon="12.951889567823404"><ele>903.0</ele><time>2026-04-04T09:32:11Z</time></trkpt><trkpt lat="43.166154305769446" lon="12.95183370794819"><ele>900.4999999999999</ele><time>2026-04-04T09:32:13Z</time></trkpt><trkpt lat="43.16608084619463" lon="12.951756936615032"><ele>898.0</ele><time>2026-04-04T09:32:16Z</time></trkpt><trkpt lat="43.16601205982175" lon="12.95164832386827"><ele>895.0</ele><time>2026-04-04T09:32:18Z</time></trkpt><trkpt lat="43.16596633594495" lon="12.951573734880482"><ele>892.0</ele><time>2026-04-04T09:32:19Z</time></trkpt><trkpt lat="43.16591232616752" lon="12.951484127493307"><ele>889.0</ele><time>2026-04-04T09:32:21Z</time></trkpt><trkpt lat="43.165843586827975" lon="12.951381816413086"><ele>886.0</ele><time>2026-04-04T09:32:23Z</time></trkpt><trkpt lat="43.16577613031759" lon="12.951230270926104"><ele>883.0</ele><time>2026-04-04T09:32:25Z</time></trkpt><trkpt lat="43.16574421023743" lon="12.951098713146402"><ele>886.6666666666666</ele><time>2026-04-04T09:32:27Z</time></trkpt><trkpt lat="43.165687098012135" lon="12.950976334093149"><ele>890.3333333333333</ele><time>2026-04-04T09:32:29Z</time></trkpt><trkpt lat="43.16565328607782" lon="12.950866623754097"><ele>894.0</ele><time>2026-04-04T09:32:31Z</time></trkpt><trkpt lat="43.16563789498665" lon="12.950781864757879"><ele>897.6666666666667</ele><time>2026-04-04T09:32:33Z</time></trkpt><trkpt lat="43.16559424271033" lon="12.9507051868739"><ele>901.3333333333334</ele><time>2026-04-04T09:32:36Z</time></trkpt><trkpt lat="43.16556414786304" lon="12.950628951776874"><ele>905.0</ele><time>2026-04-04T09:32:39Z</time></trkpt><trkpt lat="43.16546794010286" lon="12.95062340559501"><ele>905.0</ele><time>2026-04-04T09:32:50Z</time></trkpt><trkpt lat="43.16541961134521" lon="12.950683714788282"><ele>905.0</ele><time>2026-04-04T09:32:57Z</time></trkpt><trkpt lat="43.16543421374391" lon="12.950791273096804"><ele>905.0</ele><time>2026-04-04T09:33:03Z</time></trkpt><trkpt lat="43.165458664204564" lon="12.950887911544749"><ele>905.0</ele><time>2026-04-04T09:33:09Z</time></trkpt><trkpt lat="43.16572992088929" lon="12.950985979616334"><ele>899.5</ele><time>2026-04-04T09:33:32Z</time></trkpt><trkpt lat="43.16591869749936" lon="12.950989228777262"><ele>894.0</ele><time>2026-04-04T09:33:45Z</time></trkpt><trkpt lat="43.165883320062896" lon="12.95107070056858"><ele>888.5</ele><time>2026-04-04T09:33:51Z</time></trkpt><trkpt lat="43.16578928077899" lon="12.95125740279716"><ele>883.0</ele><time>2026-04-04T09:33:56Z</time></trkpt><trkpt lat="43.16573773668327" lon="12.95131764455107"><ele>882.9999999999999</ele><time>2026-04-04T09:33:58Z</time></trkpt><trkpt lat="43.16573967031086" lon="12.951487905398434"><ele>883.0</ele><time>2026-04-04T09:34:00Z</time></trkpt><trkpt lat="43.165705395145295" lon="12.951583766068513"><ele>883.0</ele><time>2026-04-04T09:34:01Z</time></trkpt><trkpt lat="43.165645029348994" lon="12.951643627545607"><ele>883.0</ele><time>2026-04-04T09:34:03Z</time></trkpt><trkpt lat="43.165661675418896" lon="12.951752731062074"><ele>882.9999999999999</ele><time>2026-04-04T09:34:05Z</time></trkpt><trkpt lat="43.16566352908071" lon="12.95186378457519"><ele>883.0</ele><time>2026-04-04T09:34:07Z</time></trkpt><trkpt lat="43.16569547541686" lon="12.951990685688617"><ele>886.0</ele><time>2026-04-04T09:34:09Z</time></trkpt><trkpt lat="43.16575599444048" lon="12.952094056100284"><ele>889.0</ele><time>2026-04-04T09:34:13Z</time></trkpt><trkpt lat="43.165814323982566" lon="12.952183923375776"><ele>892.0</ele><time>2026-04-04T09:34:16Z</time></trkpt><trkpt lat="43.16585434371168" lon="12.952283444955173"><ele>895.0</ele><time>2026-04-04T09:34:18Z</time></trkpt><trkpt lat="43.165891706152465" lon="12.952408288722767"><ele>898.0</ele><time>2026-04-04T09:34:20Z</time></trkpt><trkpt lat="43.16593040901617" lon="12.95256059435342"><ele>901.0</ele><time>2026-04-04T09:34:22Z</time></trkpt><trkpt lat="43.16594672927902" lon="12.95266905652553"><ele>904.0</ele><time>2026-04-04T09:34:23Z</time></trkpt><trkpt lat="43.165999853659805" lon="12.952806566210896"><ele>907.0</ele><time>2026-04-04T09:34:25Z</time></trkpt><trkpt lat="43.166105361628304" lon="12.952861629160404"><ele>910.0</ele><time>2026-04-04T09:34:28Z</time></trkpt><trkpt lat="43.1662129044775" lon="12.952893031508507"><ele>913.0</ele><time>2026-04-04T09:34:31Z</time></trkpt><trkpt lat="43.16640068150777" lon="12.95299873739522"><ele>912.9999999999999</ele><time>2026-04-04T09:34:33Z</time></trkpt><trkpt lat="43.16648326178896" lon="12.953023074638581"><ele>913.0</ele><time>2026-04-04T09:34:38Z</time></trkpt><trkpt lat="43.16659417109036" lon="12.95314421657166"><ele>913.0</ele><time>2026-04-04T09:34:40Z</time></trkpt><trkpt lat="43.166643956216596" lon="12.953218934852782"><ele>913.0</ele><time>2026-04-04T09:34:41Z</time></trkpt><trkpt lat="43.166695832132895" lon="12.953285596534782"><ele>912.9999999999999</ele><time>2026-04-04T09:34:42Z</time></trkpt><trkpt lat="43.166703215046496" lon="12.953379409678153"><ele>913.0</ele><time>2026-04-04T09:34:43Z</time></trkpt><trkpt lat="43.166727132425" lon="12.953525838340292"><ele>904.4</ele><time>2026-04-04T09:34:45Z</time></trkpt><trkpt lat="43.16676177162147" lon="12.953650901478811"><ele>895.8</ele><time>2026-04-04T09:34:47Z</time></trkpt><trkpt lat="43.16681244235339" lon="12.95372082483326"><ele>887.2</ele><time>2026-04-04T09:34:49Z</time></trkpt><trkpt lat="43.16679436288124" lon="12.953803728688136"><ele>878.6</ele><time>2026-04-04T09:34:51Z</time></trkpt><trkpt lat="43.1667489074354" lon="12.95396321577758"><ele>870.0</ele><time>2026-04-04T09:34:53Z</time></trkpt><trkpt lat="43.16670510804448" lon="12.954150119704574"><ele>871.1666666666666</ele><time>2026-04-04T09:34:55Z</time></trkpt><trkpt lat="43.16671949963404" lon="12.954235671246208"><ele>872.3333333333333</ele><time>2026-04-04T09:34:56Z</time></trkpt><trkpt lat="43.166668495150915" lon="12.95435125447207"><ele>873.5</ele><time>2026-04-04T09:34:58Z</time></trkpt><trkpt lat="43.166650307249476" lon="12.954487151016219"><ele>874.6666666666666</ele><time>2026-04-04T09:35:00Z</time></trkpt><trkpt lat="43.16664532200487" lon="12.954580275642503"><ele>875.8333333333333</ele><time>2026-04-04T09:35:01Z</time></trkpt><trkpt lat="43.16660952679715" lon="12.954697400053506"><ele>877.0</ele><time>2026-04-04T09:35:03Z</time></trkpt><trkpt lat="43.166567142879764" lon="12.95490114598148"><ele>877.0</ele><time>2026-04-04T09:35:04Z</time></trkpt><trkpt lat="43.16656294938109" lon="12.95503125894837"><ele>877.0</ele><time>2026-04-04T09:35:05Z</time></trkpt><trkpt lat="43.16676203440155" lon="12.954662773980859"><ele>877.0</ele><time>2026-04-04T09:35:07Z</time></trkpt><trkpt lat="43.16682821181043" lon="12.954541025024062"><ele>877.0</ele><time>2026-04-04T09:35:08Z</time></trkpt><trkpt lat="43.16729872871921" lon="12.95436413770281"><ele>877.0000000000001</ele><time>2026-04-04T09:35:20.001Z</time></trkpt><trkpt lat="43.167235699161466" lon="12.954271120823577"><ele>877.0</ele><time>2026-04-04T09:35:22.001Z</time></trkpt><trkpt lat="43.16726530566969" lon="12.95416369897021"><ele>877.0</ele><time>2026-04-04T09:35:23.001Z</time></trkpt><trkpt lat="43.167289312793066" lon="12.954072288540676"><ele>877.0</ele><time>2026-04-04T09:35:24.001Z</time></trkpt><trkpt lat="43.1672202423945" lon="12.954083250404642"><ele>877.0</ele><time>2026-04-04T09:35:36.001Z</time></trkpt><trkpt lat="43.16723052509448" lon="12.95399660363373"><ele>877.0000000000001</ele><time>2026-04-04T09:35:37.001Z</time></trkpt><trkpt lat="43.16725870610328" lon="12.953913933956537"><ele>877.0</ele><time>2026-04-04T09:35:38.001Z</time></trkpt><trkpt lat="43.16727972441078" lon="12.953803886740767"><ele>875.6</ele><time>2026-04-04T09:35:41.001Z</time></trkpt><trkpt lat="43.16733170918196" lon="12.95360283057404"><ele>874.2</ele><time>2026-04-04T09:35:44.001Z</time></trkpt><trkpt lat="43.16740421685734" lon="12.953458131182238"><ele>872.8</ele><time>2026-04-04T09:35:48.001Z</time></trkpt><trkpt lat="43.16745816414296" lon="12.953375681428419"><ele>871.4</ele><time>2026-04-04T09:35:49.001Z</time></trkpt><trkpt lat="43.16748073999151" lon="12.953279490324276"><ele>870.0</ele><time>2026-04-04T09:35:51.001Z</time></trkpt><trkpt lat="43.167517593328604" lon="12.953165251731338"><ele>857.0</ele><time>2026-04-04T09:35:54.001Z</time></trkpt><trkpt lat="43.16755507289725" lon="12.953064201909052"><ele>844.0</ele><time>2026-04-04T09:35:57.001Z</time></trkpt><trkpt lat="43.16759050418669" lon="12.952959391238785"><ele>831.0</ele><time>2026-04-04T09:36:01.001Z</time></trkpt><trkpt lat="43.16756010557973" lon="12.95287779013083"><ele>818.0</ele><time>2026-04-04T09:36:06.001Z</time></trkpt><trkpt lat="43.16749969672902" lon="12.952846488159514"><ele>805.0</ele><time>2026-04-04T09:36:10.001Z</time></trkpt><trkpt lat="43.16744405907937" lon="12.952789190210257"><ele>792.0</ele><time>2026-04-04T09:36:16.001Z</time></trkpt><trkpt lat="43.16752686470113" lon="12.952735114361973"><ele>792.0</ele><time>2026-04-04T09:36:30.001Z</time></trkpt><trkpt lat="43.167494199499096" lon="12.952660492825999"><ele>792.0</ele><time>2026-04-04T09:36:36.001Z</time></trkpt><trkpt lat="43.16754506368816" lon="12.95258152257239"><ele>792.0</ele><time>2026-04-04T09:36:42.001Z</time></trkpt><trkpt lat="43.16749801381477" lon="12.952512460006572"><ele>792.0</ele><time>2026-04-04T09:36:51.001Z</time></trkpt><trkpt lat="43.16747168048155" lon="12.952431061146777"><ele>792.0</ele><time>2026-04-04T09:37:00.001Z</time></trkpt><trkpt lat="43.16748833559908" lon="12.952344639617355"><ele>792.0</ele><time>2026-04-04T09:37:05.001Z</time></trkpt><trkpt lat="43.167528089828245" lon="12.952261991532376"><ele>792.0</ele><time>2026-04-04T09:37:13.001Z</time></trkpt><trkpt lat="43.16756092783003" lon="12.95218183976748"><ele>788.3333333333333</ele><time>2026-04-04T09:37:19.001Z</time></trkpt><trkpt lat="43.1675836916547" lon="12.952101300600031"><ele>784.6666666666666</ele><time>2026-04-04T09:37:25.001Z</time></trkpt><trkpt lat="43.16759963411099" lon="12.952008338129335"><ele>781.0</ele><time>2026-04-04T09:37:33.001Z</time></trkpt><trkpt lat="43.167926268496345" lon="12.951989431254898"><ele>781.0</ele><time>2026-04-04T09:37:53.001Z</time></trkpt><trkpt lat="43.16804208066299" lon="12.951893043305741"><ele>781.0</ele><time>2026-04-04T09:37:54.001Z</time></trkpt><trkpt lat="43.1681258694068" lon="12.951815098558123"><ele>781.0</ele><time>2026-04-04T09:37:55.001Z</time></trkpt><trkpt lat="43.16822024562299" lon="12.951722640924602"><ele>781.0</ele><time>2026-04-04T09:37:56.001Z</time></trkpt><trkpt lat="43.168298578060394" lon="12.951660379169475"><ele>781.0</ele><time>2026-04-04T09:37:57.001Z</time></trkpt><trkpt lat="43.16835852247684" lon="12.951594133069566"><ele>778.4</ele><time>2026-04-04T09:37:58.001Z</time></trkpt><trkpt lat="43.16841184521546" lon="12.95150063460159"><ele>775.8</ele><time>2026-04-04T09:38:00.001Z</time></trkpt><trkpt lat="43.168428831519186" lon="12.951331292877102"><ele>773.1999999999999</ele><time>2026-04-04T09:38:08.001Z</time></trkpt><trkpt lat="43.168362487547036" lon="12.951311402416364"><ele>770.5999999999999</ele><time>2026-04-04T09:38:10.001Z</time></trkpt><trkpt lat="43.16829927985714" lon="12.951323608391885"><ele>768.0</ele><time>2026-04-04T09:38:11.001Z</time></trkpt><trkpt lat="43.16809859747452" lon="12.951092176219193"><ele>768.0</ele><time>2026-04-04T09:38:12.001Z</time></trkpt><trkpt lat="43.167939966044585" lon="12.950976828432543"><ele>768.0</ele><time>2026-04-04T09:38:13.001Z</time></trkpt><trkpt lat="43.16775728556782" lon="12.950822710101248"><ele>768.0</ele><time>2026-04-04T09:38:14.001Z</time></trkpt><trkpt lat="43.16742354702089" lon="12.950658483515332"><ele>774.1666666666666</ele><time>2026-04-04T09:38:16.001Z</time></trkpt><trkpt lat="43.16733796427691" lon="12.950745345742034"><ele>780.3333333333333</ele><time>2026-04-04T09:38:17.001Z</time></trkpt><trkpt lat="43.167282759684" lon="12.950801026973657"><ele>786.5</ele><time>2026-04-04T09:38:18.001Z</time></trkpt><trkpt lat="43.16724663620253" lon="12.950903903091604"><ele>792.6666666666666</ele><time>2026-04-04T09:38:19.001Z</time></trkpt><trkpt lat="43.16723054594756" lon="12.951022690908909"><ele>798.8333333333333</ele><time>2026-04-04T09:38:20.001Z</time></trkpt><trkpt lat="43.16724751807952" lon="12.951146859514823"><ele>805.0</ele><time>2026-04-04T09:38:21.001Z</time></trkpt><trkpt lat="43.16726258301663" lon="12.951446645159347"><ele>808.8</ele><time>2026-04-04T09:38:25.001Z</time></trkpt><trkpt lat="43.16728224372119" lon="12.951562810525164"><ele>812.6</ele><time>2026-04-04T09:38:27.001Z</time></trkpt><trkpt lat="43.16731798775247" lon="12.951644061407931"><ele>816.4000000000001</ele><time>2026-04-04T09:38:29.001Z</time></trkpt><trkpt lat="43.16737243054259" lon="12.9517282893113"><ele>820.2</ele><time>2026-04-04T09:38:31.001Z</time></trkpt><trkpt lat="43.167422532687276" lon="12.951784429886052"><ele>824.0</ele><time>2026-04-04T09:38:34Z</time></trkpt><trkpt lat="43.167607509608686" lon="12.95184698563571"><ele>815.4000000000001</ele><time>2026-04-04T09:38:41Z</time></trkpt><trkpt lat="43.1676846982464" lon="12.951913203067152"><ele>806.8</ele><time>2026-04-04T09:38:44Z</time></trkpt><trkpt lat="43.16785594372054" lon="12.951950147196598"><ele>798.2</ele><time>2026-04-04T09:39:16Z</time></trkpt><trkpt lat="43.16791036969534" lon="12.952038570480891"><ele>789.5999999999999</ele><time>2026-04-04T09:39:20Z</time></trkpt><trkpt lat="43.16794866598435" lon="12.952128684370617"><ele>781.0</ele><time>2026-04-04T09:39:22Z</time></trkpt><trkpt lat="43.16791835282022" lon="12.952037679297453"><ele>780.9999999999999</ele><time>2026-04-04T09:39:33Z</time></trkpt><trkpt lat="43.16790593274874" lon="12.951944949075507"><ele>781.0</ele><time>2026-04-04T09:39:46Z</time></trkpt><trkpt lat="43.16783184918806" lon="12.951834251878589"><ele>781.0</ele><time>2026-04-04T09:39:51Z</time></trkpt><trkpt lat="43.16780655508837" lon="12.951750044891542"><ele>781.0</ele><time>2026-04-04T09:39:53Z</time></trkpt><trkpt lat="43.16777562401803" lon="12.951659225678316"><ele>780.9999999999999</ele><time>2026-04-04T09:39:55Z</time></trkpt><trkpt lat="43.16774905147178" lon="12.951520491118643"><ele>781.0</ele><time>2026-04-04T09:39:57Z</time></trkpt><trkpt lat="43.167723931501996" lon="12.951354577949509"><ele>778.8333333333333</ele><time>2026-04-04T09:39:59Z</time></trkpt><trkpt lat="43.16772376593377" lon="12.951253596272949"><ele>776.6666666666666</ele><time>2026-04-04T09:40:00Z</time></trkpt><trkpt lat="43.16772006713145" lon="12.951155774031271"><ele>774.5</ele><time>2026-04-04T09:40:01Z</time></trkpt><trkpt lat="43.167724563509026" lon="12.951040420759426"><ele>772.3333333333333</ele><time>2026-04-04T09:40:02Z</time></trkpt><trkpt lat="43.16772369470809" lon="12.950938638904818"><ele>770.1666666666666</ele><time>2026-04-04T09:40:03Z</time></trkpt><trkpt lat="43.16771788955984" lon="12.950832560903235"><ele>768.0</ele><time>2026-04-04T09:40:04Z</time></trkpt><trkpt lat="43.16769722826423" lon="12.95073049486431"><ele>764.5999999999999</ele><time>2026-04-04T09:40:05Z</time></trkpt><trkpt lat="43.167657300973104" lon="12.95061576184403"><ele>761.1999999999999</ele><time>2026-04-04T09:40:07Z</time></trkpt><trkpt lat="43.16763596142032" lon="12.950500228864724"><ele>757.8</ele><time>2026-04-04T09:40:09Z</time></trkpt><trkpt lat="43.1676298302429" lon="12.950365264541409"><ele>754.4</ele><time>2026-04-04T09:40:12Z</time></trkpt><trkpt lat="43.167642166950195" lon="12.950271192788433"><ele>751.0</ele><time>2026-04-04T09:40:13Z</time></trkpt><trkpt lat="43.1676798054228" lon="12.950116965619602"><ele>751.0</ele><time>2026-04-04T09:40:15Z</time></trkpt><trkpt lat="43.16764356984589" lon="12.950255082159162"><ele>751.0</ele><time>2026-04-04T09:40:16Z</time></trkpt><trkpt lat="43.1676276707316" lon="12.950138088108949"><ele>751.0</ele><time>2026-04-04T09:40:18Z</time></trkpt><trkpt lat="43.16762678912061" lon="12.950021751890525"><ele>751.0</ele><time>2026-04-04T09:40:20Z</time></trkpt><trkpt lat="43.16764674244181" lon="12.949860708165424"><ele>751.0</ele><time>2026-04-04T09:40:22Z</time></trkpt><trkpt lat="43.16766736840824" lon="12.949717846655384"><ele>743.0</ele><time>2026-04-04T09:40:24Z</time></trkpt><trkpt lat="43.16771465702505" lon="12.94961980144208"><ele>735.0</ele><time>2026-04-04T09:40:26Z</time></trkpt><trkpt lat="43.16779788953058" lon="12.949526413400097"><ele>727.0</ele><time>2026-04-04T09:40:27Z</time></trkpt><trkpt lat="43.167899537220954" lon="12.949486835499874"><ele>719.0</ele><time>2026-04-04T09:40:29Z</time></trkpt><trkpt lat="43.16800718527878" lon="12.949323429304323"><ele>497.0</ele><time>2026-04-04T09:40:31Z</time></trkpt><trkpt lat="43.17249135604548" lon="12.9474511240114"><ele>496.99999999999994</ele><time>2026-04-04T09:41:37Z</time></trkpt><trkpt lat="43.17253649768237" lon="12.947385134316905"><ele>497.0</ele><time>2026-04-04T09:41:38Z</time></trkpt><trkpt lat="43.172609921797154" lon="12.947339918270886"><ele>497.0</ele><time>2026-04-04T09:41:39Z</time></trkpt><trkpt lat="43.1727059559575" lon="12.94727449069481"><ele>497.0</ele><time>2026-04-04T09:41:40Z</time></trkpt><trkpt lat="43.172761550179025" lon="12.947227333711115"><ele>496.99999999999994</ele><time>2026-04-04T09:41:41Z</time></trkpt><trkpt lat="43.17282790545518" lon="12.947185523984283"><ele>497.0</ele><time>2026-04-04T09:41:42Z</time></trkpt><trkpt lat="43.17291319836951" lon="12.94714218646531"><ele>496.99999999999994</ele><time>2026-04-04T09:41:43Z</time></trkpt><trkpt lat="43.17299693967934" lon="12.947120727158202"><ele>497.0</ele><time>2026-04-04T09:41:44Z</time></trkpt><trkpt lat="43.173062792782346" lon="12.947085914543331"><ele>497.0</ele><time>2026-04-04T09:41:45Z</time></trkpt><trkpt lat="43.17313353096036" lon="12.947009726541953"><ele>497.0</ele><time>2026-04-04T09:41:47Z</time></trkpt><trkpt lat="43.17320336369645" lon="12.946958338635046"><ele>496.99999999999994</ele><time>2026-04-04T09:41:48Z</time></trkpt><trkpt lat="43.17328433968707" lon="12.946913458784335"><ele>497.0</ele><time>2026-04-04T09:41:50Z</time></trkpt><trkpt lat="43.173356575094715" lon="12.946884644912585"><ele>495.3333333333333</ele><time>2026-04-04T09:41:55Z</time></trkpt><trkpt lat="43.173399048933206" lon="12.94681896361037"><ele>493.66666666666663</ele><time>2026-04-04T09:42:00Z</time></trkpt><trkpt lat="43.17344846331568" lon="12.946722662213427"><ele>492.0</ele><time>2026-04-04T09:42:04Z</time></trkpt><trkpt lat="43.17350932948085" lon="12.946642780374162"><ele>490.33333333333337</ele><time>2026-04-04T09:42:10Z</time></trkpt><trkpt lat="43.173480569277274" lon="12.946520121493412"><ele>488.6666666666667</ele><time>2026-04-04T09:42:12Z</time></trkpt><trkpt lat="43.17343460140089" lon="12.946417031910086"><ele>487.0</ele><time>2026-04-04T09:42:14Z</time></trkpt><trkpt lat="43.17342331006946" lon="12.94633182536293"><ele>492.33333333333337</ele><time>2026-04-04T09:42:15Z</time></trkpt><trkpt lat="43.17341283112615" lon="12.946246418290515"><ele>497.6666666666667</ele><time>2026-04-04T09:42:16Z</time></trkpt><trkpt lat="43.173398722121604" lon="12.946091509399823"><ele>503.0</ele><time>2026-04-04T09:42:18Z</time></trkpt><trkpt lat="43.17338708831191" lon="12.946001055258513"><ele>508.33333333333337</ele><time>2026-04-04T09:42:19Z</time></trkpt><trkpt lat="43.17337816876649" lon="12.94590769629123"><ele>513.6666666666666</ele><time>2026-04-04T09:42:20Z</time></trkpt><trkpt lat="43.17336136573377" lon="12.945815825806458"><ele>519.0</ele><time>2026-04-04T09:42:21Z</time></trkpt><trkpt lat="43.173342840423494" lon="12.945642952578808"><ele>526.3333333333334</ele><time>2026-04-04T09:42:23Z</time></trkpt><trkpt lat="43.173330973834545" lon="12.945492745306233"><ele>533.6666666666666</ele><time>2026-04-04T09:42:25Z</time></trkpt><trkpt lat="43.173299619465666" lon="12.945388847479295"><ele>541.0</ele><time>2026-04-04T09:42:28Z</time></trkpt><trkpt lat="43.17319235092003" lon="12.945394514992715"><ele>548.3333333333333</ele><time>2026-04-04T09:42:32Z</time></trkpt><trkpt lat="43.1731172389589" lon="12.945404579573506"><ele>555.6666666666666</ele><time>2026-04-04T09:42:35Z</time></trkpt><trkpt lat="43.17304698307202" lon="12.94542446633583"><ele>563.0</ele><time>2026-04-04T09:42:37Z</time></trkpt><trkpt lat="43.17294963447105" lon="12.945486554888777"><ele>563.0</ele><time>2026-04-04T09:42:39Z</time></trkpt><trkpt lat="43.17284858748446" lon="12.945555349284245"><ele>563.0</ele><time>2026-04-04T09:42:41Z</time></trkpt><trkpt lat="43.17273709458138" lon="12.94563478135466"><ele>563.0</ele><time>2026-04-04T09:42:43Z</time></trkpt><trkpt lat="43.17268120027538" lon="12.94570717747868"><ele>563.0</ele><time>2026-04-04T09:42:44Z</time></trkpt><trkpt lat="43.172633012913636" lon="12.945765764978045"><ele>563.0</ele><time>2026-04-04T09:42:45Z</time></trkpt><trkpt lat="43.17257765697097" lon="12.945813751090618"><ele>563.0</ele><time>2026-04-04T09:42:46Z</time></trkpt><trkpt lat="43.172507276517585" lon="12.945866065000232"><ele>565.6666666666666</ele><time>2026-04-04T09:42:47Z</time></trkpt><trkpt lat="43.17242987852961" lon="12.945905519363613"><ele>568.3333333333333</ele><time>2026-04-04T09:42:48Z</time></trkpt><trkpt lat="43.17233767368826" lon="12.945893516856632"><ele>571.0</ele><time>2026-04-04T09:42:49Z</time></trkpt><trkpt lat="43.17225997676429" lon="12.94585301351083"><ele>573.6666666666666</ele><time>2026-04-04T09:42:50Z</time></trkpt><trkpt lat="43.17220230415627" lon="12.94579987967796"><ele>576.3333333333334</ele><time>2026-04-04T09:42:51Z</time></trkpt><trkpt lat="43.17213720175888" lon="12.945720487683474"><ele>579.0</ele><time>2026-04-04T09:42:52Z</time></trkpt><trkpt lat="43.17207204756371" lon="12.945618370382816"><ele>579.0</ele><time>2026-04-04T09:42:53Z</time></trkpt><trkpt lat="43.1720186471727" lon="12.945485776950077"><ele>579.0</ele><time>2026-04-04T09:42:54Z</time></trkpt><trkpt lat="43.17194120925637" lon="12.945325639764961"><ele>579.0</ele><time>2026-04-04T09:42:55Z</time></trkpt><trkpt lat="43.171877439615876" lon="12.945155667591598"><ele>579.0</ele><time>2026-04-04T09:42:56Z</time></trkpt><trkpt lat="43.171819625399095" lon="12.945009570497675"><ele>585.0</ele><time>2026-04-04T09:42:57Z</time></trkpt><trkpt lat="43.171761887801054" lon="12.94488378803244"><ele>591.0</ele><time>2026-04-04T09:42:58Z</time></trkpt><trkpt lat="43.171707036188664" lon="12.944724075023547"><ele>597.0</ele><time>2026-04-04T09:42:59Z</time></trkpt><trkpt lat="43.17165443211306" lon="12.944565182309717"><ele>603.0</ele><time>2026-04-04T09:43:00Z</time></trkpt><trkpt lat="43.17162686642451" lon="12.944428377506688"><ele>603.0</ele><time>2026-04-04T09:43:01Z</time></trkpt><trkpt lat="43.171592566446044" lon="12.944295300825564"><ele>603.0</ele><time>2026-04-04T09:43:02Z</time></trkpt><trkpt lat="43.17155036953667" lon="12.944145144448694"><ele>603.0</ele><time>2026-04-04T09:43:03Z</time></trkpt><trkpt lat="43.171523375764984" lon="12.9439966418417"><ele>603.0</ele><time>2026-04-04T09:43:04Z</time></trkpt><trkpt lat="43.17149913445365" lon="12.943880569199335"><ele>603.0</ele><time>2026-04-04T09:43:05Z</time></trkpt><trkpt lat="43.17145331946794" lon="12.943779303090237"><ele>603.0</ele><time>2026-04-04T09:43:06Z</time></trkpt><trkpt lat="43.171422865755844" lon="12.943677981017395"><ele>603.0</ele><time>2026-04-04T09:43:07Z</time></trkpt><trkpt lat="43.17142176009566" lon="12.94358402601131"><ele>603.0</ele><time>2026-04-04T09:43:09Z</time></trkpt><trkpt lat="43.171464707473554" lon="12.943487971693964"><ele>603.0</ele><time>2026-04-04T09:43:11Z</time></trkpt><trkpt lat="43.171514484487375" lon="12.943379636806847"><ele>603.0</ele><time>2026-04-04T09:43:13Z</time></trkpt><trkpt lat="43.17153305160983" lon="12.943238262356807"><ele>603.0</ele><time>2026-04-04T09:43:15Z</time></trkpt><trkpt lat="43.17152531561625" lon="12.943095282372733"><ele>600.8333333333334</ele><time>2026-04-04T09:43:17Z</time></trkpt><trkpt lat="43.17149532082825" lon="12.94299884650812"><ele>598.6666666666666</ele><time>2026-04-04T09:43:18Z</time></trkpt><trkpt lat="43.17143027194709" lon="12.942865816537104"><ele>596.5</ele><time>2026-04-04T09:43:20Z</time></trkpt><trkpt lat="43.17139231418087" lon="12.942781340240298"><ele>594.3333333333333</ele><time>2026-04-04T09:43:21Z</time></trkpt><trkpt lat="43.171373305174946" lon="12.942675735083636"><ele>592.1666666666666</ele><time>2026-04-04T09:43:22Z</time></trkpt><trkpt lat="43.171353692637716" lon="12.942565013252095"><ele>590.0</ele><time>2026-04-04T09:43:23Z</time></trkpt><trkpt lat="43.17139643749418" lon="12.942441149899732"><ele>590.0</ele><time>2026-04-04T09:43:24Z</time></trkpt><trkpt lat="43.171353957553336" lon="12.942322901602468"><ele>590.0</ele><time>2026-04-04T09:43:26Z</time></trkpt><trkpt lat="43.17132336286857" lon="12.942235446294134"><ele>590.0</ele><time>2026-04-04T09:43:27Z</time></trkpt><trkpt lat="43.171294898170736" lon="12.942152088710213"><ele>590.0</ele><time>2026-04-04T09:43:28Z</time></trkpt><trkpt lat="43.17125641237724" lon="12.94202821436688"><ele>590.0</ele><time>2026-04-04T09:43:30Z</time></trkpt><trkpt lat="43.171232554229725" lon="12.941933052985231"><ele>590.0</ele><time>2026-04-04T09:43:31Z</time></trkpt><trkpt lat="43.17120855020067" lon="12.941828964243658"><ele>590.0000000000001</ele><time>2026-04-04T09:43:32Z</time></trkpt><trkpt lat="43.171186269470255" lon="12.941726258932922"><ele>590.0</ele><time>2026-04-04T09:43:33Z</time></trkpt><trkpt lat="43.17116718849563" lon="12.941638303203732"><ele>590.0</ele><time>2026-04-04T09:43:34Z</time></trkpt><trkpt lat="43.17114389466281" lon="12.941530928209486"><ele>590.0</ele><time>2026-04-04T09:43:36Z</time></trkpt><trkpt lat="43.17112243423122" lon="12.94143200410634"><ele>590.0</ele><time>2026-04-04T09:43:38Z</time></trkpt><trkpt lat="43.17109852856908" lon="12.941351107810393"><ele>590.0000000000001</ele><time>2026-04-04T09:44:00Z</time></trkpt><trkpt lat="43.17115940674032" lon="12.941317273342426"><ele>590.0</ele><time>2026-04-04T09:44:08Z</time></trkpt><trkpt lat="43.171153341985146" lon="12.941229019333877"><ele>589.5</ele><time>2026-04-04T09:44:15.001Z</time></trkpt><trkpt lat="43.17120353160477" lon="12.941162237792714"><ele>589.0</ele><time>2026-04-04T09:44:21.001Z</time></trkpt><trkpt lat="43.17117669629323" lon="12.9410454779566"><ele>588.5</ele><time>2026-04-04T09:44:23.001Z</time></trkpt><trkpt lat="43.1711504446046" lon="12.94095579513071"><ele>588.0</ele><time>2026-04-04T09:44:25.001Z</time></trkpt><trkpt lat="43.17108549536075" lon="12.94093484476552"><ele>587.5</ele><time>2026-04-04T09:44:29.001Z</time></trkpt><trkpt lat="43.17103432840765" lon="12.940883788111686"><ele>587.0</ele><time>2026-04-04T09:44:31.001Z</time></trkpt><trkpt lat="43.17095131425493" lon="12.940830755279821"><ele>586.6666666666666</ele><time>2026-04-04T09:44:34.001Z</time></trkpt><trkpt lat="43.17087605398128" lon="12.940799548950887"><ele>586.3333333333333</ele><time>2026-04-04T09:44:36.001Z</time></trkpt><trkpt lat="43.17078914327613" lon="12.940772742903487"><ele>586.0</ele><time>2026-04-04T09:44:38.001Z</time></trkpt><trkpt lat="43.17069801754939" lon="12.940720880052302"><ele>585.6666666666666</ele><time>2026-04-04T09:44:40.001Z</time></trkpt><trkpt lat="43.17059583851668" lon="12.940647553338646"><ele>585.3333333333334</ele><time>2026-04-04T09:44:42.001Z</time></trkpt><trkpt lat="43.17053588651577" lon="12.940613598598013"><ele>585.0</ele><time>2026-04-04T09:44:43.001Z</time></trkpt><trkpt lat="43.17043863054193" lon="12.940546438710006"><ele>588.2</ele><time>2026-04-04T09:44:45.001Z</time></trkpt><trkpt lat="43.170369227035195" lon="12.940510366924244"><ele>591.4</ele><time>2026-04-04T09:44:47.001Z</time></trkpt><trkpt lat="43.17028613669402" lon="12.94046356338185"><ele>594.6</ele><time>2026-04-04T09:44:49.001Z</time></trkpt><trkpt lat="43.170180743919126" lon="12.940389458813398"><ele>597.8</ele><time>2026-04-04T09:44:51.001Z</time></trkpt><trkpt lat="43.170073554315856" lon="12.940309255667927"><ele>601.0</ele><time>2026-04-04T09:44:53.001Z</time></trkpt><trkpt lat="43.1699574516598" lon="12.940230508864289"><ele>601.0</ele><time>2026-04-04T09:44:55.001Z</time></trkpt><trkpt lat="43.169862435744065" lon="12.94016439490569"><ele>601.0</ele><time>2026-04-04T09:44:57.001Z</time></trkpt><trkpt lat="43.16975337673146" lon="12.940085847789632"><ele>601.0</ele><time>2026-04-04T09:44:59.001Z</time></trkpt><trkpt lat="43.16970829784195" lon="12.939945908810408"><ele>601.0</ele><time>2026-04-04T09:45:01.001Z</time></trkpt><trkpt lat="43.169653770340325" lon="12.939894878905621"><ele>601.0</ele><time>2026-04-04T09:45:02.001Z</time></trkpt><trkpt lat="43.16958479238079" lon="12.939828137107575"><ele>604.5</ele><time>2026-04-04T09:45:03.001Z</time></trkpt><trkpt lat="43.16953008365079" lon="12.939770651383123"><ele>608.0</ele><time>2026-04-04T09:45:04.001Z</time></trkpt><trkpt lat="43.16944171018829" lon="12.939675153474722"><ele>611.5</ele><time>2026-04-04T09:45:06.001Z</time></trkpt><trkpt lat="43.169385308194485" lon="12.939617554165771"><ele>615.0</ele><time>2026-04-04T09:45:07.001Z</time></trkpt><trkpt lat="43.169319132318044" lon="12.939567503688016"><ele>618.5</ele><time>2026-04-04T09:45:08.001Z</time></trkpt><trkpt lat="43.16925448941768" lon="12.939522217329314"><ele>622.0</ele><time>2026-04-04T09:45:09.001Z</time></trkpt><trkpt lat="43.16919246188227" lon="12.939487681459099"><ele>622.0</ele><time>2026-04-04T09:45:10.001Z</time></trkpt><trkpt lat="43.169127470486146" lon="12.939449612068003"><ele>622.0</ele><time>2026-04-04T09:45:11.001Z</time></trkpt><trkpt lat="43.169052183016085" lon="12.939410127874215"><ele>622.0</ele><time>2026-04-04T09:45:12.001Z</time></trkpt><trkpt lat="43.16897087298488" lon="12.939372229734465"><ele>622.0</ele><time>2026-04-04T09:45:13.001Z</time></trkpt><trkpt lat="43.16888451457574" lon="12.939297051213739"><ele>622.0</ele><time>2026-04-04T09:45:14.001Z</time></trkpt><trkpt lat="43.16882282209209" lon="12.939261517312763"><ele>622.0</ele><time>2026-04-04T09:45:15.001Z</time></trkpt><trkpt lat="43.16868416703909" lon="12.93916288979757"><ele>628.0</ele><time>2026-04-04T09:45:17.001Z</time></trkpt><trkpt lat="43.168588834599" lon="12.939083202854858"><ele>634.0</ele><time>2026-04-04T09:45:18.001Z</time></trkpt><trkpt lat="43.168519126037644" lon="12.939034798720742"><ele>640.0</ele><time>2026-04-04T09:45:19.001Z</time></trkpt><trkpt lat="43.16844258486044" lon="12.938998612121253"><ele>646.0</ele><time>2026-04-04T09:45:20.001Z</time></trkpt><trkpt lat="43.16837962835994" lon="12.938978778964838"><ele>652.0</ele><time>2026-04-04T09:45:21.001Z</time></trkpt><trkpt lat="43.16831800527328" lon="12.938961085720054"><ele>658.0</ele><time>2026-04-04T09:45:22.001Z</time></trkpt><trkpt lat="43.16824074725501" lon="12.938938330880115"><ele>662.5999999999999</ele><time>2026-04-04T09:45:23.001Z</time></trkpt><trkpt lat="43.16815045361796" lon="12.938891604992461"><ele>667.1999999999999</ele><time>2026-04-04T09:45:24.001Z</time></trkpt><trkpt lat="43.16807085059353" lon="12.938838434140585"><ele>671.8</ele><time>2026-04-04T09:45:25.001Z</time></trkpt><trkpt lat="43.16797250278404" lon="12.938787055427206"><ele>676.4</ele><time>2026-04-04T09:45:26.001Z</time></trkpt><trkpt lat="43.16789010259135" lon="12.938760052009522"><ele>681.0</ele><time>2026-04-04T09:45:27.001Z</time></trkpt><trkpt lat="43.1678043116247" lon="12.938744123568132"><ele>681.0</ele><time>2026-04-04T09:45:28.001Z</time></trkpt><trkpt lat="43.16772005860198" lon="12.9387199232648"><ele>681.0</ele><time>2026-04-04T09:45:29.001Z</time></trkpt><trkpt lat="43.167641262196064" lon="12.93869876953624"><ele>681.0</ele><time>2026-04-04T09:45:30.001Z</time></trkpt><trkpt lat="43.16756075103541" lon="12.9386667507001"><ele>681.0</ele><time>2026-04-04T09:45:31.001Z</time></trkpt><trkpt lat="43.16748182487609" lon="12.938638120577172"><ele>681.0</ele><time>2026-04-04T09:45:32.001Z</time></trkpt><trkpt lat="43.167394282248466" lon="12.938611895769894"><ele>681.0</ele><time>2026-04-04T09:45:33.001Z</time></trkpt><trkpt lat="43.16730379324552" lon="12.938576682653931"><ele>686.4</ele><time>2026-04-04T09:45:34.001Z</time></trkpt><trkpt lat="43.1672233135177" lon="12.938545304139593"><ele>691.8</ele><time>2026-04-04T09:45:35.001Z</time></trkpt><trkpt lat="43.16714494578182" lon="12.938523293340934"><ele>697.1999999999999</ele><time>2026-04-04T09:45:36.001Z</time></trkpt><trkpt lat="43.167065526841796" lon="12.938527369786073"><ele>702.5999999999999</ele><time>2026-04-04T09:45:37.001Z</time></trkpt><trkpt lat="43.16696288603373" lon="12.938552380718615"><ele>708.0</ele><time>2026-04-04T09:45:39Z</time></trkpt><trkpt lat="43.16685149471799" lon="12.938544404494325"><ele>708.0</ele><time>2026-04-04T09:45:41Z</time></trkpt><trkpt lat="43.1667225590218" lon="12.938529462079677"><ele>708.0</ele><time>2026-04-04T09:45:43Z</time></trkpt><trkpt lat="43.16665513921799" lon="12.93851911822096"><ele>708.0</ele><time>2026-04-04T09:45:44Z</time></trkpt><trkpt lat="43.16651899834031" lon="12.938488000592578"><ele>708.0</ele><time>2026-04-04T09:45:46Z</time></trkpt><trkpt lat="43.166430740352055" lon="12.938476678045252"><ele>708.0</ele><time>2026-04-04T09:45:47Z</time></trkpt><trkpt lat="43.1663467977405" lon="12.938470128695446"><ele>715.4</ele><time>2026-04-04T09:45:48Z</time></trkpt><trkpt lat="43.16626402583084" lon="12.938468788444192"><ele>722.8</ele><time>2026-04-04T09:45:49Z</time></trkpt><trkpt lat="43.16611614921632" lon="12.938483994984843"><ele>730.2</ele><time>2026-04-04T09:45:51Z</time></trkpt><trkpt lat="43.16602485465127" lon="12.938489859554178"><ele>737.6</ele><time>2026-04-04T09:45:52Z</time></trkpt><trkpt lat="43.16595176559609" lon="12.938503535770714"><ele>745.0</ele><time>2026-04-04T09:45:53Z</time></trkpt><trkpt lat="43.1658415570611" lon="12.93854079759582"><ele>745.0</ele><time>2026-04-04T09:45:55Z</time></trkpt><trkpt lat="43.16576601783805" lon="12.938556229421382"><ele>745.0</ele><time>2026-04-04T09:45:57Z</time></trkpt><trkpt lat="43.16569489233613" lon="12.938550723526525"><ele>745.0</ele><time>2026-04-04T09:45:59Z</time></trkpt><trkpt lat="43.16561434193598" lon="12.938520936248642"><ele>745.0</ele><time>2026-04-04T09:46:01Z</time></trkpt><trkpt lat="43.165531120019025" lon="12.938498286338936"><ele>745.0</ele><time>2026-04-04T09:46:03Z</time></trkpt><trkpt lat="43.16543033226533" lon="12.938456088400338"><ele>745.0</ele><time>2026-04-04T09:46:05Z</time></trkpt><trkpt lat="43.1653360881548" lon="12.938433486840292"><ele>752.3333333333334</ele><time>2026-04-04T09:46:07Z</time></trkpt><trkpt lat="43.165252815977716" lon="12.938428275995188"><ele>759.6666666666667</ele><time>2026-04-04T09:46:09Z</time></trkpt><trkpt lat="43.165153857415696" lon="12.938418627540116"><ele>767.0</ele><time>2026-04-04T09:46:12Z</time></trkpt><trkpt lat="43.16505452089444" lon="12.938425632497673"><ele>774.3333333333334</ele><time>2026-04-04T09:46:15Z</time></trkpt><trkpt lat="43.16497702104797" lon="12.93843892878797"><ele>781.6666666666666</ele><time>2026-04-04T09:46:19Z</time></trkpt><trkpt lat="43.16493199845782" lon="12.938368051778992"><ele>789.0</ele><time>2026-04-04T09:46:33Z</time></trkpt><trkpt lat="43.16484385810852" lon="12.938344195750323"><ele>795.5</ele><time>2026-04-04T09:46:39Z</time></trkpt><trkpt lat="43.16475575988842" lon="12.938368158689148"><ele>802.0</ele><time>2026-04-04T09:46:43Z</time></trkpt><trkpt lat="43.1647012183638" lon="12.938315855367964"><ele>808.5</ele><time>2026-04-04T09:46:53Z</time></trkpt><trkpt lat="43.164711299324516" lon="12.93817482589156"><ele>815.0</ele><time>2026-04-04T09:47:07Z</time></trkpt><trkpt lat="43.16468063346989" lon="12.93809848646336"><ele>821.5</ele><time>2026-04-04T09:47:18Z</time></trkpt><trkpt lat="43.16463066102546" lon="12.938028431360552"><ele>828.0</ele><time>2026-04-04T09:47:33Z</time></trkpt><trkpt lat="43.1645985715217" lon="12.937946669214506"><ele>828.0</ele><time>2026-04-04T09:47:41Z</time></trkpt><trkpt lat="43.16456351763147" lon="12.937864911185853"><ele>828.0</ele><time>2026-04-04T09:48:07Z</time></trkpt><trkpt lat="43.164535720895" lon="12.937784494439358"><ele>828.0</ele><time>2026-04-04T09:48:16Z</time></trkpt><trkpt lat="43.16451051459583" lon="12.937669402685954"><ele>828.0</ele><time>2026-04-04T09:48:22Z</time></trkpt><trkpt lat="43.164521509657874" lon="12.937584111039728"><ele>828.0</ele><time>2026-04-04T09:48:24Z</time></trkpt><trkpt lat="43.16454863728639" lon="12.937472064762943"><ele>828.0</ele><time>2026-04-04T09:48:29.001Z</time></trkpt><trkpt lat="43.1645974552082" lon="12.937385667951151"><ele>831.5999999999999</ele><time>2026-04-04T09:48:32.001Z</time></trkpt><trkpt lat="43.16462518041521" lon="12.937301295187815"><ele>835.1999999999999</ele><time>2026-04-04T09:48:35.001Z</time></trkpt><trkpt lat="43.164673415324664" lon="12.93721831377502"><ele>838.8</ele><time>2026-04-04T09:48:39.001Z</time></trkpt><trkpt lat="43.164729139924965" lon="12.937102180504517"><ele>842.4</ele><time>2026-04-04T09:48:42.001Z</time></trkpt><trkpt lat="43.16478185354546" lon="12.936959714476002"><ele>846.0</ele><time>2026-04-04T09:48:44.001Z</time></trkpt><trkpt lat="43.1648326902651" lon="12.93683071579642"><ele>845.0</ele><time>2026-04-04T09:48:46.001Z</time></trkpt><trkpt lat="43.16487971713933" lon="12.936732506352742"><ele>844.0</ele><time>2026-04-04T09:48:48.001Z</time></trkpt><trkpt lat="43.16489458556054" lon="12.936639845352166"><ele>843.0</ele><time>2026-04-04T09:48:51.001Z</time></trkpt><trkpt lat="43.16490388702239" lon="12.93654231480236"><ele>842.0</ele><time>2026-04-04T09:48:53.001Z</time></trkpt><trkpt lat="43.1650296676517" lon="12.936485856520484"><ele>841.0</ele><time>2026-04-04T09:49:18.001Z</time></trkpt><trkpt lat="43.165052436616335" lon="12.936363951987676"><ele>840.9999999999999</ele><time>2026-04-04T09:49:20.001Z</time></trkpt><trkpt lat="43.16505742141864" lon="12.936264044247897"><ele>841.0</ele><time>2026-04-04T09:49:22.001Z</time></trkpt><trkpt lat="43.165076843229635" lon="12.936170776469348"><ele>841.0</ele><time>2026-04-04T09:49:24.001Z</time></trkpt><trkpt lat="43.165086766374515" lon="12.936071003838379"><ele>841.0</ele><time>2026-04-04T09:49:26.001Z</time></trkpt><trkpt lat="43.16513537697273" lon="12.936005793926663"><ele>840.9999999999999</ele><time>2026-04-04T09:49:28.001Z</time></trkpt><trkpt lat="43.16508877919909" lon="12.935795514127468"><ele>841.0</ele><time>2026-04-04T09:49:30.001Z</time></trkpt><trkpt lat="43.165144569594" lon="12.935713556192983"><ele>845.1666666666666</ele><time>2026-04-04T09:49:33.001Z</time></trkpt><trkpt lat="43.165190790392735" lon="12.93562098417751"><ele>849.3333333333333</ele><time>2026-04-04T09:49:35.001Z</time></trkpt><trkpt lat="43.16523364150907" lon="12.935540370488985"><ele>853.5</ele><time>2026-04-04T09:49:37.001Z</time></trkpt><trkpt lat="43.16530391441272" lon="12.935482947429362"><ele>857.6666666666667</ele><time>2026-04-04T09:49:39.001Z</time></trkpt><trkpt lat="43.16536893863983" lon="12.935412019568025"><ele>861.8333333333334</ele><time>2026-04-04T09:49:41.001Z</time></trkpt><trkpt lat="43.16545977358799" lon="12.935329401612439"><ele>866.0</ele><time>2026-04-04T09:49:43.001Z</time></trkpt><trkpt lat="43.165523637301064" lon="12.935259391405829"><ele>866.0</ele><time>2026-04-04T09:49:45.001Z</time></trkpt><trkpt lat="43.165625128205484" lon="12.93518667071857"><ele>865.9999999999999</ele><time>2026-04-04T09:49:47.001Z</time></trkpt><trkpt lat="43.16572077969357" lon="12.935126452927696"><ele>865.9999999999999</ele><time>2026-04-04T09:49:49.001Z</time></trkpt><trkpt lat="43.165794281212385" lon="12.935102300323054"><ele>866.0</ele><time>2026-04-04T09:49:50.001Z</time></trkpt><trkpt lat="43.16586381376372" lon="12.935061904107355"><ele>866.0</ele><time>2026-04-04T09:49:51.001Z</time></trkpt><trkpt lat="43.16593656559824" lon="12.935020460795235"><ele>868.8</ele><time>2026-04-04T09:49:52.001Z</time></trkpt><trkpt lat="43.16599840897574" lon="12.934986061611292"><ele>871.5999999999999</ele><time>2026-04-04T09:49:53.001Z</time></trkpt><trkpt lat="43.16612795636285" lon="12.934918812838314"><ele>874.4</ele><time>2026-04-04T09:49:55.001Z</time></trkpt><trkpt lat="43.16624162133615" lon="12.934862464150843"><ele>877.2</ele><time>2026-04-04T09:49:57.001Z</time></trkpt><trkpt lat="43.16631112027696" lon="12.934828850121109"><ele>880.0</ele><time>2026-04-04T09:49:58.001Z</time></trkpt><trkpt lat="43.16638654176537" lon="12.934765394192826"><ele>879.9999999999999</ele><time>2026-04-04T09:50:00.001Z</time></trkpt><trkpt lat="43.1664498687354" lon="12.934723543417102"><ele>880.0</ele><time>2026-04-04T09:50:02.001Z</time></trkpt><trkpt lat="43.1665078643983" lon="12.93468456882417"><ele>880.0</ele><time>2026-04-04T09:50:04.001Z</time></trkpt><trkpt lat="43.166616192662765" lon="12.934680095341758"><ele>880.0</ele><time>2026-04-04T09:50:09.001Z</time></trkpt><trkpt lat="43.16669579586475" lon="12.934640198159942"><ele>879.9999999999999</ele><time>2026-04-04T09:50:14.001Z</time></trkpt><trkpt lat="43.16675830648159" lon="12.934608867727098"><ele>880.0</ele><time>2026-04-04T09:50:16.001Z</time></trkpt><trkpt lat="43.16682726974606" lon="12.934574303220613"><ele>880.0</ele><time>2026-04-04T09:50:18.001Z</time></trkpt><trkpt lat="43.16691648740987" lon="12.934508474991214"><ele>880.0</ele><time>2026-04-04T09:50:20.001Z</time></trkpt><trkpt lat="43.1670367526917" lon="12.93446344441122"><ele>880.0</ele><time>2026-04-04T09:50:23.001Z</time></trkpt><trkpt lat="43.167114383056926" lon="12.934389082511585"><ele>880.0</ele><time>2026-04-04T09:50:26.001Z</time></trkpt><trkpt lat="43.1675240928247" lon="12.933518996710019"><ele>931.0</ele><time>2026-04-04T09:50:27.001Z</time></trkpt><trkpt lat="43.166965485238116" lon="12.933331907840733"><ele>931.0</ele><time>2026-04-04T09:50:30.001Z</time></trkpt><trkpt lat="43.16704121699731" lon="12.933289196802994"><ele>930.9999999999999</ele><time>2026-04-04T09:50:32.001Z</time></trkpt><trkpt lat="43.16712504679374" lon="12.933236335930397"><ele>930.9999999999999</ele><time>2026-04-04T09:50:34.001Z</time></trkpt><trkpt lat="43.16719326244907" lon="12.933191395289752"><ele>931.0</ele><time>2026-04-04T09:50:36.001Z</time></trkpt><trkpt lat="43.167285406985506" lon="12.933152443738138"><ele>931.0</ele><time>2026-04-04T09:50:38.001Z</time></trkpt><trkpt lat="43.167380278852285" lon="12.933096170361793"><ele>920.0</ele><time>2026-04-04T09:50:40.001Z</time></trkpt><trkpt lat="43.16751312919537" lon="12.933068210723269"><ele>909.0</ele><time>2026-04-04T09:50:42.001Z</time></trkpt><trkpt lat="43.16763716080888" lon="12.933056424761881"><ele>898.0</ele><time>2026-04-04T09:50:44.001Z</time></trkpt><trkpt lat="43.1700111256251" lon="12.93245099488759"><ele>895.8333333333333</ele><time>2026-04-04T09:51:17.001Z</time></trkpt><trkpt lat="43.17006150007067" lon="12.932394961858815"><ele>893.6666666666666</ele><time>2026-04-04T09:51:20.001Z</time></trkpt><trkpt lat="43.17012293742297" lon="12.932362566070799"><ele>891.5</ele><time>2026-04-04T09:51:27.001Z</time></trkpt><trkpt lat="43.17017176517015" lon="12.932307473767034"><ele>889.3333333333333</ele><time>2026-04-04T09:51:30.001Z</time></trkpt><trkpt lat="43.17022659529623" lon="12.932259600712703"><ele>887.1666666666666</ele><time>2026-04-04T09:51:35.001Z</time></trkpt><trkpt lat="43.1703859814238" lon="12.93224768684792"><ele>885.0</ele><time>2026-04-04T09:52:00.001Z</time></trkpt><trkpt lat="43.1704546163007" lon="12.932206789354487"><ele>885.0</ele><time>2026-04-04T09:52:06.001Z</time></trkpt><trkpt lat="43.1705216197467" lon="12.932016651573823"><ele>885.0</ele><time>2026-04-04T09:52:10.001Z</time></trkpt><trkpt lat="43.170499382165865" lon="12.931925049785809"><ele>885.0</ele><time>2026-04-04T09:52:12Z</time></trkpt><trkpt lat="43.17044953741276" lon="12.931865899750298"><ele>885.0</ele><time>2026-04-04T09:52:14Z</time></trkpt><trkpt lat="43.17038392494616" lon="12.931799013556027"><ele>885.0</ele><time>2026-04-04T09:52:16Z</time></trkpt><trkpt lat="43.17034681917167" lon="12.931685997583243"><ele>889.8</ele><time>2026-04-04T09:52:18Z</time></trkpt><trkpt lat="43.170307725154345" lon="12.931539854263617"><ele>894.6</ele><time>2026-04-04T09:52:20Z</time></trkpt><trkpt lat="43.17026725027072" lon="12.931369717909268"><ele>899.4000000000001</ele><time>2026-04-04T09:52:22Z</time></trkpt><trkpt lat="43.170197327474305" lon="12.931213472187915"><ele>904.2</ele><time>2026-04-04T09:52:24Z</time></trkpt><trkpt lat="43.17016273371614" lon="12.93113472510819"><ele>909.0</ele><time>2026-04-04T09:52:25Z</time></trkpt><trkpt lat="43.17012505876686" lon="12.931052063829341"><ele>909.0</ele><time>2026-04-04T09:52:26Z</time></trkpt><trkpt lat="43.169913719500066" lon="12.931045800682815"><ele>909.0</ele><time>2026-04-04T09:52:27Z</time></trkpt><trkpt lat="43.16988868079193" lon="12.93095678172981"><ele>909.0</ele><time>2026-04-04T09:52:28Z</time></trkpt><trkpt lat="43.16984436257272" lon="12.930817096986557"><ele>909.0</ele><time>2026-04-04T09:52:30Z</time></trkpt><trkpt lat="43.16978163239306" lon="12.930659304556986"><ele>915.0</ele><time>2026-04-04T09:52:32Z</time></trkpt><trkpt lat="43.16971688025042" lon="12.930527312034803"><ele>921.0000000000001</ele><time>2026-04-04T09:52:34Z</time></trkpt><trkpt lat="43.16963279948029" lon="12.93040505259145"><ele>927.0000000000001</ele><time>2026-04-04T09:52:36Z</time></trkpt><trkpt lat="43.169580596876806" lon="12.930356265671048"><ele>933.0</ele><time>2026-04-04T09:52:37Z</time></trkpt><trkpt lat="43.16952499076728" lon="12.930314234864838"><ele>939.0</ele><time>2026-04-04T09:52:38Z</time></trkpt><trkpt lat="43.16943608597119" lon="12.93024703405465"><ele>939.0</ele><time>2026-04-04T09:52:41Z</time></trkpt><trkpt lat="43.16936561980946" lon="12.930193090626599"><ele>939.0</ele><time>2026-04-04T09:52:42Z</time></trkpt><trkpt lat="43.16929090924073" lon="12.930135191902894"><ele>939.0</ele><time>2026-04-04T09:52:43Z</time></trkpt><trkpt lat="43.169221917153806" lon="12.930081724682422"><ele>939.0</ele><time>2026-04-04T09:52:44Z</time></trkpt><trkpt lat="43.1691603080229" lon="12.93001068083063"><ele>939.0</ele><time>2026-04-04T09:52:45Z</time></trkpt><trkpt lat="43.169083700410084" lon="12.929974610223102"><ele>939.0</ele><time>2026-04-04T09:52:46Z</time></trkpt><trkpt lat="43.16902602889456" lon="12.929927870648049"><ele>940.5</ele><time>2026-04-04T09:52:47Z</time></trkpt><trkpt lat="43.16897623361166" lon="12.929862276682153"><ele>942.0</ele><time>2026-04-04T09:52:48Z</time></trkpt><trkpt lat="43.168888047332814" lon="12.929816282269371"><ele>943.5</ele><time>2026-04-04T09:52:50Z</time></trkpt><trkpt lat="43.168817922744495" lon="12.929747055154099"><ele>945.0</ele><time>2026-04-04T09:52:52Z</time></trkpt><trkpt lat="43.16890026110508" lon="12.929440161632208"><ele>945.0</ele><time>2026-04-04T09:52:56Z</time></trkpt><trkpt lat="43.16890036339106" lon="12.92934383807957"><ele>945.0</ele><time>2026-04-04T09:53:01Z</time></trkpt><trkpt lat="43.16889272295565" lon="12.92925808184951"><ele>945.0</ele><time>2026-04-04T09:53:04Z</time></trkpt><trkpt lat="43.168876097542366" lon="12.929137974716236"><ele>945.0</ele><time>2026-04-04T09:53:08Z</time></trkpt><trkpt lat="43.168899327227365" lon="12.929030519390214"><ele>945.0</ele><time>2026-04-04T09:53:11Z</time></trkpt><trkpt lat="43.16891738001796" lon="12.928924294046213"><ele>945.0</ele><time>2026-04-04T09:53:14Z</time></trkpt><trkpt lat="43.16892668028799" lon="12.928835346064298"><ele>945.0</ele><time>2026-04-04T09:53:16Z</time></trkpt><trkpt lat="43.168905280300415" lon="12.928716979261816"><ele>942.1666666666666</ele><time>2026-04-04T09:53:19Z</time></trkpt><trkpt lat="43.16889869355697" lon="12.928612227627001"><ele>939.3333333333333</ele><time>2026-04-04T09:53:22Z</time></trkpt><trkpt lat="43.16895111524794" lon="12.928558124063592"><ele>936.5</ele><time>2026-04-04T09:53:26Z</time></trkpt><trkpt lat="43.16888832787593" lon="12.928494686601402"><ele>933.6666666666666</ele><time>2026-04-04T09:53:36Z</time></trkpt><trkpt lat="43.16882067988145" lon="12.928481280408288"><ele>930.8333333333333</ele><time>2026-04-04T09:53:39Z</time></trkpt><trkpt lat="43.16872483612767" lon="12.928474497787892"><ele>928.0</ele><time>2026-04-04T09:53:42Z</time></trkpt><trkpt lat="43.1686519460512" lon="12.928464915104698"><ele>927.9999999999999</ele><time>2026-04-04T09:53:44Z</time></trkpt><trkpt lat="43.1685704684887" lon="12.928443358278539"><ele>928.0</ele><time>2026-04-04T09:53:50Z</time></trkpt><trkpt lat="43.168493471553376" lon="12.928402086835721"><ele>928.0</ele><time>2026-04-04T09:53:52Z</time></trkpt><trkpt lat="43.16843163857885" lon="12.92835500524622"><ele>928.0</ele><time>2026-04-04T09:53:54Z</time></trkpt><trkpt lat="43.168353025015236" lon="12.928297801294633"><ele>927.9999999999999</ele><time>2026-04-04T09:53:57Z</time></trkpt><trkpt lat="43.16824943137729" lon="12.928319521207275"><ele>928.0</ele><time>2026-04-04T09:54:01Z</time></trkpt><trkpt lat="43.1681224812825" lon="12.928342923668671"><ele>928.4</ele><time>2026-04-04T09:54:03Z</time></trkpt><trkpt lat="43.16806280887424" lon="12.928370841219103"><ele>928.8</ele><time>2026-04-04T09:54:04Z</time></trkpt><trkpt lat="43.16802623099374" lon="12.928474944187748"><ele>929.2</ele><time>2026-04-04T09:54:07Z</time></trkpt><trkpt lat="43.167938447076054" lon="12.928516393385241"><ele>929.6</ele><time>2026-04-04T09:54:09Z</time></trkpt><trkpt lat="43.16807221256408" lon="12.928664858991723"><ele>930.0</ele><time>2026-04-04T09:54:11Z</time></trkpt><trkpt lat="43.16797866935888" lon="12.9286619094625"><ele>934.6</ele><time>2026-04-04T09:54:12Z</time></trkpt><trkpt lat="43.167991920921445" lon="12.928775912748597"><ele>939.2</ele><time>2026-04-04T09:54:15Z</time></trkpt><trkpt lat="43.167894650625165" lon="12.928799385027698"><ele>943.8</ele><time>2026-04-04T09:54:17Z</time></trkpt><trkpt lat="43.16780217035774" lon="12.928794328916933"><ele>948.4</ele><time>2026-04-04T09:54:18Z</time></trkpt><trkpt lat="43.167713961776414" lon="12.92881228766464"><ele>953.0</ele><time>2026-04-04T09:54:19Z</time></trkpt><trkpt lat="43.167554961910085" lon="12.928957616448391"><ele>953.0</ele><time>2026-04-04T09:54:20Z</time></trkpt><trkpt lat="43.16763388580647" lon="12.928995834618089"><ele>953.0</ele><time>2026-04-04T09:54:24Z</time></trkpt><trkpt lat="43.16799515369022" lon="12.929237794465372"><ele>953.0</ele><time>2026-04-04T09:54:26Z</time></trkpt><trkpt lat="43.167894624665664" lon="12.929177557109709"><ele>953.0</ele><time>2026-04-04T09:54:36Z</time></trkpt><trkpt lat="43.16786392945301" lon="12.929315308297875"><ele>953.0</ele><time>2026-04-04T09:54:38Z</time></trkpt><trkpt lat="43.167832838090085" lon="12.929429619613042"><ele>953.0</ele><time>2026-04-04T09:54:40Z</time></trkpt><trkpt lat="43.16778028035165" lon="12.929625506149128"><ele>958.5</ele><time>2026-04-04T09:54:46Z</time></trkpt><trkpt lat="43.16773029140868" lon="12.929738209466077"><ele>964.0</ele><time>2026-04-04T09:54:48Z</time></trkpt><trkpt lat="43.16781636727751" lon="12.929693522049323"><ele>969.5</ele><time>2026-04-04T09:54:50Z</time></trkpt><trkpt lat="43.16795343582656" lon="12.929576800229603"><ele>975.0</ele><time>2026-04-04T09:54:51Z</time></trkpt><trkpt lat="43.16808175221765" lon="12.929476370014822"><ele>975.0</ele><time>2026-04-04T09:54:52Z</time></trkpt><trkpt lat="43.16802046317748" lon="12.929529453269037"><ele>975.0</ele><time>2026-04-04T09:54:53Z</time></trkpt><trkpt lat="43.167922883258115" lon="12.929659303505767"><ele>975.0</ele><time>2026-04-04T09:54:56Z</time></trkpt><trkpt lat="43.16788439117423" lon="12.92976019446553"><ele>975.0</ele><time>2026-04-04T09:54:57Z</time></trkpt><trkpt lat="43.16782661284124" lon="12.929865281519994"><ele>975.0</ele><time>2026-04-04T09:54:59Z</time></trkpt><trkpt lat="43.16779017394737" lon="12.93001021781818"><ele>975.0</ele><time>2026-04-04T09:55:01Z</time></trkpt><trkpt lat="43.16763019889669" lon="12.930385743578267"><ele>975.0</ele><time>2026-04-04T09:55:10.412Z</time></trkpt><trkpt lat="43.172512526266026" lon="12.928123500728065"><ele>939.1666666666666</ele><time>2026-04-04T09:55:36Z</time></trkpt><trkpt lat="43.17246962926344" lon="12.928194323457086"><ele>903.3333333333334</ele><time>2026-04-04T09:55:58Z</time></trkpt><trkpt lat="43.172478715126275" lon="12.928281401660639"><ele>867.5</ele><time>2026-04-04T09:56:00Z</time></trkpt><trkpt lat="43.17248690093981" lon="12.9283890944824"><ele>831.6666666666667</ele><time>2026-04-04T09:56:02Z</time></trkpt><trkpt lat="43.17250708760476" lon="12.92849083725103"><ele>795.8333333333334</ele><time>2026-04-04T09:56:04Z</time></trkpt><trkpt lat="43.172526353037966" lon="12.928624836575848"><ele>760.0</ele><time>2026-04-04T09:56:06Z</time></trkpt><trkpt lat="43.17256982520284" lon="12.928736550531951"><ele>760.0</ele><time>2026-04-04T09:56:08Z</time></trkpt><trkpt lat="43.17263268264998" lon="12.928803958617955"><ele>760.0</ele><time>2026-04-04T09:56:10Z</time></trkpt><trkpt lat="43.172727956009524" lon="12.928830737533657"><ele>760.0</ele><time>2026-04-04T09:56:12Z</time></trkpt><trkpt lat="43.17293593367001" lon="12.928844349989616"><ele>760.0</ele><time>2026-04-04T09:56:16Z</time></trkpt><trkpt lat="43.17301932090981" lon="12.92895496158966"><ele>760.0</ele><time>2026-04-04T09:56:18Z</time></trkpt><trkpt lat="43.1731183443557" lon="12.929045762933773"><ele>760.0</ele><time>2026-04-04T09:56:20Z</time></trkpt><trkpt lat="43.17322937304432" lon="12.929116480345721"><ele>760.0</ele><time>2026-04-04T09:56:22Z</time></trkpt><trkpt lat="43.173289800059756" lon="12.929149442222464"><ele>760.0</ele><time>2026-04-04T09:56:23Z</time></trkpt><trkpt lat="43.17335045525972" lon="12.929181763698313"><ele>760.0</ele><time>2026-04-04T09:56:24Z</time></trkpt><trkpt lat="43.173455661701816" lon="12.929262756970429"><ele>761.5</ele><time>2026-04-04T09:56:26Z</time></trkpt><trkpt lat="43.17351267140664" lon="12.929312638774856"><ele>763.0</ele><time>2026-04-04T09:56:27Z</time></trkpt><trkpt lat="43.173563930494815" lon="12.929363203514477"><ele>764.5</ele><time>2026-04-04T09:56:28Z</time></trkpt><trkpt lat="43.17366471160642" lon="12.929449034811277"><ele>766.0</ele><time>2026-04-04T09:56:30Z</time></trkpt><trkpt lat="43.17372335160786" lon="12.929495403421095"><ele>767.4999999999999</ele><time>2026-04-04T09:56:31Z</time></trkpt><trkpt lat="43.17382096655616" lon="12.929569212692199"><ele>769.0</ele><time>2026-04-04T09:56:33Z</time></trkpt><trkpt lat="43.17391011131932" lon="12.929646292090473"><ele>768.9999999999999</ele><time>2026-04-04T09:56:35Z</time></trkpt><trkpt lat="43.17397867658642" lon="12.92968314248044"><ele>769.0</ele><time>2026-04-04T09:56:36Z</time></trkpt><trkpt lat="43.174047582573245" lon="12.929724725137502"><ele>769.0</ele><time>2026-04-04T09:56:37Z</time></trkpt><trkpt lat="43.17412080502619" lon="12.929751191364923"><ele>769.0</ele><time>2026-04-04T09:56:38Z</time></trkpt><trkpt lat="43.17419088247717" lon="12.929773394830963"><ele>768.9999999999999</ele><time>2026-04-04T09:56:39Z</time></trkpt><trkpt lat="43.174268796115314" lon="12.929789222341856"><ele>769.0</ele><time>2026-04-04T09:56:40Z</time></trkpt><trkpt lat="43.17433581444777" lon="12.929845408394028"><ele>763.8000000000001</ele><time>2026-04-04T09:56:41Z</time></trkpt><trkpt lat="43.174420938537345" lon="12.929881022289338"><ele>758.6</ele><time>2026-04-04T09:56:42Z</time></trkpt><trkpt lat="43.17450005958028" lon="12.929931213346459"><ele>753.4</ele><time>2026-04-04T09:56:43Z</time></trkpt><trkpt lat="43.174580635877945" lon="12.9299693856376"><ele>748.2</ele><time>2026-04-04T09:56:44Z</time></trkpt><trkpt lat="43.1746915039453" lon="12.929999974144216"><ele>743.0</ele><time>2026-04-04T09:56:45Z</time></trkpt><trkpt lat="43.17478258571423" lon="12.930031768736642"><ele>744.8</ele><time>2026-04-04T09:56:46Z</time></trkpt><trkpt lat="43.17488923512037" lon="12.930080781449776"><ele>746.5999999999999</ele><time>2026-04-04T09:56:47Z</time></trkpt><trkpt lat="43.17498664065251" lon="12.930126920030162"><ele>748.4000000000001</ele><time>2026-04-04T09:56:48Z</time></trkpt><trkpt lat="43.17506629702223" lon="12.930156468958906"><ele>750.2</ele><time>2026-04-04T09:56:49Z</time></trkpt><trkpt lat="43.17515064207472" lon="12.930195470140989"><ele>752.0</ele><time>2026-04-04T09:56:50Z</time></trkpt><trkpt lat="43.17523474892802" lon="12.93025148464303"><ele>752.0</ele><time>2026-04-04T09:56:51Z</time></trkpt><trkpt lat="43.175299676482204" lon="12.930298448875922"><ele>752.0</ele><time>2026-04-04T09:56:52Z</time></trkpt><trkpt lat="43.175374199628195" lon="12.930358178807703"><ele>752.0</ele><time>2026-04-04T09:56:53Z</time></trkpt><trkpt lat="43.17544719421044" lon="12.930417381859503"><ele>752.0</ele><time>2026-04-04T09:56:54Z</time></trkpt><trkpt lat="43.1755130853259" lon="12.930464620616942"><ele>752.0</ele><time>2026-04-04T09:56:55Z</time></trkpt><trkpt lat="43.17556887093906" lon="12.930511863482813"><ele>752.0</ele><time>2026-04-04T09:56:56Z</time></trkpt><trkpt lat="43.17565982397279" lon="12.930586200962574"><ele>748.2</ele><time>2026-04-04T09:56:58Z</time></trkpt><trkpt lat="43.17576825800264" lon="12.930670954893996"><ele>744.4000000000001</ele><time>2026-04-04T09:57:00Z</time></trkpt><trkpt lat="43.17583382539367" lon="12.930720518605757"><ele>740.5999999999999</ele><time>2026-04-04T09:57:01Z</time></trkpt><trkpt lat="43.17590727533434" lon="12.930776820528079"><ele>736.8</ele><time>2026-04-04T09:57:02Z</time></trkpt><trkpt lat="43.175962782351355" lon="12.930835107476987"><ele>733.0</ele><time>2026-04-04T09:57:03Z</time></trkpt><trkpt lat="43.1760680017089" lon="12.930937850426183"><ele>733.0</ele><time>2026-04-04T09:57:05Z</time></trkpt><trkpt lat="43.17612219030507" lon="12.931059088101543"><ele>733.0</ele><time>2026-04-04T09:57:07Z</time></trkpt><trkpt lat="43.17619475635507" lon="12.931170482094661"><ele>733.0</ele><time>2026-04-04T09:57:09Z</time></trkpt><trkpt lat="43.17624871913619" lon="12.931303977404829"><ele>733.0</ele><time>2026-04-04T09:57:11Z</time></trkpt><trkpt lat="43.17623444419014" lon="12.931426610034103"><ele>733.0</ele><time>2026-04-04T09:57:13Z</time></trkpt><trkpt lat="43.176184190944575" lon="12.93157344232356"><ele>733.0</ele><time>2026-04-04T09:57:15Z</time></trkpt><trkpt lat="43.17615099977903" lon="12.931658359403245"><ele>733.0</ele><time>2026-04-04T09:57:16Z</time></trkpt><trkpt lat="43.176105890091755" lon="12.931767489019279"><ele>733.0</ele><time>2026-04-04T09:57:17Z</time></trkpt><trkpt lat="43.17604700196571" lon="12.931877237542915"><ele>733.0</ele><time>2026-04-04T09:57:18Z</time></trkpt><trkpt lat="43.17599998238848" lon="12.931983378750848"><ele>733.0</ele><time>2026-04-04T09:57:19Z</time></trkpt><trkpt lat="43.175958622238646" lon="12.932078020947035"><ele>733.0</ele><time>2026-04-04T09:57:20Z</time></trkpt><trkpt lat="43.175938594932475" lon="12.93217320765965"><ele>731.1428571428571</ele><time>2026-04-04T09:57:21Z</time></trkpt><trkpt lat="43.17592014559303" lon="12.932278596650093"><ele>729.2857142857142</ele><time>2026-04-04T09:57:22Z</time></trkpt><trkpt lat="43.17589357552228" lon="12.932361615015209"><ele>727.4285714285713</ele><time>2026-04-04T09:57:23Z</time></trkpt><trkpt lat="43.175867666086006" lon="12.932448334661547"><ele>725.5714285714286</ele><time>2026-04-04T09:57:24Z</time></trkpt><trkpt lat="43.17584327350205" lon="12.932532000148953"><ele>723.7142857142858</ele><time>2026-04-04T09:57:25Z</time></trkpt><trkpt lat="43.175822306455196" lon="12.932622614436685"><ele>721.8571428571428</ele><time>2026-04-04T09:57:26Z</time></trkpt><trkpt lat="43.175797514602884" lon="12.932709573229957"><ele>720.0</ele><time>2026-04-04T09:57:27Z</time></trkpt><trkpt lat="43.17577470095365" lon="12.932791340438625"><ele>717.6666666666666</ele><time>2026-04-04T09:57:28Z</time></trkpt><trkpt lat="43.17575257191993" lon="12.932902678751745"><ele>715.3333333333334</ele><time>2026-04-04T09:57:30Z</time></trkpt><trkpt lat="43.175735383434485" lon="12.932999518367426"><ele>713.0</ele><time>2026-04-04T09:57:32Z</time></trkpt><trkpt lat="43.175727542744355" lon="12.933155792974008"><ele>710.6666666666667</ele><time>2026-04-04T09:57:34Z</time></trkpt><trkpt lat="43.17572358344897" lon="12.933247922336783"><ele>708.3333333333334</ele><time>2026-04-04T09:57:35Z</time></trkpt><trkpt lat="43.17569006205654" lon="12.933384016602428"><ele>706.0</ele><time>2026-04-04T09:57:37Z</time></trkpt><trkpt lat="43.17566022848823" lon="12.933464032769832"><ele>706.0</ele><time>2026-04-04T09:57:38Z</time></trkpt><trkpt lat="43.17563228115995" lon="12.933541653533434"><ele>706.0</ele><time>2026-04-04T09:57:39Z</time></trkpt><trkpt lat="43.175603891596175" lon="12.933629398995828"><ele>706.0</ele><time>2026-04-04T09:57:40Z</time></trkpt><trkpt lat="43.175544166224775" lon="12.933785084064274"><ele>706.0</ele><time>2026-04-04T09:57:42Z</time></trkpt><trkpt lat="43.175513332043664" lon="12.933880080316573"><ele>706.0</ele><time>2026-04-04T09:57:43Z</time></trkpt><trkpt lat="43.17548093206826" lon="12.933967161509159"><ele>706.0</ele><time>2026-04-04T09:57:44Z</time></trkpt><trkpt lat="43.175456215852144" lon="12.934048283084294"><ele>706.0</ele><time>2026-04-04T09:57:45Z</time></trkpt><trkpt lat="43.175413195412446" lon="12.934197331254284"><ele>706.0</ele><time>2026-04-04T09:57:47Z</time></trkpt><trkpt lat="43.17539156802969" lon="12.934279083417122"><ele>706.0</ele><time>2026-04-04T09:57:48Z</time></trkpt><trkpt lat="43.17536986430315" lon="12.934387929150956"><ele>706.0</ele><time>2026-04-04T09:57:50Z</time></trkpt><trkpt lat="43.175340901532834" lon="12.934478805544"><ele>706.0</ele><time>2026-04-04T09:57:52Z</time></trkpt><trkpt lat="43.17531636123402" lon="12.934582867482062"><ele>706.0</ele><time>2026-04-04T09:57:54Z</time></trkpt><trkpt lat="43.17527071630947" lon="12.934718388892641"><ele>700.6666666666667</ele><time>2026-04-04T09:57:56Z</time></trkpt><trkpt lat="43.1752418820556" lon="12.934797742334904"><ele>695.3333333333334</ele><time>2026-04-04T09:57:57Z</time></trkpt><trkpt lat="43.17519268927007" lon="12.934890717783027"><ele>690.0</ele><time>2026-04-04T09:57:59Z</time></trkpt><trkpt lat="43.175135718394564" lon="12.934980148381705"><ele>684.6666666666666</ele><time>2026-04-04T09:58:01Z</time></trkpt><trkpt lat="43.175080542093184" lon="12.935087055469518"><ele>679.3333333333333</ele><time>2026-04-04T09:58:03Z</time></trkpt><trkpt lat="43.17502254460555" lon="12.935196661137756"><ele>674.0</ele><time>2026-04-04T09:58:05Z</time></trkpt><trkpt lat="43.17494970563337" lon="12.935269904187676"><ele>670.3333333333333</ele><time>2026-04-04T09:58:08Z</time></trkpt><trkpt lat="43.174907889883514" lon="12.935360164277109"><ele>666.6666666666666</ele><time>2026-04-04T09:58:10.001Z</time></trkpt><trkpt lat="43.17487818858882" lon="12.935456048784452"><ele>663.0</ele><time>2026-04-04T09:58:12.001Z</time></trkpt><trkpt lat="43.17492419835309" lon="12.935545389058985"><ele>659.3333333333334</ele><time>2026-04-04T09:58:14.001Z</time></trkpt><trkpt lat="43.17499067644424" lon="12.935591735706874"><ele>655.6666666666667</ele><time>2026-04-04T09:58:16.001Z</time></trkpt><trkpt lat="43.17505057752375" lon="12.935676013667644"><ele>652.0</ele><time>2026-04-04T09:58:18.001Z</time></trkpt><trkpt lat="43.17511181358007" lon="12.935754511392732"><ele>652.0</ele><time>2026-04-04T09:58:20.001Z</time></trkpt><trkpt lat="43.17516826256264" lon="12.93585093165977"><ele>652.0</ele><time>2026-04-04T09:58:22.001Z</time></trkpt><trkpt lat="43.17520414798178" lon="12.935937928680698"><ele>652.0</ele><time>2026-04-04T09:58:24.001Z</time></trkpt><trkpt lat="43.175201292502464" lon="12.936035149401768"><ele>652.0</ele><time>2026-04-04T09:58:26.001Z</time></trkpt><trkpt lat="43.1751804645363" lon="12.93614286172328"><ele>652.0</ele><time>2026-04-04T09:58:28.001Z</time></trkpt><trkpt lat="43.17513585782115" lon="12.936253651046693"><ele>652.0</ele><time>2026-04-04T09:58:30.001Z</time></trkpt><trkpt lat="43.17514840300442" lon="12.93636064197301"><ele>649.6666666666667</ele><time>2026-04-04T09:58:34.001Z</time></trkpt><trkpt lat="43.175173919390424" lon="12.93645506348672"><ele>647.3333333333334</ele><time>2026-04-04T09:58:36.001Z</time></trkpt><trkpt lat="43.17521053712219" lon="12.936545150982903"><ele>645.0</ele><time>2026-04-04T09:58:38.001Z</time></trkpt><trkpt lat="43.1751948270585" lon="12.936686442961618"><ele>642.6666666666666</ele><time>2026-04-04T09:58:40.001Z</time></trkpt><trkpt lat="43.175197726917396" lon="12.936834162281288"><ele>640.3333333333333</ele><time>2026-04-04T09:58:42.001Z</time></trkpt><trkpt lat="43.17523043617833" lon="12.936939352651265"><ele>638.0</ele><time>2026-04-04T09:58:44.001Z</time></trkpt><trkpt lat="43.17527800732289" lon="12.936996672285733"><ele>635.1666666666666</ele><time>2026-04-04T09:58:45.001Z</time></trkpt><trkpt lat="43.175317195695776" lon="12.93706875088762"><ele>632.3333333333333</ele><time>2026-04-04T09:58:46.001Z</time></trkpt><trkpt lat="43.17534790319468" lon="12.937145739745398"><ele>629.5</ele><time>2026-04-04T09:58:47.001Z</time></trkpt><trkpt lat="43.175377283298886" lon="12.937223170885376"><ele>626.6666666666666</ele><time>2026-04-04T09:58:48.001Z</time></trkpt><trkpt lat="43.17541788318628" lon="12.937289327114929"><ele>623.8333333333334</ele><time>2026-04-04T09:58:49.001Z</time></trkpt><trkpt lat="43.17548186335462" lon="12.937422099558143"><ele>621.0</ele><time>2026-04-04T09:58:51.001Z</time></trkpt><trkpt lat="43.17555228746977" lon="12.937538016411066"><ele>618.2857142857142</ele><time>2026-04-04T09:58:53.001Z</time></trkpt><trkpt lat="43.175612907720605" lon="12.937616475749952"><ele>615.5714285714286</ele><time>2026-04-04T09:58:56.001Z</time></trkpt><trkpt lat="43.17563279042905" lon="12.937702138349659"><ele>612.8571428571429</ele><time>2026-04-04T09:59:02.001Z</time></trkpt><trkpt lat="43.175651542924946" lon="12.937788895930755"><ele>610.1428571428571</ele><time>2026-04-04T09:59:15.001Z</time></trkpt><trkpt lat="43.17570519148898" lon="12.937850155462707"><ele>607.4285714285714</ele><time>2026-04-04T09:59:19.001Z</time></trkpt><trkpt lat="43.1757842858272" lon="12.937857719835943"><ele>604.7142857142857</ele><time>2026-04-04T09:59:22.001Z</time></trkpt><trkpt lat="43.17585303665174" lon="12.937825192834405"><ele>602.0</ele><time>2026-04-04T09:59:24.001Z</time></trkpt><trkpt lat="43.175917582444455" lon="12.937790367446832"><ele>602.0</ele><time>2026-04-04T09:59:26.001Z</time></trkpt><trkpt lat="43.17599370358287" lon="12.937772085692963"><ele>602.0</ele><time>2026-04-04T09:59:29.001Z</time></trkpt><trkpt lat="43.17608589199358" lon="12.937756566937688"><ele>602.0</ele><time>2026-04-04T09:59:32.001Z</time></trkpt><trkpt lat="43.17615781460962" lon="12.93773809011177"><ele>602.0</ele><time>2026-04-04T09:59:34.001Z</time></trkpt><trkpt lat="43.176261772508134" lon="12.937707625519229"><ele>602.0</ele><time>2026-04-04T09:59:36.001Z</time></trkpt><trkpt lat="43.17638668447545" lon="12.937671919741195"><ele>602.0</ele><time>2026-04-04T09:59:38.001Z</time></trkpt><trkpt lat="43.17651620811147" lon="12.937650139526276"><ele>602.0</ele><time>2026-04-04T09:59:40.001Z</time></trkpt><trkpt lat="43.176635634940865" lon="12.93767061060966"><ele>602.0</ele><time>2026-04-04T09:59:42.001Z</time></trkpt><trkpt lat="43.17675182653306" lon="12.937638085872821"><ele>602.0</ele><time>2026-04-04T09:59:44.001Z</time></trkpt><trkpt lat="43.17686953089613" lon="12.937611640067065"><ele>599.8571428571429</ele><time>2026-04-04T09:59:46.001Z</time></trkpt><trkpt lat="43.176936703449094" lon="12.93761304230782"><ele>597.7142857142858</ele><time>2026-04-04T09:59:47.001Z</time></trkpt><trkpt lat="43.17699998319507" lon="12.93760944601971"><ele>595.5714285714286</ele><time>2026-04-04T09:59:48.001Z</time></trkpt><trkpt lat="43.17706607600253" lon="12.937606577608506"><ele>593.4285714285714</ele><time>2026-04-04T09:59:49.001Z</time></trkpt><trkpt lat="43.1771302266109" lon="12.937603357805788"><ele>591.2857142857143</ele><time>2026-04-04T09:59:50.001Z</time></trkpt><trkpt lat="43.17720191359644" lon="12.937599184897342"><ele>589.1428571428571</ele><time>2026-04-04T09:59:51Z</time></trkpt><trkpt lat="43.17727960614443" lon="12.937588912325566"><ele>587.0</ele><time>2026-04-04T09:59:52Z</time></trkpt><trkpt lat="43.1773630659477" lon="12.937565438942809"><ele>585.5</ele><time>2026-04-04T09:59:53Z</time></trkpt><trkpt lat="43.17744682569898" lon="12.937549964127049"><ele>584.0</ele><time>2026-04-04T09:59:54Z</time></trkpt><trkpt lat="43.177541955504964" lon="12.93752370759036"><ele>582.5</ele><time>2026-04-04T09:59:55Z</time></trkpt><trkpt lat="43.17762540244706" lon="12.937503784853355"><ele>581.0</ele><time>2026-04-04T09:59:56Z</time></trkpt><trkpt lat="43.177691383783866" lon="12.937485114473473"><ele>579.5</ele><time>2026-04-04T09:59:57Z</time></trkpt><trkpt lat="43.177762122648836" lon="12.937481065297318"><ele>578.0</ele><time>2026-04-04T09:59:58Z</time></trkpt><trkpt lat="43.17782890396433" lon="12.937474959449498"><ele>578.0</ele><time>2026-04-04T09:59:59Z</time></trkpt><trkpt lat="43.17789130566787" lon="12.937462056941984"><ele>578.0</ele><time>2026-04-04T10:00:00Z</time></trkpt><trkpt lat="43.17796468920325" lon="12.937446277792773"><ele>578.0</ele><time>2026-04-04T10:00:01Z</time></trkpt><trkpt lat="43.17803758938379" lon="12.93742067455065"><ele>578.0</ele><time>2026-04-04T10:00:02Z</time></trkpt><trkpt lat="43.178107157767045" lon="12.937399123881342"><ele>578.0</ele><time>2026-04-04T10:00:03Z</time></trkpt><trkpt lat="43.178181874355076" lon="12.937375071599652"><ele>578.0</ele><time>2026-04-04T10:00:04Z</time></trkpt><trkpt lat="43.17826332491098" lon="12.937354111040783"><ele>578.0</ele><time>2026-04-04T10:00:05Z</time></trkpt><trkpt lat="43.17834493208077" lon="12.937330091871933"><ele>575.3333333333333</ele><time>2026-04-04T10:00:06Z</time></trkpt><trkpt lat="43.178427479041176" lon="12.937306474062684"><ele>572.6666666666666</ele><time>2026-04-04T10:00:07Z</time></trkpt><trkpt lat="43.178511071077956" lon="12.937291326986045"><ele>570.0</ele><time>2026-04-04T10:00:08Z</time></trkpt><trkpt lat="43.178600552402266" lon="12.937277298839398"><ele>567.3333333333334</ele><time>2026-04-04T10:00:09Z</time></trkpt><trkpt lat="43.17868880747728" lon="12.937267288200417"><ele>564.6666666666667</ele><time>2026-04-04T10:00:10Z</time></trkpt><trkpt lat="43.178776122068044" lon="12.937251043434571"><ele>562.0</ele><time>2026-04-04T10:00:11Z</time></trkpt><trkpt lat="43.178858501150685" lon="12.937210402755921"><ele>562.0</ele><time>2026-04-04T10:00:12Z</time></trkpt><trkpt lat="43.17893655123263" lon="12.93717684353044"><ele>562.0</ele><time>2026-04-04T10:00:13Z</time></trkpt><trkpt lat="43.17901473873252" lon="12.937156377574661"><ele>562.0</ele><time>2026-04-04T10:00:14Z</time></trkpt><trkpt lat="43.17909457535788" lon="12.93714038828823"><ele>562.0</ele><time>2026-04-04T10:00:15Z</time></trkpt><trkpt lat="43.17917572370219" lon="12.937119215737383"><ele>562.0</ele><time>2026-04-04T10:00:16Z</time></trkpt><trkpt lat="43.179254683230376" lon="12.937100664099106"><ele>562.0</ele><time>2026-04-04T10:00:17Z</time></trkpt><trkpt lat="43.17932726600649" lon="12.937077528856433"><ele>559.8333333333334</ele><time>2026-04-04T10:00:18Z</time></trkpt><trkpt lat="43.1793954884219" lon="12.93706157289893"><ele>557.6666666666667</ele><time>2026-04-04T10:00:19Z</time></trkpt><trkpt lat="43.17946650391361" lon="12.937038072673502"><ele>555.5</ele><time>2026-04-04T10:00:20Z</time></trkpt><trkpt lat="43.17953370797244" lon="12.937004382678744"><ele>553.3333333333334</ele><time>2026-04-04T10:00:21Z</time></trkpt><trkpt lat="43.1795941289131" lon="12.936973014625444"><ele>551.1666666666666</ele><time>2026-04-04T10:00:22Z</time></trkpt><trkpt lat="43.17965360495565" lon="12.936936347622465"><ele>549.0</ele><time>2026-04-04T10:00:23Z</time></trkpt><trkpt lat="43.17976404910056" lon="12.936877360571655"><ele>547.0</ele><time>2026-04-04T10:00:25Z</time></trkpt><trkpt lat="43.17986146937367" lon="12.93682324026991"><ele>545.0</ele><time>2026-04-04T10:00:27Z</time></trkpt><trkpt lat="43.17995308592609" lon="12.936784802050386"><ele>543.0</ele><time>2026-04-04T10:00:29Z</time></trkpt><trkpt lat="43.18003959109964" lon="12.93672074116118"><ele>541.0</ele><time>2026-04-04T10:00:31Z</time></trkpt><trkpt lat="43.18011708912243" lon="12.936673938106917"><ele>539.0</ele><time>2026-04-04T10:00:33Z</time></trkpt><trkpt lat="43.180181205742876" lon="12.936615216974422"><ele>539.0</ele><time>2026-04-04T10:00:35Z</time></trkpt><trkpt lat="43.18024828125754" lon="12.936539320617623"><ele>539.0</ele><time>2026-04-04T10:00:37Z</time></trkpt><trkpt lat="43.18030176330613" lon="12.936485853092911"><ele>539.0</ele><time>2026-04-04T10:00:39Z</time></trkpt><trkpt lat="43.18037074137254" lon="12.936425198009855"><ele>539.0</ele><time>2026-04-04T10:00:42Z</time></trkpt><trkpt lat="43.180423257036594" lon="12.936364153843702"><ele>539.0</ele><time>2026-04-04T10:00:44Z</time></trkpt><trkpt lat="43.180486791341124" lon="12.93630339831226"><ele>539.0</ele><time>2026-04-04T10:00:46Z</time></trkpt><trkpt lat="43.18055574917291" lon="12.936238908123306"><ele>539.0</ele><time>2026-04-04T10:00:49Z</time></trkpt><trkpt lat="43.18062780704807" lon="12.936132990745323"><ele>539.0</ele><time>2026-04-04T10:00:52Z</time></trkpt><trkpt lat="43.18069724008084" lon="12.936069090799528"><ele>539.0</ele><time>2026-04-04T10:00:54Z</time></trkpt><trkpt lat="43.18077163355348" lon="12.936037878600782"><ele>539.0</ele><time>2026-04-04T10:00:57Z</time></trkpt><trkpt lat="43.18084221988397" lon="12.935968774623603"><ele>539.0</ele><time>2026-04-04T10:00:59Z</time></trkpt><trkpt lat="43.18090366474671" lon="12.935912668933433"><ele>539.0</ele><time>2026-04-04T10:01:00Z</time></trkpt><trkpt lat="43.18096417964313" lon="12.935848106595994"><ele>534.8333333333333</ele><time>2026-04-04T10:01:01Z</time></trkpt><trkpt lat="43.181042875769386" lon="12.935777605822897"><ele>530.6666666666666</ele><time>2026-04-04T10:01:02Z</time></trkpt><trkpt lat="43.18111260278348" lon="12.935746912645282"><ele>526.5</ele><time>2026-04-04T10:01:03Z</time></trkpt><trkpt lat="43.181178328678115" lon="12.935716641079274"><ele>522.3333333333334</ele><time>2026-04-04T10:01:04Z</time></trkpt><trkpt lat="43.181239868867" lon="12.935685173667412"><ele>518.1666666666667</ele><time>2026-04-04T10:01:05Z</time></trkpt><trkpt lat="43.18130982612694" lon="12.935642901237067"><ele>514.0</ele><time>2026-04-04T10:01:06Z</time></trkpt><trkpt lat="43.18138429978457" lon="12.935605197281264"><ele>514.0</ele><time>2026-04-04T10:01:07Z</time></trkpt><trkpt lat="43.18145014407925" lon="12.93557224158342"><ele>514.0</ele><time>2026-04-04T10:01:08Z</time></trkpt><trkpt lat="43.18152294549847" lon="12.935546435939616"><ele>514.0</ele><time>2026-04-04T10:01:09Z</time></trkpt><trkpt lat="43.181652431088715" lon="12.935505329298827"><ele>514.0</ele><time>2026-04-04T10:01:11Z</time></trkpt><trkpt lat="43.18171918766011" lon="12.935457057111087"><ele>514.0</ele><time>2026-04-04T10:01:12Z</time></trkpt><trkpt lat="43.181796572325574" lon="12.935408225936895"><ele>514.0</ele><time>2026-04-04T10:01:13Z</time></trkpt><trkpt lat="43.181863850790556" lon="12.935383637640541"><ele>509.83333333333337</ele><time>2026-04-04T10:01:14Z</time></trkpt><trkpt lat="43.1819287990686" lon="12.935365897761374"><ele>505.6666666666667</ele><time>2026-04-04T10:01:15Z</time></trkpt><trkpt lat="43.182011963234714" lon="12.93535120362099"><ele>501.5</ele><time>2026-04-04T10:01:16Z</time></trkpt><trkpt lat="43.18208582355164" lon="12.935332299939988"><ele>497.33333333333337</ele><time>2026-04-04T10:01:17Z</time></trkpt><trkpt lat="43.18216361901023" lon="12.9353081721619"><ele>493.1666666666667</ele><time>2026-04-04T10:01:18Z</time></trkpt><trkpt lat="43.18223194640546" lon="12.935285213353"><ele>489.0</ele><time>2026-04-04T10:01:19Z</time></trkpt><trkpt lat="43.1823212999826" lon="12.935246552723475"><ele>486.1666666666667</ele><time>2026-04-04T10:01:21Z</time></trkpt><trkpt lat="43.18238940540646" lon="12.935206797474898"><ele>483.33333333333337</ele><time>2026-04-04T10:01:23Z</time></trkpt><trkpt lat="43.1824653492656" lon="12.93515728663135"><ele>480.5</ele><time>2026-04-04T10:01:26Z</time></trkpt><trkpt lat="43.18250879450161" lon="12.935094462302347"><ele>477.6666666666667</ele><time>2026-04-04T10:01:34Z</time></trkpt><trkpt lat="43.18262896569978" lon="12.935020754598531"><ele>474.83333333333337</ele><time>2026-04-04T10:01:45Z</time></trkpt><trkpt lat="43.18269323935422" lon="12.934998461316502"><ele>472.0</ele><time>2026-04-04T10:01:50Z</time></trkpt><trkpt lat="43.18274805253453" lon="12.934949922072105"><ele>472.00000000000006</ele><time>2026-04-04T10:01:53Z</time></trkpt><trkpt lat="43.18280869195826" lon="12.934887462690142"><ele>472.0</ele><time>2026-04-04T10:01:55Z</time></trkpt><trkpt lat="43.18286558437249" lon="12.934840873064031"><ele>472.0</ele><time>2026-04-04T10:01:57Z</time></trkpt><trkpt lat="43.18293171131138" lon="12.934755103753883"><ele>472.0</ele><time>2026-04-04T10:01:59Z</time></trkpt><trkpt lat="43.18296597012728" lon="12.934605496254031"><ele>472.00000000000006</ele><time>2026-04-04T10:02:01Z</time></trkpt><trkpt lat="43.183000881852685" lon="12.93449281126721"><ele>472.0</ele><time>2026-04-04T10:02:03Z</time></trkpt><trkpt lat="43.18301732333259" lon="12.934389396483311"><ele>472.0</ele><time>2026-04-04T10:02:05Z</time></trkpt><trkpt lat="43.18296511311954" lon="12.934319969514517"><ele>472.0</ele><time>2026-04-04T10:02:08Z</time></trkpt><trkpt lat="43.18291339062382" lon="12.934252662722136"><ele>472.0</ele><time>2026-04-04T10:02:10Z</time></trkpt><trkpt lat="43.18288106150438" lon="12.934169676141225"><ele>472.0</ele><time>2026-04-04T10:02:12Z</time></trkpt><trkpt lat="43.18288765351814" lon="12.93408359907123"><ele>472.0</ele><time>2026-04-04T10:02:15Z</time></trkpt><trkpt lat="43.18297010553418" lon="12.93406991324193"><ele>472.0</ele><time>2026-04-04T10:02:20Z</time></trkpt><trkpt lat="43.18303441340036" lon="12.934072268462002"><ele>472.0</ele><time>2026-04-04T10:02:22.001Z</time></trkpt><trkpt lat="43.18309740893712" lon="12.934086266940886"><ele>470.57142857142856</ele><time>2026-04-04T10:02:24.001Z</time></trkpt><trkpt lat="43.18315760050394" lon="12.9341138901651"><ele>469.14285714285717</ele><time>2026-04-04T10:02:27.001Z</time></trkpt><trkpt lat="43.183229819041514" lon="12.934115438899077"><ele>467.7142857142857</ele><time>2026-04-04T10:02:30.001Z</time></trkpt><trkpt lat="43.18329868710954" lon="12.934094622631513"><ele>466.2857142857143</ele><time>2026-04-04T10:02:32.001Z</time></trkpt><trkpt lat="43.18337905608099" lon="12.934059878838793"><ele>464.8571428571429</ele><time>2026-04-04T10:02:35.001Z</time></trkpt><trkpt lat="43.18344642038178" lon="12.934033219037149"><ele>463.42857142857144</ele><time>2026-04-04T10:02:38.001Z</time></trkpt><trkpt lat="43.1835180465025" lon="12.933981639781067"><ele>462.0</ele><time>2026-04-04T10:02:41.001Z</time></trkpt><trkpt lat="43.183581490124816" lon="12.933965762412669"><ele>460.20000000000005</ele><time>2026-04-04T10:02:44.001Z</time></trkpt><trkpt lat="43.183681324997" lon="12.933907212321142"><ele>458.40000000000003</ele><time>2026-04-04T10:02:46.001Z</time></trkpt><trkpt lat="43.18376098735165" lon="12.933879343586169"><ele>456.59999999999997</ele><time>2026-04-04T10:02:47.001Z</time></trkpt><trkpt lat="43.183859447785146" lon="12.93385258978335"><ele>454.79999999999995</ele><time>2026-04-04T10:02:48.001Z</time></trkpt><trkpt lat="43.183964723811286" lon="12.933846215865762"><ele>453.0</ele><time>2026-04-04T10:02:49.001Z</time></trkpt><trkpt lat="43.18406780171244" lon="12.933835772898876"><ele>452.59999999999997</ele><time>2026-04-04T10:02:50.001Z</time></trkpt><trkpt lat="43.184170920598284" lon="12.933831418082956"><ele>452.19999999999993</ele><time>2026-04-04T10:02:51.001Z</time></trkpt><trkpt lat="43.18424363533271" lon="12.933807505698299"><ele>451.8</ele><time>2026-04-04T10:02:52.001Z</time></trkpt><trkpt lat="43.184355267129625" lon="12.93381097503136"><ele>451.4</ele><time>2026-04-04T10:02:54.001Z</time></trkpt><trkpt lat="43.184505495889034" lon="12.933815169971023"><ele>451.0</ele><time>2026-04-04T10:02:57.001Z</time></trkpt><trkpt lat="43.18461707887101" lon="12.933817366176292"><ele>451.00000000000006</ele><time>2026-04-04T10:02:59.001Z</time></trkpt><trkpt lat="43.184687640286384" lon="12.933836192525991"><ele>451.0</ele><time>2026-04-04T10:03:02.001Z</time></trkpt><trkpt lat="43.184710944091755" lon="12.933982785564618"><ele>451.0</ele><time>2026-04-04T10:03:03.001Z</time></trkpt><trkpt lat="43.18472100106398" lon="12.934073242908786"><ele>451.0</ele><time>2026-04-04T10:03:04.001Z</time></trkpt><trkpt lat="43.184726101856754" lon="12.934169281236024"><ele>451.00000000000006</ele><time>2026-04-04T10:03:05.001Z</time></trkpt><trkpt lat="43.18473498783179" lon="12.934281304588461"><ele>451.0</ele><time>2026-04-04T10:03:06.001Z</time></trkpt><trkpt lat="43.18473917544044" lon="12.934402818568065"><ele>451.20000000000005</ele><time>2026-04-04T10:03:07.001Z</time></trkpt><trkpt lat="43.18475461157875" lon="12.934524584261817"><ele>451.40000000000003</ele><time>2026-04-04T10:03:08.001Z</time></trkpt><trkpt lat="43.18473201179964" lon="12.934649846273633"><ele>451.6</ele><time>2026-04-04T10:03:09.001Z</time></trkpt><trkpt lat="43.18472231803131" lon="12.934777193714474"><ele>451.8</ele><time>2026-04-04T10:03:10.001Z</time></trkpt><trkpt lat="43.18471321397495" lon="12.934911984280316"><ele>452.0</ele><time>2026-04-04T10:03:11.001Z</time></trkpt><trkpt lat="43.18471827666311" lon="12.93504352003514"><ele>451.99999999999994</ele><time>2026-04-04T10:03:12.001Z</time></trkpt><trkpt lat="43.18470787275783" lon="12.93517453707716"><ele>452.0</ele><time>2026-04-04T10:03:13.001Z</time></trkpt><trkpt lat="43.18469935496565" lon="12.935305140187438"><ele>452.0</ele><time>2026-04-04T10:03:14.001Z</time></trkpt><trkpt lat="43.18468216186008" lon="12.935423784917882"><ele>452.0</ele><time>2026-04-04T10:03:15.001Z</time></trkpt><trkpt lat="43.184676773045524" lon="12.935535739189858"><ele>451.99999999999994</ele><time>2026-04-04T10:03:16.001Z</time></trkpt><trkpt lat="43.184687755503695" lon="12.935643624777672"><ele>452.0</ele><time>2026-04-04T10:03:17.001Z</time></trkpt><trkpt lat="43.18467137914157" lon="12.935743276975192"><ele>451.8</ele><time>2026-04-04T10:03:18.001Z</time></trkpt><trkpt lat="43.184703859187444" lon="12.935902811003277"><ele>451.6</ele><time>2026-04-04T10:03:20.001Z</time></trkpt><trkpt lat="43.18473556516848" lon="12.936034420755806"><ele>451.40000000000003</ele><time>2026-04-04T10:03:22.001Z</time></trkpt><trkpt lat="43.184755740623466" lon="12.936160453732239"><ele>451.20000000000005</ele><time>2026-04-04T10:03:24.001Z</time></trkpt><trkpt lat="43.18475743416386" lon="12.936257666144817"><ele>451.0</ele><time>2026-04-04T10:03:26.001Z</time></trkpt><trkpt lat="43.18479558380497" lon="12.93637000116878"><ele>451.0</ele><time>2026-04-04T10:03:29.001Z</time></trkpt><trkpt lat="43.18483136670178" lon="12.936540385248309"><ele>451.0</ele><time>2026-04-04T10:03:30.001Z</time></trkpt><trkpt lat="43.18485323169604" lon="12.936350521598321"><ele>451.0</ele><time>2026-04-04T10:03:33.001Z</time></trkpt><trkpt lat="43.184912410597875" lon="12.936455960686047"><ele>451.0</ele><time>2026-04-04T10:03:45.001Z</time></trkpt><trkpt lat="43.18487867141839" lon="12.936533713462657"><ele>451.0</ele><time>2026-04-04T10:04:46.001Z</time></trkpt><trkpt lat="43.18482971527148" lon="12.936464524857017"><ele>451.0</ele><time>2026-04-04T10:06:39Z</time></trkpt><trkpt lat="43.184895584364924" lon="12.936461948204286"><ele>451.0</ele><time>2026-04-04T10:09:32Z</time></trkpt><trkpt lat="43.18483409548578" lon="12.93649002824502"><ele>451.0</ele><time>2026-04-04T10:11:26Z</time></trkpt><trkpt lat="43.18477159660764" lon="12.936515699965293"><ele>451.0</ele><time>2026-04-04T10:11:29Z</time></trkpt><trkpt lat="43.184720532098694" lon="12.93659374080112"><ele>451.0</ele><time>2026-04-04T10:11:32Z</time></trkpt><trkpt lat="43.18467624057181" lon="12.936726657830935"><ele>451.0</ele><time>2026-04-04T10:11:34Z</time></trkpt><trkpt lat="43.184654496205475" lon="12.936813854697922"><ele>451.0</ele><time>2026-04-04T10:11:35Z</time></trkpt><trkpt lat="43.18461939161508" lon="12.936912454660224"><ele>450.6</ele><time>2026-04-04T10:11:36Z</time></trkpt><trkpt lat="43.184615274936675" lon="12.937027488681755"><ele>450.20000000000005</ele><time>2026-04-04T10:11:37Z</time></trkpt><trkpt lat="43.18462253370105" lon="12.937159258956944"><ele>449.79999999999995</ele><time>2026-04-04T10:11:38Z</time></trkpt><trkpt lat="43.184623207033084" lon="12.93729120930114"><ele>449.4</ele><time>2026-04-04T10:11:39Z</time></trkpt><trkpt lat="43.18460482166974" lon="12.937421335863714"><ele>449.0</ele><time>2026-04-04T10:11:40Z</time></trkpt><trkpt lat="43.184605596657576" lon="12.937559707501066"><ele>448.79999999999995</ele><time>2026-04-04T10:11:41Z</time></trkpt><trkpt lat="43.18462076432986" lon="12.937708858657123"><ele>448.59999999999997</ele><time>2026-04-04T10:11:42Z</time></trkpt><trkpt lat="43.184624157386324" lon="12.937863156458768"><ele>448.4</ele><time>2026-04-04T10:11:43Z</time></trkpt><trkpt lat="43.184632427858965" lon="12.938015231815253"><ele>448.2</ele><time>2026-04-04T10:11:44Z</time></trkpt><trkpt lat="43.18463820040685" lon="12.938167723133219"><ele>448.0</ele><time>2026-04-04T10:11:45Z</time></trkpt><trkpt lat="43.18464197555465" lon="12.938318508987269"><ele>448.0</ele><time>2026-04-04T10:11:46Z</time></trkpt><trkpt lat="43.18464126887114" lon="12.938472824169441"><ele>448.0</ele><time>2026-04-04T10:11:47Z</time></trkpt><trkpt lat="43.18464272079257" lon="12.93863406889282"><ele>448.0</ele><time>2026-04-04T10:11:48Z</time></trkpt><trkpt lat="43.18464763707596" lon="12.938796369739777"><ele>448.0</ele><time>2026-04-04T10:11:49Z</time></trkpt><trkpt lat="43.18465202517706" lon="12.938962058956408"><ele>448.0</ele><time>2026-04-04T10:11:50Z</time></trkpt><trkpt lat="43.1846543936858" lon="12.939129056005408"><ele>448.0</ele><time>2026-04-04T10:11:51Z</time></trkpt><trkpt lat="43.184650361163754" lon="12.939296420550548"><ele>448.0</ele><time>2026-04-04T10:11:52Z</time></trkpt><trkpt lat="43.184643384508824" lon="12.939466103541594"><ele>448.0</ele><time>2026-04-04T10:11:53Z</time></trkpt><trkpt lat="43.184615685909094" lon="12.939635978426594"><ele>448.25</ele><time>2026-04-04T10:11:54Z</time></trkpt><trkpt lat="43.18460321977802" lon="12.93980715378074"><ele>448.5</ele><time>2026-04-04T10:11:55Z</time></trkpt><trkpt lat="43.18459053398575" lon="12.939981345343204"><ele>448.75</ele><time>2026-04-04T10:11:56Z</time></trkpt><trkpt lat="43.18459001147196" lon="12.940156682771915"><ele>449.0</ele><time>2026-04-04T10:11:57Z</time></trkpt><trkpt lat="43.18457877106657" lon="12.940327314197065"><ele>449.2</ele><time>2026-04-04T10:11:58Z</time></trkpt><trkpt lat="43.18456927107067" lon="12.940487979063985"><ele>449.4</ele><time>2026-04-04T10:11:59Z</time></trkpt><trkpt lat="43.184559066641015" lon="12.940641114425345"><ele>449.6</ele><time>2026-04-04T10:12:00.001Z</time></trkpt><trkpt lat="43.18453065956772" lon="12.940785650277038"><ele>449.8</ele><time>2026-04-04T10:12:01.001Z</time></trkpt><trkpt lat="43.184534113958435" lon="12.940917983790092"><ele>450.0</ele><time>2026-04-04T10:12:02.001Z</time></trkpt><trkpt lat="43.184524713563626" lon="12.94103610379913"><ele>449.6</ele><time>2026-04-04T10:12:03.001Z</time></trkpt><trkpt lat="43.18451597462017" lon="12.941149795986984"><ele>449.2</ele><time>2026-04-04T10:12:04.001Z</time></trkpt><trkpt lat="43.18448007793496" lon="12.941267896889316"><ele>448.79999999999995</ele><time>2026-04-04T10:12:05.001Z</time></trkpt><trkpt lat="43.18444929340551" lon="12.941405144764486"><ele>448.4</ele><time>2026-04-04T10:12:06.001Z</time></trkpt><trkpt lat="43.18448529562581" lon="12.941503116222984"><ele>448.0</ele><time>2026-04-04T10:12:07.001Z</time></trkpt><trkpt lat="43.184541150902724" lon="12.941611403931846"><ele>448.0</ele><time>2026-04-04T10:12:08.001Z</time></trkpt><trkpt lat="43.184611289664126" lon="12.941628899543172"><ele>447.99999999999994</ele><time>2026-04-04T10:12:09.001Z</time></trkpt><trkpt lat="43.184695239166814" lon="12.941608836171179"><ele>447.99999999999994</ele><time>2026-04-04T10:12:10.001Z</time></trkpt><trkpt lat="43.18479775127849" lon="12.94158608160068"><ele>448.0</ele><time>2026-04-04T10:12:11.001Z</time></trkpt><trkpt lat="43.18491261930516" lon="12.941563454301253"><ele>448.0</ele><time>2026-04-04T10:12:12.001Z</time></trkpt><trkpt lat="43.185027798842526" lon="12.941514571892426"><ele>448.0</ele><time>2026-04-04T10:12:13.001Z</time></trkpt><trkpt lat="43.185147319925015" lon="12.94148832589594"><ele>448.0</ele><time>2026-04-04T10:12:14.001Z</time></trkpt><trkpt lat="43.1852685004775" lon="12.941468056741055"><ele>448.0</ele><time>2026-04-04T10:12:15.001Z</time></trkpt><trkpt lat="43.18539645329454" lon="12.941465133309944"><ele>448.0</ele><time>2026-04-04T10:12:16.001Z</time></trkpt><trkpt lat="43.18551970754727" lon="12.941442964144482"><ele>448.0</ele><time>2026-04-04T10:12:17.001Z</time></trkpt><trkpt lat="43.18564126981241" lon="12.94140484048132"><ele>448.0</ele><time>2026-04-04T10:12:18.001Z</time></trkpt><trkpt lat="43.18576336902058" lon="12.94138837458276"><ele>448.0</ele><time>2026-04-04T10:12:19.001Z</time></trkpt><trkpt lat="43.185886806529616" lon="12.941392894857284"><ele>448.0</ele><time>2026-04-04T10:12:20.001Z</time></trkpt><trkpt lat="43.18601020343578" lon="12.941360565698465"><ele>447.75</ele><time>2026-04-04T10:12:21.001Z</time></trkpt><trkpt lat="43.186128048492385" lon="12.941296707037711"><ele>447.5</ele><time>2026-04-04T10:12:22.001Z</time></trkpt><trkpt lat="43.18622200979552" lon="12.941199698390257"><ele>447.25</ele><time>2026-04-04T10:12:23.001Z</time></trkpt><trkpt lat="43.186304303461164" lon="12.94108665232695"><ele>447.0</ele><time>2026-04-04T10:12:24.001Z</time></trkpt><trkpt lat="43.18637371745843" lon="12.940973361579756"><ele>447.1666666666667</ele><time>2026-04-04T10:12:25.001Z</time></trkpt><trkpt lat="43.18643439777075" lon="12.940863252424606"><ele>447.33333333333337</ele><time>2026-04-04T10:12:26.001Z</time></trkpt><trkpt lat="43.18648985539351" lon="12.940761935142303"><ele>447.5</ele><time>2026-04-04T10:12:27.001Z</time></trkpt><trkpt lat="43.186539617793606" lon="12.940676401566709"><ele>447.6666666666667</ele><time>2026-04-04T10:12:28.001Z</time></trkpt><trkpt lat="43.18658727158103" lon="12.940607213949052"><ele>447.83333333333337</ele><time>2026-04-04T10:12:29.001Z</time></trkpt><trkpt lat="43.18663512589435" lon="12.940546398723722"><ele>448.0</ele><time>2026-04-04T10:12:30.001Z</time></trkpt><trkpt lat="43.1867319736985" lon="12.94045102744811"><ele>448.0</ele><time>2026-04-04T10:12:32.001Z</time></trkpt><trkpt lat="43.18683537113" lon="12.940368931560252"><ele>448.0</ele><time>2026-04-04T10:12:34.001Z</time></trkpt><trkpt lat="43.18693434806557" lon="12.940152556821786"><ele>448.0</ele><time>2026-04-04T10:12:36.001Z</time></trkpt><trkpt lat="43.18690540720144" lon="12.94006315119655"><ele>448.0</ele><time>2026-04-04T10:12:37.001Z</time></trkpt><trkpt lat="43.18686549172149" lon="12.939943035957203"><ele>448.75</ele><time>2026-04-04T10:12:38.001Z</time></trkpt><trkpt lat="43.186806046882744" lon="12.939818260435269"><ele>449.5</ele><time>2026-04-04T10:12:39.001Z</time></trkpt><trkpt lat="43.18676830762016" lon="12.939667218079109"><ele>450.25</ele><time>2026-04-04T10:12:40.001Z</time></trkpt><trkpt lat="43.186709899487745" lon="12.93951510954112"><ele>451.0</ele><time>2026-04-04T10:12:41.001Z</time></trkpt><trkpt lat="43.18665295462056" lon="12.939373129599444"><ele>451.0</ele><time>2026-04-04T10:12:42.001Z</time></trkpt><trkpt lat="43.186601258412246" lon="12.939243877856907"><ele>451.0</ele><time>2026-04-04T10:12:43.001Z</time></trkpt><trkpt lat="43.18655624662099" lon="12.939116488925213"><ele>451.0</ele><time>2026-04-04T10:12:44.001Z</time></trkpt><trkpt lat="43.18652890014454" lon="12.93900580892984"><ele>451.0</ele><time>2026-04-04T10:12:45.001Z</time></trkpt><trkpt lat="43.18651969441667" lon="12.93890446895199"><ele>451.0</ele><time>2026-04-04T10:12:46.001Z</time></trkpt><trkpt lat="43.18652128366249" lon="12.938786928827586"><ele>452.20000000000005</ele><time>2026-04-04T10:12:47.001Z</time></trkpt><trkpt lat="43.186556438961794" lon="12.938694795643894"><ele>453.40000000000003</ele><time>2026-04-04T10:12:48.001Z</time></trkpt><trkpt lat="43.18661092489733" lon="12.938572785063744"><ele>454.6</ele><time>2026-04-04T10:12:49.001Z</time></trkpt><trkpt lat="43.18668024143772" lon="12.93842059135"><ele>455.8</ele><time>2026-04-04T10:12:50.001Z</time></trkpt><trkpt lat="43.1867518953851" lon="12.938263265486976"><ele>457.0</ele><time>2026-04-04T10:12:51.001Z</time></trkpt><trkpt lat="43.18682878077562" lon="12.938094676770163"><ele>457.0</ele><time>2026-04-04T10:12:52.001Z</time></trkpt><trkpt lat="43.186905117992126" lon="12.937922326261326"><ele>457.0</ele><time>2026-04-04T10:12:53.001Z</time></trkpt><trkpt lat="43.186975076530715" lon="12.937745851983967"><ele>457.0</ele><time>2026-04-04T10:12:54.001Z</time></trkpt><trkpt lat="43.187062239108116" lon="12.937589194966872"><ele>457.0</ele><time>2026-04-04T10:12:55.001Z</time></trkpt><trkpt lat="43.18713729260452" lon="12.937423953586238"><ele>455.75</ele><time>2026-04-04T10:12:56.001Z</time></trkpt><trkpt lat="43.18720803333504" lon="12.937254948433754"><ele>454.5</ele><time>2026-04-04T10:12:57.001Z</time></trkpt><trkpt lat="43.18728005455883" lon="12.937079863567538"><ele>453.25</ele><time>2026-04-04T10:12:58.001Z</time></trkpt><trkpt lat="43.18735066220723" lon="12.936909321764707"><ele>452.0</ele><time>2026-04-04T10:12:59.001Z</time></trkpt><trkpt lat="43.187417032996876" lon="12.936734352365455"><ele>454.25</ele><time>2026-04-04T10:13:00.001Z</time></trkpt><trkpt lat="43.18748361377191" lon="12.936558041039696"><ele>456.5</ele><time>2026-04-04T10:13:01.001Z</time></trkpt><trkpt lat="43.187550657601705" lon="12.936383175592773"><ele>458.75</ele><time>2026-04-04T10:13:02.001Z</time></trkpt><trkpt lat="43.18759551239995" lon="12.936201611480268"><ele>461.0</ele><time>2026-04-04T10:13:03.001Z</time></trkpt><trkpt lat="43.18765136795661" lon="12.93603163805334"><ele>459.75</ele><time>2026-04-04T10:13:04.001Z</time></trkpt><trkpt lat="43.18772872299155" lon="12.935867556085446"><ele>458.5</ele><time>2026-04-04T10:13:05.001Z</time></trkpt><trkpt lat="43.187845062778955" lon="12.935710547987853"><ele>457.25</ele><time>2026-04-04T10:13:06.001Z</time></trkpt><trkpt lat="43.18792457595917" lon="12.935552098146688"><ele>456.0</ele><time>2026-04-04T10:13:07.001Z</time></trkpt><trkpt lat="43.18801060443231" lon="12.935417235719335"><ele>456.0</ele><time>2026-04-04T10:13:08.001Z</time></trkpt><trkpt lat="43.18809647999006" lon="12.93528645895476"><ele>456.0</ele><time>2026-04-04T10:13:09.001Z</time></trkpt><trkpt lat="43.188200687451086" lon="12.935163842809231"><ele>456.0</ele><time>2026-04-04T10:13:10.001Z</time></trkpt><trkpt lat="43.18830972882198" lon="12.935044421915531"><ele>456.0</ele><time>2026-04-04T10:13:11.001Z</time></trkpt><trkpt lat="43.188422428153245" lon="12.934929894624693"><ele>456.25</ele><time>2026-04-04T10:13:12.001Z</time></trkpt><trkpt lat="43.188541771705765" lon="12.934827531606139"><ele>456.5</ele><time>2026-04-04T10:13:13.001Z</time></trkpt><trkpt lat="43.188669357239945" lon="12.934731737454724"><ele>456.75</ele><time>2026-04-04T10:13:14.001Z</time></trkpt><trkpt lat="43.18880108515386" lon="12.934649816347813"><ele>457.0</ele><time>2026-04-04T10:13:15.001Z</time></trkpt><trkpt lat="43.188940240354405" lon="12.93456631810557"><ele>456.75</ele><time>2026-04-04T10:13:16.001Z</time></trkpt><trkpt lat="43.189070054155735" lon="12.934483785220696"><ele>456.5</ele><time>2026-04-04T10:13:17.001Z</time></trkpt><trkpt lat="43.18919674385373" lon="12.934373473670401"><ele>456.25</ele><time>2026-04-04T10:13:18.001Z</time></trkpt><trkpt lat="43.18932535753202" lon="12.934285906839229"><ele>456.0</ele><time>2026-04-04T10:13:19.001Z</time></trkpt><trkpt lat="43.1894429674722" lon="12.934188593036081"><ele>456.0</ele><time>2026-04-04T10:13:20.001Z</time></trkpt><trkpt lat="43.18956423073847" lon="12.934095493409673"><ele>456.0</ele><time>2026-04-04T10:13:21.001Z</time></trkpt><trkpt lat="43.18968853981935" lon="12.934032104373005"><ele>456.0</ele><time>2026-04-04T10:13:22.001Z</time></trkpt><trkpt lat="43.189800423737424" lon="12.933957231326993"><ele>456.0</ele><time>2026-04-04T10:13:23.001Z</time></trkpt><trkpt lat="43.18990940853594" lon="12.933905547373225"><ele>457.75</ele><time>2026-04-04T10:13:24.001Z</time></trkpt><trkpt lat="43.190013648038" lon="12.933876764483822"><ele>459.5</ele><time>2026-04-04T10:13:25.001Z</time></trkpt><trkpt lat="43.19013552251923" lon="12.93384515981461"><ele>461.25</ele><time>2026-04-04T10:13:26.001Z</time></trkpt><trkpt lat="43.190258584033224" lon="12.93379792272976"><ele>463.0</ele><time>2026-04-04T10:13:27.001Z</time></trkpt><trkpt lat="43.19037186592179" lon="12.933733081129152"><ele>463.0</ele><time>2026-04-04T10:13:28.001Z</time></trkpt><trkpt lat="43.190481554148086" lon="12.933643069180684"><ele>463.0</ele><time>2026-04-04T10:13:29.001Z</time></trkpt><trkpt lat="43.190551441591126" lon="12.933529747791589"><ele>463.0</ele><time>2026-04-04T10:13:30.001Z</time></trkpt><trkpt lat="43.19060760390451" lon="12.933368268778594"><ele>463.0</ele><time>2026-04-04T10:13:31.001Z</time></trkpt><trkpt lat="43.19063124174245" lon="12.93324630194038"><ele>461.0</ele><time>2026-04-04T10:13:32.001Z</time></trkpt><trkpt lat="43.19065522564037" lon="12.933122549741984"><ele>458.99999999999994</ele><time>2026-04-04T10:13:33.001Z</time></trkpt><trkpt lat="43.19062534383934" lon="12.932901483268024"><ele>456.99999999999994</ele><time>2026-04-04T10:13:34.001Z</time></trkpt><trkpt lat="43.190581082497566" lon="12.932810005085674"><ele>455.0</ele><time>2026-04-04T10:13:35.001Z</time></trkpt><trkpt lat="43.19053452626677" lon="12.932715009158363"><ele>453.0</ele><time>2026-04-04T10:13:36.001Z</time></trkpt><trkpt lat="43.190476899235875" lon="12.932616565335586"><ele>453.4</ele><time>2026-04-04T10:13:37.001Z</time></trkpt><trkpt lat="43.19039020525082" lon="12.932550192286264"><ele>453.79999999999995</ele><time>2026-04-04T10:13:38.001Z</time></trkpt><trkpt lat="43.19031492452433" lon="12.932469623070187"><ele>454.2</ele><time>2026-04-04T10:13:39.001Z</time></trkpt><trkpt lat="43.19024774699857" lon="12.932367260349862"><ele>454.6</ele><time>2026-04-04T10:13:40.001Z</time></trkpt><trkpt lat="43.19018348478963" lon="12.932267522472799"><ele>455.0</ele><time>2026-04-04T10:13:41.001Z</time></trkpt><trkpt lat="43.190113824523166" lon="12.932180631718857"><ele>454.99999999999994</ele><time>2026-04-04T10:13:42.001Z</time></trkpt><trkpt lat="43.190040932324955" lon="12.932092896503434"><ele>455.0</ele><time>2026-04-04T10:13:43.001Z</time></trkpt><trkpt lat="43.18997258976424" lon="12.932025079202376"><ele>455.0</ele><time>2026-04-04T10:13:44.001Z</time></trkpt><trkpt lat="43.189901204222295" lon="12.931998364648344"><ele>455.0</ele><time>2026-04-04T10:13:45.001Z</time></trkpt><trkpt lat="43.18983657213242" lon="12.931975601199852"><ele>454.99999999999994</ele><time>2026-04-04T10:13:46.001Z</time></trkpt><trkpt lat="43.189768632456065" lon="12.931952680772582"><ele>455.0</ele><time>2026-04-04T10:13:47.001Z</time></trkpt><trkpt lat="43.18969867541861" lon="12.931916416742832"><ele>454.8333333333333</ele><time>2026-04-04T10:13:48.001Z</time></trkpt><trkpt lat="43.18961326183853" lon="12.931874502898635"><ele>454.66666666666663</ele><time>2026-04-04T10:13:49.001Z</time></trkpt><trkpt lat="43.1895215437619" lon="12.931865813959556"><ele>454.5</ele><time>2026-04-04T10:13:50.001Z</time></trkpt><trkpt lat="43.18943309141641" lon="12.931841476833737"><ele>454.33333333333337</ele><time>2026-04-04T10:13:51.001Z</time></trkpt><trkpt lat="43.189346014411065" lon="12.931840924374168"><ele>454.1666666666667</ele><time>2026-04-04T10:13:52.001Z</time></trkpt><trkpt lat="43.18926082955884" lon="12.931819906225487"><ele>454.0</ele><time>2026-04-04T10:13:53.001Z</time></trkpt><trkpt lat="43.18917271858493" lon="12.931798166102844"><ele>454.00000000000006</ele><time>2026-04-04T10:13:54.001Z</time></trkpt><trkpt lat="43.18908168885539" lon="12.931799246342992"><ele>454.0</ele><time>2026-04-04T10:13:55.001Z</time></trkpt><trkpt lat="43.18899980156606" lon="12.931767169217219"><ele>454.0</ele><time>2026-04-04T10:13:56.001Z</time></trkpt><trkpt lat="43.18892414972931" lon="12.931757659709419"><ele>454.0</ele><time>2026-04-04T10:13:57.001Z</time></trkpt><trkpt lat="43.18885271929433" lon="12.931763954994082"><ele>454.00000000000006</ele><time>2026-04-04T10:13:58.001Z</time></trkpt><trkpt lat="43.18878007570976" lon="12.93177253041958"><ele>454.0</ele><time>2026-04-04T10:13:59.001Z</time></trkpt><trkpt lat="43.18871019994995" lon="12.931777187385608"><ele>454.2</ele><time>2026-04-04T10:14:00.001Z</time></trkpt><trkpt lat="43.18859391161769" lon="12.931752362196304"><ele>454.4</ele><time>2026-04-04T10:14:02.001Z</time></trkpt><trkpt lat="43.18849523451445" lon="12.931750992822664"><ele>454.6</ele><time>2026-04-04T10:14:04Z</time></trkpt><trkpt lat="43.18837811314173" lon="12.931767068344149"><ele>454.8</ele><time>2026-04-04T10:14:06Z</time></trkpt><trkpt lat="43.188301106557624" lon="12.931774560462072"><ele>455.0</ele><time>2026-04-04T10:14:08Z</time></trkpt><trkpt lat="43.18821991141053" lon="12.93178320878697"><ele>454.99999999999994</ele><time>2026-04-04T10:14:10Z</time></trkpt><trkpt lat="43.18813425183989" lon="12.93177041075925"><ele>455.0</ele><time>2026-04-04T10:14:12Z</time></trkpt><trkpt lat="43.18805098059829" lon="12.931729550974838"><ele>455.0</ele><time>2026-04-04T10:14:14Z</time></trkpt><trkpt lat="43.18797460683405" lon="12.931652566190033"><ele>455.0</ele><time>2026-04-04T10:14:16Z</time></trkpt><trkpt lat="43.18792286007242" lon="12.9315962698452"><ele>454.99999999999994</ele><time>2026-04-04T10:14:17Z</time></trkpt><trkpt lat="43.18786469633425" lon="12.931471341067894"><ele>455.0</ele><time>2026-04-04T10:14:19Z</time></trkpt><trkpt lat="43.18785715127442" lon="12.931357210436264"><ele>454.99999999999994</ele><time>2026-04-04T10:14:21Z</time></trkpt><trkpt lat="43.187890860668055" lon="12.931257600952309"><ele>455.0</ele><time>2026-04-04T10:14:24Z</time></trkpt><trkpt lat="43.18797036785609" lon="12.931155473580883"><ele>455.0</ele><time>2026-04-04T10:14:26Z</time></trkpt><trkpt lat="43.188024854490806" lon="12.931102947388165"><ele>455.0</ele><time>2026-04-04T10:14:27Z</time></trkpt><trkpt lat="43.188074287872844" lon="12.93104929200209"><ele>454.99999999999994</ele><time>2026-04-04T10:14:28Z</time></trkpt><trkpt lat="43.18811428218487" lon="12.930950265155237"><ele>455.0</ele><time>2026-04-04T10:14:30Z</time></trkpt><trkpt lat="43.18818009554874" lon="12.930907257203112"><ele>457.2</ele><time>2026-04-04T10:14:31Z</time></trkpt><trkpt lat="43.18822891355002" lon="12.930804039006878"><ele>459.4</ele><time>2026-04-04T10:14:32Z</time></trkpt><trkpt lat="43.188318366563" lon="12.930756085677332"><ele>461.6</ele><time>2026-04-04T10:14:33Z</time></trkpt><trkpt lat="43.18839587275787" lon="12.930694904127781"><ele>463.8</ele><time>2026-04-04T10:14:34Z</time></trkpt><trkpt lat="43.188473384974955" lon="12.930636552253091"><ele>466.0</ele><time>2026-04-04T10:14:35Z</time></trkpt><trkpt lat="43.18856175089116" lon="12.930569781313116"><ele>466.0</ele><time>2026-04-04T10:14:36Z</time></trkpt><trkpt lat="43.18865423251033" lon="12.930499900436569"><ele>466.0</ele><time>2026-04-04T10:14:37Z</time></trkpt><trkpt lat="43.18875026012349" lon="12.930427340164652"><ele>466.0</ele><time>2026-04-04T10:14:38Z</time></trkpt><trkpt lat="43.188829165476434" lon="12.930367717881163"><ele>466.0</ele><time>2026-04-04T10:14:39Z</time></trkpt><trkpt lat="43.18889175599336" lon="12.930292233923655"><ele>466.0</ele><time>2026-04-04T10:14:40Z</time></trkpt><trkpt lat="43.1889607656913" lon="12.930280626545231"><ele>469.75</ele><time>2026-04-04T10:14:41Z</time></trkpt><trkpt lat="43.18906605392373" lon="12.930281941467266"><ele>473.5</ele><time>2026-04-04T10:14:43Z</time></trkpt><trkpt lat="43.1891791015077" lon="12.930128169171054"><ele>477.25</ele><time>2026-04-04T10:14:45Z</time></trkpt><trkpt lat="43.1891730805215" lon="12.929954952028586"><ele>481.0</ele><time>2026-04-04T10:14:47Z</time></trkpt><trkpt lat="43.18913218810049" lon="12.929840584598093"><ele>481.0</ele><time>2026-04-04T10:14:48Z</time></trkpt><trkpt lat="43.18906569969149" lon="12.929745174257384"><ele>481.0</ele><time>2026-04-04T10:14:49Z</time></trkpt><trkpt lat="43.18898966983524" lon="12.929661735031598"><ele>481.0</ele><time>2026-04-04T10:14:50Z</time></trkpt><trkpt lat="43.18890989687211" lon="12.929577689610426"><ele>481.0</ele><time>2026-04-04T10:14:51Z</time></trkpt><trkpt lat="43.18883202642458" lon="12.929502716307661"><ele>481.0</ele><time>2026-04-04T10:14:52Z</time></trkpt><trkpt lat="43.18873494147624" lon="12.929438020847911"><ele>479.33333333333337</ele><time>2026-04-04T10:14:53Z</time></trkpt><trkpt lat="43.18865087354045" lon="12.929389501290732"><ele>477.6666666666667</ele><time>2026-04-04T10:14:54Z</time></trkpt><trkpt lat="43.18858602520296" lon="12.92931454329006"><ele>476.0</ele><time>2026-04-04T10:14:55Z</time></trkpt><trkpt lat="43.188520227577555" lon="12.929258603701177"><ele>474.33333333333337</ele><time>2026-04-04T10:14:56Z</time></trkpt><trkpt lat="43.18846163855466" lon="12.929194218837191"><ele>472.6666666666667</ele><time>2026-04-04T10:14:57Z</time></trkpt><trkpt lat="43.18841249677363" lon="12.929123436134246"><ele>471.0</ele><time>2026-04-04T10:14:58Z</time></trkpt><trkpt lat="43.18836258579665" lon="12.929035437199895"><ele>471.3333333333333</ele><time>2026-04-04T10:14:59Z</time></trkpt><trkpt lat="43.1883094132858" lon="12.928928417968256"><ele>471.66666666666663</ele><time>2026-04-04T10:15:00Z</time></trkpt><trkpt lat="43.18824904278083" lon="12.92883442476785"><ele>472.0</ele><time>2026-04-04T10:15:01Z</time></trkpt><trkpt lat="43.188210542435804" lon="12.928724959589104"><ele>472.3333333333333</ele><time>2026-04-04T10:15:02Z</time></trkpt><trkpt lat="43.18817398599497" lon="12.928628900943755"><ele>472.66666666666663</ele><time>2026-04-04T10:15:03Z</time></trkpt><trkpt lat="43.18814353117758" lon="12.928548329453555"><ele>473.0</ele><time>2026-04-04T10:15:04Z</time></trkpt><trkpt lat="43.188125536170695" lon="12.92845852580122"><ele>476.66666666666663</ele><time>2026-04-04T10:15:05Z</time></trkpt><trkpt lat="43.18807879760237" lon="12.928360121513224"><ele>480.3333333333333</ele><time>2026-04-04T10:15:06Z</time></trkpt><trkpt lat="43.18804612463199" lon="12.928251757470143"><ele>484.0</ele><time>2026-04-04T10:15:07Z</time></trkpt><trkpt lat="43.187994045536975" lon="12.928171192842614"><ele>487.66666666666663</ele><time>2026-04-04T10:15:08Z</time></trkpt><trkpt lat="43.187943354942846" lon="12.928108516896966"><ele>491.3333333333333</ele><time>2026-04-04T10:15:09Z</time></trkpt><trkpt lat="43.187854462070035" lon="12.928007986974372"><ele>495.0</ele><time>2026-04-04T10:15:11Z</time></trkpt><trkpt lat="43.18780996645258" lon="12.927887496521334"><ele>495.0</ele><time>2026-04-04T10:15:13Z</time></trkpt><trkpt lat="43.18778162582215" lon="12.927735369339945"><ele>495.0</ele><time>2026-04-04T10:15:15Z</time></trkpt><trkpt lat="43.18769724056419" lon="12.927596209155572"><ele>495.0</ele><time>2026-04-04T10:15:17Z</time></trkpt><trkpt lat="43.187651109944" lon="12.927522162908112"><ele>495.0</ele><time>2026-04-04T10:15:18Z</time></trkpt><trkpt lat="43.18761064379837" lon="12.927450458298466"><ele>495.0</ele><time>2026-04-04T10:15:19Z</time></trkpt><trkpt lat="43.187544888287334" lon="12.927327590446932"><ele>493.3333333333333</ele><time>2026-04-04T10:15:21.001Z</time></trkpt><trkpt lat="43.18748464223114" lon="12.927276394620074"><ele>491.66666666666663</ele><time>2026-04-04T10:15:22.001Z</time></trkpt><trkpt lat="43.18743580207233" lon="12.927211628262762"><ele>490.0</ele><time>2026-04-04T10:15:23.001Z</time></trkpt><trkpt lat="43.18739294701278" lon="12.927137814439112"><ele>488.3333333333333</ele><time>2026-04-04T10:15:24.001Z</time></trkpt><trkpt lat="43.187355680972935" lon="12.927061668843752"><ele>486.66666666666663</ele><time>2026-04-04T10:15:25.001Z</time></trkpt><trkpt lat="43.18727742614938" lon="12.926920268365446"><ele>485.0</ele><time>2026-04-04T10:15:27.001Z</time></trkpt><trkpt lat="43.1872286313521" lon="12.926807750839822"><ele>489.0</ele><time>2026-04-04T10:15:28.001Z</time></trkpt><trkpt lat="43.1871854451945" lon="12.926679856737552"><ele>493.0</ele><time>2026-04-04T10:15:29.001Z</time></trkpt><trkpt lat="43.187131609863265" lon="12.92655373946398"><ele>497.0</ele><time>2026-04-04T10:15:30.001Z</time></trkpt><trkpt lat="43.18709041528182" lon="12.926448537950908"><ele>501.0</ele><time>2026-04-04T10:15:31.001Z</time></trkpt><trkpt lat="43.18705713903898" lon="12.926352783433861"><ele>505.0</ele><time>2026-04-04T10:15:32.001Z</time></trkpt><trkpt lat="43.18703084402813" lon="12.9262505438051"><ele>505.00000000000006</ele><time>2026-04-04T10:15:33.001Z</time></trkpt><trkpt lat="43.18699793715618" lon="12.926166484149567"><ele>505.0</ele><time>2026-04-04T10:15:34.001Z</time></trkpt><trkpt lat="43.1869520632654" lon="12.926053806670573"><ele>505.0</ele><time>2026-04-04T10:15:35.001Z</time></trkpt><trkpt lat="43.186910497655646" lon="12.92594300250817"><ele>505.0</ele><time>2026-04-04T10:15:36.001Z</time></trkpt><trkpt lat="43.18686085205316" lon="12.925828804335119"><ele>505.00000000000006</ele><time>2026-04-04T10:15:37.001Z</time></trkpt><trkpt lat="43.186820992852304" lon="12.925725259045548"><ele>505.0</ele><time>2026-04-04T10:15:38.001Z</time></trkpt><trkpt lat="43.186769013854125" lon="12.925588320534969"><ele>508.83333333333337</ele><time>2026-04-04T10:15:39.001Z</time></trkpt><trkpt lat="43.18673548446621" lon="12.925494696969341"><ele>512.6666666666667</ele><time>2026-04-04T10:15:40.001Z</time></trkpt><trkpt lat="43.1867083399618" lon="12.925411705112094"><ele>516.5</ele><time>2026-04-04T10:15:41.001Z</time></trkpt><trkpt lat="43.18665939566743" lon="12.925249082813057"><ele>520.3333333333334</ele><time>2026-04-04T10:15:43.001Z</time></trkpt><trkpt lat="43.186627468146035" lon="12.92513918420927"><ele>524.1666666666666</ele><time>2026-04-04T10:15:44.001Z</time></trkpt><trkpt lat="43.18660519719097" lon="12.925028461147926"><ele>528.0</ele><time>2026-04-04T10:15:45.001Z</time></trkpt><trkpt lat="43.18658672405852" lon="12.924926403423534"><ele>525.5</ele><time>2026-04-04T10:15:46.001Z</time></trkpt><trkpt lat="43.186566552807015" lon="12.924834108743621"><ele>523.0</ele><time>2026-04-04T10:15:47.001Z</time></trkpt><trkpt lat="43.18653235029149" lon="12.924712227320292"><ele>520.5</ele><time>2026-04-04T10:15:48.001Z</time></trkpt><trkpt lat="43.18650714269783" lon="12.924608346903856"><ele>518.0</ele><time>2026-04-04T10:15:49.001Z</time></trkpt><trkpt lat="43.186484386199346" lon="12.92452374342989"><ele>515.5</ele><time>2026-04-04T10:15:50.001Z</time></trkpt><trkpt lat="43.18646105752584" lon="12.924396429608423"><ele>513.0</ele><time>2026-04-04T10:15:52.001Z</time></trkpt><trkpt lat="43.18644199999915" lon="12.924255811953117"><ele>515.8333333333334</ele><time>2026-04-04T10:15:54.001Z</time></trkpt><trkpt lat="43.186426329362014" lon="12.92416463826808"><ele>518.6666666666666</ele><time>2026-04-04T10:15:55.001Z</time></trkpt><trkpt lat="43.18640441048121" lon="12.924067476969169"><ele>521.5</ele><time>2026-04-04T10:15:56.001Z</time></trkpt><trkpt lat="43.186390394616154" lon="12.923980209158282"><ele>524.3333333333333</ele><time>2026-04-04T10:15:57.001Z</time></trkpt><trkpt lat="43.18637851914755" lon="12.923850166537155"><ele>527.1666666666666</ele><time>2026-04-04T10:15:59.001Z</time></trkpt><trkpt lat="43.18641246652182" lon="12.923750273830965"><ele>530.0</ele><time>2026-04-04T10:16:02.001Z</time></trkpt><trkpt lat="43.18646856420811" lon="12.923701080234"><ele>530.0</ele><time>2026-04-04T10:16:06.001Z</time></trkpt><trkpt lat="43.186494813656275" lon="12.923617914632548"><ele>530.0</ele><time>2026-04-04T10:16:12.001Z</time></trkpt><trkpt lat="43.18651510634601" lon="12.923529564345968"><ele>530.0</ele><time>2026-04-04T10:16:22.001Z</time></trkpt><trkpt lat="43.186517549543424" lon="12.923394630712618"><ele>530.0</ele><time>2026-04-04T10:16:27.001Z</time></trkpt><trkpt lat="43.18653663803855" lon="12.923251388997633"><ele>530.0</ele><time>2026-04-04T10:16:29.001Z</time></trkpt><trkpt lat="43.18655646355662" lon="12.92314916889033"><ele>530.0</ele><time>2026-04-04T10:16:31.001Z</time></trkpt><trkpt lat="43.18659326054269" lon="12.923027967632303"><ele>538.0</ele><time>2026-04-04T10:16:33.001Z</time></trkpt><trkpt lat="43.18662535668349" lon="12.922943357068794"><ele>546.0</ele><time>2026-04-04T10:16:35.001Z</time></trkpt><trkpt lat="43.18664375755734" lon="12.922827639972125"><ele>554.0</ele><time>2026-04-04T10:16:37.001Z</time></trkpt><trkpt lat="43.1866647389791" lon="12.922744216339483"><ele>562.0</ele><time>2026-04-04T10:16:39.001Z</time></trkpt><trkpt lat="43.18670641264178" lon="12.922623409048168"><ele>570.0</ele><time>2026-04-04T10:16:43.001Z</time></trkpt><trkpt lat="43.186743483436686" lon="12.922544558454486"><ele>578.0</ele><time>2026-04-04T10:16:45.001Z</time></trkpt><trkpt lat="43.18677948236383" lon="12.922423871361929"><ele>578.0</ele><time>2026-04-04T10:16:47.001Z</time></trkpt><trkpt lat="43.18682229261574" lon="12.922321234628686"><ele>578.0</ele><time>2026-04-04T10:16:49.001Z</time></trkpt><trkpt lat="43.186908925016056" lon="12.922272453103655"><ele>578.0</ele><time>2026-04-04T10:16:52.001Z</time></trkpt><trkpt lat="43.186985602019995" lon="12.92221940522779"><ele>578.0</ele><time>2026-04-04T10:16:54.001Z</time></trkpt><trkpt lat="43.18704952307178" lon="12.92213257044081"><ele>578.0</ele><time>2026-04-04T10:16:56.001Z</time></trkpt><trkpt lat="43.18710599936105" lon="12.922036686112653"><ele>578.0</ele><time>2026-04-04T10:16:58.001Z</time></trkpt><trkpt lat="43.187166227727175" lon="12.921949556434763"><ele>578.0</ele><time>2026-04-04T10:17:00.001Z</time></trkpt><trkpt lat="43.18721461794399" lon="12.921835980562014"><ele>578.0</ele><time>2026-04-04T10:17:03.001Z</time></trkpt><trkpt lat="43.18731967261145" lon="12.921793101803138"><ele>578.0</ele><time>2026-04-04T10:17:06.001Z</time></trkpt><trkpt lat="43.187411421738844" lon="12.921738869604795"><ele>578.0</ele><time>2026-04-04T10:17:08.001Z</time></trkpt><trkpt lat="43.18747825307838" lon="12.921689432862937"><ele>578.0</ele><time>2026-04-04T10:17:10.001Z</time></trkpt><trkpt lat="43.18755359651075" lon="12.921698680376851"><ele>584.1999999999999</ele><time>2026-04-04T10:17:13.001Z</time></trkpt><trkpt lat="43.18770141867723" lon="12.92170439136021"><ele>590.4</ele><time>2026-04-04T10:17:28.001Z</time></trkpt><trkpt lat="43.18775571741615" lon="12.921656064852858"><ele>596.5999999999999</ele><time>2026-04-04T10:17:30.001Z</time></trkpt><trkpt lat="43.18782670294195" lon="12.921550981743108"><ele>602.8</ele><time>2026-04-04T10:17:32.001Z</time></trkpt><trkpt lat="43.18788071426219" lon="12.92148341016705"><ele>609.0</ele><time>2026-04-04T10:17:33.001Z</time></trkpt><trkpt lat="43.187929005770386" lon="12.921424806036905"><ele>609.0</ele><time>2026-04-04T10:17:34.001Z</time></trkpt><trkpt lat="43.18802562814625" lon="12.92134555596701"><ele>609.0</ele><time>2026-04-04T10:17:36.001Z</time></trkpt><trkpt lat="43.18805735757665" lon="12.921239561789621"><ele>609.0</ele><time>2026-04-04T10:17:37.001Z</time></trkpt><trkpt lat="43.18810651255654" lon="12.921118708279138"><ele>609.0</ele><time>2026-04-04T10:17:39.001Z</time></trkpt><trkpt lat="43.18816044593008" lon="12.92107157852402"><ele>609.0</ele><time>2026-04-04T10:17:40.001Z</time></trkpt><trkpt lat="43.18821515386016" lon="12.920996203207498"><ele>609.0</ele><time>2026-04-04T10:17:41.001Z</time></trkpt><trkpt lat="43.188302085065224" lon="12.920876357683634"><ele>610.6</ele><time>2026-04-04T10:17:43.001Z</time></trkpt><trkpt lat="43.1883991739061" lon="12.920761451993167"><ele>612.2</ele><time>2026-04-04T10:17:45.001Z</time></trkpt><trkpt lat="43.188437787103425" lon="12.920683372366634"><ele>613.8000000000001</ele><time>2026-04-04T10:17:46.001Z</time></trkpt><trkpt lat="43.188479804165716" lon="12.920618206534959"><ele>615.4</ele><time>2026-04-04T10:17:47.001Z</time></trkpt><trkpt lat="43.18856627806315" lon="12.920524450096766"><ele>617.0</ele><time>2026-04-04T10:17:49.001Z</time></trkpt><trkpt lat="43.1886651339143" lon="12.920489995533181"><ele>617.0</ele><time>2026-04-04T10:17:51.001Z</time></trkpt><trkpt lat="43.18873796011141" lon="12.920448004692563"><ele>617.0</ele><time>2026-04-04T10:17:53.001Z</time></trkpt><trkpt lat="43.18881978365203" lon="12.920357437544913"><ele>617.0</ele><time>2026-04-04T10:17:55.001Z</time></trkpt><trkpt lat="43.188902619576446" lon="12.920323192172548"><ele>617.0</ele><time>2026-04-04T10:17:57.001Z</time></trkpt><trkpt lat="43.189038502907664" lon="12.920309899081907"><ele>617.0</ele><time>2026-04-04T10:18:05.001Z</time></trkpt><trkpt lat="43.18909808290826" lon="12.920238263241481"><ele>622.8333333333333</ele><time>2026-04-04T10:18:08.001Z</time></trkpt><trkpt lat="43.18915525871884" lon="12.920185283589857"><ele>628.6666666666666</ele><time>2026-04-04T10:18:10.001Z</time></trkpt><trkpt lat="43.189225355413946" lon="12.920157055740738"><ele>634.5</ele><time>2026-04-04T10:18:12.001Z</time></trkpt><trkpt lat="43.189361060513264" lon="12.920154362751477"><ele>640.3333333333334</ele><time>2026-04-04T10:18:17.001Z</time></trkpt><trkpt lat="43.18943280801553" lon="12.920178409025164"><ele>646.1666666666667</ele><time>2026-04-04T10:18:19.001Z</time></trkpt><trkpt lat="43.189526657363956" lon="12.920201114180125"><ele>652.0</ele><time>2026-04-04T10:18:21Z</time></trkpt><trkpt lat="43.18965695258267" lon="12.92020433070759"><ele>659.0</ele><time>2026-04-04T10:18:25Z</time></trkpt><trkpt lat="43.18991282182171" lon="12.92021052514791"><ele>666.0</ele><time>2026-04-04T10:18:32Z</time></trkpt><trkpt lat="43.189972014273636" lon="12.920251890185666"><ele>673.0</ele><time>2026-04-04T10:18:34Z</time></trkpt><trkpt lat="43.19005567231511" lon="12.920298743685668"><ele>680.0</ele><time>2026-04-04T10:18:37Z</time></trkpt><trkpt lat="43.19013757601874" lon="12.920305346824989"><ele>680.0</ele><time>2026-04-04T10:18:39Z</time></trkpt><trkpt lat="43.19021433607185" lon="12.920269990337918"><ele>680.0</ele><time>2026-04-04T10:18:41Z</time></trkpt><trkpt lat="43.190281616928644" lon="12.92024610365931"><ele>680.0</ele><time>2026-04-04T10:18:43Z</time></trkpt><trkpt lat="43.19041413787057" lon="12.920177440347217"><ele>680.0</ele><time>2026-04-04T10:18:46Z</time></trkpt><trkpt lat="43.19073389083094" lon="12.92018038291323"><ele>682.3333333333333</ele><time>2026-04-04T10:19:02Z</time></trkpt><trkpt lat="43.19084350886485" lon="12.920173924494879"><ele>684.6666666666666</ele><time>2026-04-04T10:19:08Z</time></trkpt><trkpt lat="43.190894308520015" lon="12.920104418894308"><ele>687.0</ele><time>2026-04-04T10:19:13Z</time></trkpt><trkpt lat="43.19093549572315" lon="12.920035289804668"><ele>689.3333333333334</ele><time>2026-04-04T10:19:25Z</time></trkpt><trkpt lat="43.190956646246384" lon="12.919943825812771"><ele>691.6666666666667</ele><time>2026-04-04T10:19:30Z</time></trkpt><trkpt lat="43.19097627309911" lon="12.919858257683114"><ele>694.0</ele><time>2026-04-04T10:19:33Z</time></trkpt><trkpt lat="43.19100240399987" lon="12.919745219208219"><ele>687.3333333333334</ele><time>2026-04-04T10:19:38Z</time></trkpt><trkpt lat="43.1910805000477" lon="12.91967544284813"><ele>680.6666666666667</ele><time>2026-04-04T10:19:46Z</time></trkpt><trkpt lat="43.1911367129533" lon="12.919613036396605"><ele>674.0</ele><time>2026-04-04T10:19:50Z</time></trkpt><trkpt lat="43.19116563223211" lon="12.919517271139632"><ele>667.3333333333334</ele><time>2026-04-04T10:19:54Z</time></trkpt><trkpt lat="43.19121886936076" lon="12.919466209421465"><ele>660.6666666666666</ele><time>2026-04-04T10:19:58Z</time></trkpt><trkpt lat="43.19121265571836" lon="12.919378213851502"><ele>654.0</ele><time>2026-04-04T10:20:10Z</time></trkpt><trkpt lat="43.191131771693165" lon="12.91941228172609"><ele>654.0</ele><time>2026-04-04T10:20:13Z</time></trkpt><trkpt lat="43.19106499984995" lon="12.91944455021652"><ele>654.0</ele><time>2026-04-04T10:20:15Z</time></trkpt><trkpt lat="43.19097819659129" lon="12.919458890033823"><ele>654.0</ele><time>2026-04-04T10:20:18Z</time></trkpt><trkpt lat="43.1908790134858" lon="12.919427902977212"><ele>654.0</ele><time>2026-04-04T10:20:22Z</time></trkpt><trkpt lat="43.19078072099481" lon="12.919394434386422"><ele>654.0</ele><time>2026-04-04T10:20:24Z</time></trkpt><trkpt lat="43.19068994781718" lon="12.919361715423873"><ele>653.5</ele><time>2026-04-04T10:20:27Z</time></trkpt><trkpt lat="43.190618070813834" lon="12.919348552033863"><ele>653.0</ele><time>2026-04-04T10:20:28Z</time></trkpt><trkpt lat="43.19055173356218" lon="12.919330985246782"><ele>652.5</ele><time>2026-04-04T10:20:29Z</time></trkpt><trkpt lat="43.19048580889088" lon="12.919327243121339"><ele>652.0</ele><time>2026-04-04T10:20:30Z</time></trkpt><trkpt lat="43.19041841957155" lon="12.919323648216725"><ele>651.5</ele><time>2026-04-04T10:20:31Z</time></trkpt><trkpt lat="43.190343050903806" lon="12.919307731845755"><ele>651.0</ele><time>2026-04-04T10:20:32Z</time></trkpt><trkpt lat="43.19021976664578" lon="12.919297870225009"><ele>651.0</ele><time>2026-04-04T10:20:34Z</time></trkpt><trkpt lat="43.1901440846094" lon="12.919280363980342"><ele>651.0</ele><time>2026-04-04T10:20:35Z</time></trkpt><trkpt lat="43.190064289270765" lon="12.919274162506685"><ele>651.0</ele><time>2026-04-04T10:20:36Z</time></trkpt><trkpt lat="43.18998361459444" lon="12.919258230084402"><ele>651.0</ele><time>2026-04-04T10:20:37Z</time></trkpt><trkpt lat="43.189910248076856" lon="12.919250633846179"><ele>651.0</ele><time>2026-04-04T10:20:38Z</time></trkpt><trkpt lat="43.18984680762993" lon="12.919259242294858"><ele>651.0</ele><time>2026-04-04T10:20:39Z</time></trkpt><trkpt lat="43.18978018476386" lon="12.919286101787877"><ele>651.0</ele><time>2026-04-04T10:20:40Z</time></trkpt><trkpt lat="43.189705915596136" lon="12.919340287242521"><ele>647.0</ele><time>2026-04-04T10:20:41Z</time></trkpt><trkpt lat="43.18963550553473" lon="12.919383644867068"><ele>643.0</ele><time>2026-04-04T10:20:42Z</time></trkpt><trkpt lat="43.1895820410699" lon="12.91948557336384"><ele>639.0</ele><time>2026-04-04T10:20:44.001Z</time></trkpt><trkpt lat="43.18952155187459" lon="12.919630893715269"><ele>635.0</ele><time>2026-04-04T10:20:46.001Z</time></trkpt><trkpt lat="43.189452427491275" lon="12.91971866540014"><ele>631.0</ele><time>2026-04-04T10:20:48.001Z</time></trkpt><trkpt lat="43.18936041223307" lon="12.919796015015821"><ele>631.0</ele><time>2026-04-04T10:20:50.001Z</time></trkpt><trkpt lat="43.18925936409857" lon="12.919857257839631"><ele>631.0</ele><time>2026-04-04T10:20:52.001Z</time></trkpt><trkpt lat="43.189192031279475" lon="12.919897000688882"><ele>631.0</ele><time>2026-04-04T10:20:54.001Z</time></trkpt><trkpt lat="43.1890941568674" lon="12.919918533686888"><ele>631.0</ele><time>2026-04-04T10:20:56.001Z</time></trkpt><trkpt lat="43.189026750337895" lon="12.919932519259328"><ele>631.0</ele><time>2026-04-04T10:20:57.001Z</time></trkpt><trkpt lat="43.188964362682626" lon="12.919949671013976"><ele>631.0</ele><time>2026-04-04T10:20:58.001Z</time></trkpt><trkpt lat="43.18884405235794" lon="12.919977984682477"><ele>628.6666666666667</ele><time>2026-04-04T10:21:00.001Z</time></trkpt><trkpt lat="43.188738096416174" lon="12.920015685116665"><ele>626.3333333333334</ele><time>2026-04-04T10:21:02.001Z</time></trkpt><trkpt lat="43.188663728940426" lon="12.920031511351208"><ele>624.0</ele><time>2026-04-04T10:21:04.001Z</time></trkpt><trkpt lat="43.188613413623955" lon="12.92009322614874"><ele>621.6666666666666</ele><time>2026-04-04T10:21:06.001Z</time></trkpt><trkpt lat="43.18855534070245" lon="12.920146414835484"><ele>619.3333333333333</ele><time>2026-04-04T10:21:08.001Z</time></trkpt><trkpt lat="43.188502260424514" lon="12.92025706743497"><ele>617.0</ele><time>2026-04-04T10:21:10Z</time></trkpt><trkpt lat="43.18844283127944" lon="12.920341248439836"><ele>617.0</ele><time>2026-04-04T10:21:12Z</time></trkpt><trkpt lat="43.18837085530215" lon="12.920422300210614"><ele>617.0</ele><time>2026-04-04T10:21:14Z</time></trkpt><trkpt lat="43.18829243394606" lon="12.920488457619298"><ele>617.0</ele><time>2026-04-04T10:21:16Z</time></trkpt><trkpt lat="43.188227767686755" lon="12.920545755477795"><ele>617.0</ele><time>2026-04-04T10:21:18Z</time></trkpt><trkpt lat="43.188185922085616" lon="12.920625746995299"><ele>617.0</ele><time>2026-04-04T10:21:25Z</time></trkpt><trkpt lat="43.18813245486035" lon="12.920695469442087"><ele>617.0</ele><time>2026-04-04T10:21:27Z</time></trkpt><trkpt lat="43.1880812493357" lon="12.920746420756231"><ele>615.6666666666666</ele><time>2026-04-04T10:21:29Z</time></trkpt><trkpt lat="43.18802668579123" lon="12.92082655782567"><ele>614.3333333333333</ele><time>2026-04-04T10:21:31Z</time></trkpt><trkpt lat="43.18798416378904" lon="12.92091205446136"><ele>613.0</ele><time>2026-04-04T10:21:33Z</time></trkpt><trkpt lat="43.18791303474393" lon="12.921034891781638"><ele>611.6666666666666</ele><time>2026-04-04T10:21:35Z</time></trkpt><trkpt lat="43.18787421222939" lon="12.921105306450762"><ele>610.3333333333334</ele><time>2026-04-04T10:21:36Z</time></trkpt><trkpt lat="43.18781257423656" lon="12.921236598608505"><ele>609.0</ele><time>2026-04-04T10:21:38Z</time></trkpt><trkpt lat="43.187771047688116" lon="12.921306426525126"><ele>609.0</ele><time>2026-04-04T10:21:39Z</time></trkpt><trkpt lat="43.18772194886608" lon="12.92137243995834"><ele>609.0</ele><time>2026-04-04T10:21:40Z</time></trkpt><trkpt lat="43.18768494706605" lon="12.921445723265077"><ele>609.0</ele><time>2026-04-04T10:21:41Z</time></trkpt><trkpt lat="43.18765399278594" lon="12.921522218482199"><ele>609.0</ele><time>2026-04-04T10:21:42Z</time></trkpt><trkpt lat="43.187617100213785" lon="12.921603595054854"><ele>609.0</ele><time>2026-04-04T10:21:43Z</time></trkpt><trkpt lat="43.18757672434924" lon="12.921694611786824"><ele>609.0</ele><time>2026-04-04T10:21:44Z</time></trkpt><trkpt lat="43.187554407388646" lon="12.92179209485317"><ele>609.0</ele><time>2026-04-04T10:21:45Z</time></trkpt><trkpt lat="43.1875328233772" lon="12.921901145926716"><ele>611.2</ele><time>2026-04-04T10:21:46Z</time></trkpt><trkpt lat="43.18750754488677" lon="12.922027519989973"><ele>613.4</ele><time>2026-04-04T10:21:47Z</time></trkpt><trkpt lat="43.18749622710218" lon="12.922126625380391"><ele>615.6</ele><time>2026-04-04T10:21:48Z</time></trkpt><trkpt lat="43.18746980649998" lon="12.922264563509302"><ele>617.8</ele><time>2026-04-04T10:21:50Z</time></trkpt><trkpt lat="43.1874281860042" lon="12.922421428569137"><ele>620.0</ele><time>2026-04-04T10:21:52Z</time></trkpt><trkpt lat="43.1873812758849" lon="12.922561400656946"><ele>619.0</ele><time>2026-04-04T10:21:54Z</time></trkpt><trkpt lat="43.18734443122101" lon="12.92270171546924"><ele>618.0</ele><time>2026-04-04T10:21:56Z</time></trkpt><trkpt lat="43.187300379908606" lon="12.922839760247296"><ele>617.0</ele><time>2026-04-04T10:21:58Z</time></trkpt><trkpt lat="43.187281010212935" lon="12.922933456981617"><ele>616.0</ele><time>2026-04-04T10:22:00Z</time></trkpt><trkpt lat="43.18726220204319" lon="12.923020797700875"><ele>615.0</ele><time>2026-04-04T10:22:02Z</time></trkpt><trkpt lat="43.18724173668594" lon="12.923107288572178"><ele>614.0</ele><time>2026-04-04T10:22:04Z</time></trkpt><trkpt lat="43.18719512908077" lon="12.923205165412043"><ele>611.6666666666666</ele><time>2026-04-04T10:22:09Z</time></trkpt><trkpt lat="43.187208483623905" lon="12.923306529644334"><ele>609.3333333333333</ele><time>2026-04-04T10:22:11Z</time></trkpt><trkpt lat="43.18723341612347" lon="12.923401150645628"><ele>607.0</ele><time>2026-04-04T10:22:13Z</time></trkpt><trkpt lat="43.1872879319316" lon="12.923471923250842"><ele>604.6666666666666</ele><time>2026-04-04T10:22:15Z</time></trkpt><trkpt lat="43.18733380980262" lon="12.9235572957146"><ele>602.3333333333334</ele><time>2026-04-04T10:22:17Z</time></trkpt><trkpt lat="43.18740552978562" lon="12.923658458366761"><ele>600.0</ele><time>2026-04-04T10:22:19Z</time></trkpt><trkpt lat="43.18746904941146" lon="12.923744718252443"><ele>600.0</ele><time>2026-04-04T10:22:21Z</time></trkpt><trkpt lat="43.187527786834046" lon="12.923842049599731"><ele>600.0</ele><time>2026-04-04T10:22:23Z</time></trkpt><trkpt lat="43.18755157465227" lon="12.923698918419086"><ele>600.0</ele><time>2026-04-04T10:22:27Z</time></trkpt><trkpt lat="43.18751794064286" lon="12.923581374648602"><ele>600.0</ele><time>2026-04-04T10:22:29Z</time></trkpt><trkpt lat="43.187497622533336" lon="12.923445400521112"><ele>600.0</ele><time>2026-04-04T10:22:31Z</time></trkpt><trkpt lat="43.18748886951295" lon="12.92329584237331"><ele>600.0</ele><time>2026-04-04T10:22:33Z</time></trkpt><trkpt lat="43.1874979175243" lon="12.923208772275062"><ele>600.0</ele><time>2026-04-04T10:22:35Z</time></trkpt><trkpt lat="43.18758080130704" lon="12.923250876280523"><ele>600.0</ele><time>2026-04-04T10:22:39Z</time></trkpt><trkpt lat="43.187656986435705" lon="12.92332257210772"><ele>600.0</ele><time>2026-04-04T10:22:41Z</time></trkpt><trkpt lat="43.18774680832631" lon="12.92340503418763"><ele>600.0</ele><time>2026-04-04T10:22:43Z</time></trkpt><trkpt lat="43.18783228265179" lon="12.923485290887376"><ele>600.0</ele><time>2026-04-04T10:22:45Z</time></trkpt><trkpt lat="43.18791257692835" lon="12.923560069080038"><ele>600.0</ele><time>2026-04-04T10:22:47Z</time></trkpt><trkpt lat="43.187989498035016" lon="12.92359321787801"><ele>600.0</ele><time>2026-04-04T10:22:49Z</time></trkpt><trkpt lat="43.188022706031894" lon="12.923509645258422"><ele>600.0</ele><time>2026-04-04T10:22:51Z</time></trkpt><trkpt lat="43.188000072102355" lon="12.923416953421464"><ele>600.0</ele><time>2026-04-04T10:22:53Z</time></trkpt><trkpt lat="43.188007659627125" lon="12.923287791268596"><ele>600.0</ele><time>2026-04-04T10:22:55Z</time></trkpt><trkpt lat="43.18800785412136" lon="12.92314177413789"><ele>602.3333333333334</ele><time>2026-04-04T10:22:57Z</time></trkpt><trkpt lat="43.18801801402322" lon="12.923025587182991"><ele>604.6666666666666</ele><time>2026-04-04T10:22:59Z</time></trkpt><trkpt lat="43.18806714723906" lon="12.922952734092926"><ele>607.0</ele><time>2026-04-04T10:23:02Z</time></trkpt><trkpt lat="43.18815639781966" lon="12.923014404175897"><ele>609.3333333333333</ele><time>2026-04-04T10:23:05Z</time></trkpt><trkpt lat="43.18821085693397" lon="12.923068648203259"><ele>611.6666666666666</ele><time>2026-04-04T10:23:06Z</time></trkpt><trkpt lat="43.18827675513363" lon="12.923132457169057"><ele>614.0</ele><time>2026-04-04T10:23:07Z</time></trkpt><trkpt lat="43.188345890540184" lon="12.923205284498842"><ele>620.6</ele><time>2026-04-04T10:23:08Z</time></trkpt><trkpt lat="43.188419279007846" lon="12.92329391733729"><ele>627.2</ele><time>2026-04-04T10:23:09Z</time></trkpt><trkpt lat="43.18850354133736" lon="12.9233894235993"><ele>633.8000000000001</ele><time>2026-04-04T10:23:10Z</time></trkpt><trkpt lat="43.1885887017435" lon="12.923486353952644"><ele>640.4</ele><time>2026-04-04T10:23:11Z</time></trkpt><trkpt lat="43.18867415985458" lon="12.92358143339367"><ele>647.0</ele><time>2026-04-04T10:23:12Z</time></trkpt><trkpt lat="43.18874161935199" lon="12.923668372897337"><ele>647.0</ele><time>2026-04-04T10:23:13Z</time></trkpt><trkpt lat="43.18879566955672" lon="12.923747729714652"><ele>647.0</ele><time>2026-04-04T10:23:14Z</time></trkpt><trkpt lat="43.188863869553074" lon="12.923852870628759"><ele>647.0</ele><time>2026-04-04T10:23:16Z</time></trkpt><trkpt lat="43.18890783413201" lon="12.92378792800484"><ele>647.0</ele><time>2026-04-04T10:23:19Z</time></trkpt><trkpt lat="43.188903720327346" lon="12.923685892958673"><ele>647.0</ele><time>2026-04-04T10:23:21Z</time></trkpt><trkpt lat="43.18891706228474" lon="12.923594068381874"><ele>647.0</ele><time>2026-04-04T10:23:23Z</time></trkpt><trkpt lat="43.188956698749536" lon="12.923501545427504"><ele>647.0</ele><time>2026-04-04T10:23:25Z</time></trkpt><trkpt lat="43.188995857796996" lon="12.923429752917677"><ele>647.0</ele><time>2026-04-04T10:23:27Z</time></trkpt><trkpt lat="43.18904613460359" lon="12.923359113542297"><ele>647.0</ele><time>2026-04-04T10:23:29Z</time></trkpt><trkpt lat="43.18911968940144" lon="12.92327842465798"><ele>647.0</ele><time>2026-04-04T10:23:31Z</time></trkpt><trkpt lat="43.18917568571572" lon="12.923183590506866"><ele>647.0</ele><time>2026-04-04T10:23:33Z</time></trkpt><trkpt lat="43.18922730865849" lon="12.9231150644468"><ele>647.0</ele><time>2026-04-04T10:23:35Z</time></trkpt><trkpt lat="43.18929636463887" lon="12.923043734338977"><ele>654.1666666666666</ele><time>2026-04-04T10:23:38Z</time></trkpt><trkpt lat="43.18936742052269" lon="12.922954484377675"><ele>661.3333333333333</ele><time>2026-04-04T10:23:41Z</time></trkpt><trkpt lat="43.18941881429388" lon="12.922879155331293"><ele>668.5</ele><time>2026-04-04T10:23:43Z</time></trkpt><trkpt lat="43.189480716699826" lon="12.922789001531724"><ele>675.6666666666666</ele><time>2026-04-04T10:23:46Z</time></trkpt><trkpt lat="43.18955023581637" lon="12.922711540492667"><ele>682.8333333333334</ele><time>2026-04-04T10:23:48Z</time></trkpt><trkpt lat="43.189621008180495" lon="12.922647446377432"><ele>690.0</ele><time>2026-04-04T10:23:51Z</time></trkpt><trkpt lat="43.18970297079244" lon="12.922593865913242"><ele>690.0</ele><time>2026-04-04T10:24:00Z</time></trkpt><trkpt lat="43.18976788518137" lon="12.922574740758545"><ele>690.0</ele><time>2026-04-04T10:24:02Z</time></trkpt><trkpt lat="43.189829899593796" lon="12.922536294125651"><ele>690.0</ele><time>2026-04-04T10:24:04Z</time></trkpt><trkpt lat="43.189894865561946" lon="12.92250069858795"><ele>690.0</ele><time>2026-04-04T10:24:06Z</time></trkpt><trkpt lat="43.189973014533784" lon="12.922466943906617"><ele>690.0</ele><time>2026-04-04T10:24:08Z</time></trkpt><trkpt lat="43.19005193584933" lon="12.92241569893436"><ele>690.0</ele><time>2026-04-04T10:24:10Z</time></trkpt><trkpt lat="43.19011885056659" lon="12.922399446896991"><ele>690.0</ele><time>2026-04-04T10:24:12Z</time></trkpt><trkpt lat="43.1902081413478" lon="12.922363874417064"><ele>697.6666666666666</ele><time>2026-04-04T10:24:15Z</time></trkpt><trkpt lat="43.19031785952331" lon="12.922329050343983"><ele>705.3333333333333</ele><time>2026-04-04T10:24:18Z</time></trkpt><trkpt lat="43.19038928779345" lon="12.922308094667738"><ele>713.0</ele><time>2026-04-04T10:24:20Z</time></trkpt><trkpt lat="43.19070098622361" lon="12.922325595513193"><ele>718.4</ele><time>2026-04-04T10:24:30Z</time></trkpt><trkpt lat="43.19076916410571" lon="12.922334318559594"><ele>723.8</ele><time>2026-04-04T10:24:31Z</time></trkpt><trkpt lat="43.19085822341215" lon="12.922353503722771"><ele>729.2</ele><time>2026-04-04T10:24:33Z</time></trkpt><trkpt lat="43.19094928945395" lon="12.922372732077351"><ele>734.6</ele><time>2026-04-04T10:24:35Z</time></trkpt><trkpt lat="43.19101294162622" lon="12.922378864191945"><ele>740.0</ele><time>2026-04-04T10:24:37Z</time></trkpt><trkpt lat="43.19138422642885" lon="12.922358687543706"><ele>740.0</ele><time>2026-04-04T10:25:11Z</time></trkpt><trkpt lat="43.19146752981263" lon="12.92242365829655"><ele>740.0</ele><time>2026-04-04T10:25:13Z</time></trkpt><trkpt lat="43.191539964086104" lon="12.922472677210292"><ele>740.0</ele><time>2026-04-04T10:25:15Z</time></trkpt><trkpt lat="43.19163505852083" lon="12.9225310656368"><ele>740.0</ele><time>2026-04-04T10:25:17Z</time></trkpt><trkpt lat="43.19173052487474" lon="12.922570949395558"><ele>740.0</ele><time>2026-04-04T10:25:19Z</time></trkpt><trkpt lat="43.19182723931625" lon="12.922598465361608"><ele>743.5</ele><time>2026-04-04T10:25:21Z</time></trkpt><trkpt lat="43.191887954860015" lon="12.922633648105107"><ele>747.0</ele><time>2026-04-04T10:25:22Z</time></trkpt><trkpt lat="43.192017857068265" lon="12.922661363787874"><ele>750.5</ele><time>2026-04-04T10:25:27Z</time></trkpt><trkpt lat="43.192097704121814" lon="12.922694239828976"><ele>754.0</ele><time>2026-04-04T10:25:29Z</time></trkpt><trkpt lat="43.19216067445311" lon="12.922718451965764"><ele>757.5</ele><time>2026-04-04T10:25:32Z</time></trkpt><trkpt lat="43.19224993045693" lon="12.922751688392726"><ele>761.0</ele><time>2026-04-04T10:25:35Z</time></trkpt><trkpt lat="43.1923327634891" lon="12.922820268718587"><ele>763.1666666666666</ele><time>2026-04-04T10:25:37.001Z</time></trkpt><trkpt lat="43.19240367481793" lon="12.922876607420838"><ele>765.3333333333333</ele><time>2026-04-04T10:25:38.001Z</time></trkpt><trkpt lat="43.19248821185587" lon="12.922927695506676"><ele>767.5</ele><time>2026-04-04T10:25:39.001Z</time></trkpt><trkpt lat="43.192553601618684" lon="12.922954052993902"><ele>769.6666666666666</ele><time>2026-04-04T10:25:40.001Z</time></trkpt><trkpt lat="43.192614396926274" lon="12.922983851645998"><ele>771.8333333333334</ele><time>2026-04-04T10:25:41.001Z</time></trkpt><trkpt lat="43.19269787595576" lon="12.923038470780234"><ele>774.0</ele><time>2026-04-04T10:25:43.001Z</time></trkpt><trkpt lat="43.19275908979797" lon="12.92310280462762"><ele>774.0</ele><time>2026-04-04T10:25:44.001Z</time></trkpt><trkpt lat="43.19284508158787" lon="12.923176151486174"><ele>774.0</ele><time>2026-04-04T10:25:46.001Z</time></trkpt><trkpt lat="43.19290645754306" lon="12.923212730352162"><ele>774.0</ele><time>2026-04-04T10:25:48.001Z</time></trkpt><trkpt lat="43.192972576780356" lon="12.923180617876376"><ele>774.0</ele><time>2026-04-04T10:25:55.001Z</time></trkpt><trkpt lat="43.19306893325003" lon="12.923266221677522"><ele>774.0</ele><time>2026-04-04T10:25:57.001Z</time></trkpt><trkpt lat="43.19313381373301" lon="12.923344679501378"><ele>774.0</ele><time>2026-04-04T10:25:59.001Z</time></trkpt><trkpt lat="43.193180630153634" lon="12.92342504654662"><ele>771.5</ele><time>2026-04-04T10:26:01.001Z</time></trkpt><trkpt lat="43.19325611421207" lon="12.923447778206292"><ele>769.0</ele><time>2026-04-04T10:26:05.001Z</time></trkpt><trkpt lat="43.19331877572186" lon="12.923517111239466"><ele>766.5</ele><time>2026-04-04T10:26:07.001Z</time></trkpt><trkpt lat="43.19338661357102" lon="12.92362196647156"><ele>764.0</ele><time>2026-04-04T10:26:09.001Z</time></trkpt><trkpt lat="43.19344359496151" lon="12.923724351301113"><ele>761.5</ele><time>2026-04-04T10:26:11.001Z</time></trkpt><trkpt lat="43.19350086807147" lon="12.923813962398482"><ele>759.0</ele><time>2026-04-04T10:26:13.001Z</time></trkpt><trkpt lat="43.19356980870689" lon="12.923883149648123"><ele>759.0</ele><time>2026-04-04T10:26:15.001Z</time></trkpt><trkpt lat="43.193629798014626" lon="12.923976944021287"><ele>759.0</ele><time>2026-04-04T10:26:17.001Z</time></trkpt><trkpt lat="43.19367577614576" lon="12.924068742725373"><ele>759.0</ele><time>2026-04-04T10:26:21.001Z</time></trkpt><trkpt lat="43.193746394048574" lon="12.924025965266354"><ele>759.0</ele><time>2026-04-04T10:26:26.001Z</time></trkpt><trkpt lat="43.19385369213011" lon="12.923898454786203"><ele>759.0</ele><time>2026-04-04T10:26:29.001Z</time></trkpt><trkpt lat="43.19391909289978" lon="12.923890098095061"><ele>759.0</ele><time>2026-04-04T10:26:30.001Z</time></trkpt><trkpt lat="43.19398908365969" lon="12.923866491368535"><ele>759.0</ele><time>2026-04-04T10:26:31.001Z</time></trkpt><trkpt lat="43.19405044425204" lon="12.923824589952515"><ele>759.0</ele><time>2026-04-04T10:26:32.001Z</time></trkpt><trkpt lat="43.19410810335269" lon="12.923785199858727"><ele>759.0</ele><time>2026-04-04T10:26:33.001Z</time></trkpt><trkpt lat="43.19417132556754" lon="12.923740642344766"><ele>759.0</ele><time>2026-04-04T10:26:34.001Z</time></trkpt><trkpt lat="43.19426814756233" lon="12.923668087722286"><ele>759.0</ele><time>2026-04-04T10:26:36.001Z</time></trkpt><trkpt lat="43.194331610496555" lon="12.923626246404124"><ele>756.25</ele><time>2026-04-04T10:26:38.001Z</time></trkpt><trkpt lat="43.194623342377625" lon="12.923615518511413"><ele>753.5</ele><time>2026-04-04T10:26:54.001Z</time></trkpt><trkpt lat="43.19466624813868" lon="12.92354518319418"><ele>750.75</ele><time>2026-04-04T10:26:59.001Z</time></trkpt><trkpt lat="43.194728386542984" lon="12.923488878153005"><ele>748.0</ele><time>2026-04-04T10:27:06.001Z</time></trkpt><trkpt lat="43.19478321426063" lon="12.92338528911309"><ele>748.0</ele><time>2026-04-04T10:27:09.001Z</time></trkpt><trkpt lat="43.194777181272734" lon="12.92327428576703"><ele>748.0</ele><time>2026-04-04T10:27:11.001Z</time></trkpt><trkpt lat="43.19476052831535" lon="12.923121726128693"><ele>748.0</ele><time>2026-04-04T10:27:13.001Z</time></trkpt><trkpt lat="43.1947552179925" lon="12.922959366015027"><ele>748.0</ele><time>2026-04-04T10:27:15.001Z</time></trkpt><trkpt lat="43.19473011067341" lon="12.922813292661226"><ele>748.0</ele><time>2026-04-04T10:27:17.001Z</time></trkpt><trkpt lat="43.19472756953942" lon="12.922700954643881"><ele>748.0</ele><time>2026-04-04T10:27:19.001Z</time></trkpt><trkpt lat="43.19473094690874" lon="12.92260727464032"><ele>748.0</ele><time>2026-04-04T10:27:21.001Z</time></trkpt><trkpt lat="43.19477880594224" lon="12.922455303998673"><ele>748.0</ele><time>2026-04-04T10:27:23.001Z</time></trkpt><trkpt lat="43.19479385450647" lon="12.92230851133593"><ele>748.0</ele><time>2026-04-04T10:27:25.001Z</time></trkpt><trkpt lat="43.19479287880855" lon="12.9222210059471"><ele>748.0</ele><time>2026-04-04T10:27:27.001Z</time></trkpt><trkpt lat="43.194883611423094" lon="12.92217412963689"><ele>748.0</ele><time>2026-04-04T10:28:08.001Z</time></trkpt><trkpt lat="43.19491693715356" lon="12.922252290841836"><ele>748.0</ele><time>2026-04-04T10:28:15Z</time></trkpt><trkpt lat="43.195069298868304" lon="12.92229821721827"><ele>748.0</ele><time>2026-04-04T10:29:07Z</time></trkpt><trkpt lat="43.19514441688699" lon="12.922269860881688"><ele>748.0</ele><time>2026-04-04T10:29:19Z</time></trkpt><trkpt lat="43.19516675983282" lon="12.922159926272489"><ele>748.0</ele><time>2026-04-04T10:29:22Z</time></trkpt><trkpt lat="43.19517924397401" lon="12.922061201022945"><ele>748.0</ele><time>2026-04-04T10:29:26Z</time></trkpt><trkpt lat="43.19527209853056" lon="12.921954954258739"><ele>748.0</ele><time>2026-04-04T10:29:29Z</time></trkpt><trkpt lat="43.19534609558773" lon="12.921881053413921"><ele>748.0</ele><time>2026-04-04T10:29:31Z</time></trkpt><trkpt lat="43.19543156977676" lon="12.921768947008696"><ele>748.0</ele><time>2026-04-04T10:29:33Z</time></trkpt><trkpt lat="43.195486284212194" lon="12.921695911719201"><ele>748.0</ele><time>2026-04-04T10:29:34Z</time></trkpt><trkpt lat="43.19555372470612" lon="12.921597639756524"><ele>747.6666666666667</ele><time>2026-04-04T10:29:35Z</time></trkpt><trkpt lat="43.1956069434802" lon="12.921504331916038"><ele>747.3333333333334</ele><time>2026-04-04T10:29:36Z</time></trkpt><trkpt lat="43.195643400954886" lon="12.921431822531519"><ele>747.0</ele><time>2026-04-04T10:29:37Z</time></trkpt><trkpt lat="43.19571281627462" lon="12.921300941357238"><ele>746.6666666666666</ele><time>2026-04-04T10:29:39Z</time></trkpt><trkpt lat="43.19576127820439" lon="12.921183886436818"><ele>746.3333333333333</ele><time>2026-04-04T10:29:41Z</time></trkpt><trkpt lat="43.19580075763038" lon="12.92108551597029"><ele>746.0</ele><time>2026-04-04T10:29:43Z</time></trkpt><trkpt lat="43.195859769922954" lon="12.921029578660926"><ele>751.0</ele><time>2026-04-04T10:29:47.001Z</time></trkpt><trkpt lat="43.195939710813484" lon="12.921051005260248"><ele>756.0</ele><time>2026-04-04T10:29:54.001Z</time></trkpt><trkpt lat="43.19588665516951" lon="12.921107186006623"><ele>761.0</ele><time>2026-04-04T10:29:59.001Z</time></trkpt><trkpt lat="43.1959042644354" lon="12.921190684478816"><ele>766.0</ele><time>2026-04-04T10:30:31.001Z</time></trkpt><trkpt lat="43.195829305722526" lon="12.921258068284883"><ele>771.0000000000001</ele><time>2026-04-04T10:31:56Z</time></trkpt><trkpt lat="43.19579463414161" lon="12.921411383623136"><ele>776.0</ele><time>2026-04-04T10:31:58Z</time></trkpt><trkpt lat="43.195750489397696" lon="12.921549115160737"><ele>776.0000000000001</ele><time>2026-04-04T10:32:00Z</time></trkpt><trkpt lat="43.19570595527556" lon="12.921696142921443"><ele>776.0</ele><time>2026-04-04T10:32:02Z</time></trkpt><trkpt lat="43.19565607052077" lon="12.921812690545325"><ele>776.0</ele><time>2026-04-04T10:32:04Z</time></trkpt><trkpt lat="43.19559721134977" lon="12.921891963713934"><ele>776.0</ele><time>2026-04-04T10:32:06Z</time></trkpt><trkpt lat="43.1955794138062" lon="12.921993123828763"><ele>776.0000000000001</ele><time>2026-04-04T10:32:08Z</time></trkpt><trkpt lat="43.19555946184983" lon="12.922082340871059"><ele>776.0</ele><time>2026-04-04T10:32:10Z</time></trkpt><trkpt lat="43.19552140477341" lon="12.92216399257132"><ele>772.0</ele><time>2026-04-04T10:32:12Z</time></trkpt><trkpt lat="43.195484305229506" lon="12.922238915119223"><ele>768.0</ele><time>2026-04-04T10:32:15Z</time></trkpt><trkpt lat="43.195455827794326" lon="12.922319991992333"><ele>764.0</ele><time>2026-04-04T10:32:39Z</time></trkpt><trkpt lat="43.19544330025085" lon="12.922408738156848"><ele>760.0</ele><time>2026-04-04T10:33:04Z</time></trkpt><trkpt lat="43.195419387207096" lon="12.92250831454393"><ele>756.0</ele><time>2026-04-04T10:33:17Z</time></trkpt><trkpt lat="43.195416733259826" lon="12.922607770395018"><ele>752.0</ele><time>2026-04-04T10:33:38Z</time></trkpt><trkpt lat="43.195411493774614" lon="12.922716557394434"><ele>748.0</ele><time>2026-04-04T10:33:45Z</time></trkpt><trkpt lat="43.19538182781425" lon="12.922806463811641"><ele>747.5999999999999</ele><time>2026-04-04T10:33:48Z</time></trkpt><trkpt lat="43.19533769633796" lon="12.922919086698096"><ele>747.1999999999999</ele><time>2026-04-04T10:33:51Z</time></trkpt><trkpt lat="43.19528914692004" lon="12.923069179515672"><ele>746.8</ele><time>2026-04-04T10:33:53Z</time></trkpt><trkpt lat="43.19528210457422" lon="12.923198256697047"><ele>746.4</ele><time>2026-04-04T10:33:54Z</time></trkpt><trkpt lat="43.19527857670562" lon="12.923333031515615"><ele>746.0</ele><time>2026-04-04T10:33:55Z</time></trkpt><trkpt lat="43.19528508312249" lon="12.923438064369687"><ele>746.0</ele><time>2026-04-04T10:33:56Z</time></trkpt><trkpt lat="43.19529505289015" lon="12.923546555026233"><ele>746.0</ele><time>2026-04-04T10:33:57Z</time></trkpt><trkpt lat="43.19530315281561" lon="12.92364459255484"><ele>746.0</ele><time>2026-04-04T10:33:58Z</time></trkpt><trkpt lat="43.1953081995399" lon="12.923741109401393"><ele>746.0</ele><time>2026-04-04T10:33:59Z</time></trkpt><trkpt lat="43.195330036659904" lon="12.9238715633452"><ele>746.0</ele><time>2026-04-04T10:34:06Z</time></trkpt><trkpt lat="43.195349504130036" lon="12.923973451587965"><ele>746.0</ele><time>2026-04-04T10:34:10Z</time></trkpt><trkpt lat="43.19533686978618" lon="12.924097085914866"><ele>746.0</ele><time>2026-04-04T10:34:13Z</time></trkpt><trkpt lat="43.19530404854158" lon="12.924202031381785"><ele>746.0</ele><time>2026-04-04T10:34:16Z</time></trkpt><trkpt lat="43.19534397432186" lon="12.92404300404873"><ele>746.0</ele><time>2026-04-04T10:34:34Z</time></trkpt><trkpt lat="43.19541651290972" lon="12.923881114033726"><ele>746.0</ele><time>2026-04-04T10:34:35Z</time></trkpt><trkpt lat="43.19542329923519" lon="12.923739672575621"><ele>746.0</ele><time>2026-04-04T10:34:37Z</time></trkpt><trkpt lat="43.195455145772115" lon="12.923649322594086"><ele>746.0</ele><time>2026-04-04T10:34:38Z</time></trkpt><trkpt lat="43.195468613772185" lon="12.923555669233037"><ele>746.0</ele><time>2026-04-04T10:34:42Z</time></trkpt><trkpt lat="43.195476314505456" lon="12.923463393177114"><ele>746.0</ele><time>2026-04-04T10:34:50Z</time></trkpt><trkpt lat="43.19546154818355" lon="12.923373946594321"><ele>746.0</ele><time>2026-04-04T10:35:03Z</time></trkpt><trkpt lat="43.19545978614389" lon="12.923281074500913"><ele>746.0</ele><time>2026-04-04T10:35:11Z</time></trkpt><trkpt lat="43.19543263973321" lon="12.923193195967489"><ele>746.0</ele><time>2026-04-04T10:35:56Z</time></trkpt><trkpt lat="43.19549303526655" lon="12.92316591139743"><ele>746.0</ele><time>2026-04-04T10:36:40Z</time></trkpt><trkpt lat="43.19544961923267" lon="12.923256722741778"><ele>746.0</ele><time>2026-04-04T10:37:09Z</time></trkpt><trkpt lat="43.195436980524455" lon="12.923167107371942"><ele>746.0</ele><time>2026-04-04T10:40:19Z</time></trkpt><trkpt lat="43.1954432864449" lon="12.923253205972864"><ele>746.0</ele><time>2026-04-04T10:44:55Z</time></trkpt><trkpt lat="43.1954204562949" lon="12.923170421821201"><ele>746.0</ele><time>2026-04-04T10:47:26Z</time></trkpt><trkpt lat="43.19540103512738" lon="12.923050437218455"><ele>746.0</ele><time>2026-04-04T10:47:29Z</time></trkpt><trkpt lat="43.19538687634312" lon="12.92293341416467"><ele>746.0</ele><time>2026-04-04T10:47:31Z</time></trkpt><trkpt lat="43.19538724617005" lon="12.922821667070986"><ele>746.0</ele><time>2026-04-04T10:47:33Z</time></trkpt><trkpt lat="43.19541739200821" lon="12.922715579284157"><ele>746.0</ele><time>2026-04-04T10:47:35Z</time></trkpt><trkpt lat="43.19543738017014" lon="12.922590107163488"><ele>746.0</ele><time>2026-04-04T10:47:37Z</time></trkpt><trkpt lat="43.19545540680821" lon="12.92246568942825"><ele>746.0</ele><time>2026-04-04T10:47:39Z</time></trkpt><trkpt lat="43.195459492999134" lon="12.922346487137004"><ele>746.0</ele><time>2026-04-04T10:47:41Z</time></trkpt><trkpt lat="43.1954702310545" lon="12.922241749774045"><ele>746.0</ele><time>2026-04-04T10:47:43Z</time></trkpt><trkpt lat="43.19549137577356" lon="12.922143939264542"><ele>746.3333333333333</ele><time>2026-04-04T10:47:45Z</time></trkpt><trkpt lat="43.19552046477049" lon="12.922053102602536"><ele>746.6666666666666</ele><time>2026-04-04T10:47:47Z</time></trkpt><trkpt lat="43.19553879890719" lon="12.921961958595041"><ele>747.0</ele><time>2026-04-04T10:47:49Z</time></trkpt><trkpt lat="43.19556834092775" lon="12.921881729045204"><ele>747.3333333333334</ele><time>2026-04-04T10:47:51Z</time></trkpt><trkpt lat="43.19561994828247" lon="12.921804879987782"><ele>747.6666666666667</ele><time>2026-04-04T10:47:53Z</time></trkpt><trkpt lat="43.195680814158976" lon="12.921709167583797"><ele>748.0</ele><time>2026-04-04T10:47:55Z</time></trkpt><trkpt lat="43.19572670827893" lon="12.92159471478903"><ele>752.6666666666667</ele><time>2026-04-04T10:47:57Z</time></trkpt><trkpt lat="43.19576467573833" lon="12.921473557635744"><ele>757.3333333333334</ele><time>2026-04-04T10:47:59Z</time></trkpt><trkpt lat="43.19580813227759" lon="12.92134618312959"><ele>762.0</ele><time>2026-04-04T10:48:01Z</time></trkpt><trkpt lat="43.195850220401454" lon="12.921234001475607"><ele>766.6666666666667</ele><time>2026-04-04T10:48:03Z</time></trkpt><trkpt lat="43.19589983461457" lon="12.921148896105597"><ele>771.3333333333334</ele><time>2026-04-04T10:48:05Z</time></trkpt><trkpt lat="43.19594972067277" lon="12.92109532942835"><ele>776.0</ele><time>2026-04-04T10:48:07Z</time></trkpt><trkpt lat="43.19600902371126" lon="12.921022596101942"><ele>776.0000000000001</ele><time>2026-04-04T10:48:09Z</time></trkpt><trkpt lat="43.1960889111622" lon="12.920938110982046"><ele>776.0</ele><time>2026-04-04T10:48:11Z</time></trkpt><trkpt lat="43.19617576570653" lon="12.920819271927211"><ele>776.0</ele><time>2026-04-04T10:48:13Z</time></trkpt><trkpt lat="43.19622265296372" lon="12.920749605642042"><ele>776.0</ele><time>2026-04-04T10:48:14Z</time></trkpt><trkpt lat="43.19627726925312" lon="12.9206807244557"><ele>776.0000000000001</ele><time>2026-04-04T10:48:15Z</time></trkpt><trkpt lat="43.19633802637683" lon="12.920622382444696"><ele>776.0</ele><time>2026-04-04T10:48:16Z</time></trkpt><trkpt lat="43.196402697179586" lon="12.920569943822908"><ele>776.0000000000001</ele><time>2026-04-04T10:48:17Z</time></trkpt><trkpt lat="43.19646778071224" lon="12.920510131672014"><ele>776.0</ele><time>2026-04-04T10:48:18Z</time></trkpt><trkpt lat="43.19654060455215" lon="12.920450307441754"><ele>776.0</ele><time>2026-04-04T10:48:19Z</time></trkpt><trkpt lat="43.196612542196775" lon="12.920397475065537"><ele>776.0</ele><time>2026-04-04T10:48:20Z</time></trkpt><trkpt lat="43.19668321834171" lon="12.920356014702495"><ele>776.0000000000001</ele><time>2026-04-04T10:48:21Z</time></trkpt><trkpt lat="43.19674638601998" lon="12.9203140077098"><ele>776.0</ele><time>2026-04-04T10:48:22Z</time></trkpt><trkpt lat="43.19681100984771" lon="12.920283007385228"><ele>775.1428571428571</ele><time>2026-04-04T10:48:23Z</time></trkpt><trkpt lat="43.19687884150703" lon="12.920255711142852"><ele>774.2857142857143</ele><time>2026-04-04T10:48:24Z</time></trkpt><trkpt lat="43.19695306932114" lon="12.920223676263506"><ele>773.4285714285714</ele><time>2026-04-04T10:48:25Z</time></trkpt><trkpt lat="43.19702955808952" lon="12.920198888302664"><ele>772.5714285714286</ele><time>2026-04-04T10:48:26Z</time></trkpt><trkpt lat="43.19709697208833" lon="12.92017960159437"><ele>771.7142857142858</ele><time>2026-04-04T10:48:27Z</time></trkpt><trkpt lat="43.19716437761832" lon="12.92016867933258"><ele>770.8571428571429</ele><time>2026-04-04T10:48:28Z</time></trkpt><trkpt lat="43.197231943214085" lon="12.920164723507007"><ele>770.0</ele><time>2026-04-04T10:48:29Z</time></trkpt><trkpt lat="43.19735520804255" lon="12.9201544488491"><ele>769.8333333333334</ele><time>2026-04-04T10:48:31Z</time></trkpt><trkpt lat="43.19742854811326" lon="12.920133418426202"><ele>769.6666666666667</ele><time>2026-04-04T10:48:32Z</time></trkpt><trkpt lat="43.19750852494199" lon="12.92010666754043"><ele>769.5</ele><time>2026-04-04T10:48:33Z</time></trkpt><trkpt lat="43.197584755716704" lon="12.920085278726331"><ele>769.3333333333333</ele><time>2026-04-04T10:48:34Z</time></trkpt><trkpt lat="43.19765842225608" lon="12.92006773762174"><ele>769.1666666666666</ele><time>2026-04-04T10:48:35Z</time></trkpt><trkpt lat="43.197725946613275" lon="12.92004449027003"><ele>769.0</ele><time>2026-04-04T10:48:36Z</time></trkpt><trkpt lat="43.19783571600716" lon="12.920029713875012"><ele>769.0</ele><time>2026-04-04T10:48:38Z</time></trkpt><trkpt lat="43.19791007827534" lon="12.920030347365067"><ele>769.0</ele><time>2026-04-04T10:48:40Z</time></trkpt><trkpt lat="43.19798695729463" lon="12.920041955548404"><ele>769.0</ele><time>2026-04-04T10:48:58Z</time></trkpt><trkpt lat="43.19806067500194" lon="12.920042859960594"><ele>769.0</ele><time>2026-04-04T10:49:00Z</time></trkpt><trkpt lat="43.19812418698954" lon="12.920034566661815"><ele>769.0</ele><time>2026-04-04T10:49:01Z</time></trkpt><trkpt lat="43.19819593942878" lon="12.920027387581715"><ele>769.0</ele><time>2026-04-04T10:49:02Z</time></trkpt><trkpt lat="43.19827279365642" lon="12.920016440904842"><ele>769.0</ele><time>2026-04-04T10:49:03Z</time></trkpt><trkpt lat="43.19834798248484" lon="12.919994419093568"><ele>769.8333333333333</ele><time>2026-04-04T10:49:04Z</time></trkpt><trkpt lat="43.19841965238964" lon="12.919942935848402"><ele>770.6666666666666</ele><time>2026-04-04T10:49:05Z</time></trkpt><trkpt lat="43.198481892686125" lon="12.919869281404345"><ele>771.5</ele><time>2026-04-04T10:49:06Z</time></trkpt><trkpt lat="43.198527631678" lon="12.919797374355646"><ele>772.3333333333333</ele><time>2026-04-04T10:49:07Z</time></trkpt><trkpt lat="43.19858832225972" lon="12.919714939898883"><ele>773.1666666666666</ele><time>2026-04-04T10:49:09Z</time></trkpt><trkpt lat="43.19859337358793" lon="12.919616648405661"><ele>774.0</ele><time>2026-04-04T10:49:11Z</time></trkpt><trkpt lat="43.19860323714122" lon="12.919517842177482"><ele>774.0</ele><time>2026-04-04T10:49:13Z</time></trkpt><trkpt lat="43.19862064166393" lon="12.919415072372155"><ele>774.0</ele><time>2026-04-04T10:49:15Z</time></trkpt><trkpt lat="43.19865252724489" lon="12.91932036751838"><ele>774.0</ele><time>2026-04-04T10:49:17Z</time></trkpt><trkpt lat="43.198685122149634" lon="12.919192845825927"><ele>774.0</ele><time>2026-04-04T10:49:19Z</time></trkpt><trkpt lat="43.19872220223161" lon="12.91908389687215"><ele>774.0</ele><time>2026-04-04T10:49:21Z</time></trkpt><trkpt lat="43.198765232789725" lon="12.918969921052023"><ele>774.0</ele><time>2026-04-04T10:49:23Z</time></trkpt><trkpt lat="43.198808112528575" lon="12.918902106643001"><ele>776.3333333333334</ele><time>2026-04-04T10:49:25Z</time></trkpt><trkpt lat="43.198845050791206" lon="12.918825295739255"><ele>778.6666666666667</ele><time>2026-04-04T10:49:27Z</time></trkpt><trkpt lat="43.19888779962127" lon="12.918754354092663"><ele>781.0</ele><time>2026-04-04T10:49:29Z</time></trkpt><trkpt lat="43.19893892484002" lon="12.91867615498319"><ele>783.3333333333334</ele><time>2026-04-04T10:49:31Z</time></trkpt><trkpt lat="43.198984523769965" lon="12.918590049817082"><ele>785.6666666666667</ele><time>2026-04-04T10:49:33Z</time></trkpt><trkpt lat="43.19905252875802" lon="12.918493512550222"><ele>788.0</ele><time>2026-04-04T10:49:35Z</time></trkpt><trkpt lat="43.19911179822306" lon="12.918424454406127"><ele>785.5999999999999</ele><time>2026-04-04T10:49:37Z</time></trkpt><trkpt lat="43.19918625152534" lon="12.918351783108186"><ele>783.1999999999999</ele><time>2026-04-04T10:49:39Z</time></trkpt><trkpt lat="43.199251943869086" lon="12.918250463353573"><ele>780.8</ele><time>2026-04-04T10:49:41Z</time></trkpt><trkpt lat="43.19931948189287" lon="12.918169978094651"><ele>778.4</ele><time>2026-04-04T10:49:43Z</time></trkpt><trkpt lat="43.19938594056733" lon="12.918061009005843"><ele>776.0</ele><time>2026-04-04T10:49:45Z</time></trkpt><trkpt lat="43.19944326265279" lon="12.91796490152558"><ele>776.0000000000001</ele><time>2026-04-04T10:49:47Z</time></trkpt><trkpt lat="43.19949084873199" lon="12.917889686042091"><ele>776.0</ele><time>2026-04-04T10:49:49Z</time></trkpt><trkpt lat="43.19953614764206" lon="12.917788654675306"><ele>776.0</ele><time>2026-04-04T10:49:51Z</time></trkpt><trkpt lat="43.19956733263515" lon="12.917709463690217"><ele>776.0</ele><time>2026-04-04T10:49:53Z</time></trkpt><trkpt lat="43.199622113771895" lon="12.917620539290711"><ele>776.0000000000001</ele><time>2026-04-04T10:49:56Z</time></trkpt><trkpt lat="43.19967715463478" lon="12.917541955896825"><ele>776.0</ele><time>2026-04-04T10:50:01Z</time></trkpt><trkpt lat="43.19972721745001" lon="12.917487900966176"><ele>771.6666666666667</ele><time>2026-04-04T10:50:04Z</time></trkpt><trkpt lat="43.19977258473224" lon="12.917369821087002"><ele>767.3333333333334</ele><time>2026-04-04T10:50:07Z</time></trkpt><trkpt lat="43.19979203114363" lon="12.91726690303283"><ele>763.0</ele><time>2026-04-04T10:50:09Z</time></trkpt><trkpt lat="43.19978521574822" lon="12.917163419767785"><ele>758.6666666666667</ele><time>2026-04-04T10:50:11Z</time></trkpt><trkpt lat="43.199815920579596" lon="12.917043486373093"><ele>754.3333333333334</ele><time>2026-04-04T10:50:14Z</time></trkpt><trkpt lat="43.19986299983644" lon="12.916952202000132"><ele>750.0</ele><time>2026-04-04T10:50:16Z</time></trkpt><trkpt lat="43.19993129606456" lon="12.9169085961973"><ele>756.2857142857143</ele><time>2026-04-04T10:50:19Z</time></trkpt><trkpt lat="43.20000229738738" lon="12.916867582363745"><ele>762.5714285714286</ele><time>2026-04-04T10:50:22Z</time></trkpt><trkpt lat="43.20002656639019" lon="12.91677116522847"><ele>768.8571428571429</ele><time>2026-04-04T10:50:27Z</time></trkpt><trkpt lat="43.20005808282192" lon="12.91668448575381"><ele>775.1428571428571</ele><time>2026-04-04T10:50:33Z</time></trkpt><trkpt lat="43.200093751170186" lon="12.916602653213403"><ele>781.4285714285713</ele><time>2026-04-04T10:50:39Z</time></trkpt><trkpt lat="43.2001391505106" lon="12.916513791145123"><ele>787.7142857142857</ele><time>2026-04-04T10:50:43Z</time></trkpt><trkpt lat="43.20015610872157" lon="12.91642575585442"><ele>794.0</ele><time>2026-04-04T10:50:49Z</time></trkpt><trkpt lat="43.20017748191212" lon="12.916334758661476"><ele>794.0000000000001</ele><time>2026-04-04T10:51:01Z</time></trkpt><trkpt lat="43.20028133121531" lon="12.916331990320815"><ele>794.0</ele><time>2026-04-04T10:51:16Z</time></trkpt><trkpt lat="43.20029661269225" lon="12.91641917885497"><ele>794.0</ele><time>2026-04-04T10:51:19Z</time></trkpt><trkpt lat="43.20034081559492" lon="12.916488598774396"><ele>794.0</ele><time>2026-04-04T10:51:23Z</time></trkpt><trkpt lat="43.20037045230528" lon="12.916566638944875"><ele>794.0000000000001</ele><time>2026-04-04T10:51:27Z</time></trkpt><trkpt lat="43.20039336508286" lon="12.916698891473713"><ele>794.0</ele><time>2026-04-04T10:51:30Z</time></trkpt><trkpt lat="43.20039854227316" lon="12.916837321703376"><ele>795.6</ele><time>2026-04-04T10:51:33Z</time></trkpt><trkpt lat="43.200383338219126" lon="12.916946790444925"><ele>797.2</ele><time>2026-04-04T10:51:35Z</time></trkpt><trkpt lat="43.200374128221675" lon="12.917067413950862"><ele>798.8000000000001</ele><time>2026-04-04T10:51:37Z</time></trkpt><trkpt lat="43.20035879081032" lon="12.917224160949617"><ele>800.4000000000001</ele><time>2026-04-04T10:51:39Z</time></trkpt><trkpt lat="43.200324716835844" lon="12.917368028692088"><ele>802.0</ele><time>2026-04-04T10:51:41Z</time></trkpt><trkpt lat="43.200271349773324" lon="12.917492070052523"><ele>804.6</ele><time>2026-04-04T10:51:43Z</time></trkpt><trkpt lat="43.20019353674077" lon="12.917599244529299"><ele>807.2</ele><time>2026-04-04T10:51:45Z</time></trkpt><trkpt lat="43.20017644057928" lon="12.917684790610462"><ele>809.8</ele><time>2026-04-04T10:51:47Z</time></trkpt><trkpt lat="43.20014248865969" lon="12.917817698236076"><ele>812.4</ele><time>2026-04-04T10:51:49Z</time></trkpt><trkpt lat="43.20009196501074" lon="12.917957098692867"><ele>815.0</ele><time>2026-04-04T10:51:51Z</time></trkpt><trkpt lat="43.20007133529521" lon="12.918094266006936"><ele>815.0</ele><time>2026-04-04T10:51:53Z</time></trkpt><trkpt lat="43.200053364779016" lon="12.918212374287267"><ele>815.0</ele><time>2026-04-04T10:51:55Z</time></trkpt><trkpt lat="43.200025437570076" lon="12.91829314153616"><ele>815.0</ele><time>2026-04-04T10:51:57Z</time></trkpt><trkpt lat="43.199940571068794" lon="12.918360912066321"><ele>815.0</ele><time>2026-04-04T10:51:59Z</time></trkpt><trkpt lat="43.199835504509586" lon="12.918465607540906"><ele>815.0</ele><time>2026-04-04T10:52:01Z</time></trkpt><trkpt lat="43.19978162198272" lon="12.918525753191819"><ele>810.5000000000001</ele><time>2026-04-04T10:52:02Z</time></trkpt><trkpt lat="43.19969798756521" lon="12.918606820231036"><ele>806.0</ele><time>2026-04-04T10:52:04Z</time></trkpt><trkpt lat="43.1996420176325" lon="12.918656587876896"><ele>801.5</ele><time>2026-04-04T10:52:05Z</time></trkpt><trkpt lat="43.19959133538342" lon="12.918708724589342"><ele>797.0</ele><time>2026-04-04T10:52:06Z</time></trkpt><trkpt lat="43.199520805385255" lon="12.91881791677082"><ele>792.5000000000001</ele><time>2026-04-04T10:52:08Z</time></trkpt><trkpt lat="43.199476766752454" lon="12.918886179535598"><ele>788.0</ele><time>2026-04-04T10:52:09Z</time></trkpt><trkpt lat="43.199435179092816" lon="12.918954527589223"><ele>788.0</ele><time>2026-04-04T10:52:10Z</time></trkpt><trkpt lat="43.1993682812643" lon="12.919048979331778"><ele>788.0</ele><time>2026-04-04T10:52:12Z</time></trkpt><trkpt lat="43.19930747784412" lon="12.91914539162847"><ele>788.0</ele><time>2026-04-04T10:52:14Z</time></trkpt><trkpt lat="43.199241484889896" lon="12.919287425900974"><ele>788.0</ele><time>2026-04-04T10:52:16Z</time></trkpt><trkpt lat="43.19917777936862" lon="12.919421789835111"><ele>788.0</ele><time>2026-04-04T10:52:18Z</time></trkpt><trkpt lat="43.199127075552305" lon="12.919548025423516"><ele>788.3333333333334</ele><time>2026-04-04T10:52:20Z</time></trkpt><trkpt lat="43.1991039478635" lon="12.919631225437902"><ele>788.6666666666667</ele><time>2026-04-04T10:52:21Z</time></trkpt><trkpt lat="43.199072270776206" lon="12.91978181853448"><ele>789.0</ele><time>2026-04-04T10:52:23Z</time></trkpt><trkpt lat="43.19905837506554" lon="12.919897890321451"><ele>789.3333333333333</ele><time>2026-04-04T10:52:25Z</time></trkpt><trkpt lat="43.19895683644842" lon="12.919891108267203"><ele>789.6666666666666</ele><time>2026-04-04T10:52:28Z</time></trkpt><trkpt lat="43.198885178816795" lon="12.919907002593854"><ele>790.0</ele><time>2026-04-04T10:52:32Z</time></trkpt><trkpt lat="43.19881905950657" lon="12.919895476331089"><ele>787.7142857142857</ele><time>2026-04-04T10:52:57Z</time></trkpt><trkpt lat="43.1987565997379" lon="12.919943249890121"><ele>785.4285714285714</ele><time>2026-04-04T10:53:23Z</time></trkpt><trkpt lat="43.19876197962871" lon="12.919857010496688"><ele>783.1428571428571</ele><time>2026-04-04T10:53:42Z</time></trkpt><trkpt lat="43.19869726191565" lon="12.919848416307001"><ele>780.8571428571429</ele><time>2026-04-04T10:54:18Z</time></trkpt><trkpt lat="43.19863431624008" lon="12.919839577285408"><ele>778.5714285714287</ele><time>2026-04-04T10:55:32.999Z</time></trkpt><trkpt lat="43.198568183657756" lon="12.919827846153767"><ele>776.2857142857143</ele><time>2026-04-04T10:56:13.999Z</time></trkpt><trkpt lat="43.19850644938353" lon="12.91980753201046"><ele>774.0</ele><time>2026-04-04T10:56:40Z</time></trkpt><trkpt lat="43.19838845350861" lon="12.919827257603783"><ele>774.0</ele><time>2026-04-04T10:58:01Z</time></trkpt><trkpt lat="43.198421312293114" lon="12.919917453503093"><ele>774.0</ele><time>2026-04-04T10:58:41Z</time></trkpt><trkpt lat="43.19849777259014" lon="12.919852284180116"><ele>774.0</ele><time>2026-04-04T10:58:43Z</time></trkpt><trkpt lat="43.19858089816477" lon="12.919734225095894"><ele>774.0</ele><time>2026-04-04T10:58:45Z</time></trkpt><trkpt lat="43.198622596652356" lon="12.919637240749628"><ele>774.0</ele><time>2026-04-04T10:58:47Z</time></trkpt><trkpt lat="43.19861850640704" lon="12.919531580990864"><ele>774.0</ele><time>2026-04-04T10:58:50Z</time></trkpt><trkpt lat="43.19862917101578" lon="12.919438409745695"><ele>774.0</ele><time>2026-04-04T10:58:52Z</time></trkpt><trkpt lat="43.198642526547815" lon="12.919333318041557"><ele>774.0</ele><time>2026-04-04T10:58:54Z</time></trkpt><trkpt lat="43.19867643887608" lon="12.91924271966352"><ele>774.0</ele><time>2026-04-04T10:58:56Z</time></trkpt><trkpt lat="43.19873242105375" lon="12.91913063697173"><ele>774.0</ele><time>2026-04-04T10:58:58Z</time></trkpt><trkpt lat="43.19877508238031" lon="12.91903659325854"><ele>774.0</ele><time>2026-04-04T10:59:00Z</time></trkpt><trkpt lat="43.19881548937521" lon="12.918945991818235"><ele>774.0</ele><time>2026-04-04T10:59:02Z</time></trkpt><trkpt lat="43.19885019926362" lon="12.91885718946002"><ele>774.4000000000001</ele><time>2026-04-04T10:59:04Z</time></trkpt><trkpt lat="43.1989029890646" lon="12.918753498073997"><ele>774.8</ele><time>2026-04-04T10:59:06Z</time></trkpt><trkpt lat="43.1989594684277" lon="12.918640850157477"><ele>775.2</ele><time>2026-04-04T10:59:08Z</time></trkpt><trkpt lat="43.19901841860227" lon="12.918533280232383"><ele>775.5999999999999</ele><time>2026-04-04T10:59:10Z</time></trkpt><trkpt lat="43.199098219214065" lon="12.918431936904591"><ele>776.0</ele><time>2026-04-04T10:59:12Z</time></trkpt><trkpt lat="43.1991881483432" lon="12.91832533978746"><ele>776.0</ele><time>2026-04-04T10:59:14Z</time></trkpt><trkpt lat="43.19925725850205" lon="12.918237416982985"><ele>776.0</ele><time>2026-04-04T10:59:16Z</time></trkpt><trkpt lat="43.19932547481371" lon="12.918134750532522"><ele>776.0</ele><time>2026-04-04T10:59:18Z</time></trkpt><trkpt lat="43.199390267826566" lon="12.918035038598344"><ele>776.0</ele><time>2026-04-04T10:59:20Z</time></trkpt><trkpt lat="43.199443921207326" lon="12.917917993191768"><ele>776.0</ele><time>2026-04-04T10:59:22Z</time></trkpt><trkpt lat="43.1994832995123" lon="12.91782162626709"><ele>776.0000000000001</ele><time>2026-04-04T10:59:24Z</time></trkpt><trkpt lat="43.19952424208072" lon="12.91772271672797"><ele>776.0</ele><time>2026-04-04T10:59:26Z</time></trkpt><trkpt lat="43.199554846427255" lon="12.917597759457145"><ele>776.0</ele><time>2026-04-04T10:59:28Z</time></trkpt><trkpt lat="43.19958988359782" lon="12.917505535850747"><ele>776.0</ele><time>2026-04-04T10:59:30Z</time></trkpt><trkpt lat="43.19963631300649" lon="12.917413086466103"><ele>776.0000000000001</ele><time>2026-04-04T10:59:32Z</time></trkpt><trkpt lat="43.199686081941294" lon="12.917306084858666"><ele>776.0</ele><time>2026-04-04T10:59:35Z</time></trkpt><trkpt lat="43.19972674104499" lon="12.917209623565109"><ele>779.5999999999999</ele><time>2026-04-04T10:59:37Z</time></trkpt><trkpt lat="43.199773041177465" lon="12.917126897821506"><ele>783.2</ele><time>2026-04-04T10:59:39Z</time></trkpt><trkpt lat="43.19983161676787" lon="12.917004381707782"><ele>786.8</ele><time>2026-04-04T10:59:41Z</time></trkpt><trkpt lat="43.19989183125016" lon="12.916849726868284"><ele>790.4000000000001</ele><time>2026-04-04T10:59:43Z</time></trkpt><trkpt lat="43.19990258212485" lon="12.916719533893081"><ele>794.0</ele><time>2026-04-04T10:59:45Z</time></trkpt><trkpt lat="43.19989176472601" lon="12.916599983531327"><ele>794.0000000000001</ele><time>2026-04-04T10:59:47Z</time></trkpt><trkpt lat="43.19989102004213" lon="12.916512422088813"><ele>794.0</ele><time>2026-04-04T10:59:49Z</time></trkpt><trkpt lat="43.199950935624294" lon="12.916416654396537"><ele>794.0</ele><time>2026-04-04T10:59:52Z</time></trkpt><trkpt lat="43.19999930980112" lon="12.916353493607263"><ele>794.0</ele><time>2026-04-04T10:59:54Z</time></trkpt><trkpt lat="43.20006357695464" lon="12.916276114341121"><ele>794.0000000000001</ele><time>2026-04-04T10:59:59Z</time></trkpt><trkpt lat="43.20015117691886" lon="12.916165484097759"><ele>794.0</ele><time>2026-04-04T11:00:01Z</time></trkpt><trkpt lat="43.20020495544678" lon="12.916118283227334"><ele>794.0000000000001</ele><time>2026-04-04T11:00:02Z</time></trkpt><trkpt lat="43.200267370545745" lon="12.916079383017086"><ele>794.0</ele><time>2026-04-04T11:00:03Z</time></trkpt><trkpt lat="43.20038418404688" lon="12.916055524321582"><ele>794.0</ele><time>2026-04-04T11:00:05Z</time></trkpt><trkpt lat="43.200447189013275" lon="12.91602680536413"><ele>794.0</ele><time>2026-04-04T11:00:06Z</time></trkpt><trkpt lat="43.200567122331016" lon="12.915986619975415"><ele>794.0000000000001</ele><time>2026-04-04T11:00:08Z</time></trkpt><trkpt lat="43.200638214164854" lon="12.915964485323824"><ele>794.0</ele><time>2026-04-04T11:00:09Z</time></trkpt><trkpt lat="43.20070504001796" lon="12.915941176126546"><ele>796.8333333333334</ele><time>2026-04-04T11:00:10Z</time></trkpt><trkpt lat="43.2007723629039" lon="12.915911647471576"><ele>799.6666666666667</ele><time>2026-04-04T11:00:11Z</time></trkpt><trkpt lat="43.20083177796742" lon="12.915880626512845"><ele>802.5</ele><time>2026-04-04T11:00:12Z</time></trkpt><trkpt lat="43.200926110047575" lon="12.915811734199306"><ele>805.3333333333333</ele><time>2026-04-04T11:00:14Z</time></trkpt><trkpt lat="43.20101655724073" lon="12.915768907964226"><ele>808.1666666666666</ele><time>2026-04-04T11:00:16Z</time></trkpt><trkpt lat="43.20109950758729" lon="12.915749217413959"><ele>811.0</ele><time>2026-04-04T11:00:18Z</time></trkpt><trkpt lat="43.2011966061985" lon="12.915681510052227"><ele>811.0</ele><time>2026-04-04T11:00:20Z</time></trkpt><trkpt lat="43.201287474251586" lon="12.915650813813901"><ele>811.0</ele><time>2026-04-04T11:00:23Z</time></trkpt><trkpt lat="43.20143264908341" lon="12.91567184831143"><ele>811.0</ele><time>2026-04-04T11:00:26Z</time></trkpt><trkpt lat="43.20154201287289" lon="12.915676965864009"><ele>811.0</ele><time>2026-04-04T11:00:28Z</time></trkpt><trkpt lat="43.20161173692319" lon="12.915670248999442"><ele>811.0</ele><time>2026-04-04T11:00:30Z</time></trkpt><trkpt lat="43.201699800520394" lon="12.915692125886041"><ele>812.5999999999999</ele><time>2026-04-04T11:00:33Z</time></trkpt><trkpt lat="43.20178679019143" lon="12.91569365537458"><ele>814.2</ele><time>2026-04-04T11:00:35Z</time></trkpt><trkpt lat="43.20188960540186" lon="12.915701306170835"><ele>815.8</ele><time>2026-04-04T11:00:37Z</time></trkpt><trkpt lat="43.20201455211776" lon="12.915662808538348"><ele>817.4000000000001</ele><time>2026-04-04T11:00:39Z</time></trkpt><trkpt lat="43.20208631837642" lon="12.91563926805495"><ele>819.0</ele><time>2026-04-04T11:00:40Z</time></trkpt><trkpt lat="43.202210811117034" lon="12.91561458123219"><ele>819.0</ele><time>2026-04-04T11:00:43Z</time></trkpt><trkpt lat="43.20230619556899" lon="12.915585696993007"><ele>819.0</ele><time>2026-04-04T11:00:45Z</time></trkpt><trkpt lat="43.20239824355389" lon="12.915552812672342"><ele>819.0</ele><time>2026-04-04T11:00:47Z</time></trkpt><trkpt lat="43.202469134355724" lon="12.915549034008027"><ele>819.0</ele><time>2026-04-04T11:00:48Z</time></trkpt><trkpt lat="43.20257384277406" lon="12.915593200937314"><ele>819.0</ele><time>2026-04-04T11:00:50Z</time></trkpt><trkpt lat="43.202624548319335" lon="12.915660593969555"><ele>819.0</ele><time>2026-04-04T11:00:53Z</time></trkpt><trkpt lat="43.20268448289659" lon="12.915699679510828"><ele>818.5</ele><time>2026-04-04T11:00:55Z</time></trkpt><trkpt lat="43.202765583981325" lon="12.915704403719676"><ele>818.0</ele><time>2026-04-04T11:00:57Z</time></trkpt><trkpt lat="43.202850065350724" lon="12.91572072012947"><ele>817.5</ele><time>2026-04-04T11:01:02Z</time></trkpt><trkpt lat="43.20288200782532" lon="12.915612161633964"><ele>817.0</ele><time>2026-04-04T11:01:05Z</time></trkpt><trkpt lat="43.202940266512066" lon="12.915510791290853"><ele>816.5</ele><time>2026-04-04T11:01:07Z</time></trkpt><trkpt lat="43.20298951926334" lon="12.915428993584673"><ele>816.0</ele><time>2026-04-04T11:01:10Z</time></trkpt><trkpt lat="43.203028336058054" lon="12.915340098221565"><ele>816.0</ele><time>2026-04-04T11:01:16Z</time></trkpt><trkpt lat="43.20309680237851" lon="12.91527741914852"><ele>816.0</ele><time>2026-04-04T11:01:20Z</time></trkpt><trkpt lat="43.20320528545899" lon="12.91524937812766"><ele>816.0</ele><time>2026-04-04T11:01:21Z</time></trkpt><trkpt lat="43.20329349314618" lon="12.915149025496534"><ele>816.0</ele><time>2026-04-04T11:01:23Z</time></trkpt><trkpt lat="43.203354110616786" lon="12.915095996675644"><ele>816.0</ele><time>2026-04-04T11:01:24Z</time></trkpt><trkpt lat="43.20344421051195" lon="12.915022923884866"><ele>810.0</ele><time>2026-04-04T11:01:26Z</time></trkpt><trkpt lat="43.20353767216581" lon="12.91496404931949"><ele>804.0</ele><time>2026-04-04T11:01:28Z</time></trkpt><trkpt lat="43.20359808532028" lon="12.914931244682021"><ele>798.0</ele><time>2026-04-04T11:01:29Z</time></trkpt><trkpt lat="43.20367737295066" lon="12.914907285747185"><ele>792.0</ele><time>2026-04-04T11:01:30Z</time></trkpt><trkpt lat="43.20373531360342" lon="12.914869868226825"><ele>786.0</ele><time>2026-04-04T11:01:31Z</time></trkpt><trkpt lat="43.203817812771355" lon="12.914836969786176"><ele>780.0</ele><time>2026-04-04T11:01:33Z</time></trkpt><trkpt lat="43.2038897038943" lon="12.914789847069862"><ele>780.0</ele><time>2026-04-04T11:01:35Z</time></trkpt><trkpt lat="43.2039959518432" lon="12.914752440649579"><ele>780.0</ele><time>2026-04-04T11:01:37Z</time></trkpt><trkpt lat="43.204100038486985" lon="12.914695770133136"><ele>780.0</ele><time>2026-04-04T11:01:39Z</time></trkpt><trkpt lat="43.20416446049365" lon="12.914640133085168"><ele>780.0</ele><time>2026-04-04T11:01:41Z</time></trkpt><trkpt lat="43.20423315404087" lon="12.914609941478627"><ele>780.0</ele><time>2026-04-04T11:01:43Z</time></trkpt><trkpt lat="43.2043212806884" lon="12.914550628563124"><ele>779.3333333333334</ele><time>2026-04-04T11:01:45Z</time></trkpt><trkpt lat="43.204399000213535" lon="12.914473964900719"><ele>778.6666666666667</ele><time>2026-04-04T11:01:47Z</time></trkpt><trkpt lat="43.20448183869524" lon="12.914427265225152"><ele>778.0</ele><time>2026-04-04T11:01:50Z</time></trkpt><trkpt lat="43.204554967877364" lon="12.91435419157649"><ele>777.3333333333334</ele><time>2026-04-04T11:01:52Z</time></trkpt><trkpt lat="43.20461122619234" lon="12.914312177844266"><ele>776.6666666666667</ele><time>2026-04-04T11:01:54Z</time></trkpt><trkpt lat="43.204700853614035" lon="12.914229241081081"><ele>776.0</ele><time>2026-04-04T11:01:56Z</time></trkpt><trkpt lat="43.204752993801435" lon="12.914179579032307"><ele>776.0000000000001</ele><time>2026-04-04T11:01:57Z</time></trkpt><trkpt lat="43.20481180834497" lon="12.914143468610964"><ele>776.0</ele><time>2026-04-04T11:01:58Z</time></trkpt><trkpt lat="43.20490272765189" lon="12.914100508317036"><ele>776.0</ele><time>2026-04-04T11:02:00Z</time></trkpt><trkpt lat="43.20498216750003" lon="12.914054615141954"><ele>776.0</ele><time>2026-04-04T11:02:02Z</time></trkpt><trkpt lat="43.205053660489675" lon="12.914006961391053"><ele>776.0000000000001</ele><time>2026-04-04T11:02:04Z</time></trkpt><trkpt lat="43.20513307500516" lon="12.91396236741741"><ele>776.0</ele><time>2026-04-04T11:02:06Z</time></trkpt><trkpt lat="43.2052285451852" lon="12.913886618484343"><ele>782.1999999999999</ele><time>2026-04-04T11:02:08Z</time></trkpt><trkpt lat="43.20528248804617" lon="12.913836140311012"><ele>788.4</ele><time>2026-04-04T11:02:10Z</time></trkpt><trkpt lat="43.2053487751358" lon="12.913784944470724"><ele>794.6</ele><time>2026-04-04T11:02:13Z</time></trkpt><trkpt lat="43.2054311954567" lon="12.91376066607225"><ele>800.8</ele><time>2026-04-04T11:02:15Z</time></trkpt><trkpt lat="43.20549341359074" lon="12.91374499308099"><ele>807.0</ele><time>2026-04-04T11:02:17Z</time></trkpt><trkpt lat="43.205693707279124" lon="12.91373263211256"><ele>811.3333333333334</ele><time>2026-04-04T11:02:31Z</time></trkpt><trkpt lat="43.205757212794964" lon="12.913670624471164"><ele>815.6666666666667</ele><time>2026-04-04T11:02:34Z</time></trkpt><trkpt lat="43.20588087533673" lon="12.913674163797815"><ele>820.0</ele><time>2026-04-04T11:02:59Z</time></trkpt><trkpt lat="43.205890513653756" lon="12.91376614268929"><ele>824.3333333333334</ele><time>2026-04-04T11:03:06Z</time></trkpt><trkpt lat="43.205928963929225" lon="12.9138504492718"><ele>828.6666666666667</ele><time>2026-04-04T11:03:13Z</time></trkpt><trkpt lat="43.205978234867146" lon="12.913915353297167"><ele>833.0</ele><time>2026-04-04T11:03:20Z</time></trkpt><trkpt lat="43.20603900444034" lon="12.913888284044463"><ele>833.0000000000001</ele><time>2026-04-04T11:03:36Z</time></trkpt><trkpt lat="43.20608627410846" lon="12.913818515256526"><ele>833.0</ele><time>2026-04-04T11:03:48Z</time></trkpt><trkpt lat="43.206153685297956" lon="12.91376247952949"><ele>833.0</ele><time>2026-04-04T11:03:51Z</time></trkpt><trkpt lat="43.20620788340799" lon="12.913698064094199"><ele>833.0</ele><time>2026-04-04T11:03:53Z</time></trkpt><trkpt lat="43.20627770299434" lon="12.913654610874445"><ele>833.0000000000001</ele><time>2026-04-04T11:03:59Z</time></trkpt><trkpt lat="43.206293483653894" lon="12.913543671488235"><ele>833.0</ele><time>2026-04-04T11:04:07Z</time></trkpt><trkpt lat="43.206284743659964" lon="12.91344095895228"><ele>834.8333333333334</ele><time>2026-04-04T11:04:09Z</time></trkpt><trkpt lat="43.206306727971686" lon="12.913335287444236"><ele>836.6666666666667</ele><time>2026-04-04T11:04:11Z</time></trkpt><trkpt lat="43.20635042174693" lon="12.913258750520214"><ele>838.5</ele><time>2026-04-04T11:04:14Z</time></trkpt><trkpt lat="43.20641016155044" lon="12.913182417364393"><ele>840.3333333333333</ele><time>2026-04-04T11:04:19Z</time></trkpt><trkpt lat="43.20644175111341" lon="12.913091210373766"><ele>842.1666666666666</ele><time>2026-04-04T11:04:21Z</time></trkpt><trkpt lat="43.20648036369107" lon="12.91297679524752"><ele>844.0</ele><time>2026-04-04T11:04:23Z</time></trkpt><trkpt lat="43.20652850762734" lon="12.912905459000513"><ele>843.9999999999999</ele><time>2026-04-04T11:04:25Z</time></trkpt><trkpt lat="43.206571147259716" lon="12.912796004550932"><ele>844.0</ele><time>2026-04-04T11:04:27Z</time></trkpt><trkpt lat="43.20665767978234" lon="12.912704832658516"><ele>844.0</ele><time>2026-04-04T11:04:29Z</time></trkpt><trkpt lat="43.206743163008404" lon="12.912615566223327"><ele>844.0</ele><time>2026-04-04T11:04:31Z</time></trkpt><trkpt lat="43.20678987482165" lon="12.912551869909107"><ele>843.9999999999999</ele><time>2026-04-04T11:04:32Z</time></trkpt><trkpt lat="43.20684371617297" lon="12.912506530459423"><ele>844.0</ele><time>2026-04-04T11:04:33Z</time></trkpt><trkpt lat="43.206922372787375" lon="12.912387032207135"><ele>840.6</ele><time>2026-04-04T11:04:35Z</time></trkpt><trkpt lat="43.20696118672737" lon="12.912309853341739"><ele>837.2</ele><time>2026-04-04T11:04:36Z</time></trkpt><trkpt lat="43.20703236409562" lon="12.912230420432037"><ele>833.8000000000001</ele><time>2026-04-04T11:04:38Z</time></trkpt><trkpt lat="43.20709893260979" lon="12.912132168427265"><ele>830.4000000000001</ele><time>2026-04-04T11:04:40Z</time></trkpt><trkpt lat="43.20717066221325" lon="12.912016274347176"><ele>827.0</ele><time>2026-04-04T11:04:42Z</time></trkpt><trkpt lat="43.207208409470404" lon="12.91190341044216"><ele>827.0</ele><time>2026-04-04T11:04:44Z</time></trkpt><trkpt lat="43.20724364932627" lon="12.911792306684232"><ele>827.0</ele><time>2026-04-04T11:04:46Z</time></trkpt><trkpt lat="43.207276371278404" lon="12.911658542585416"><ele>827.0</ele><time>2026-04-04T11:04:48Z</time></trkpt><trkpt lat="43.20728767081012" lon="12.911563394853697"><ele>827.0</ele><time>2026-04-04T11:04:49Z</time></trkpt><trkpt lat="43.20729837384657" lon="12.911477679648025"><ele>827.0</ele><time>2026-04-04T11:04:50Z</time></trkpt><trkpt lat="43.207352817869186" lon="12.911314448280484"><ele>828.2</ele><time>2026-04-04T11:04:52Z</time></trkpt><trkpt lat="43.207397695756136" lon="12.911177532370553"><ele>829.4000000000001</ele><time>2026-04-04T11:04:54Z</time></trkpt><trkpt lat="43.20743999553376" lon="12.911014267044354"><ele>830.5999999999999</ele><time>2026-04-04T11:04:56Z</time></trkpt><trkpt lat="43.20747768462756" lon="12.910876827273588"><ele>831.8</ele><time>2026-04-04T11:04:58Z</time></trkpt><trkpt lat="43.20753591345727" lon="12.910768797706067"><ele>833.0</ele><time>2026-04-04T11:05:00Z</time></trkpt><trkpt lat="43.20758547599736" lon="12.910642619683735"><ele>833.0000000000001</ele><time>2026-04-04T11:05:02Z</time></trkpt><trkpt lat="43.20764077026054" lon="12.910522736375466"><ele>833.0</ele><time>2026-04-04T11:05:04Z</time></trkpt><trkpt lat="43.207693695776626" lon="12.910452732211404"><ele>833.0</ele><time>2026-04-04T11:05:06Z</time></trkpt><trkpt lat="43.207732402309645" lon="12.9103816115148"><ele>833.0</ele><time>2026-04-04T11:05:08Z</time></trkpt><trkpt lat="43.20779583064208" lon="12.91029384912432"><ele>833.0000000000001</ele><time>2026-04-04T11:05:11Z</time></trkpt><trkpt lat="43.20786050390903" lon="12.91022856891278"><ele>833.0</ele><time>2026-04-04T11:05:13Z</time></trkpt><trkpt lat="43.20791727277767" lon="12.91014282533498"><ele>830.8333333333334</ele><time>2026-04-04T11:05:15Z</time></trkpt><trkpt lat="43.2079882944565" lon="12.91007080384771"><ele>828.6666666666667</ele><time>2026-04-04T11:05:17Z</time></trkpt><trkpt lat="43.20805785220289" lon="12.909997390224563"><ele>826.5</ele><time>2026-04-04T11:05:19Z</time></trkpt><trkpt lat="43.20814004611095" lon="12.909922128684265"><ele>824.3333333333333</ele><time>2026-04-04T11:05:21Z</time></trkpt><trkpt lat="43.2081917639097" lon="12.909872106797472"><ele>822.1666666666666</ele><time>2026-04-04T11:05:26Z</time></trkpt><trkpt lat="43.20822341644146" lon="12.909752060903537"><ele>820.0</ele><time>2026-04-04T11:05:34Z</time></trkpt><trkpt lat="43.20825534849376" lon="12.909652354985043"><ele>827.6</ele><time>2026-04-04T11:05:36Z</time></trkpt><trkpt lat="43.20829371545977" lon="12.909530227944039"><ele>835.2</ele><time>2026-04-04T11:05:38Z</time></trkpt><trkpt lat="43.20833807715988" lon="12.909394819457413"><ele>842.8</ele><time>2026-04-04T11:05:40Z</time></trkpt><trkpt lat="43.20839857179046" lon="12.909265816183819"><ele>850.4</ele><time>2026-04-04T11:05:42Z</time></trkpt><trkpt lat="43.2084599535852" lon="12.909174093405015"><ele>858.0</ele><time>2026-04-04T11:05:44Z</time></trkpt><trkpt lat="43.2085145119139" lon="12.909078662408866"><ele>858.0</ele><time>2026-04-04T11:05:47Z</time></trkpt><trkpt lat="43.20857100329291" lon="12.909004247981542"><ele>858.0</ele><time>2026-04-04T11:05:49Z</time></trkpt><trkpt lat="43.20859802028272" lon="12.908894654514453"><ele>858.0</ele><time>2026-04-04T11:05:51Z</time></trkpt><trkpt lat="43.2086192355107" lon="12.908805425886806"><ele>858.0</ele><time>2026-04-04T11:05:53Z</time></trkpt><trkpt lat="43.20865937138389" lon="12.908688776983055"><ele>858.0</ele><time>2026-04-04T11:05:56Z</time></trkpt><trkpt lat="43.20869833139144" lon="12.908595693367596"><ele>858.0</ele><time>2026-04-04T11:05:58Z</time></trkpt><trkpt lat="43.2087428214452" lon="12.908518797843294"><ele>858.0</ele><time>2026-04-04T11:06:00Z</time></trkpt><trkpt lat="43.20878554344666" lon="12.908429929870382"><ele>858.0</ele><time>2026-04-04T11:06:02Z</time></trkpt><trkpt lat="43.208832914336945" lon="12.908326490229449"><ele>858.0</ele><time>2026-04-04T11:06:04Z</time></trkpt><trkpt lat="43.20888609118267" lon="12.908210474145042"><ele>858.0</ele><time>2026-04-04T11:06:06Z</time></trkpt><trkpt lat="43.20892550067517" lon="12.908127880175215"><ele>858.0</ele><time>2026-04-04T11:06:08Z</time></trkpt><trkpt lat="43.208969444029165" lon="12.908030386913744"><ele>858.0</ele><time>2026-04-04T11:06:10Z</time></trkpt><trkpt lat="43.209008885075896" lon="12.907942963098023"><ele>864.8571428571429</ele><time>2026-04-04T11:06:12Z</time></trkpt><trkpt lat="43.20905138111101" lon="12.907878734758151"><ele>871.7142857142858</ele><time>2026-04-04T11:06:14Z</time></trkpt><trkpt lat="43.20909100130485" lon="12.907768832192158"><ele>878.5714285714284</ele><time>2026-04-04T11:06:17Z</time></trkpt><trkpt lat="43.20909125437368" lon="12.90767371698819"><ele>885.4285714285713</ele><time>2026-04-04T11:06:21Z</time></trkpt><trkpt lat="43.209116630733696" lon="12.9075925619441"><ele>892.2857142857142</ele><time>2026-04-04T11:06:51Z</time></trkpt><trkpt lat="43.20916068841461" lon="12.907683896348644"><ele>899.142857142857</ele><time>2026-04-04T11:07:37.999Z</time></trkpt><trkpt lat="43.20918117342756" lon="12.907769355747929"><ele>905.9999999999999</ele><time>2026-04-04T11:07:43.999Z</time></trkpt><trkpt lat="43.209159951014314" lon="12.907904928427797"><ele>906.0</ele><time>2026-04-04T11:07:49.999Z</time></trkpt><trkpt lat="43.209138040952446" lon="12.908041849960087"><ele>906.0</ele><time>2026-04-04T11:07:51.999Z</time></trkpt><trkpt lat="43.209123170615314" lon="12.908135411785574"><ele>906.0</ele><time>2026-04-04T11:07:54.999Z</time></trkpt><trkpt lat="43.209105875225" lon="12.908250167496956"><ele>906.0</ele><time>2026-04-04T11:07:57.999Z</time></trkpt><trkpt lat="43.20908835296517" lon="12.908395336335508"><ele>906.0</ele><time>2026-04-04T11:07:59.999Z</time></trkpt><trkpt lat="43.2090686378087" lon="12.90847994735523"><ele>906.0</ele><time>2026-04-04T11:08:01.999Z</time></trkpt><trkpt lat="43.20906766862727" lon="12.908606500415878"><ele>907.1999999999999</ele><time>2026-04-04T11:08:03.999Z</time></trkpt><trkpt lat="43.20905985140305" lon="12.908729416280435"><ele>908.3999999999999</ele><time>2026-04-04T11:08:05.999Z</time></trkpt><trkpt lat="43.20906507807398" lon="12.90883313868035"><ele>909.6</ele><time>2026-04-04T11:08:07.999Z</time></trkpt><trkpt lat="43.20903058040403" lon="12.908930650740592"><ele>910.8</ele><time>2026-04-04T11:08:10.999Z</time></trkpt><trkpt lat="43.208990387944056" lon="12.909088630078916"><ele>912.0</ele><time>2026-04-04T11:08:13.999Z</time></trkpt><trkpt lat="43.20898429013908" lon="12.909218014082269"><ele>912.0</ele><time>2026-04-04T11:08:15.999Z</time></trkpt><trkpt lat="43.209023040589614" lon="12.909344246860021"><ele>912.0</ele><time>2026-04-04T11:08:18.999Z</time></trkpt><trkpt lat="43.20904013212773" lon="12.909432603435791"><ele>912.0</ele><time>2026-04-04T11:08:20.999Z</time></trkpt><trkpt lat="43.20902339024106" lon="12.90953234644387"><ele>912.0</ele><time>2026-04-04T11:08:23.999Z</time></trkpt><trkpt lat="43.20898673494363" lon="12.909624950571946"><ele>912.0</ele><time>2026-04-04T11:08:25.999Z</time></trkpt><trkpt lat="43.208950560312395" lon="12.909725979986993"><ele>912.0</ele><time>2026-04-04T11:08:26.999Z</time></trkpt><trkpt lat="43.20891879065457" lon="12.909825187713608"><ele>906.0</ele><time>2026-04-04T11:08:27.999Z</time></trkpt><trkpt lat="43.2088707008207" lon="12.90992775960316"><ele>900.0</ele><time>2026-04-04T11:08:28.999Z</time></trkpt><trkpt lat="43.2088131841253" lon="12.910060304855078"><ele>894.0</ele><time>2026-04-04T11:08:30.999Z</time></trkpt><trkpt lat="43.20879249825177" lon="12.910195992844404"><ele>888.0</ele><time>2026-04-04T11:08:32.999Z</time></trkpt><trkpt lat="43.20876943662006" lon="12.910325047985074"><ele>882.0</ele><time>2026-04-04T11:08:34.999Z</time></trkpt><trkpt lat="43.208739553897516" lon="12.910434349392606"><ele>882.0</ele><time>2026-04-04T11:08:36.999Z</time></trkpt><trkpt lat="43.208683390678324" lon="12.910559121111588"><ele>882.0</ele><time>2026-04-04T11:08:38.999Z</time></trkpt><trkpt lat="43.20864535577613" lon="12.910682701463017"><ele>882.0</ele><time>2026-04-04T11:08:40.999Z</time></trkpt><trkpt lat="43.20861626595051" lon="12.910786962248867"><ele>882.0</ele><time>2026-04-04T11:08:42.999Z</time></trkpt><trkpt lat="43.20855420148195" lon="12.910874606518558"><ele>882.0</ele><time>2026-04-04T11:08:44.999Z</time></trkpt><trkpt lat="43.20851549474962" lon="12.910967911586717"><ele>883.4000000000001</ele><time>2026-04-04T11:08:47.999Z</time></trkpt><trkpt lat="43.208467536983676" lon="12.91111026604796"><ele>884.8000000000001</ele><time>2026-04-04T11:08:49.999Z</time></trkpt><trkpt lat="43.208442784401434" lon="12.911235866102382"><ele>886.2</ele><time>2026-04-04T11:08:51.999Z</time></trkpt><trkpt lat="43.20845212834258" lon="12.911356161820091"><ele>887.6</ele><time>2026-04-04T11:08:53.999Z</time></trkpt><trkpt lat="43.208446497090854" lon="12.91149622762889"><ele>889.0</ele><time>2026-04-04T11:08:55.999Z</time></trkpt><trkpt lat="43.20841387074969" lon="12.91162823629189"><ele>888.8000000000001</ele><time>2026-04-04T11:08:57.999Z</time></trkpt><trkpt lat="43.20836287674094" lon="12.911758062632565"><ele>888.6000000000001</ele><time>2026-04-04T11:08:59.999Z</time></trkpt><trkpt lat="43.20830180195129" lon="12.911885891832716"><ele>888.4</ele><time>2026-04-04T11:09:01.999Z</time></trkpt><trkpt lat="43.208256588713105" lon="12.912007896664713"><ele>888.2</ele><time>2026-04-04T11:09:03.999Z</time></trkpt><trkpt lat="43.208208629963636" lon="12.912143469419707"><ele>888.0</ele><time>2026-04-04T11:09:05.999Z</time></trkpt><trkpt lat="43.208173682778025" lon="12.912232182648784"><ele>886.1666666666666</ele><time>2026-04-04T11:09:06.999Z</time></trkpt><trkpt lat="43.208136804595846" lon="12.912315008749855"><ele>884.3333333333333</ele><time>2026-04-04T11:09:07.999Z</time></trkpt><trkpt lat="43.2080999477226" lon="12.912407940622971"><ele>882.5</ele><time>2026-04-04T11:09:08.999Z</time></trkpt><trkpt lat="43.208026222024394" lon="12.912534971360701"><ele>880.6666666666666</ele><time>2026-04-04T11:09:10.999Z</time></trkpt><trkpt lat="43.207970902339284" lon="12.912659792095615"><ele>878.8333333333333</ele><time>2026-04-04T11:09:12.999Z</time></trkpt><trkpt lat="43.20792875661143" lon="12.912747390511184"><ele>877.0</ele><time>2026-04-04T11:09:14.999Z</time></trkpt><trkpt lat="43.2079067679874" lon="12.91283077141433"><ele>877.0</ele><time>2026-04-04T11:09:19.999Z</time></trkpt><trkpt lat="43.20791032786669" lon="12.91291900725673"><ele>877.0</ele><time>2026-04-04T11:09:21.999Z</time></trkpt><trkpt lat="43.20788108192112" lon="12.9130753541572"><ele>877.0</ele><time>2026-04-04T11:09:23.999Z</time></trkpt><trkpt lat="43.207846770243535" lon="12.913232067465064"><ele>877.0</ele><time>2026-04-04T11:09:25.999Z</time></trkpt><trkpt lat="43.207803146652374" lon="12.91337347584447"><ele>877.0</ele><time>2026-04-04T11:09:27.999Z</time></trkpt><trkpt lat="43.20779147502848" lon="12.913510560739168"><ele>877.6666666666666</ele><time>2026-04-04T11:09:29.999Z</time></trkpt><trkpt lat="43.20787484063477" lon="12.913552639481793"><ele>878.3333333333333</ele><time>2026-04-04T11:09:32.999Z</time></trkpt><trkpt lat="43.207950966414934" lon="12.91352276099812"><ele>879.0</ele><time>2026-04-04T11:09:34.999Z</time></trkpt><trkpt lat="43.20802188542469" lon="12.913497935233586"><ele>879.6666666666667</ele><time>2026-04-04T11:09:36.999Z</time></trkpt><trkpt lat="43.208094605352414" lon="12.913464841856914"><ele>880.3333333333334</ele><time>2026-04-04T11:09:38.999Z</time></trkpt><trkpt lat="43.20818862810418" lon="12.913519670675749"><ele>881.0</ele><time>2026-04-04T11:09:40.999Z</time></trkpt><trkpt lat="43.208244478326996" lon="12.913564693394134"><ele>879.0</ele><time>2026-04-04T11:09:41.999Z</time></trkpt><trkpt lat="43.20834751951126" lon="12.913661925008359"><ele>876.9999999999999</ele><time>2026-04-04T11:09:43.999Z</time></trkpt><trkpt lat="43.20842720250851" lon="12.913754606701868"><ele>874.9999999999999</ele><time>2026-04-04T11:09:45.999Z</time></trkpt><trkpt lat="43.20848663006269" lon="12.913833196790963"><ele>873.0</ele><time>2026-04-04T11:09:47.999Z</time></trkpt><trkpt lat="43.20855089087841" lon="12.913873443187391"><ele>871.0</ele><time>2026-04-04T11:09:49.999Z</time></trkpt><trkpt lat="43.208610303653366" lon="12.913929466299226"><ele>870.9999999999999</ele><time>2026-04-04T11:09:51.999Z</time></trkpt><trkpt lat="43.208674480080695" lon="12.91399858411885"><ele>871.0</ele><time>2026-04-04T11:09:54.999Z</time></trkpt><trkpt lat="43.20871697657101" lon="12.91411179648382"><ele>871.0</ele><time>2026-04-04T11:09:56.999Z</time></trkpt><trkpt lat="43.20876301814433" lon="12.91418350795696"><ele>871.0</ele><time>2026-04-04T11:09:58.999Z</time></trkpt><trkpt lat="43.20878467507886" lon="12.914287936923005"><ele>870.9999999999999</ele><time>2026-04-04T11:10:00.999Z</time></trkpt><trkpt lat="43.20881884414092" lon="12.914408755325228"><ele>871.0</ele><time>2026-04-04T11:10:02.999Z</time></trkpt><trkpt lat="43.20886457390437" lon="12.91450418757712"><ele>869.9999999999999</ele><time>2026-04-04T11:10:05.999Z</time></trkpt><trkpt lat="43.20890862283688" lon="12.914623570614353"><ele>869.0</ele><time>2026-04-04T11:10:08.999Z</time></trkpt><trkpt lat="43.20894012289762" lon="12.914719399999221"><ele>868.0</ele><time>2026-04-04T11:10:10.999Z</time></trkpt><trkpt lat="43.20893252609034" lon="12.914852831877983"><ele>867.0</ele><time>2026-04-04T11:10:13.999Z</time></trkpt><trkpt lat="43.208896504312996" lon="12.914926548454877"><ele>865.9999999999999</ele><time>2026-04-04T11:10:14.999Z</time></trkpt><trkpt lat="43.20882129001419" lon="12.915030783353888"><ele>865.0</ele><time>2026-04-04T11:10:16.999Z</time></trkpt><trkpt lat="43.20876245315699" lon="12.915148916138287"><ele>863.2</ele><time>2026-04-04T11:10:18.999Z</time></trkpt><trkpt lat="43.2086917113612" lon="12.91525683985028"><ele>861.4</ele><time>2026-04-04T11:10:20.999Z</time></trkpt><trkpt lat="43.20862576488258" lon="12.915350071764834"><ele>859.5999999999999</ele><time>2026-04-04T11:10:22.999Z</time></trkpt><trkpt lat="43.20859446803661" lon="12.915456933766427"><ele>857.8</ele><time>2026-04-04T11:10:24.999Z</time></trkpt><trkpt lat="43.20858971960693" lon="12.915591806968093"><ele>856.0</ele><time>2026-04-04T11:10:26.999Z</time></trkpt><trkpt lat="43.20864507361224" lon="12.915738796873118"><ele>856.0</ele><time>2026-04-04T11:10:28.999Z</time></trkpt><trkpt lat="43.208715410237325" lon="12.91588602805481"><ele>855.9999999999999</ele><time>2026-04-04T11:10:30.999Z</time></trkpt><trkpt lat="43.20874814375324" lon="12.915991234042638"><ele>855.9999999999999</ele><time>2026-04-04T11:10:31.999Z</time></trkpt><trkpt lat="43.20877554620472" lon="12.916102369708403"><ele>856.0</ele><time>2026-04-04T11:10:32.999Z</time></trkpt><trkpt lat="43.20880438968512" lon="12.916215146355585"><ele>856.0</ele><time>2026-04-04T11:10:33.999Z</time></trkpt><trkpt lat="43.20883892465947" lon="12.916341040330774"><ele>855.8333333333333</ele><time>2026-04-04T11:10:34.999Z</time></trkpt><trkpt lat="43.20887373131291" lon="12.916465540874308"><ele>855.6666666666666</ele><time>2026-04-04T11:10:35.999Z</time></trkpt><trkpt lat="43.20889922105781" lon="12.91656990841396"><ele>855.5</ele><time>2026-04-04T11:10:36.999Z</time></trkpt><trkpt lat="43.20892549541646" lon="12.916660025146447"><ele>855.3333333333333</ele><time>2026-04-04T11:10:37.999Z</time></trkpt><trkpt lat="43.20895528634374" lon="12.916756776284245"><ele>855.1666666666666</ele><time>2026-04-04T11:10:38.999Z</time></trkpt><trkpt lat="43.208988548538095" lon="12.916857076697873"><ele>855.0</ele><time>2026-04-04T11:10:39.999Z</time></trkpt><trkpt lat="43.209011487800936" lon="12.916951137892365"><ele>849.0</ele><time>2026-04-04T11:10:40.999Z</time></trkpt><trkpt lat="43.20901586340446" lon="12.917037873346931"><ele>843.0</ele><time>2026-04-04T11:10:41.999Z</time></trkpt><trkpt lat="43.20903068556499" lon="12.91719865197692"><ele>837.0</ele><time>2026-04-04T11:10:43.999Z</time></trkpt><trkpt lat="43.20903552136846" lon="12.917348058265926"><ele>831.0</ele><time>2026-04-04T11:10:45.999Z</time></trkpt><trkpt lat="43.209037320226656" lon="12.917517621999178"><ele>825.0</ele><time>2026-04-04T11:10:47.999Z</time></trkpt><trkpt lat="43.209037482805" lon="12.917627203162706"><ele>825.0</ele><time>2026-04-04T11:10:48.999Z</time></trkpt><trkpt lat="43.20902560339694" lon="12.917738871378203"><ele>825.0</ele><time>2026-04-04T11:10:50Z</time></trkpt><trkpt lat="43.20901015588643" lon="12.917848927279856"><ele>825.0</ele><time>2026-04-04T11:10:51Z</time></trkpt><trkpt lat="43.20899761190571" lon="12.917953397472225"><ele>825.0</ele><time>2026-04-04T11:10:52Z</time></trkpt><trkpt lat="43.2089875056692" lon="12.918050228178126"><ele>825.0</ele><time>2026-04-04T11:10:53Z</time></trkpt><trkpt lat="43.20897445791751" lon="12.918145902929732"><ele>825.0</ele><time>2026-04-04T11:10:54Z</time></trkpt><trkpt lat="43.20895073343567" lon="12.918269122972207"><ele>829.6</ele><time>2026-04-04T11:10:55Z</time></trkpt><trkpt lat="43.20892613841224" lon="12.918383837013385"><ele>834.2</ele><time>2026-04-04T11:10:56Z</time></trkpt><trkpt lat="43.20890292675108" lon="12.918499780288833"><ele>838.8</ele><time>2026-04-04T11:10:57Z</time></trkpt><trkpt lat="43.2088831100298" lon="12.91860531836108"><ele>843.4</ele><time>2026-04-04T11:10:58Z</time></trkpt><trkpt lat="43.20885074413586" lon="12.918779418256632"><ele>848.0</ele><time>2026-04-04T11:11:00Z</time></trkpt><trkpt lat="43.20884116945413" lon="12.918867052602238"><ele>848.0000000000001</ele><time>2026-04-04T11:11:01Z</time></trkpt><trkpt lat="43.208819663481506" lon="12.918995043405387"><ele>848.0</ele><time>2026-04-04T11:11:03Z</time></trkpt><trkpt lat="43.20881678867073" lon="12.919083496306849"><ele>848.0</ele><time>2026-04-04T11:11:05Z</time></trkpt><trkpt lat="43.20887010439936" lon="12.91918655390376"><ele>848.0</ele><time>2026-04-04T11:11:08Z</time></trkpt><trkpt lat="43.208911712701486" lon="12.919310335185367"><ele>848.0000000000001</ele><time>2026-04-04T11:11:10Z</time></trkpt><trkpt lat="43.20892059633196" lon="12.919424661251597"><ele>848.0</ele><time>2026-04-04T11:11:12Z</time></trkpt><trkpt lat="43.20891376353097" lon="12.919540763460533"><ele>846.4</ele><time>2026-04-04T11:11:14Z</time></trkpt><trkpt lat="43.208909243296006" lon="12.919650783026851"><ele>844.8</ele><time>2026-04-04T11:11:16Z</time></trkpt><trkpt lat="43.20891340339048" lon="12.91980242703524"><ele>843.2</ele><time>2026-04-04T11:11:18Z</time></trkpt><trkpt lat="43.20892885200493" lon="12.919951180001553"><ele>841.6</ele><time>2026-04-04T11:11:20Z</time></trkpt><trkpt lat="43.20893464235294" lon="12.920087616754211"><ele>840.0</ele><time>2026-04-04T11:11:22Z</time></trkpt><trkpt lat="43.20892918947757" lon="12.920198681368754"><ele>837.5714285714286</ele><time>2026-04-04T11:11:24Z</time></trkpt><trkpt lat="43.20892029146994" lon="12.920286366924005"><ele>835.1428571428571</ele><time>2026-04-04T11:11:26Z</time></trkpt><trkpt lat="43.20892376091151" lon="12.92038603551192"><ele>832.7142857142858</ele><time>2026-04-04T11:11:29Z</time></trkpt><trkpt lat="43.20890731532191" lon="12.920473854050108"><ele>830.2857142857142</ele><time>2026-04-04T11:11:31Z</time></trkpt><trkpt lat="43.20888173601379" lon="12.920555040265699"><ele>827.8571428571429</ele><time>2026-04-04T11:11:33Z</time></trkpt><trkpt lat="43.20885037506594" lon="12.920656755460188"><ele>825.4285714285714</ele><time>2026-04-04T11:11:36Z</time></trkpt><trkpt lat="43.2088298568402" lon="12.920757349501132"><ele>823.0</ele><time>2026-04-04T11:11:39Z</time></trkpt><trkpt lat="43.2088051732417" lon="12.92085863046429"><ele>817.4</ele><time>2026-04-04T11:11:41Z</time></trkpt><trkpt lat="43.20880243059405" lon="12.920975451018924"><ele>811.8</ele><time>2026-04-04T11:11:43Z</time></trkpt><trkpt lat="43.20884674892274" lon="12.921093706351382"><ele>806.2</ele><time>2026-04-04T11:11:45Z</time></trkpt><trkpt lat="43.20891254590303" lon="12.921220334524879"><ele>800.6</ele><time>2026-04-04T11:11:47Z</time></trkpt><trkpt lat="43.20895865686148" lon="12.921280508478787"><ele>795.0</ele><time>2026-04-04T11:11:48Z</time></trkpt><trkpt lat="43.209042936869196" lon="12.921394755790919"><ele>795.0</ele><time>2026-04-04T11:11:50Z</time></trkpt><trkpt lat="43.20909580761212" lon="12.921470766812003"><ele>795.0</ele><time>2026-04-04T11:11:52Z</time></trkpt><trkpt lat="43.20915739189296" lon="12.921556740408446"><ele>795.0</ele><time>2026-04-04T11:11:54Z</time></trkpt><trkpt lat="43.20919603356975" lon="12.921667855171274"><ele>795.0</ele><time>2026-04-04T11:11:56Z</time></trkpt><trkpt lat="43.20924030794498" lon="12.921750888023352"><ele>795.0</ele><time>2026-04-04T11:11:59Z</time></trkpt><trkpt lat="43.20930268572214" lon="12.921772680055703"><ele>795.0</ele><time>2026-04-04T11:12:01Z</time></trkpt><trkpt lat="43.20939214524752" lon="12.92179956321856"><ele>793.2</ele><time>2026-04-04T11:12:04Z</time></trkpt><trkpt lat="43.20947281895587" lon="12.92183282438471"><ele>791.4</ele><time>2026-04-04T11:12:06Z</time></trkpt><trkpt lat="43.209558259523604" lon="12.921903336355218"><ele>789.5999999999999</ele><time>2026-04-04T11:12:08Z</time></trkpt><trkpt lat="43.20961729612391" lon="12.921969427844022"><ele>787.8</ele><time>2026-04-04T11:12:10Z</time></trkpt><trkpt lat="43.209700783413524" lon="12.922044020503227"><ele>786.0</ele><time>2026-04-04T11:12:12Z</time></trkpt><trkpt lat="43.209788221124" lon="12.922100161866668"><ele>784.0</ele><time>2026-04-04T11:12:14Z</time></trkpt><trkpt lat="43.209856306708986" lon="12.922174124825569"><ele>782.0</ele><time>2026-04-04T11:12:16Z</time></trkpt><trkpt lat="43.20996229636704" lon="12.922263160115381"><ele>780.0</ele><time>2026-04-04T11:12:18Z</time></trkpt><trkpt lat="43.21005927150729" lon="12.922345183918285"><ele>778.0</ele><time>2026-04-04T11:12:20Z</time></trkpt><trkpt lat="43.21015225420467" lon="12.922440856663206"><ele>776.0</ele><time>2026-04-04T11:12:22Z</time></trkpt><trkpt lat="43.21024029548122" lon="12.922517537259635"><ele>775.0</ele><time>2026-04-04T11:12:24Z</time></trkpt><trkpt lat="43.21029023360571" lon="12.922572131192695"><ele>774.0</ele><time>2026-04-04T11:12:25Z</time></trkpt><trkpt lat="43.21038497845592" lon="12.922673097193483"><ele>773.0</ele><time>2026-04-04T11:12:27Z</time></trkpt><trkpt lat="43.21047885447921" lon="12.922738466761558"><ele>772.0</ele><time>2026-04-04T11:12:29Z</time></trkpt><trkpt lat="43.210586651684174" lon="12.922799615536185"><ele>771.0</ele><time>2026-04-04T11:12:31Z</time></trkpt><trkpt lat="43.2106856568782" lon="12.92284710688085"><ele>768.4</ele><time>2026-04-04T11:12:33Z</time></trkpt><trkpt lat="43.21077457629763" lon="12.922902060537684"><ele>765.8</ele><time>2026-04-04T11:12:35Z</time></trkpt><trkpt lat="43.21088415305209" lon="12.922987300077196"><ele>763.1999999999999</ele><time>2026-04-04T11:12:37Z</time></trkpt><trkpt lat="43.210952467508115" lon="12.923043326850703"><ele>760.5999999999999</ele><time>2026-04-04T11:12:38Z</time></trkpt><trkpt lat="43.211029662752466" lon="12.923105220111388"><ele>758.0</ele><time>2026-04-04T11:12:39Z</time></trkpt><trkpt lat="43.21110460897749" lon="12.92318010649543"><ele>758.0</ele><time>2026-04-04T11:12:40Z</time></trkpt><trkpt lat="43.21118455792231" lon="12.923245643259758"><ele>758.0</ele><time>2026-04-04T11:12:41Z</time></trkpt><trkpt lat="43.21125002678394" lon="12.923311178608094"><ele>758.0</ele><time>2026-04-04T11:12:42Z</time></trkpt><trkpt lat="43.21130404009355" lon="12.923356110885383"><ele>758.0</ele><time>2026-04-04T11:12:43Z</time></trkpt><trkpt lat="43.211401352752205" lon="12.923427579349116"><ele>758.0</ele><time>2026-04-04T11:12:45Z</time></trkpt><trkpt lat="43.21149054070906" lon="12.923441883566264"><ele>758.0</ele><time>2026-04-04T11:12:47Z</time></trkpt><trkpt lat="43.211567446631015" lon="12.92344447834423"><ele>751.5999999999999</ele><time>2026-04-04T11:12:49Z</time></trkpt><trkpt lat="43.211641465195584" lon="12.923506478289847"><ele>745.1999999999999</ele><time>2026-04-04T11:12:52Z</time></trkpt><trkpt lat="43.21166953770859" lon="12.923616209860207"><ele>738.8</ele><time>2026-04-04T11:12:55Z</time></trkpt><trkpt lat="43.21165238581865" lon="12.923734982825035"><ele>732.4</ele><time>2026-04-04T11:12:57Z</time></trkpt><trkpt lat="43.211607604264536" lon="12.92388644920779"><ele>726.0</ele><time>2026-04-04T11:12:59Z</time></trkpt><trkpt lat="43.21157849827519" lon="12.924038541539646"><ele>726.0</ele><time>2026-04-04T11:13:01Z</time></trkpt><trkpt lat="43.211573075237986" lon="12.924162755940745"><ele>726.0</ele><time>2026-04-04T11:13:03Z</time></trkpt><trkpt lat="43.211510908500415" lon="12.924258223178608"><ele>726.0</ele><time>2026-04-04T11:13:05Z</time></trkpt><trkpt lat="43.211455327963854" lon="12.924335598980374"><ele>726.0</ele><time>2026-04-04T11:13:07Z</time></trkpt><trkpt lat="43.21142083183313" lon="12.924410628587465"><ele>726.0</ele><time>2026-04-04T11:13:09Z</time></trkpt><trkpt lat="43.21138926557221" lon="12.924512204558415"><ele>726.0</ele><time>2026-04-04T11:13:15Z</time></trkpt><trkpt lat="43.21134981055737" lon="12.924584083436537"><ele>725.5</ele><time>2026-04-04T11:13:21Z</time></trkpt><trkpt lat="43.21131300668645" lon="12.924654206285965"><ele>725.0</ele><time>2026-04-04T11:13:32Z</time></trkpt><trkpt lat="43.21129304576356" lon="12.924774174165863"><ele>724.5</ele><time>2026-04-04T11:13:37Z</time></trkpt><trkpt lat="43.211284892560855" lon="12.9248827617006"><ele>724.0</ele><time>2026-04-04T11:13:39Z</time></trkpt><trkpt lat="43.2112758877467" lon="12.925010680513099"><ele>723.5</ele><time>2026-04-04T11:13:42Z</time></trkpt><trkpt lat="43.21131833058541" lon="12.92511109481815"><ele>723.0</ele><time>2026-04-04T11:13:44Z</time></trkpt><trkpt lat="43.21139368408407" lon="12.925227196071324"><ele>723.0</ele><time>2026-04-04T11:13:46Z</time></trkpt><trkpt lat="43.21146775022155" lon="12.925346712420733"><ele>723.0</ele><time>2026-04-04T11:13:48Z</time></trkpt><trkpt lat="43.21153486174441" lon="12.925465947144302"><ele>723.0</ele><time>2026-04-04T11:13:50Z</time></trkpt><trkpt lat="43.211589696005966" lon="12.92559698813782"><ele>723.0</ele><time>2026-04-04T11:13:52Z</time></trkpt><trkpt lat="43.21162392871065" lon="12.925711944697088"><ele>723.0</ele><time>2026-04-04T11:13:54Z</time></trkpt><trkpt lat="43.2116507723132" lon="12.92583153960472"><ele>729.8</ele><time>2026-04-04T11:13:56Z</time></trkpt><trkpt lat="43.21164530772357" lon="12.92595816599443"><ele>736.5999999999999</ele><time>2026-04-04T11:13:58Z</time></trkpt><trkpt lat="43.21163797527138" lon="12.926076844795832"><ele>743.4000000000001</ele><time>2026-04-04T11:14:00Z</time></trkpt><trkpt lat="43.2116668342502" lon="12.926216948644575"><ele>750.2</ele><time>2026-04-04T11:14:03Z</time></trkpt><trkpt lat="43.21171907797793" lon="12.926331845332259"><ele>757.0</ele><time>2026-04-04T11:14:05Z</time></trkpt><trkpt lat="43.21175654148274" lon="12.92645185471018"><ele>757.0</ele><time>2026-04-04T11:14:07Z</time></trkpt><trkpt lat="43.21179676766852" lon="12.926573732256704"><ele>757.0</ele><time>2026-04-04T11:14:09Z</time></trkpt><trkpt lat="43.21180715176052" lon="12.926682999060306"><ele>757.0</ele><time>2026-04-04T11:14:11Z</time></trkpt><trkpt lat="43.211833189485105" lon="12.926812757645907"><ele>757.0</ele><time>2026-04-04T11:14:13Z</time></trkpt><trkpt lat="43.21186108349385" lon="12.926917355315377"><ele>757.0</ele><time>2026-04-04T11:14:15Z</time></trkpt><trkpt lat="43.21189335573975" lon="12.92701642694912"><ele>757.0</ele><time>2026-04-04T11:14:17Z</time></trkpt><trkpt lat="43.21191692789598" lon="12.92710801595814"><ele>760.2</ele><time>2026-04-04T11:14:19Z</time></trkpt><trkpt lat="43.211909613840696" lon="12.927239115487374"><ele>763.4000000000001</ele><time>2026-04-04T11:14:21Z</time></trkpt><trkpt lat="43.21193368161874" lon="12.927368793959817"><ele>766.5999999999999</ele><time>2026-04-04T11:14:23Z</time></trkpt><trkpt lat="43.21195443041038" lon="12.927501203847738"><ele>769.8</ele><time>2026-04-04T11:14:25Z</time></trkpt><trkpt lat="43.211979105994615" lon="12.927633382380296"><ele>773.0</ele><time>2026-04-04T11:14:27Z</time></trkpt><trkpt lat="43.21199684672602" lon="12.927782279865836"><ele>775.1666666666667</ele><time>2026-04-04T11:14:29Z</time></trkpt><trkpt lat="43.21201151120357" lon="12.927870625196926"><ele>777.3333333333334</ele><time>2026-04-04T11:14:30Z</time></trkpt><trkpt lat="43.21204495288975" lon="12.92800655541712"><ele>779.5</ele><time>2026-04-04T11:14:32Z</time></trkpt><trkpt lat="43.21210884763299" lon="12.928074268820565"><ele>781.6666666666667</ele><time>2026-04-04T11:14:34Z</time></trkpt><trkpt lat="43.21216421444838" lon="12.928162012046485"><ele>783.8333333333334</ele><time>2026-04-04T11:14:36Z</time></trkpt><trkpt lat="43.21221600616477" lon="12.928288348934023"><ele>786.0</ele><time>2026-04-04T11:14:38Z</time></trkpt><trkpt lat="43.21228997117548" lon="12.928427109411478"><ele>786.6666666666666</ele><time>2026-04-04T11:14:40Z</time></trkpt><trkpt lat="43.21232695695841" lon="12.928504246413002"><ele>787.3333333333333</ele><time>2026-04-04T11:14:41Z</time></trkpt><trkpt lat="43.21236370267453" lon="12.928589213474464"><ele>788.0</ele><time>2026-04-04T11:14:42Z</time></trkpt><trkpt lat="43.212391007719226" lon="12.928680043229184"><ele>788.6666666666666</ele><time>2026-04-04T11:14:43Z</time></trkpt><trkpt lat="43.212433245122064" lon="12.928832517553259"><ele>789.3333333333333</ele><time>2026-04-04T11:14:45Z</time></trkpt><trkpt lat="43.212458833713335" lon="12.928916109063762"><ele>790.0</ele><time>2026-04-04T11:14:46Z</time></trkpt><trkpt lat="43.21248030179219" lon="12.929001233722861"><ele>790.0</ele><time>2026-04-04T11:14:47Z</time></trkpt><trkpt lat="43.21252772543276" lon="12.929146111020499"><ele>790.0</ele><time>2026-04-04T11:14:49Z</time></trkpt><trkpt lat="43.21255328145697" lon="12.929273982137943"><ele>790.0</ele><time>2026-04-04T11:14:51Z</time></trkpt><trkpt lat="43.21255633412174" lon="12.929400964836889"><ele>790.0</ele><time>2026-04-04T11:14:53Z</time></trkpt><trkpt lat="43.212515514029135" lon="12.929486044839514"><ele>790.0</ele><time>2026-04-04T11:14:55Z</time></trkpt><trkpt lat="43.212457288129954" lon="12.92958098858184"><ele>790.4</ele><time>2026-04-04T11:14:57Z</time></trkpt><trkpt lat="43.212374498930835" lon="12.929705366187848"><ele>790.8</ele><time>2026-04-04T11:14:59Z</time></trkpt><trkpt lat="43.212293813598656" lon="12.929833116609805"><ele>791.2</ele><time>2026-04-04T11:15:01Z</time></trkpt><trkpt lat="43.212194710947756" lon="12.929951375884519"><ele>791.6</ele><time>2026-04-04T11:15:03Z</time></trkpt><trkpt lat="43.212149247520884" lon="12.93002711224066"><ele>792.0</ele><time>2026-04-04T11:15:04Z</time></trkpt><trkpt lat="43.2121064060754" lon="12.930110171412142"><ele>790.0</ele><time>2026-04-04T11:15:05Z</time></trkpt><trkpt lat="43.21206268025293" lon="12.930186139923961"><ele>788.0</ele><time>2026-04-04T11:15:06Z</time></trkpt><trkpt lat="43.2120172451798" lon="12.930268407942458"><ele>786.0</ele><time>2026-04-04T11:15:07Z</time></trkpt><trkpt lat="43.211960988123735" lon="12.930336329189684"><ele>784.0</ele><time>2026-04-04T11:15:08Z</time></trkpt><trkpt lat="43.21190860841743" lon="12.930413118794192"><ele>782.0</ele><time>2026-04-04T11:15:09Z</time></trkpt><trkpt lat="43.21185224306347" lon="12.930493730993636"><ele>780.0</ele><time>2026-04-04T11:15:10Z</time></trkpt><trkpt lat="43.21180083499495" lon="12.93057008503424"><ele>780.0</ele><time>2026-04-04T11:15:11Z</time></trkpt><trkpt lat="43.211752043235016" lon="12.930641827885578"><ele>780.0</ele><time>2026-04-04T11:15:12Z</time></trkpt><trkpt lat="43.21170399200365" lon="12.93070803953076"><ele>780.0</ele><time>2026-04-04T11:15:13Z</time></trkpt><trkpt lat="43.211656420445145" lon="12.930771451033012"><ele>780.0</ele><time>2026-04-04T11:15:14Z</time></trkpt><trkpt lat="43.2115750438402" lon="12.930892551308437"><ele>780.0</ele><time>2026-04-04T11:15:16Z</time></trkpt><trkpt lat="43.21149218582886" lon="12.930989967443315"><ele>780.0</ele><time>2026-04-04T11:15:18Z</time></trkpt><trkpt lat="43.21142045882541" lon="12.931077187487368"><ele>779.2</ele><time>2026-04-04T11:15:20Z</time></trkpt><trkpt lat="43.21134083246021" lon="12.931143117879921"><ele>778.4</ele><time>2026-04-04T11:15:22Z</time></trkpt><trkpt lat="43.2112881919917" lon="12.931197882060363"><ele>777.5999999999999</ele><time>2026-04-04T11:15:23Z</time></trkpt><trkpt lat="43.211191512307146" lon="12.931300305848737"><ele>776.8</ele><time>2026-04-04T11:15:25Z</time></trkpt><trkpt lat="43.211096877156365" lon="12.931392202901995"><ele>776.0</ele><time>2026-04-04T11:15:27Z</time></trkpt><trkpt lat="43.21101590742737" lon="12.931485434612148"><ele>776.0000000000001</ele><time>2026-04-04T11:15:29Z</time></trkpt><trkpt lat="43.21097069951369" lon="12.931564786888348"><ele>776.0</ele><time>2026-04-04T11:15:30Z</time></trkpt><trkpt lat="43.21092540254307" lon="12.931631913212119"><ele>776.0</ele><time>2026-04-04T11:15:31Z</time></trkpt><trkpt lat="43.210877442196164" lon="12.931703983896199"><ele>776.0</ele><time>2026-04-04T11:15:32Z</time></trkpt><trkpt lat="43.21081950068731" lon="12.931774727204914"><ele>776.0000000000001</ele><time>2026-04-04T11:15:33Z</time></trkpt><trkpt lat="43.210758791145686" lon="12.931850467990262"><ele>776.0</ele><time>2026-04-04T11:15:34Z</time></trkpt><trkpt lat="43.210696227657564" lon="12.931932410875284"><ele>777.0</ele><time>2026-04-04T11:15:35Z</time></trkpt><trkpt lat="43.21062762926461" lon="12.932021183463995"><ele>778.0</ele><time>2026-04-04T11:15:36Z</time></trkpt><trkpt lat="43.2105690743768" lon="12.932103504584495"><ele>779.0</ele><time>2026-04-04T11:15:37Z</time></trkpt><trkpt lat="43.2105044790949" lon="12.9321912443417"><ele>780.0</ele><time>2026-04-04T11:15:38Z</time></trkpt><trkpt lat="43.21043123793735" lon="12.932295091684512"><ele>781.0</ele><time>2026-04-04T11:15:39Z</time></trkpt><trkpt lat="43.210342796774185" lon="12.932402509231537"><ele>781.0</ele><time>2026-04-04T11:15:40Z</time></trkpt><trkpt lat="43.21025371420819" lon="12.932508508708802"><ele>781.0</ele><time>2026-04-04T11:15:41Z</time></trkpt><trkpt lat="43.21017369848456" lon="12.93261812074094"><ele>781.0</ele><time>2026-04-04T11:15:42Z</time></trkpt><trkpt lat="43.21010369636671" lon="12.93271649137485"><ele>781.0</ele><time>2026-04-04T11:15:43Z</time></trkpt><trkpt lat="43.21003013588539" lon="12.932810261941162"><ele>781.0</ele><time>2026-04-04T11:15:44Z</time></trkpt><trkpt lat="43.20995485619573" lon="12.932905430687416"><ele>780.0</ele><time>2026-04-04T11:15:45Z</time></trkpt><trkpt lat="43.209882300326534" lon="12.932999114523836"><ele>779.0</ele><time>2026-04-04T11:15:46Z</time></trkpt><trkpt lat="43.20981332726078" lon="12.933077134862575"><ele>778.0</ele><time>2026-04-04T11:15:47Z</time></trkpt><trkpt lat="43.2097456335132" lon="12.933158840078205"><ele>777.0</ele><time>2026-04-04T11:15:48Z</time></trkpt><trkpt lat="43.20967452950259" lon="12.933239430611497"><ele>776.0</ele><time>2026-04-04T11:15:49Z</time></trkpt><trkpt lat="43.20960938332458" lon="12.933311419144857"><ele>776.0000000000001</ele><time>2026-04-04T11:15:50Z</time></trkpt><trkpt lat="43.209553853761875" lon="12.933382971106784"><ele>776.0</ele><time>2026-04-04T11:15:51Z</time></trkpt><trkpt lat="43.209498989852584" lon="12.933449953142379"><ele>776.0</ele><time>2026-04-04T11:15:52Z</time></trkpt><trkpt lat="43.20945064944422" lon="12.933513799591417"><ele>776.0</ele><time>2026-04-04T11:15:53Z</time></trkpt><trkpt lat="43.20936372089514" lon="12.933638494523338"><ele>776.0000000000001</ele><time>2026-04-04T11:15:55Z</time></trkpt><trkpt lat="43.209319690753084" lon="12.933704370431697"><ele>776.0</ele><time>2026-04-04T11:15:56Z</time></trkpt><trkpt lat="43.209272425938934" lon="12.933768519202037"><ele>773.6666666666667</ele><time>2026-04-04T11:15:57Z</time></trkpt><trkpt lat="43.20922115348404" lon="12.933841236338006"><ele>771.3333333333334</ele><time>2026-04-04T11:15:58Z</time></trkpt><trkpt lat="43.20916547259356" lon="12.933917552270557"><ele>769.0</ele><time>2026-04-04T11:15:59Z</time></trkpt><trkpt lat="43.2091098400112" lon="12.933983837245455"><ele>766.6666666666667</ele><time>2026-04-04T11:16:00Z</time></trkpt><trkpt lat="43.20905904127683" lon="12.934051028463918"><ele>764.3333333333334</ele><time>2026-04-04T11:16:01Z</time></trkpt><trkpt lat="43.20896868618006" lon="12.934169895790367"><ele>762.0</ele><time>2026-04-04T11:16:03Z</time></trkpt><trkpt lat="43.20890367195991" lon="12.934283497657805"><ele>758.2</ele><time>2026-04-04T11:16:05Z</time></trkpt><trkpt lat="43.208859193972124" lon="12.934370512435319"><ele>754.4000000000001</ele><time>2026-04-04T11:16:07Z</time></trkpt><trkpt lat="43.208811235075515" lon="12.934462291522884"><ele>750.5999999999999</ele><time>2026-04-04T11:16:09Z</time></trkpt><trkpt lat="43.20875212590898" lon="12.934540612841493"><ele>746.8</ele><time>2026-04-04T11:16:11Z</time></trkpt><trkpt lat="43.20867189122935" lon="12.934634578156045"><ele>743.0</ele><time>2026-04-04T11:16:13Z</time></trkpt><trkpt lat="43.20856571411054" lon="12.93473092601998"><ele>743.0</ele><time>2026-04-04T11:16:15Z</time></trkpt><trkpt lat="43.20850372731583" lon="12.934780450859876"><ele>743.0</ele><time>2026-04-04T11:16:16Z</time></trkpt><trkpt lat="43.208443224642416" lon="12.934815068259313"><ele>743.0</ele><time>2026-04-04T11:16:17Z</time></trkpt><trkpt lat="43.20838398690274" lon="12.934871558138878"><ele>743.0</ele><time>2026-04-04T11:16:18Z</time></trkpt><trkpt lat="43.20832341535255" lon="12.934947877196551"><ele>743.0</ele><time>2026-04-04T11:16:19Z</time></trkpt><trkpt lat="43.2082608327721" lon="12.93502478790018"><ele>743.0</ele><time>2026-04-04T11:16:20Z</time></trkpt><trkpt lat="43.208185347958114" lon="12.93509129834188"><ele>744.0</ele><time>2026-04-04T11:16:21Z</time></trkpt><trkpt lat="43.2081279735495" lon="12.93514086974926"><ele>745.0</ele><time>2026-04-04T11:16:22Z</time></trkpt><trkpt lat="43.208068357883526" lon="12.935192433350844"><ele>746.0</ele><time>2026-04-04T11:16:23Z</time></trkpt><trkpt lat="43.207997642163896" lon="12.935233097093137"><ele>747.0</ele><time>2026-04-04T11:16:25Z</time></trkpt><trkpt lat="43.208055920228965" lon="12.935289890727782"><ele>748.0</ele><time>2026-04-04T11:16:28Z</time></trkpt><trkpt lat="43.20814935042896" lon="12.935311564029321"><ele>749.0</ele><time>2026-04-04T11:16:30Z</time></trkpt><trkpt lat="43.20824154809147" lon="12.93530193543807"><ele>749.0</ele><time>2026-04-04T11:16:33Z</time></trkpt><trkpt lat="43.20831035741984" lon="12.935256401369308"><ele>749.0</ele><time>2026-04-04T11:16:36Z</time></trkpt><trkpt lat="43.20836812830965" lon="12.93521315580129"><ele>749.0</ele><time>2026-04-04T11:16:38Z</time></trkpt><trkpt lat="43.20846994429033" lon="12.935188105068738"><ele>749.0</ele><time>2026-04-04T11:16:40Z</time></trkpt><trkpt lat="43.20866039542793" lon="12.935175891287589"><ele>749.0</ele><time>2026-04-04T11:16:44Z</time></trkpt><trkpt lat="43.208748416605204" lon="12.935148149822366"><ele>749.0</ele><time>2026-04-04T11:16:46Z</time></trkpt><trkpt lat="43.20881403069888" lon="12.935125446139471"><ele>749.0</ele><time>2026-04-04T11:16:48Z</time></trkpt><trkpt lat="43.20888371195196" lon="12.935102122450823"><ele>749.0</ele><time>2026-04-04T11:16:50Z</time></trkpt><trkpt lat="43.20896458527773" lon="12.935065906729054"><ele>749.0</ele><time>2026-04-04T11:16:52Z</time></trkpt><trkpt lat="43.20906598479502" lon="12.935008752069901"><ele>749.0</ele><time>2026-04-04T11:16:54Z</time></trkpt><trkpt lat="43.20914645627061" lon="12.93497149627015"><ele>749.0</ele><time>2026-04-04T11:16:56Z</time></trkpt><trkpt lat="43.20922885953401" lon="12.934967340734493"><ele>744.5</ele><time>2026-04-04T11:16:58Z</time></trkpt><trkpt lat="43.20938961458637" lon="12.934963633793254"><ele>740.0</ele><time>2026-04-04T11:17:02Z</time></trkpt><trkpt lat="43.20947538104661" lon="12.93496549558986"><ele>735.5</ele><time>2026-04-04T11:17:04Z</time></trkpt><trkpt lat="43.20960891192293" lon="12.934975888130037"><ele>731.0</ele><time>2026-04-04T11:17:06Z</time></trkpt><trkpt lat="43.20975037600232" lon="12.934971970125723"><ele>731.0</ele><time>2026-04-04T11:17:08Z</time></trkpt><trkpt lat="43.209817410022794" lon="12.934967898557753"><ele>731.0</ele><time>2026-04-04T11:17:09Z</time></trkpt><trkpt lat="43.209886683346056" lon="12.93495328552786"><ele>731.0</ele><time>2026-04-04T11:17:10Z</time></trkpt><trkpt lat="43.20995041061737" lon="12.934956191616559"><ele>731.0</ele><time>2026-04-04T11:17:11Z</time></trkpt><trkpt lat="43.21006789429634" lon="12.934971365432869"><ele>731.0</ele><time>2026-04-04T11:17:13Z</time></trkpt><trkpt lat="43.210177277239964" lon="12.934980676314371"><ele>731.0</ele><time>2026-04-04T11:17:15Z</time></trkpt><trkpt lat="43.210295323528115" lon="12.934971446500438"><ele>728.5999999999999</ele><time>2026-04-04T11:17:17Z</time></trkpt><trkpt lat="43.210414267040676" lon="12.935008845518261"><ele>726.2</ele><time>2026-04-04T11:17:19Z</time></trkpt><trkpt lat="43.21048051284252" lon="12.935020445897203"><ele>723.8</ele><time>2026-04-04T11:17:20Z</time></trkpt><trkpt lat="43.210547992690614" lon="12.935031823911936"><ele>721.4000000000001</ele><time>2026-04-04T11:17:21Z</time></trkpt><trkpt lat="43.2106689402085" lon="12.935029089745642"><ele>719.0</ele><time>2026-04-04T11:17:23Z</time></trkpt><trkpt lat="43.21078834488447" lon="12.935009383132705"><ele>716.0</ele><time>2026-04-04T11:17:25Z</time></trkpt><trkpt lat="43.2108984066807" lon="12.934988680262476"><ele>713.0</ele><time>2026-04-04T11:17:27Z</time></trkpt><trkpt lat="43.21096973395112" lon="12.934978708023813"><ele>710.0</ele><time>2026-04-04T11:17:29Z</time></trkpt><trkpt lat="43.2110417174084" lon="12.935005711831893"><ele>707.0</ele><time>2026-04-04T11:17:32Z</time></trkpt><trkpt lat="43.211099197584026" lon="12.935045493530964"><ele>704.0</ele><time>2026-04-04T11:17:36Z</time></trkpt><trkpt lat="43.21116989167903" lon="12.935004058236746"><ele>701.0</ele><time>2026-04-04T11:17:41Z</time></trkpt><trkpt lat="43.21144087039024" lon="12.934975168841003"><ele>696.8</ele><time>2026-04-04T11:17:51Z</time></trkpt><trkpt lat="43.2115107804413" lon="12.93494766021283"><ele>692.5999999999999</ele><time>2026-04-04T11:17:54Z</time></trkpt><trkpt lat="43.211582240012085" lon="12.93488973588977"><ele>688.4</ele><time>2026-04-04T11:17:56Z</time></trkpt><trkpt lat="43.21167469786653" lon="12.934856340824748"><ele>684.2</ele><time>2026-04-04T11:17:58Z</time></trkpt><trkpt lat="43.211809414037184" lon="12.934797757832083"><ele>680.0</ele><time>2026-04-04T11:18:00Z</time></trkpt><trkpt lat="43.21193069974582" lon="12.934771638358278"><ele>680.0</ele><time>2026-04-04T11:18:01Z</time></trkpt><trkpt lat="43.21204399278281" lon="12.934677647483685"><ele>680.0</ele><time>2026-04-04T11:18:02Z</time></trkpt><trkpt lat="43.21213971567346" lon="12.934610426953109"><ele>680.0</ele><time>2026-04-04T11:18:03Z</time></trkpt><trkpt lat="43.21221711883063" lon="12.934568294042437"><ele>680.0</ele><time>2026-04-04T11:18:04Z</time></trkpt><trkpt lat="43.21228745799033" lon="12.934538353831476"><ele>680.0</ele><time>2026-04-04T11:18:05Z</time></trkpt><trkpt lat="43.21239885873895" lon="12.934486555538184"><ele>675.6666666666666</ele><time>2026-04-04T11:18:07Z</time></trkpt><trkpt lat="43.212470073484035" lon="12.93446405547339"><ele>671.3333333333333</ele><time>2026-04-04T11:18:08Z</time></trkpt><trkpt lat="43.212544200529955" lon="12.934442227624457"><ele>667.0</ele><time>2026-04-04T11:18:09Z</time></trkpt><trkpt lat="43.21261435207956" lon="12.934423194667778"><ele>662.6666666666666</ele><time>2026-04-04T11:18:10Z</time></trkpt><trkpt lat="43.21267900778418" lon="12.934409504537557"><ele>658.3333333333334</ele><time>2026-04-04T11:18:11Z</time></trkpt><trkpt lat="43.21281086464918" lon="12.934386016468137"><ele>654.0</ele><time>2026-04-04T11:18:13Z</time></trkpt><trkpt lat="43.21287988439215" lon="12.934376257482526"><ele>654.0</ele><time>2026-04-04T11:18:14Z</time></trkpt><trkpt lat="43.21297014031707" lon="12.934364050297079"><ele>654.0</ele><time>2026-04-04T11:18:15Z</time></trkpt><trkpt lat="43.21304917637986" lon="12.93434948600277"><ele>654.0</ele><time>2026-04-04T11:18:16Z</time></trkpt><trkpt lat="43.213124832531534" lon="12.934337268520073"><ele>654.0</ele><time>2026-04-04T11:18:17Z</time></trkpt><trkpt lat="43.213207192452515" lon="12.93432316677804"><ele>654.0</ele><time>2026-04-04T11:18:18Z</time></trkpt><trkpt lat="43.213304018987586" lon="12.934315904455824"><ele>654.0</ele><time>2026-04-04T11:18:19Z</time></trkpt><trkpt lat="43.21338000021703" lon="12.934307545009068"><ele>651.6666666666666</ele><time>2026-04-04T11:18:20Z</time></trkpt><trkpt lat="43.21345151830045" lon="12.934300962084787"><ele>649.3333333333334</ele><time>2026-04-04T11:18:21Z</time></trkpt><trkpt lat="43.213524036677725" lon="12.934292905969723"><ele>647.0</ele><time>2026-04-04T11:18:22Z</time></trkpt><trkpt lat="43.21358980249442" lon="12.934282756348903"><ele>644.6666666666667</ele><time>2026-04-04T11:18:23Z</time></trkpt><trkpt lat="43.21372009811361" lon="12.934275666357761"><ele>642.3333333333334</ele><time>2026-04-04T11:18:25Z</time></trkpt><trkpt lat="43.21381536744985" lon="12.934280300758422"><ele>640.0</ele><time>2026-04-04T11:18:26Z</time></trkpt><trkpt lat="43.21389946198635" lon="12.934291323162782"><ele>639.0</ele><time>2026-04-04T11:18:27Z</time></trkpt><trkpt lat="43.21399403827853" lon="12.934304351070798"><ele>638.0</ele><time>2026-04-04T11:18:28Z</time></trkpt><trkpt lat="43.21410099847469" lon="12.934316955325587"><ele>637.0</ele><time>2026-04-04T11:18:29Z</time></trkpt><trkpt lat="43.2141933003258" lon="12.934319557958714"><ele>636.0</ele><time>2026-04-04T11:18:30Z</time></trkpt><trkpt lat="43.2142759440695" lon="12.934321183214243"><ele>635.0</ele><time>2026-04-04T11:18:31Z</time></trkpt><trkpt lat="43.21435240689263" lon="12.93432223850932"><ele>635.0</ele><time>2026-04-04T11:18:32Z</time></trkpt><trkpt lat="43.21443009158492" lon="12.934329274132672"><ele>635.0</ele><time>2026-04-04T11:18:33Z</time></trkpt><trkpt lat="43.21451430046167" lon="12.934342202825972"><ele>635.0</ele><time>2026-04-04T11:18:34Z</time></trkpt><trkpt lat="43.21458544833502" lon="12.934350862518155"><ele>635.0</ele><time>2026-04-04T11:18:35Z</time></trkpt><trkpt lat="43.21470546640645" lon="12.934368999529154"><ele>635.0</ele><time>2026-04-04T11:18:37Z</time></trkpt><trkpt lat="43.21477759280625" lon="12.93437634145171"><ele>635.0</ele><time>2026-04-04T11:18:38Z</time></trkpt><trkpt lat="43.214850133135045" lon="12.93438326641735"><ele>633.75</ele><time>2026-04-04T11:18:39Z</time></trkpt><trkpt lat="43.21491981149446" lon="12.934397878415473"><ele>632.5</ele><time>2026-04-04T11:18:40Z</time></trkpt><trkpt lat="43.21498958014069" lon="12.934410724241463"><ele>631.25</ele><time>2026-04-04T11:18:41Z</time></trkpt><trkpt lat="43.21511078987265" lon="12.93442845020697"><ele>630.0</ele><time>2026-04-04T11:18:43Z</time></trkpt><trkpt lat="43.21542812231086" lon="12.934431382484052"><ele>630.0</ele><time>2026-04-04T11:18:47Z</time></trkpt><trkpt lat="43.21552283717536" lon="12.934415022987068"><ele>630.0</ele><time>2026-04-04T11:18:48Z</time></trkpt><trkpt lat="43.21561177049199" lon="12.934398997647143"><ele>630.0</ele><time>2026-04-04T11:18:49Z</time></trkpt><trkpt lat="43.215840793807295" lon="12.934356494370626"><ele>630.0</ele><time>2026-04-04T11:18:50Z</time></trkpt><trkpt lat="43.21592362828241" lon="12.934344819446908"><ele>627.0</ele><time>2026-04-04T11:18:51Z</time></trkpt><trkpt lat="43.2161284257527" lon="12.93432648398178"><ele>624.0</ele><time>2026-04-04T11:18:52Z</time></trkpt><trkpt lat="43.21622246878648" lon="12.934318765656295"><ele>621.0</ele><time>2026-04-04T11:18:53Z</time></trkpt><trkpt lat="43.21637491850845" lon="12.934293683857124"><ele>618.3333333333334</ele><time>2026-04-04T11:18:54Z</time></trkpt><trkpt lat="43.216536198090346" lon="12.934266449913135"><ele>615.6666666666667</ele><time>2026-04-04T11:18:55Z</time></trkpt><trkpt lat="43.21668574458201" lon="12.934231730547834"><ele>613.0</ele><time>2026-04-04T11:18:56Z</time></trkpt><trkpt lat="43.216820786715644" lon="12.934203845538992"><ele>613.0</ele><time>2026-04-04T11:18:57Z</time></trkpt><trkpt lat="43.21694940335861" lon="12.934167501809052"><ele>613.0</ele><time>2026-04-04T11:18:58Z</time></trkpt><trkpt lat="43.217063999250584" lon="12.934138782371027"><ele>613.0</ele><time>2026-04-04T11:18:59Z</time></trkpt><trkpt lat="43.21719343215154" lon="12.934110831411587"><ele>613.0</ele><time>2026-04-04T11:19:00Z</time></trkpt><trkpt lat="43.21731648423884" lon="12.934085173933985"><ele>610.25</ele><time>2026-04-04T11:19:01Z</time></trkpt><trkpt lat="43.21742982894808" lon="12.934046521271508"><ele>607.5</ele><time>2026-04-04T11:19:02Z</time></trkpt><trkpt lat="43.217565954324556" lon="12.934004169789992"><ele>604.75</ele><time>2026-04-04T11:19:03Z</time></trkpt><trkpt lat="43.2176915470754" lon="12.933963035411542"><ele>602.0</ele><time>2026-04-04T11:19:04Z</time></trkpt><trkpt lat="43.21780541236206" lon="12.9339181291953"><ele>602.0</ele><time>2026-04-04T11:19:05Z</time></trkpt><trkpt lat="43.21791972331192" lon="12.93386847694472"><ele>602.0</ele><time>2026-04-04T11:19:06Z</time></trkpt><trkpt lat="43.218022565540565" lon="12.933811053047968"><ele>602.0</ele><time>2026-04-04T11:19:07Z</time></trkpt><trkpt lat="43.21812819871095" lon="12.93375799493945"><ele>602.0</ele><time>2026-04-04T11:19:08Z</time></trkpt><trkpt lat="43.218238379047946" lon="12.933713208620764"><ele>600.0</ele><time>2026-04-04T11:19:09Z</time></trkpt><trkpt lat="43.21834515302905" lon="12.933657100775939"><ele>598.0</ele><time>2026-04-04T11:19:10Z</time></trkpt><trkpt lat="43.218448508778195" lon="12.933600768703583"><ele>596.0</ele><time>2026-04-04T11:19:11Z</time></trkpt><trkpt lat="43.218552826080696" lon="12.933542394973806"><ele>594.0</ele><time>2026-04-04T11:19:12Z</time></trkpt><trkpt lat="43.21865504715436" lon="12.933481883278168"><ele>594.0</ele><time>2026-04-04T11:19:13Z</time></trkpt><trkpt lat="43.21875576276491" lon="12.933418377607111"><ele>594.0</ele><time>2026-04-04T11:19:14Z</time></trkpt><trkpt lat="43.218851551704034" lon="12.93335797675646"><ele>594.0</ele><time>2026-04-04T11:19:15Z</time></trkpt><trkpt lat="43.21893690834292" lon="12.933295862021783"><ele>594.0</ele><time>2026-04-04T11:19:16Z</time></trkpt><trkpt lat="43.2190204516661" lon="12.933230960272779"><ele>594.0</ele><time>2026-04-04T11:19:17Z</time></trkpt><trkpt lat="43.21910632583517" lon="12.933157585889468"><ele>592.6</ele><time>2026-04-04T11:19:18Z</time></trkpt><trkpt lat="43.21919186635994" lon="12.933072658780468"><ele>591.2</ele><time>2026-04-04T11:19:19Z</time></trkpt><trkpt lat="43.21928273707243" lon="12.932973464802213"><ele>589.8000000000001</ele><time>2026-04-04T11:19:20Z</time></trkpt><trkpt lat="43.21936877937112" lon="12.932873161934031"><ele>588.4</ele><time>2026-04-04T11:19:21Z</time></trkpt><trkpt lat="43.21945261734048" lon="12.932775993146409"><ele>587.0</ele><time>2026-04-04T11:19:22Z</time></trkpt><trkpt lat="43.21953968433178" lon="12.932682037728398"><ele>587.0</ele><time>2026-04-04T11:19:23Z</time></trkpt><trkpt lat="43.21961800184349" lon="12.932587973740683"><ele>587.0</ele><time>2026-04-04T11:19:24Z</time></trkpt><trkpt lat="43.2196926257184" lon="12.932500496387728"><ele>587.0</ele><time>2026-04-04T11:19:25Z</time></trkpt><trkpt lat="43.2197635031057" lon="12.932435038229789"><ele>587.0</ele><time>2026-04-04T11:19:26Z</time></trkpt><trkpt lat="43.219826985920264" lon="12.93237306279797"><ele>587.0</ele><time>2026-04-04T11:19:27Z</time></trkpt><trkpt lat="43.21988751887206" lon="12.932323988154636"><ele>587.0</ele><time>2026-04-04T11:19:28Z</time></trkpt><trkpt lat="43.21997222194278" lon="12.932229327911244"><ele>585.8333333333333</ele><time>2026-04-04T11:19:30Z</time></trkpt><trkpt lat="43.2200361256108" lon="12.932174402045797"><ele>584.6666666666666</ele><time>2026-04-04T11:19:31.999Z</time></trkpt><trkpt lat="43.220117099432244" lon="12.932126034490679"><ele>583.5</ele><time>2026-04-04T11:19:33.999Z</time></trkpt><trkpt lat="43.220200881273044" lon="12.93204785018839"><ele>582.3333333333334</ele><time>2026-04-04T11:19:35.999Z</time></trkpt><trkpt lat="43.22029008799339" lon="12.93196521692704"><ele>581.1666666666667</ele><time>2026-04-04T11:19:37.999Z</time></trkpt><trkpt lat="43.22033621652301" lon="12.93190346453832"><ele>580.0</ele><time>2026-04-04T11:19:38.999Z</time></trkpt><trkpt lat="43.22041092548264" lon="12.931790833854537"><ele>580.5</ele><time>2026-04-04T11:19:40.999Z</time></trkpt><trkpt lat="43.220487193540215" lon="12.931713058008793"><ele>581.0</ele><time>2026-04-04T11:19:42.999Z</time></trkpt><trkpt lat="43.22053594569314" lon="12.931628884394932"><ele>581.5</ele><time>2026-04-04T11:19:44.999Z</time></trkpt><trkpt lat="43.220569881850246" lon="12.931550169905083"><ele>582.0</ele><time>2026-04-04T11:19:46.999Z</time></trkpt><trkpt lat="43.220643691615365" lon="12.931445013416035"><ele>582.5</ele><time>2026-04-04T11:19:48.999Z</time></trkpt><trkpt lat="43.220694230480575" lon="12.93139179032873"><ele>583.0</ele><time>2026-04-04T11:19:49.999Z</time></trkpt><trkpt lat="43.22075168606469" lon="12.931350867994826"><ele>580.4</ele><time>2026-04-04T11:19:50.999Z</time></trkpt><trkpt lat="43.22080849515379" lon="12.931302285691752"><ele>577.8</ele><time>2026-04-04T11:19:51.999Z</time></trkpt><trkpt lat="43.220893944780556" lon="12.931190913651283"><ele>575.2</ele><time>2026-04-04T11:19:53.999Z</time></trkpt><trkpt lat="43.220996631768" lon="12.931094202015567"><ele>572.6</ele><time>2026-04-04T11:19:55.999Z</time></trkpt><trkpt lat="43.221065021420564" lon="12.931048117513665"><ele>570.0</ele><time>2026-04-04T11:19:56.999Z</time></trkpt><trkpt lat="43.22113586553046" lon="12.930997724090703"><ele>570.0</ele><time>2026-04-04T11:19:57.999Z</time></trkpt><trkpt lat="43.221209331269534" lon="12.930939987189042"><ele>570.0</ele><time>2026-04-04T11:19:58.999Z</time></trkpt><trkpt lat="43.22128063578656" lon="12.930869471026124"><ele>570.0</ele><time>2026-04-04T11:19:59.999Z</time></trkpt><trkpt lat="43.22134418054201" lon="12.93080716636773"><ele>570.0</ele><time>2026-04-04T11:20:00.999Z</time></trkpt><trkpt lat="43.221396493750575" lon="12.930747606989238"><ele>570.0</ele><time>2026-04-04T11:20:01.999Z</time></trkpt><trkpt lat="43.221480912227676" lon="12.930647001286141"><ele>570.0</ele><time>2026-04-04T11:20:03.999Z</time></trkpt><trkpt lat="43.22152429354356" lon="12.93056355587152"><ele>568.0</ele><time>2026-04-04T11:20:06.999Z</time></trkpt><trkpt lat="43.22156592219313" lon="12.930489854079713"><ele>566.0</ele><time>2026-04-04T11:20:08.999Z</time></trkpt><trkpt lat="43.221650308556015" lon="12.930463224505026"><ele>564.0</ele><time>2026-04-04T11:20:10.999Z</time></trkpt><trkpt lat="43.22173971184656" lon="12.93050759610844"><ele>562.0</ele><time>2026-04-04T11:20:12.999Z</time></trkpt><trkpt lat="43.22181383209158" lon="12.930553997088195"><ele>560.0</ele><time>2026-04-04T11:20:14.999Z</time></trkpt><trkpt lat="43.221897949544655" lon="12.930563644272533"><ele>558.0</ele><time>2026-04-04T11:20:17.999Z</time></trkpt><trkpt lat="43.22202277752753" lon="12.93065134808491"><ele>558.0</ele><time>2026-04-04T11:20:19.999Z</time></trkpt><trkpt lat="43.22211676096531" lon="12.930724396446477"><ele>558.0</ele><time>2026-04-04T11:20:20.999Z</time></trkpt><trkpt lat="43.22222989090992" lon="12.930802739033988"><ele>558.0</ele><time>2026-04-04T11:20:21.999Z</time></trkpt><trkpt lat="43.222332799875154" lon="12.930865778775937"><ele>558.0</ele><time>2026-04-04T11:20:22.999Z</time></trkpt><trkpt lat="43.22243539320213" lon="12.930918324150461"><ele>557.25</ele><time>2026-04-04T11:20:23.999Z</time></trkpt><trkpt lat="43.22254027896476" lon="12.93094915804634"><ele>556.5</ele><time>2026-04-04T11:20:24.999Z</time></trkpt><trkpt lat="43.22265170372867" lon="12.930948379916654"><ele>555.75</ele><time>2026-04-04T11:20:25.999Z</time></trkpt><trkpt lat="43.22277085349704" lon="12.930918356616916"><ele>555.0</ele><time>2026-04-04T11:20:26.999Z</time></trkpt><trkpt lat="43.22289914592786" lon="12.930890186067009"><ele>555.0</ele><time>2026-04-04T11:20:27.999Z</time></trkpt><trkpt lat="43.22302962165473" lon="12.930831566491772"><ele>555.0</ele><time>2026-04-04T11:20:28.999Z</time></trkpt><trkpt lat="43.22315530132222" lon="12.930783373852432"><ele>555.0</ele><time>2026-04-04T11:20:29.999Z</time></trkpt><trkpt lat="43.22328155708092" lon="12.93074992524257"><ele>555.0</ele><time>2026-04-04T11:20:30.999Z</time></trkpt><trkpt lat="43.22339405680414" lon="12.930723043118936"><ele>554.4</ele><time>2026-04-04T11:20:31.999Z</time></trkpt><trkpt lat="43.223506824618035" lon="12.930685240919942"><ele>553.8</ele><time>2026-04-04T11:20:32.999Z</time></trkpt><trkpt lat="43.223610806959776" lon="12.930655400422731"><ele>553.2</ele><time>2026-04-04T11:20:33.999Z</time></trkpt><trkpt lat="43.22370313079976" lon="12.930640573553777"><ele>552.6</ele><time>2026-04-04T11:20:34.999Z</time></trkpt><trkpt lat="43.223815793067324" lon="12.93064012371717"><ele>552.0</ele><time>2026-04-04T11:20:35.999Z</time></trkpt><trkpt lat="43.223940367291725" lon="12.93064907813479"><ele>550.8000000000001</ele><time>2026-04-04T11:20:36.999Z</time></trkpt><trkpt lat="43.22404825664419" lon="12.930645778593313"><ele>549.6</ele><time>2026-04-04T11:20:37.999Z</time></trkpt><trkpt lat="43.22415995551752" lon="12.930645707908923"><ele>548.4000000000001</ele><time>2026-04-04T11:20:38.999Z</time></trkpt><trkpt lat="43.224262059673265" lon="12.93065948645388"><ele>547.2</ele><time>2026-04-04T11:20:39.999Z</time></trkpt><trkpt lat="43.22437040309834" lon="12.930690194947086"><ele>546.0</ele><time>2026-04-04T11:20:40.999Z</time></trkpt><trkpt lat="43.224487253616864" lon="12.930729557830883"><ele>546.0</ele><time>2026-04-04T11:20:41.999Z</time></trkpt><trkpt lat="43.22460887054023" lon="12.93080659298827"><ele>546.0</ele><time>2026-04-04T11:20:42.999Z</time></trkpt><trkpt lat="43.224725166764316" lon="12.930902581585729"><ele>546.0</ele><time>2026-04-04T11:20:43.999Z</time></trkpt><trkpt lat="43.22484317810154" lon="12.931008220793675"><ele>546.0</ele><time>2026-04-04T11:20:45Z</time></trkpt><trkpt lat="43.2249523360586" lon="12.931130100238397"><ele>543.6666666666666</ele><time>2026-04-04T11:20:46Z</time></trkpt><trkpt lat="43.225064370933715" lon="12.93130673211185"><ele>541.3333333333333</ele><time>2026-04-04T11:20:47Z</time></trkpt><trkpt lat="43.22516228051242" lon="12.931494885005659"><ele>539.0</ele><time>2026-04-04T11:20:48Z</time></trkpt><trkpt lat="43.22525411076531" lon="12.931687626330701"><ele>542.6666666666666</ele><time>2026-04-04T11:20:49Z</time></trkpt><trkpt lat="43.225340529660485" lon="12.931884606167758"><ele>546.3333333333334</ele><time>2026-04-04T11:20:50Z</time></trkpt><trkpt lat="43.22543365766938" lon="12.932066237340031"><ele>550.0</ele><time>2026-04-04T11:20:51Z</time></trkpt><trkpt lat="43.225557400086316" lon="12.932239607954301"><ele>545.3333333333334</ele><time>2026-04-04T11:20:52Z</time></trkpt><trkpt lat="43.22565780008223" lon="12.932424777400705"><ele>540.6666666666666</ele><time>2026-04-04T11:20:53Z</time></trkpt><trkpt lat="43.225771713481166" lon="12.932612921654755"><ele>536.0</ele><time>2026-04-04T11:20:54Z</time></trkpt><trkpt lat="43.22588639995242" lon="12.932797145049774"><ele>536.0</ele><time>2026-04-04T11:20:55Z</time></trkpt><trkpt lat="43.22600776798701" lon="12.932974183037299"><ele>536.0</ele><time>2026-04-04T11:20:56Z</time></trkpt><trkpt lat="43.226120621186624" lon="12.933161643703542"><ele>536.0</ele><time>2026-04-04T11:20:57Z</time></trkpt><trkpt lat="43.22623287051069" lon="12.933334120806961"><ele>535.75</ele><time>2026-04-04T11:20:58Z</time></trkpt><trkpt lat="43.226328362948585" lon="12.933486210560721"><ele>535.5</ele><time>2026-04-04T11:20:59Z</time></trkpt><trkpt lat="43.226405837551404" lon="12.933641836216127"><ele>535.25</ele><time>2026-04-04T11:21:00Z</time></trkpt><trkpt lat="43.226460040052004" lon="12.93378426164218"><ele>535.0</ele><time>2026-04-04T11:21:01Z</time></trkpt><trkpt lat="43.22648266510801" lon="12.933935821725619"><ele>534.8</ele><time>2026-04-04T11:21:02Z</time></trkpt><trkpt lat="43.22649005877578" lon="12.934063308636027"><ele>534.6</ele><time>2026-04-04T11:21:03Z</time></trkpt><trkpt lat="43.22651365184122" lon="12.934174339096485"><ele>534.4</ele><time>2026-04-04T11:21:04Z</time></trkpt><trkpt lat="43.2265649647337" lon="12.934287020451114"><ele>534.2</ele><time>2026-04-04T11:21:05Z</time></trkpt><trkpt lat="43.226633547849936" lon="12.934399606040543"><ele>534.0</ele><time>2026-04-04T11:21:06Z</time></trkpt><trkpt lat="43.22672867473005" lon="12.934477903986952"><ele>534.0</ele><time>2026-04-04T11:21:07Z</time></trkpt><trkpt lat="43.22684408142004" lon="12.93456232742988"><ele>534.0</ele><time>2026-04-04T11:21:08Z</time></trkpt><trkpt lat="43.22698104823865" lon="12.934641436866984"><ele>534.0</ele><time>2026-04-04T11:21:09Z</time></trkpt><trkpt lat="43.22712541551226" lon="12.934732165924247"><ele>534.0</ele><time>2026-04-04T11:21:10Z</time></trkpt><trkpt lat="43.227267928650846" lon="12.934838138749434"><ele>533.0</ele><time>2026-04-04T11:21:11Z</time></trkpt><trkpt lat="43.22741275706517" lon="12.934939786593583"><ele>532.0</ele><time>2026-04-04T11:21:12Z</time></trkpt><trkpt lat="43.227557395322805" lon="12.935044670554568"><ele>531.0</ele><time>2026-04-04T11:21:13Z</time></trkpt><trkpt lat="43.22769909753225" lon="12.935153052179265"><ele>533.0</ele><time>2026-04-04T11:21:14Z</time></trkpt><trkpt lat="43.22782328140329" lon="12.935284565832747"><ele>535.0</ele><time>2026-04-04T11:21:15Z</time></trkpt><trkpt lat="43.22794062910994" lon="12.935426911248534"><ele>537.0</ele><time>2026-04-04T11:21:16Z</time></trkpt><trkpt lat="43.228054131991414" lon="12.935572356436005"><ele>537.0</ele><time>2026-04-04T11:21:17Z</time></trkpt><trkpt lat="43.228164164328774" lon="12.935729567896404"><ele>537.0</ele><time>2026-04-04T11:21:18Z</time></trkpt><trkpt lat="43.22826972988374" lon="12.935891520461546"><ele>537.0</ele><time>2026-04-04T11:21:19Z</time></trkpt><trkpt lat="43.22837078432657" lon="12.936041888023425"><ele>537.0</ele><time>2026-04-04T11:21:20Z</time></trkpt><trkpt lat="43.22847805992541" lon="12.936174583042224"><ele>537.0</ele><time>2026-04-04T11:21:21Z</time></trkpt><trkpt lat="43.22858797542569" lon="12.936287832505782"><ele>537.0</ele><time>2026-04-04T11:21:22Z</time></trkpt><trkpt lat="43.228719140356205" lon="12.936393932965245"><ele>537.0</ele><time>2026-04-04T11:21:23Z</time></trkpt><trkpt lat="43.22885366162087" lon="12.936503658718442"><ele>535.6666666666666</ele><time>2026-04-04T11:21:24Z</time></trkpt><trkpt lat="43.22899164725538" lon="12.936618979422832"><ele>534.3333333333333</ele><time>2026-04-04T11:21:25Z</time></trkpt><trkpt lat="43.229141540722516" lon="12.936741252647423"><ele>533.0</ele><time>2026-04-04T11:21:26Z</time></trkpt><trkpt lat="43.22928549787842" lon="12.936871637292892"><ele>530.6666666666666</ele><time>2026-04-04T11:21:27Z</time></trkpt><trkpt lat="43.229399537755214" lon="12.937031408601646"><ele>528.3333333333334</ele><time>2026-04-04T11:21:28Z</time></trkpt><trkpt lat="43.22951339555498" lon="12.937190544697467"><ele>526.0</ele><time>2026-04-04T11:21:29Z</time></trkpt><trkpt lat="43.229606511944496" lon="12.937386881739956"><ele>525.0</ele><time>2026-04-04T11:21:30Z</time></trkpt><trkpt lat="43.2296957588013" lon="12.937596299605064"><ele>524.0</ele><time>2026-04-04T11:21:31Z</time></trkpt><trkpt lat="43.229801817277526" lon="12.937771596393791"><ele>523.0</ele><time>2026-04-04T11:21:32Z</time></trkpt><trkpt lat="43.229903525984504" lon="12.937923578366117"><ele>523.0</ele><time>2026-04-04T11:21:33Z</time></trkpt><trkpt lat="43.229992306101366" lon="12.93809128284463"><ele>523.0</ele><time>2026-04-04T11:21:34Z</time></trkpt><trkpt lat="43.230089674862306" lon="12.938259534568973"><ele>523.0</ele><time>2026-04-04T11:21:35Z</time></trkpt><trkpt lat="43.23019273667263" lon="12.938440455872497"><ele>520.6666666666667</ele><time>2026-04-04T11:21:36Z</time></trkpt><trkpt lat="43.23026882653685" lon="12.938634860638789"><ele>518.3333333333334</ele><time>2026-04-04T11:21:37Z</time></trkpt><trkpt lat="43.23032103649799" lon="12.938831962457098"><ele>516.0</ele><time>2026-04-04T11:21:38Z</time></trkpt><trkpt lat="43.23038696346463" lon="12.939029751885794"><ele>518.3333333333334</ele><time>2026-04-04T11:21:39Z</time></trkpt><trkpt lat="43.230446947742195" lon="12.939252898023827"><ele>520.6666666666667</ele><time>2026-04-04T11:21:40Z</time></trkpt><trkpt lat="43.230497303015134" lon="12.93942875975885"><ele>523.0</ele><time>2026-04-04T11:21:41Z</time></trkpt><trkpt lat="43.230543820574844" lon="12.939646871497516"><ele>523.0</ele><time>2026-04-04T11:21:42Z</time></trkpt><trkpt lat="43.2305769729064" lon="12.939861734372965"><ele>523.0</ele><time>2026-04-04T11:21:43Z</time></trkpt><trkpt lat="43.230638412444094" lon="12.940067981408637"><ele>523.0</ele><time>2026-04-04T11:21:44Z</time></trkpt><trkpt lat="43.23069655828285" lon="12.940279261041104"><ele>522.6666666666667</ele><time>2026-04-04T11:21:45Z</time></trkpt><trkpt lat="43.230740803069764" lon="12.940471683538629"><ele>522.3333333333334</ele><time>2026-04-04T11:21:46Z</time></trkpt><trkpt lat="43.23077794742201" lon="12.940665844729365"><ele>522.0</ele><time>2026-04-04T11:21:47Z</time></trkpt><trkpt lat="43.230793351546666" lon="12.940897986957554"><ele>522.0</ele><time>2026-04-04T11:21:48Z</time></trkpt><trkpt lat="43.23081874106864" lon="12.941095214693249"><ele>522.0</ele><time>2026-04-04T11:21:49Z</time></trkpt><trkpt lat="43.23084420257674" lon="12.941263047956937"><ele>522.0</ele><time>2026-04-04T11:21:50Z</time></trkpt><trkpt lat="43.23085714183359" lon="12.94149005854405"><ele>522.0</ele><time>2026-04-04T11:21:51Z</time></trkpt><trkpt lat="43.23087826051824" lon="12.941698330205787"><ele>520.0</ele><time>2026-04-04T11:21:52Z</time></trkpt><trkpt lat="43.23089297916308" lon="12.941861530045312"><ele>518.0</ele><time>2026-04-04T11:21:53Z</time></trkpt><trkpt lat="43.23092467990796" lon="12.9420164529392"><ele>516.0</ele><time>2026-04-04T11:21:54Z</time></trkpt><trkpt lat="43.23096754107902" lon="12.942151329191976"><ele>514.0</ele><time>2026-04-04T11:21:55Z</time></trkpt><trkpt lat="43.23101863233214" lon="12.942283170912686"><ele>514.0</ele><time>2026-04-04T11:21:56Z</time></trkpt><trkpt lat="43.231100197089084" lon="12.9424194355403"><ele>514.0</ele><time>2026-04-04T11:21:57Z</time></trkpt><trkpt lat="43.231216172001716" lon="12.942543479641698"><ele>514.0</ele><time>2026-04-04T11:21:58Z</time></trkpt><trkpt lat="43.23132959488601" lon="12.94261083044779"><ele>514.0</ele><time>2026-04-04T11:21:59Z</time></trkpt><trkpt lat="43.23145689568301" lon="12.942717453290475"><ele>514.75</ele><time>2026-04-04T11:22:00Z</time></trkpt><trkpt lat="43.23156538771048" lon="12.942850223235322"><ele>515.5</ele><time>2026-04-04T11:22:01Z</time></trkpt><trkpt lat="43.23164841744706" lon="12.943022978493968"><ele>516.25</ele><time>2026-04-04T11:22:02Z</time></trkpt><trkpt lat="43.231734474574914" lon="12.943191569296246"><ele>517.0</ele><time>2026-04-04T11:22:03Z</time></trkpt><trkpt lat="43.23181077939815" lon="12.943344663099127"><ele>515.4</ele><time>2026-04-04T11:22:04Z</time></trkpt><trkpt lat="43.231873281560475" lon="12.943491273546528"><ele>513.8000000000001</ele><time>2026-04-04T11:22:05Z</time></trkpt><trkpt lat="43.23191757450058" lon="12.943593175387644"><ele>512.2</ele><time>2026-04-04T11:22:06Z</time></trkpt><trkpt lat="43.23197041501938" lon="12.943714213652926"><ele>510.6</ele><time>2026-04-04T11:22:07Z</time></trkpt><trkpt lat="43.23204076147466" lon="12.943847048796078"><ele>509.0</ele><time>2026-04-04T11:22:08Z</time></trkpt><trkpt lat="43.23212565932909" lon="12.943994568608256"><ele>509.0</ele><time>2026-04-04T11:22:09Z</time></trkpt><trkpt lat="43.23219263297019" lon="12.944141438940589"><ele>509.0</ele><time>2026-04-04T11:22:10Z</time></trkpt><trkpt lat="43.232271312682556" lon="12.944267348092556"><ele>509.0</ele><time>2026-04-04T11:22:11Z</time></trkpt><trkpt lat="43.232358208926755" lon="12.944364429627502"><ele>509.0</ele><time>2026-04-04T11:22:12Z</time></trkpt><trkpt lat="43.232436904045485" lon="12.944461212457286"><ele>506.75</ele><time>2026-04-04T11:22:13Z</time></trkpt><trkpt lat="43.232532526924885" lon="12.94454584756642"><ele>504.5</ele><time>2026-04-04T11:22:14Z</time></trkpt><trkpt lat="43.23263369622171" lon="12.944636190256471"><ele>502.25</ele><time>2026-04-04T11:22:15Z</time></trkpt><trkpt lat="43.23272745108805" lon="12.944753828193969"><ele>500.0</ele><time>2026-04-04T11:22:16Z</time></trkpt><trkpt lat="43.23280699520097" lon="12.944906573228202"><ele>498.0</ele><time>2026-04-04T11:22:17Z</time></trkpt><trkpt lat="43.23284943068528" lon="12.945084445681276"><ele>496.0</ele><time>2026-04-04T11:22:18Z</time></trkpt><trkpt lat="43.232880733518435" lon="12.945300019014823"><ele>494.0</ele><time>2026-04-04T11:22:19Z</time></trkpt><trkpt lat="43.23291229891535" lon="12.945470057061927"><ele>492.0</ele><time>2026-04-04T11:22:20Z</time></trkpt><trkpt lat="43.232956060103746" lon="12.94566108754046"><ele>492.0</ele><time>2026-04-04T11:22:21Z</time></trkpt><trkpt lat="43.23303114037694" lon="12.94585631615798"><ele>492.0</ele><time>2026-04-04T11:22:22Z</time></trkpt><trkpt lat="43.23308111777172" lon="12.946069485978516"><ele>492.0</ele><time>2026-04-04T11:22:23Z</time></trkpt><trkpt lat="43.23315977583445" lon="12.946292294131544"><ele>492.0</ele><time>2026-04-04T11:22:24Z</time></trkpt><trkpt lat="43.23323843014349" lon="12.946503570079292"><ele>492.0</ele><time>2026-04-04T11:22:25Z</time></trkpt><trkpt lat="43.233309381421115" lon="12.946706704746434"><ele>492.0</ele><time>2026-04-04T11:22:26Z</time></trkpt><trkpt lat="43.233363266574514" lon="12.946931690491272"><ele>492.0</ele><time>2026-04-04T11:22:27Z</time></trkpt><trkpt lat="43.23342258763029" lon="12.947119424964821"><ele>492.0</ele><time>2026-04-04T11:22:28Z</time></trkpt><trkpt lat="43.23345631281303" lon="12.947366864058043"><ele>492.0</ele><time>2026-04-04T11:22:29Z</time></trkpt><trkpt lat="43.23349816864312" lon="12.947635172093145"><ele>491.0</ele><time>2026-04-04T11:22:30Z</time></trkpt><trkpt lat="43.23352493721481" lon="12.947872048030446"><ele>490.0</ele><time>2026-04-04T11:22:31Z</time></trkpt><trkpt lat="43.23354066620047" lon="12.94809423995925"><ele>489.0</ele><time>2026-04-04T11:22:32Z</time></trkpt><trkpt lat="43.233555451061825" lon="12.948277520275896"><ele>488.66666666666663</ele><time>2026-04-04T11:22:33Z</time></trkpt><trkpt lat="43.233593503242304" lon="12.9485002206592"><ele>488.3333333333333</ele><time>2026-04-04T11:22:34Z</time></trkpt><trkpt lat="43.23364674651669" lon="12.948729101922954"><ele>488.0</ele><time>2026-04-04T11:22:35Z</time></trkpt><trkpt lat="43.23371948825005" lon="12.948953936628794"><ele>488.0</ele><time>2026-04-04T11:22:36Z</time></trkpt><trkpt lat="43.23378556265991" lon="12.949165608228768"><ele>488.0</ele><time>2026-04-04T11:22:37Z</time></trkpt><trkpt lat="43.23385569443067" lon="12.949354198747564"><ele>488.0</ele><time>2026-04-04T11:22:38Z</time></trkpt><trkpt lat="43.23389677080439" lon="12.949533202368281"><ele>489.75</ele><time>2026-04-04T11:22:39Z</time></trkpt><trkpt lat="43.233918447928836" lon="12.949702031154713"><ele>491.5</ele><time>2026-04-04T11:22:40Z</time></trkpt><trkpt lat="43.2339487350897" lon="12.949851179446677"><ele>493.25</ele><time>2026-04-04T11:22:41Z</time></trkpt><trkpt lat="43.233932964132826" lon="12.950006226447028"><ele>495.0</ele><time>2026-04-04T11:22:42Z</time></trkpt><trkpt lat="43.233881199147035" lon="12.950133714588178"><ele>496.2</ele><time>2026-04-04T11:22:43Z</time></trkpt><trkpt lat="43.233814392949355" lon="12.950252133767224"><ele>497.4</ele><time>2026-04-04T11:22:44Z</time></trkpt><trkpt lat="43.23373168576616" lon="12.950329212244132"><ele>498.6</ele><time>2026-04-04T11:22:45Z</time></trkpt><trkpt lat="43.23366619215756" lon="12.950414840216714"><ele>499.8</ele><time>2026-04-04T11:22:46Z</time></trkpt><trkpt lat="43.23364602075425" lon="12.950551307496431"><ele>501.0</ele><time>2026-04-04T11:22:47Z</time></trkpt><trkpt lat="43.23366900959285" lon="12.950693575909746"><ele>501.0</ele><time>2026-04-04T11:22:48Z</time></trkpt><trkpt lat="43.23373125792972" lon="12.950830565987404"><ele>501.0</ele><time>2026-04-04T11:22:49Z</time></trkpt><trkpt lat="43.23380219069719" lon="12.95097456313018"><ele>501.0</ele><time>2026-04-04T11:22:50Z</time></trkpt><trkpt lat="43.2338789889875" lon="12.95112848699875"><ele>501.0</ele><time>2026-04-04T11:22:51Z</time></trkpt><trkpt lat="43.2339581828166" lon="12.951282981248532"><ele>495.0</ele><time>2026-04-04T11:22:52Z</time></trkpt><trkpt lat="43.234037142563835" lon="12.951425995342337"><ele>489.0</ele><time>2026-04-04T11:22:53Z</time></trkpt><trkpt lat="43.23413901337488" lon="12.951541108515215"><ele>483.0</ele><time>2026-04-04T11:22:54Z</time></trkpt><trkpt lat="43.23424936918692" lon="12.951666528568873"><ele>477.0</ele><time>2026-04-04T11:22:55Z</time></trkpt><trkpt lat="43.23435807998808" lon="12.951788515983342"><ele>477.0</ele><time>2026-04-04T11:22:56Z</time></trkpt><trkpt lat="43.234456359992414" lon="12.951863934672645"><ele>477.0</ele><time>2026-04-04T11:22:57Z</time></trkpt><trkpt lat="43.23456861846058" lon="12.951912635743934"><ele>477.0</ele><time>2026-04-04T11:22:58Z</time></trkpt><trkpt lat="43.23469924681965" lon="12.951931647184496"><ele>477.0</ele><time>2026-04-04T11:22:59Z</time></trkpt><trkpt lat="43.23481926132348" lon="12.951926206823863"><ele>476.6</ele><time>2026-04-04T11:23:00Z</time></trkpt><trkpt lat="43.234920104263104" lon="12.951949503198048"><ele>476.20000000000005</ele><time>2026-04-04T11:23:01Z</time></trkpt><trkpt lat="43.23501634172731" lon="12.952006744542883"><ele>475.8</ele><time>2026-04-04T11:23:02Z</time></trkpt><trkpt lat="43.23509892522828" lon="12.95208532518607"><ele>475.4</ele><time>2026-04-04T11:23:03Z</time></trkpt><trkpt lat="43.23515610649761" lon="12.952185084370784"><ele>475.0</ele><time>2026-04-04T11:23:04Z</time></trkpt><trkpt lat="43.23521512478622" lon="12.952331750058814"><ele>475.0</ele><time>2026-04-04T11:23:05Z</time></trkpt><trkpt lat="43.23517096459985" lon="12.952526036008425"><ele>475.0</ele><time>2026-04-04T11:23:06Z</time></trkpt><trkpt lat="43.23515713710489" lon="12.952718393469832"><ele>475.0</ele><time>2026-04-04T11:23:07Z</time></trkpt><trkpt lat="43.235182755908646" lon="12.952878006255105"><ele>475.0</ele><time>2026-04-04T11:23:08Z</time></trkpt><trkpt lat="43.235225648872806" lon="12.953049824180146"><ele>472.33333333333337</ele><time>2026-04-04T11:23:09Z</time></trkpt><trkpt lat="43.23528588369094" lon="12.953237334673409"><ele>469.66666666666663</ele><time>2026-04-04T11:23:10Z</time></trkpt><trkpt lat="43.235335237278996" lon="12.953470365086531"><ele>467.0</ele><time>2026-04-04T11:23:11Z</time></trkpt><trkpt lat="43.23536736326776" lon="12.95372072220263"><ele>465.0</ele><time>2026-04-04T11:23:12Z</time></trkpt><trkpt lat="43.235339228427584" lon="12.954000264551324"><ele>463.0</ele><time>2026-04-04T11:23:13Z</time></trkpt><trkpt lat="43.23535648871503" lon="12.954213166944609"><ele>461.0</ele><time>2026-04-04T11:23:14Z</time></trkpt><trkpt lat="43.23537821042761" lon="12.954440710155732"><ele>460.0</ele><time>2026-04-04T11:23:15Z</time></trkpt><trkpt lat="43.23540409678426" lon="12.954649454444832"><ele>459.0</ele><time>2026-04-04T11:23:16Z</time></trkpt><trkpt lat="43.23543451067131" lon="12.954859121348019"><ele>458.0</ele><time>2026-04-04T11:23:17Z</time></trkpt><trkpt lat="43.23546964837297" lon="12.955047133459159"><ele>457.66666666666663</ele><time>2026-04-04T11:23:18Z</time></trkpt><trkpt lat="43.23551721843383" lon="12.955261556562633"><ele>457.33333333333337</ele><time>2026-04-04T11:23:19Z</time></trkpt><trkpt lat="43.23557374136532" lon="12.955471608923363"><ele>457.0</ele><time>2026-04-04T11:23:20Z</time></trkpt><trkpt lat="43.23562967285534" lon="12.955700007328847"><ele>457.6666666666667</ele><time>2026-04-04T11:23:21Z</time></trkpt><trkpt lat="43.23567264067561" lon="12.95591179731049"><ele>458.33333333333337</ele><time>2026-04-04T11:23:22Z</time></trkpt><trkpt lat="43.23570361503624" lon="12.95612103004134"><ele>459.0</ele><time>2026-04-04T11:23:23Z</time></trkpt><trkpt lat="43.235742492562665" lon="12.95630537508834"><ele>459.0</ele><time>2026-04-04T11:23:24Z</time></trkpt><trkpt lat="43.235762118321816" lon="12.956460399838132"><ele>459.0</ele><time>2026-04-04T11:23:25Z</time></trkpt><trkpt lat="43.23580944660158" lon="12.956606609381655"><ele>459.0</ele><time>2026-04-04T11:23:26Z</time></trkpt><trkpt lat="43.235895326460344" lon="12.95671494989985"><ele>459.0</ele><time>2026-04-04T11:23:27Z</time></trkpt><trkpt lat="43.235964908332036" lon="12.956807127907629"><ele>459.0</ele><time>2026-04-04T11:23:28Z</time></trkpt><trkpt lat="43.23605575620346" lon="12.956848205661911"><ele>459.25</ele><time>2026-04-04T11:23:29Z</time></trkpt><trkpt lat="43.23613574419736" lon="12.95688568769473"><ele>459.5</ele><time>2026-04-04T11:23:30Z</time></trkpt><trkpt lat="43.2362353413154" lon="12.95693715446119"><ele>459.75</ele><time>2026-04-04T11:23:31Z</time></trkpt><trkpt lat="43.236357624749814" lon="12.956986008989837"><ele>460.0</ele><time>2026-04-04T11:23:32Z</time></trkpt><trkpt lat="43.23648724435171" lon="12.957036770957767"><ele>460.0</ele><time>2026-04-04T11:23:33Z</time></trkpt><trkpt lat="43.236607757946395" lon="12.957102258292638"><ele>460.0</ele><time>2026-04-04T11:23:34Z</time></trkpt><trkpt lat="43.236728703618404" lon="12.957170021100692"><ele>460.0</ele><time>2026-04-04T11:23:35Z</time></trkpt><trkpt lat="43.236857327687986" lon="12.957226830255705"><ele>460.0</ele><time>2026-04-04T11:23:36Z</time></trkpt><trkpt lat="43.236985411151856" lon="12.957303037611695"><ele>460.0</ele><time>2026-04-04T11:23:37Z</time></trkpt><trkpt lat="43.23713204904461" lon="12.957364318805691"><ele>460.0</ele><time>2026-04-04T11:23:38Z</time></trkpt><trkpt lat="43.237274478896595" lon="12.957470741638161"><ele>460.0</ele><time>2026-04-04T11:23:39Z</time></trkpt><trkpt lat="43.23740393043904" lon="12.957599013193807"><ele>459.0</ele><time>2026-04-04T11:23:40Z</time></trkpt><trkpt lat="43.23752982169024" lon="12.957737326468818"><ele>458.0</ele><time>2026-04-04T11:23:41Z</time></trkpt><trkpt lat="43.23766794119602" lon="12.95785551305361"><ele>457.0</ele><time>2026-04-04T11:23:42Z</time></trkpt><trkpt lat="43.23779725279108" lon="12.957970968335022"><ele>457.0</ele><time>2026-04-04T11:23:43Z</time></trkpt><trkpt lat="43.23792104895399" lon="12.958078804553063"><ele>457.0</ele><time>2026-04-04T11:23:44Z</time></trkpt><trkpt lat="43.2380369720731" lon="12.958184848325695"><ele>457.0</ele><time>2026-04-04T11:23:45Z</time></trkpt><trkpt lat="43.23816622010735" lon="12.95823177265943"><ele>457.0</ele><time>2026-04-04T11:23:46Z</time></trkpt><trkpt lat="43.238290993217745" lon="12.95832013509761"><ele>455.25</ele><time>2026-04-04T11:23:47Z</time></trkpt><trkpt lat="43.23842851518032" lon="12.958366893216155"><ele>453.5</ele><time>2026-04-04T11:23:48Z</time></trkpt><trkpt lat="43.2385597978614" lon="12.95845840233789"><ele>451.75</ele><time>2026-04-04T11:23:49Z</time></trkpt><trkpt lat="43.23869868081677" lon="12.958553907893448"><ele>450.0</ele><time>2026-04-04T11:23:50Z</time></trkpt><trkpt lat="43.23882594699723" lon="12.958655967590438"><ele>450.0</ele><time>2026-04-04T11:23:51Z</time></trkpt><trkpt lat="43.23894216814915" lon="12.958754527961267"><ele>450.0</ele><time>2026-04-04T11:23:52Z</time></trkpt><trkpt lat="43.23905952187272" lon="12.958854616673953"><ele>450.0</ele><time>2026-04-04T11:23:53Z</time></trkpt><trkpt lat="43.239185254849865" lon="12.95896185188205"><ele>450.0</ele><time>2026-04-04T11:23:54Z</time></trkpt><trkpt lat="43.2392956221328" lon="12.959053194684916"><ele>449.0</ele><time>2026-04-04T11:23:55Z</time></trkpt><trkpt lat="43.23940291047842" lon="12.959140506857853"><ele>448.0</ele><time>2026-04-04T11:23:56Z</time></trkpt><trkpt lat="43.23950897251322" lon="12.959237245729046"><ele>447.0</ele><time>2026-04-04T11:23:57Z</time></trkpt><trkpt lat="43.239593335252266" lon="12.959333858334366"><ele>446.0</ele><time>2026-04-04T11:23:58Z</time></trkpt><trkpt lat="43.23967478793142" lon="12.959436976972388"><ele>446.0</ele><time>2026-04-04T11:23:59Z</time></trkpt><trkpt lat="43.239750031587654" lon="12.959569203726975"><ele>446.0</ele><time>2026-04-04T11:24:00Z</time></trkpt><trkpt lat="43.239829065326376" lon="12.959700003136511"><ele>446.0</ele><time>2026-04-04T11:24:01Z</time></trkpt><trkpt lat="43.239908542691005" lon="12.959793076806172"><ele>446.0</ele><time>2026-04-04T11:24:02Z</time></trkpt><trkpt lat="43.23998721483584" lon="12.959868018485805"><ele>446.0</ele><time>2026-04-04T11:24:03Z</time></trkpt><trkpt lat="43.2400747945373" lon="12.959909753511395"><ele>446.20000000000005</ele><time>2026-04-04T11:24:04Z</time></trkpt><trkpt lat="43.240101023504515" lon="12.96001429705324"><ele>446.40000000000003</ele><time>2026-04-04T11:24:05Z</time></trkpt><trkpt lat="43.24013338587573" lon="12.960154501139552"><ele>446.6</ele><time>2026-04-04T11:24:06Z</time></trkpt><trkpt lat="43.240194015367834" lon="12.960298905122068"><ele>446.8</ele><time>2026-04-04T11:24:07Z</time></trkpt><trkpt lat="43.24026959636889" lon="12.960436219591475"><ele>447.0</ele><time>2026-04-04T11:24:08Z</time></trkpt><trkpt lat="43.240349527950286" lon="12.96056762735622"><ele>447.0</ele><time>2026-04-04T11:24:09Z</time></trkpt><trkpt lat="43.2404437991784" lon="12.960665550938621"><ele>447.0</ele><time>2026-04-04T11:24:10Z</time></trkpt><trkpt lat="43.240551516070695" lon="12.96074333466957"><ele>447.0</ele><time>2026-04-04T11:24:11Z</time></trkpt><trkpt lat="43.2406539856436" lon="12.960819783132314"><ele>447.0</ele><time>2026-04-04T11:24:12Z</time></trkpt><trkpt lat="43.240755534201455" lon="12.96090184601242"><ele>446.40000000000003</ele><time>2026-04-04T11:24:13Z</time></trkpt><trkpt lat="43.24084523098209" lon="12.960988361693705"><ele>445.80000000000007</ele><time>2026-04-04T11:24:14Z</time></trkpt><trkpt lat="43.24093804530259" lon="12.961097917247217"><ele>445.2</ele><time>2026-04-04T11:24:15Z</time></trkpt><trkpt lat="43.24102117491196" lon="12.961165353529593"><ele>444.6</ele><time>2026-04-04T11:24:16Z</time></trkpt><trkpt lat="43.241085992304676" lon="12.961255452947679"><ele>444.0</ele><time>2026-04-04T11:24:17Z</time></trkpt><trkpt lat="43.24117179255083" lon="12.961336405294437"><ele>444.0</ele><time>2026-04-04T11:24:18Z</time></trkpt><trkpt lat="43.241252570498816" lon="12.961409508158553"><ele>444.0</ele><time>2026-04-04T11:24:19Z</time></trkpt><trkpt lat="43.24134184189112" lon="12.96148908467935"><ele>444.0</ele><time>2026-04-04T11:24:20Z</time></trkpt><trkpt lat="43.24143724939843" lon="12.96155956514649"><ele>444.0</ele><time>2026-04-04T11:24:21Z</time></trkpt><trkpt lat="43.24152269452159" lon="12.96164944095426"><ele>444.0</ele><time>2026-04-04T11:24:22Z</time></trkpt><trkpt lat="43.241613718630326" lon="12.961736876761387"><ele>442.79999999999995</ele><time>2026-04-04T11:24:23Z</time></trkpt><trkpt lat="43.24170602797859" lon="12.961831839581336"><ele>441.59999999999997</ele><time>2026-04-04T11:24:24Z</time></trkpt><trkpt lat="43.24178653636103" lon="12.961922241166548"><ele>440.4</ele><time>2026-04-04T11:24:25Z</time></trkpt><trkpt lat="43.24184454363814" lon="12.961996047535363"><ele>439.2</ele><time>2026-04-04T11:24:26Z</time></trkpt><trkpt lat="43.241906724807464" lon="12.962072721218226"><ele>438.0</ele><time>2026-04-04T11:24:27Z</time></trkpt><trkpt lat="43.242000961313714" lon="12.962108918589541"><ele>438.0</ele><time>2026-04-04T11:24:28Z</time></trkpt><trkpt lat="43.242059270821976" lon="12.96219665513231"><ele>438.0</ele><time>2026-04-04T11:24:29Z</time></trkpt><trkpt lat="43.24211606160886" lon="12.962265336031464"><ele>438.0</ele><time>2026-04-04T11:24:30Z</time></trkpt><trkpt lat="43.242192702374595" lon="12.962306787280342"><ele>438.0</ele><time>2026-04-04T11:24:31Z</time></trkpt><trkpt lat="43.24227831212738" lon="12.962331196147082"><ele>438.0</ele><time>2026-04-04T11:24:32Z</time></trkpt><trkpt lat="43.2423784932183" lon="12.962327709512696"><ele>438.0</ele><time>2026-04-04T11:24:33Z</time></trkpt><trkpt lat="43.24249078932393" lon="12.962304015988911"><ele>439.0</ele><time>2026-04-04T11:24:34Z</time></trkpt><trkpt lat="43.24259246167916" lon="12.962275680807107"><ele>439.99999999999994</ele><time>2026-04-04T11:24:35Z</time></trkpt><trkpt lat="43.242697611096396" lon="12.962245557117594"><ele>440.99999999999994</ele><time>2026-04-04T11:24:36Z</time></trkpt><trkpt lat="43.24279216716732" lon="12.962238460994937"><ele>442.0</ele><time>2026-04-04T11:24:37Z</time></trkpt><trkpt lat="43.242883705143264" lon="12.962207892360237"><ele>443.0</ele><time>2026-04-04T11:24:38Z</time></trkpt><trkpt lat="43.24296009857692" lon="12.962166649853256"><ele>442.99999999999994</ele><time>2026-04-04T11:24:39Z</time></trkpt><trkpt lat="43.243041367489006" lon="12.962131548487935"><ele>443.0</ele><time>2026-04-04T11:24:40Z</time></trkpt><trkpt lat="43.24310803193901" lon="12.962072854965989"><ele>443.0</ele><time>2026-04-04T11:24:41Z</time></trkpt><trkpt lat="43.24317605552817" lon="12.96202922249549"><ele>443.0</ele><time>2026-04-04T11:24:42Z</time></trkpt><trkpt lat="43.243247696691185" lon="12.961977377543588"><ele>442.99999999999994</ele><time>2026-04-04T11:24:43Z</time></trkpt><trkpt lat="43.24331720036602" lon="12.961896333645033"><ele>443.0</ele><time>2026-04-04T11:24:44Z</time></trkpt><trkpt lat="43.2433745654695" lon="12.961769676645186"><ele>444.75</ele><time>2026-04-04T11:24:45Z</time></trkpt><trkpt lat="43.24344168571337" lon="12.961649789261179"><ele>446.5</ele><time>2026-04-04T11:24:46Z</time></trkpt><trkpt lat="43.24349629945493" lon="12.961503867953772"><ele>448.25</ele><time>2026-04-04T11:24:47Z</time></trkpt><trkpt lat="43.243563031424394" lon="12.961387416073222"><ele>450.0</ele><time>2026-04-04T11:24:48Z</time></trkpt><trkpt lat="43.24363604865402" lon="12.96126519530488"><ele>450.0</ele><time>2026-04-04T11:24:49Z</time></trkpt><trkpt lat="43.243720288054625" lon="12.961129519953866"><ele>450.0</ele><time>2026-04-04T11:24:50Z</time></trkpt><trkpt lat="43.24379604102748" lon="12.960995299894323"><ele>450.0</ele><time>2026-04-04T11:24:51Z</time></trkpt><trkpt lat="43.24388405547679" lon="12.960890984355256"><ele>450.0</ele><time>2026-04-04T11:24:52Z</time></trkpt><trkpt lat="43.24396905834195" lon="12.96078761983149"><ele>448.0</ele><time>2026-04-04T11:24:53Z</time></trkpt><trkpt lat="43.24406676787234" lon="12.96069912134636"><ele>446.0</ele><time>2026-04-04T11:24:54Z</time></trkpt><trkpt lat="43.244170001642374" lon="12.960645867383587"><ele>444.0</ele><time>2026-04-04T11:24:55Z</time></trkpt><trkpt lat="43.24427776216781" lon="12.960597628363917"><ele>442.0</ele><time>2026-04-04T11:24:56Z</time></trkpt><trkpt lat="43.24437589217405" lon="12.960486043781293"><ele>442.0</ele><time>2026-04-04T11:24:57Z</time></trkpt><trkpt lat="43.244493927884996" lon="12.960443989197296"><ele>442.0</ele><time>2026-04-04T11:24:58Z</time></trkpt><trkpt lat="43.244616833017005" lon="12.960394293053374"><ele>442.0</ele><time>2026-04-04T11:24:59Z</time></trkpt><trkpt lat="43.24473579767065" lon="12.960331894740099"><ele>442.0</ele><time>2026-04-04T11:25:00Z</time></trkpt><trkpt lat="43.244859257887505" lon="12.960310137236958"><ele>440.75</ele><time>2026-04-04T11:25:01Z</time></trkpt><trkpt lat="43.24496832031012" lon="12.960238383944345"><ele>439.5</ele><time>2026-04-04T11:25:02Z</time></trkpt><trkpt lat="43.245065193896686" lon="12.960158716601345"><ele>438.25</ele><time>2026-04-04T11:25:03Z</time></trkpt><trkpt lat="43.2451520322878" lon="12.9600636726383"><ele>437.0</ele><time>2026-04-04T11:25:04Z</time></trkpt><trkpt lat="43.245258522431214" lon="12.959985763413934"><ele>436.99999999999994</ele><time>2026-04-04T11:25:05Z</time></trkpt><trkpt lat="43.24533201698057" lon="12.959922172031604"><ele>437.0</ele><time>2026-04-04T11:25:06Z</time></trkpt><trkpt lat="43.245403062234644" lon="12.959837656370281"><ele>437.0</ele><time>2026-04-04T11:25:07Z</time></trkpt><trkpt lat="43.24547021520501" lon="12.959752415859484"><ele>437.0</ele><time>2026-04-04T11:25:08Z</time></trkpt><trkpt lat="43.2455183703968" lon="12.959687634748557"><ele>436.99999999999994</ele><time>2026-04-04T11:25:09Z</time></trkpt><trkpt lat="43.24557459165391" lon="12.959605463173741"><ele>437.0</ele><time>2026-04-04T11:25:11Z</time></trkpt><trkpt lat="43.2457243038231" lon="12.9596506231665"><ele>435.8</ele><time>2026-04-04T11:25:46Z</time></trkpt><trkpt lat="43.24578707792871" lon="12.959729258252926"><ele>434.6</ele><time>2026-04-04T11:25:47Z</time></trkpt><trkpt lat="43.24584336921996" lon="12.959819130669821"><ele>433.40000000000003</ele><time>2026-04-04T11:25:48Z</time></trkpt><trkpt lat="43.245923431617214" lon="12.959898444496892"><ele>432.20000000000005</ele><time>2026-04-04T11:25:49Z</time></trkpt><trkpt lat="43.246057594279776" lon="12.959966092265867"><ele>431.0</ele><time>2026-04-04T11:25:50Z</time></trkpt><trkpt lat="43.2461758785129" lon="12.960059602818962"><ele>431.0</ele><time>2026-04-04T11:25:51Z</time></trkpt><trkpt lat="43.24629721747884" lon="12.960217391976732"><ele>431.0</ele><time>2026-04-04T11:25:52Z</time></trkpt><trkpt lat="43.24648061423489" lon="12.960353044487299"><ele>431.0</ele><time>2026-04-04T11:25:53Z</time></trkpt><trkpt lat="43.24666355786773" lon="12.960519160356021"><ele>428.5</ele><time>2026-04-04T11:25:54Z</time></trkpt><trkpt lat="43.246856721070834" lon="12.960684207442553"><ele>426.0</ele><time>2026-04-04T11:25:55Z</time></trkpt><trkpt lat="43.24705516825039" lon="12.960870156779174"><ele>425.33333333333337</ele><time>2026-04-04T11:25:56Z</time></trkpt><trkpt lat="43.247230528451546" lon="12.961043737336572"><ele>424.6666666666667</ele><time>2026-04-04T11:25:57Z</time></trkpt><trkpt lat="43.24741036697771" lon="12.961220175783374"><ele>424.0</ele><time>2026-04-04T11:25:58Z</time></trkpt><trkpt lat="43.247588132735025" lon="12.961416895776855"><ele>423.6666666666667</ele><time>2026-04-04T11:25:59Z</time></trkpt><trkpt lat="43.247779538999104" lon="12.961611828199635"><ele>423.33333333333337</ele><time>2026-04-04T11:26:00Z</time></trkpt><trkpt lat="43.24794368973577" lon="12.961777149550564"><ele>423.0</ele><time>2026-04-04T11:26:01Z</time></trkpt><trkpt lat="43.24810491172145" lon="12.961941063267046"><ele>421.33333333333337</ele><time>2026-04-04T11:26:02Z</time></trkpt><trkpt lat="43.24824759818081" lon="12.96208613197058"><ele>419.6666666666667</ele><time>2026-04-04T11:26:03Z</time></trkpt><trkpt lat="43.248385433114365" lon="12.962227825090578"><ele>418.0</ele><time>2026-04-04T11:26:04Z</time></trkpt><trkpt lat="43.248529595540525" lon="12.962380250973515"><ele>418.0</ele><time>2026-04-04T11:26:05Z</time></trkpt><trkpt lat="43.24866701817458" lon="12.962534889673183"><ele>418.0</ele><time>2026-04-04T11:26:06Z</time></trkpt><trkpt lat="43.248809059334434" lon="12.962689138118412"><ele>418.0</ele><time>2026-04-04T11:26:07Z</time></trkpt><trkpt lat="43.24893535800295" lon="12.962849658657895"><ele>417.6666666666667</ele><time>2026-04-04T11:26:08Z</time></trkpt><trkpt lat="43.24906290944016" lon="12.963008880413465"><ele>417.33333333333337</ele><time>2026-04-04T11:26:09Z</time></trkpt><trkpt lat="43.24916547396665" lon="12.963185989510631"><ele>417.0</ele><time>2026-04-04T11:26:10Z</time></trkpt><trkpt lat="43.24928187435419" lon="12.963346853295056"><ele>416.33333333333337</ele><time>2026-04-04T11:26:11Z</time></trkpt><trkpt lat="43.24938203890979" lon="12.963524677081663"><ele>415.6666666666667</ele><time>2026-04-04T11:26:12Z</time></trkpt><trkpt lat="43.249476834830006" lon="12.963693591818473"><ele>415.0</ele><time>2026-04-04T11:26:13Z</time></trkpt><trkpt lat="43.249577401170534" lon="12.963876137233678"><ele>415.0</ele><time>2026-04-04T11:26:14Z</time></trkpt><trkpt lat="43.24966903232018" lon="12.964060049731522"><ele>415.0</ele><time>2026-04-04T11:26:15Z</time></trkpt><trkpt lat="43.24975279661842" lon="12.964251520099095"><ele>415.0</ele><time>2026-04-04T11:26:16Z</time></trkpt><trkpt lat="43.2498360326515" lon="12.964452769623671"><ele>414.6666666666667</ele><time>2026-04-04T11:26:17Z</time></trkpt><trkpt lat="43.24992238794049" lon="12.964661559861138"><ele>414.33333333333337</ele><time>2026-04-04T11:26:18Z</time></trkpt><trkpt lat="43.25000709324906" lon="12.964871199514675"><ele>414.0</ele><time>2026-04-04T11:26:19Z</time></trkpt><trkpt lat="43.2500877137869" lon="12.965079960918937"><ele>414.0</ele><time>2026-04-04T11:26:20Z</time></trkpt><trkpt lat="43.25016455333776" lon="12.96530239954039"><ele>414.0</ele><time>2026-04-04T11:26:21Z</time></trkpt><trkpt lat="43.25022012295136" lon="12.965541777414758"><ele>414.0</ele><time>2026-04-04T11:26:22Z</time></trkpt><trkpt lat="43.25028086510404" lon="12.965772563541469"><ele>412.33333333333337</ele><time>2026-04-04T11:26:23Z</time></trkpt><trkpt lat="43.25035184440073" lon="12.965996614615166"><ele>410.6666666666667</ele><time>2026-04-04T11:26:24Z</time></trkpt><trkpt lat="43.25041185756766" lon="12.966232254506455"><ele>409.0</ele><time>2026-04-04T11:26:25Z</time></trkpt><trkpt lat="43.250469600251954" lon="12.966469490641757"><ele>409.0</ele><time>2026-04-04T11:26:26Z</time></trkpt><trkpt lat="43.25054937913317" lon="12.966685093291552"><ele>409.0</ele><time>2026-04-04T11:26:27Z</time></trkpt><trkpt lat="43.250606861086055" lon="12.96690373927963"><ele>409.0</ele><time>2026-04-04T11:26:28Z</time></trkpt><trkpt lat="43.25066473122264" lon="12.967112964732994"><ele>409.33333333333337</ele><time>2026-04-04T11:26:29Z</time></trkpt><trkpt lat="43.250716485081455" lon="12.967331163586449"><ele>409.66666666666663</ele><time>2026-04-04T11:26:30Z</time></trkpt><trkpt lat="43.250749752913734" lon="12.96753578420262"><ele>410.0</ele><time>2026-04-04T11:26:31Z</time></trkpt><trkpt lat="43.25078112752761" lon="12.967752007130397"><ele>410.5</ele><time>2026-04-04T11:26:32Z</time></trkpt><trkpt lat="43.25080868472464" lon="12.967948408141991"><ele>411.0</ele><time>2026-04-04T11:26:33Z</time></trkpt><trkpt lat="43.2508071603818" lon="12.968138705284124"><ele>411.5</ele><time>2026-04-04T11:26:34Z</time></trkpt><trkpt lat="43.250796224427816" lon="12.968345764992298"><ele>412.0</ele><time>2026-04-04T11:26:35Z</time></trkpt><trkpt lat="43.25075914726252" lon="12.96856635358981"><ele>412.5</ele><time>2026-04-04T11:26:36Z</time></trkpt><trkpt lat="43.2507170472439" lon="12.968770721334243"><ele>413.0</ele><time>2026-04-04T11:26:37Z</time></trkpt><trkpt lat="43.25064010205236" lon="12.96894623748124"><ele>413.5</ele><time>2026-04-04T11:26:38Z</time></trkpt><trkpt lat="43.25057610661918" lon="12.9691144428662"><ele>414.0</ele><time>2026-04-04T11:26:39Z</time></trkpt><trkpt lat="43.25052299413474" lon="12.969296314623438"><ele>412.5</ele><time>2026-04-04T11:26:40Z</time></trkpt><trkpt lat="43.25045630434366" lon="12.969457412135158"><ele>411.0</ele><time>2026-04-04T11:26:41Z</time></trkpt><trkpt lat="43.25037689767792" lon="12.969633126311962"><ele>409.5</ele><time>2026-04-04T11:26:42Z</time></trkpt><trkpt lat="43.25030814041507" lon="12.969812150682507"><ele>408.0</ele><time>2026-04-04T11:26:43Z</time></trkpt><trkpt lat="43.25022881316352" lon="12.97001881696983"><ele>408.0</ele><time>2026-04-04T11:26:44Z</time></trkpt><trkpt lat="43.25014405181915" lon="12.970235712027188"><ele>408.0</ele><time>2026-04-04T11:26:45Z</time></trkpt><trkpt lat="43.250081412435776" lon="12.970459101518957"><ele>408.0</ele><time>2026-04-04T11:26:46Z</time></trkpt><trkpt lat="43.250002848739534" lon="12.970674521090974"><ele>406.66666666666663</ele><time>2026-04-04T11:26:47Z</time></trkpt><trkpt lat="43.24992208693232" lon="12.970869693047684"><ele>405.3333333333333</ele><time>2026-04-04T11:26:48Z</time></trkpt><trkpt lat="43.2498398549733" lon="12.971067342846668"><ele>404.0</ele><time>2026-04-04T11:26:49Z</time></trkpt><trkpt lat="43.24974479740123" lon="12.971253804642139"><ele>404.0</ele><time>2026-04-04T11:26:50Z</time></trkpt><trkpt lat="43.24967268111836" lon="12.971477929425234"><ele>404.0</ele><time>2026-04-04T11:26:51Z</time></trkpt><trkpt lat="43.249583132031276" lon="12.97167270656303"><ele>404.0</ele><time>2026-04-04T11:26:52Z</time></trkpt><trkpt lat="43.249481677148204" lon="12.971875467047662"><ele>405.3333333333333</ele><time>2026-04-04T11:26:53Z</time></trkpt><trkpt lat="43.24940067256474" lon="12.972089909214452"><ele>406.66666666666663</ele><time>2026-04-04T11:26:54Z</time></trkpt><trkpt lat="43.24931845081446" lon="12.972301179313103"><ele>408.0</ele><time>2026-04-04T11:26:55Z</time></trkpt><trkpt lat="43.249240486381446" lon="12.972499647131087"><ele>408.0</ele><time>2026-04-04T11:26:56Z</time></trkpt><trkpt lat="43.24913402425311" lon="12.972704461512564"><ele>408.0</ele><time>2026-04-04T11:26:57Z</time></trkpt><trkpt lat="43.24907427537692" lon="12.972935288157608"><ele>408.0</ele><time>2026-04-04T11:26:58Z</time></trkpt><trkpt lat="43.24899001364302" lon="12.973155602605923"><ele>404.66666666666663</ele><time>2026-04-04T11:26:59Z</time></trkpt><trkpt lat="43.24890960368095" lon="12.973378787537273"><ele>401.3333333333333</ele><time>2026-04-04T11:27:00Z</time></trkpt><trkpt lat="43.24882994295939" lon="12.97360384864722"><ele>398.0</ele><time>2026-04-04T11:27:01Z</time></trkpt><trkpt lat="43.248741803403064" lon="12.973836164775681"><ele>398.0</ele><time>2026-04-04T11:27:02Z</time></trkpt><trkpt lat="43.24865196918231" lon="12.974062258229877"><ele>398.0</ele><time>2026-04-04T11:27:03Z</time></trkpt><trkpt lat="43.24857209035378" lon="12.9742891381264"><ele>398.0</ele><time>2026-04-04T11:27:04Z</time></trkpt><trkpt lat="43.24848769841209" lon="12.974503930855455"><ele>398.0</ele><time>2026-04-04T11:27:05Z</time></trkpt><trkpt lat="43.24839844147138" lon="12.974728694215191"><ele>398.0</ele><time>2026-04-04T11:27:06Z</time></trkpt><trkpt lat="43.24829728749658" lon="12.974940905230842"><ele>398.0</ele><time>2026-04-04T11:27:07Z</time></trkpt><trkpt lat="43.24821357689686" lon="12.975152503051081"><ele>398.0</ele><time>2026-04-04T11:27:08Z</time></trkpt><trkpt lat="43.24812056553317" lon="12.975369088300408"><ele>398.0</ele><time>2026-04-04T11:27:09Z</time></trkpt><trkpt lat="43.248031133094" lon="12.975581952749724"><ele>398.0</ele><time>2026-04-04T11:27:10Z</time></trkpt><trkpt lat="43.24794976960428" lon="12.975790647885102"><ele>397.66666666666663</ele><time>2026-04-04T11:27:11Z</time></trkpt><trkpt lat="43.24786481269369" lon="12.97602025903534"><ele>397.33333333333337</ele><time>2026-04-04T11:27:12Z</time></trkpt><trkpt lat="43.24778993571233" lon="12.976250380994582"><ele>397.0</ele><time>2026-04-04T11:27:13Z</time></trkpt><trkpt lat="43.247704995278" lon="12.976464268049126"><ele>396.33333333333337</ele><time>2026-04-04T11:27:14Z</time></trkpt><trkpt lat="43.24764434753433" lon="12.9766898719977"><ele>395.66666666666663</ele><time>2026-04-04T11:27:15Z</time></trkpt><trkpt lat="43.24760744257784" lon="12.976923089306647"><ele>395.0</ele><time>2026-04-04T11:27:16Z</time></trkpt><trkpt lat="43.24758045685805" lon="12.977147047258432"><ele>395.0</ele><time>2026-04-04T11:27:17Z</time></trkpt><trkpt lat="43.24757091686996" lon="12.977379137609425"><ele>395.0</ele><time>2026-04-04T11:27:18Z</time></trkpt><trkpt lat="43.247572087854394" lon="12.97761439126459"><ele>395.0</ele><time>2026-04-04T11:27:19Z</time></trkpt><trkpt lat="43.24757963094098" lon="12.977853010937908"><ele>393.3333333333333</ele><time>2026-04-04T11:27:20Z</time></trkpt><trkpt lat="43.24758377165783" lon="12.978107557595466"><ele>391.66666666666663</ele><time>2026-04-04T11:27:21Z</time></trkpt><trkpt lat="43.24757649795305" lon="12.978355520964152"><ele>390.0</ele><time>2026-04-04T11:27:22Z</time></trkpt><trkpt lat="43.24760495549103" lon="12.978600494356487"><ele>387.6666666666667</ele><time>2026-04-04T11:27:23Z</time></trkpt><trkpt lat="43.247623718877456" lon="12.978859921544938"><ele>385.33333333333337</ele><time>2026-04-04T11:27:24Z</time></trkpt><trkpt lat="43.247640159833914" lon="12.979102157267222"><ele>383.0</ele><time>2026-04-04T11:27:25Z</time></trkpt><trkpt lat="43.247648549333064" lon="12.979346103112539"><ele>382.6666666666667</ele><time>2026-04-04T11:27:26Z</time></trkpt><trkpt lat="43.24765517014595" lon="12.979599950698374"><ele>382.3333333333333</ele><time>2026-04-04T11:27:27Z</time></trkpt><trkpt lat="43.24765387419258" lon="12.979839396197997"><ele>382.0</ele><time>2026-04-04T11:27:28Z</time></trkpt><trkpt lat="43.24767736079422" lon="12.980057018459286"><ele>382.75</ele><time>2026-04-04T11:27:29Z</time></trkpt><trkpt lat="43.247668929210946" lon="12.980275538530908"><ele>383.5</ele><time>2026-04-04T11:27:30Z</time></trkpt><trkpt lat="43.24765174941399" lon="12.98047345781772"><ele>384.25</ele><time>2026-04-04T11:27:31Z</time></trkpt><trkpt lat="43.247613456489745" lon="12.980645695142266"><ele>385.0</ele><time>2026-04-04T11:27:32Z</time></trkpt><trkpt lat="43.24755565332997" lon="12.980806709950794"><ele>385.25</ele><time>2026-04-04T11:27:33Z</time></trkpt><trkpt lat="43.24747111281566" lon="12.980980511374794"><ele>385.5</ele><time>2026-04-04T11:27:34Z</time></trkpt><trkpt lat="43.247392264307656" lon="12.981138458516755"><ele>385.75</ele><time>2026-04-04T11:27:35Z</time></trkpt><trkpt lat="43.24732704846523" lon="12.981268537627518"><ele>386.0</ele><time>2026-04-04T11:27:36Z</time></trkpt><trkpt lat="43.247289311639875" lon="12.981463806395112"><ele>386.0</ele><time>2026-04-04T11:27:37Z</time></trkpt><trkpt lat="43.24730022439084" lon="12.981650870608279"><ele>386.0</ele><time>2026-04-04T11:27:38Z</time></trkpt><trkpt lat="43.2473171046291" lon="12.9818491132309"><ele>386.0</ele><time>2026-04-04T11:27:39Z</time></trkpt><trkpt lat="43.24734035928124" lon="12.982071679404577"><ele>386.0</ele><time>2026-04-04T11:27:40Z</time></trkpt><trkpt lat="43.24736605672109" lon="12.982303542327227"><ele>384.3333333333333</ele><time>2026-04-04T11:27:41Z</time></trkpt><trkpt lat="43.24736680035476" lon="12.982542933811393"><ele>382.66666666666663</ele><time>2026-04-04T11:27:42Z</time></trkpt><trkpt lat="43.24737392238763" lon="12.98277182269683"><ele>381.0</ele><time>2026-04-04T11:27:43Z</time></trkpt><trkpt lat="43.24735548669775" lon="12.9830043512455"><ele>381.0</ele><time>2026-04-04T11:27:44Z</time></trkpt><trkpt lat="43.24731940547455" lon="12.983224317802268"><ele>381.0</ele><time>2026-04-04T11:27:45Z</time></trkpt><trkpt lat="43.2472898307317" lon="12.983452664770649"><ele>381.0</ele><time>2026-04-04T11:27:46Z</time></trkpt><trkpt lat="43.24724050875777" lon="12.983673255212011"><ele>380.0</ele><time>2026-04-04T11:27:47Z</time></trkpt><trkpt lat="43.247206086986715" lon="12.983876768847658"><ele>379.0</ele><time>2026-04-04T11:27:48Z</time></trkpt><trkpt lat="43.24715277530825" lon="12.98407141361165"><ele>378.0</ele><time>2026-04-04T11:27:49Z</time></trkpt><trkpt lat="43.247079783903004" lon="12.984231986653493"><ele>377.0</ele><time>2026-04-04T11:27:50Z</time></trkpt><trkpt lat="43.24700047963082" lon="12.98440667777712"><ele>377.0</ele><time>2026-04-04T11:27:51Z</time></trkpt><trkpt lat="43.24692884405424" lon="12.984560538183588"><ele>377.0</ele><time>2026-04-04T11:27:52Z</time></trkpt><trkpt lat="43.246843365686715" lon="12.984737021148653"><ele>377.0</ele><time>2026-04-04T11:27:53Z</time></trkpt><trkpt lat="43.24676452449617" lon="12.984902114621656"><ele>377.0</ele><time>2026-04-04T11:27:54Z</time></trkpt><trkpt lat="43.24670001910993" lon="12.985070261773577"><ele>376.75</ele><time>2026-04-04T11:27:55Z</time></trkpt><trkpt lat="43.24666852993067" lon="12.98526287442033"><ele>376.5</ele><time>2026-04-04T11:27:56Z</time></trkpt><trkpt lat="43.24663515912205" lon="12.985452585778363"><ele>376.25</ele><time>2026-04-04T11:27:57Z</time></trkpt><trkpt lat="43.246621555813185" lon="12.985647004814348"><ele>376.0</ele><time>2026-04-04T11:27:58Z</time></trkpt><trkpt lat="43.246615321829076" lon="12.985855884032176"><ele>375.0</ele><time>2026-04-04T11:27:59Z</time></trkpt><trkpt lat="43.2466305135246" lon="12.986050880789552"><ele>374.0</ele><time>2026-04-04T11:28:00Z</time></trkpt><trkpt lat="43.246651953357265" lon="12.986263718331555"><ele>373.0</ele><time>2026-04-04T11:28:01Z</time></trkpt><trkpt lat="43.24665797027754" lon="12.98648109072343"><ele>373.66666666666663</ele><time>2026-04-04T11:28:02Z</time></trkpt><trkpt lat="43.24667234914972" lon="12.986688638117002"><ele>374.3333333333333</ele><time>2026-04-04T11:28:03Z</time></trkpt><trkpt lat="43.2466800230313" lon="12.986905184005026"><ele>375.0</ele><time>2026-04-04T11:28:04Z</time></trkpt><trkpt lat="43.246683485963906" lon="12.987099537940551"><ele>375.0</ele><time>2026-04-04T11:28:05Z</time></trkpt><trkpt lat="43.246666358010536" lon="12.98729407507861"><ele>375.0</ele><time>2026-04-04T11:28:06Z</time></trkpt><trkpt lat="43.246674711450694" lon="12.987494239809521"><ele>375.0</ele><time>2026-04-04T11:28:07Z</time></trkpt><trkpt lat="43.24667231809884" lon="12.987704782464444"><ele>375.0</ele><time>2026-04-04T11:28:08Z</time></trkpt><trkpt lat="43.24668563284096" lon="12.98787451849682"><ele>375.8</ele><time>2026-04-04T11:28:09Z</time></trkpt><trkpt lat="43.24670083446455" lon="12.988040396553467"><ele>376.6</ele><time>2026-04-04T11:28:10Z</time></trkpt><trkpt lat="43.24670748969345" lon="12.98819534004475"><ele>377.4</ele><time>2026-04-04T11:28:11Z</time></trkpt><trkpt lat="43.24667776712987" lon="12.988337813588787"><ele>378.2</ele><time>2026-04-04T11:28:12Z</time></trkpt><trkpt lat="43.2466679583403" lon="12.988479164442325"><ele>379.0</ele><time>2026-04-04T11:28:13Z</time></trkpt><trkpt lat="43.24661644373672" lon="12.988588701380662"><ele>379.0</ele><time>2026-04-04T11:28:14Z</time></trkpt><trkpt lat="43.24654645202895" lon="12.98868898328851"><ele>379.0</ele><time>2026-04-04T11:28:15Z</time></trkpt><trkpt lat="43.24645950264354" lon="12.988779734075587"><ele>379.0</ele><time>2026-04-04T11:28:16Z</time></trkpt><trkpt lat="43.246370043974686" lon="12.988862827958995"><ele>379.0</ele><time>2026-04-04T11:28:17Z</time></trkpt><trkpt lat="43.24627732814157" lon="12.988935963148988"><ele>379.0</ele><time>2026-04-04T11:28:18Z</time></trkpt><trkpt lat="43.24618272057208" lon="12.989006891488515"><ele>379.6</ele><time>2026-04-04T11:28:19Z</time></trkpt><trkpt lat="43.24607919364043" lon="12.989085762002764"><ele>380.2</ele><time>2026-04-04T11:28:20Z</time></trkpt><trkpt lat="43.2459850410656" lon="12.989157699972505"><ele>380.8</ele><time>2026-04-04T11:28:21Z</time></trkpt><trkpt lat="43.2459078141202" lon="12.989216704658281"><ele>381.40000000000003</ele><time>2026-04-04T11:28:22Z</time></trkpt><trkpt lat="43.245803733066225" lon="12.98929810826575"><ele>382.0</ele><time>2026-04-04T11:28:23Z</time></trkpt><trkpt lat="43.24570870566486" lon="12.989375893212724"><ele>382.3333333333333</ele><time>2026-04-04T11:28:24Z</time></trkpt><trkpt lat="43.24564303197422" lon="12.98942965033315"><ele>382.66666666666663</ele><time>2026-04-04T11:28:25Z</time></trkpt><trkpt lat="43.24557422981367" lon="12.98950374328981"><ele>383.0</ele><time>2026-04-04T11:28:26Z</time></trkpt><trkpt lat="43.245509744498435" lon="12.989555177884728"><ele>383.3333333333333</ele><time>2026-04-04T11:28:27Z</time></trkpt><trkpt lat="43.2454454019825" lon="12.989603510675938"><ele>383.6666666666667</ele><time>2026-04-04T11:28:28Z</time></trkpt><trkpt lat="43.24534710944933" lon="12.989686519425993"><ele>384.0</ele><time>2026-04-04T11:28:30Z</time></trkpt><trkpt lat="43.24524381551857" lon="12.989716557840596"><ele>384.0</ele><time>2026-04-04T11:28:33Z</time></trkpt><trkpt lat="43.245114120467115" lon="12.98966318182967"><ele>384.0</ele><time>2026-04-04T11:28:35Z</time></trkpt><trkpt lat="43.24502481532361" lon="12.989638557314246"><ele>384.0</ele><time>2026-04-04T11:28:36Z</time></trkpt><trkpt lat="43.244945021579234" lon="12.989716929851506"><ele>384.0</ele><time>2026-04-04T11:28:37Z</time></trkpt><trkpt lat="43.244869838179014" lon="12.989783907364663"><ele>384.0</ele><time>2026-04-04T11:28:38Z</time></trkpt><trkpt lat="43.24481048966694" lon="12.989863439424733"><ele>384.0</ele><time>2026-04-04T11:28:39Z</time></trkpt><trkpt lat="43.244763686068964" lon="12.989964315550893"><ele>384.0</ele><time>2026-04-04T11:28:40Z</time></trkpt><trkpt lat="43.24471770916004" lon="12.990104588865142"><ele>384.0</ele><time>2026-04-04T11:28:41Z</time></trkpt><trkpt lat="43.24456533181814" lon="12.99020641492108"><ele>384.0</ele><time>2026-04-04T11:28:42Z</time></trkpt><trkpt lat="43.24445045473098" lon="12.990304637921675"><ele>383.0</ele><time>2026-04-04T11:28:43Z</time></trkpt><trkpt lat="43.244310551774404" lon="12.990441253186885"><ele>382.0</ele><time>2026-04-04T11:28:44Z</time></trkpt><trkpt lat="43.244142916521064" lon="12.990591292486798"><ele>381.0</ele><time>2026-04-04T11:28:45Z</time></trkpt><trkpt lat="43.24396545307115" lon="12.990732596636265"><ele>382.0</ele><time>2026-04-04T11:28:46Z</time></trkpt><trkpt lat="43.24377359298596" lon="12.990869819850124"><ele>383.0</ele><time>2026-04-04T11:28:47Z</time></trkpt><trkpt lat="43.24356313708342" lon="12.991035117273926"><ele>383.0</ele><time>2026-04-04T11:28:48Z</time></trkpt><trkpt lat="43.24335718997189" lon="12.991199144790551"><ele>383.0</ele><time>2026-04-04T11:28:49Z</time></trkpt><trkpt lat="43.243154555577874" lon="12.991376121399956"><ele>384.5</ele><time>2026-04-04T11:28:50Z</time></trkpt><trkpt lat="43.242922575077934" lon="12.991503295276381"><ele>386.0</ele><time>2026-04-04T11:28:51Z</time></trkpt><trkpt lat="43.242686345437015" lon="12.991665617864133"><ele>386.0</ele><time>2026-04-04T11:28:52Z</time></trkpt><trkpt lat="43.24248859337304" lon="12.991827008244645"><ele>386.0</ele><time>2026-04-04T11:28:53Z</time></trkpt><trkpt lat="43.24230331400214" lon="12.991961109599014"><ele>386.0</ele><time>2026-04-04T11:28:54Z</time></trkpt><trkpt lat="43.24213366587479" lon="12.992086132527433"><ele>386.0</ele><time>2026-04-04T11:28:55Z</time></trkpt><trkpt lat="43.24197856417254" lon="12.99220245965168"><ele>386.0</ele><time>2026-04-04T11:28:56Z</time></trkpt><trkpt lat="43.241838169418145" lon="12.992316142645722"><ele>386.0</ele><time>2026-04-04T11:28:57Z</time></trkpt><trkpt lat="43.24173942146104" lon="12.992447616690928"><ele>387.0</ele><time>2026-04-04T11:28:58Z</time></trkpt><trkpt lat="43.24163859109752" lon="12.992583314863566"><ele>388.0</ele><time>2026-04-04T11:28:59Z</time></trkpt><trkpt lat="43.24155372401444" lon="12.992740713079531"><ele>389.0</ele><time>2026-04-04T11:29:00Z</time></trkpt><trkpt lat="43.24150290899987" lon="12.992899395295487"><ele>390.0</ele><time>2026-04-04T11:29:01Z</time></trkpt><trkpt lat="43.24148103818582" lon="12.993034492516184"><ele>390.0</ele><time>2026-04-04T11:29:02Z</time></trkpt><trkpt lat="43.241484192332386" lon="12.993149818766433"><ele>390.0</ele><time>2026-04-04T11:29:03Z</time></trkpt><trkpt lat="43.24152251751068" lon="12.993284222686405"><ele>390.0</ele><time>2026-04-04T11:29:04Z</time></trkpt><trkpt lat="43.24158293082903" lon="12.993375627511826"><ele>390.0</ele><time>2026-04-04T11:29:05Z</time></trkpt><trkpt lat="43.24168928079286" lon="12.993465187400856"><ele>390.0</ele><time>2026-04-04T11:29:06Z</time></trkpt><trkpt lat="43.24180057129561" lon="12.993545962623376"><ele>392.66666666666663</ele><time>2026-04-04T11:29:07Z</time></trkpt><trkpt lat="43.24191136239801" lon="12.99362152367916"><ele>395.3333333333333</ele><time>2026-04-04T11:29:08Z</time></trkpt><trkpt lat="43.242064454289064" lon="12.993729556463522"><ele>398.0</ele><time>2026-04-04T11:29:09Z</time></trkpt><trkpt lat="43.24221674193048" lon="12.993869956354594"><ele>393.3333333333333</ele><time>2026-04-04T11:29:10Z</time></trkpt><trkpt lat="43.24236258366417" lon="12.994037990466863"><ele>388.66666666666663</ele><time>2026-04-04T11:29:11Z</time></trkpt><trkpt lat="43.24249526773486" lon="12.994216896290718"><ele>384.0</ele><time>2026-04-04T11:29:12Z</time></trkpt><trkpt lat="43.24261451411085" lon="12.994400019342047"><ele>384.0</ele><time>2026-04-04T11:29:13Z</time></trkpt><trkpt lat="43.24273910051158" lon="12.994590876907504"><ele>384.0</ele><time>2026-04-04T11:29:14Z</time></trkpt><trkpt lat="43.24286793042814" lon="12.994754705605121"><ele>384.0</ele><time>2026-04-04T11:29:15Z</time></trkpt><trkpt lat="43.24294570101705" lon="12.994952870539493"><ele>382.6666666666667</ele><time>2026-04-04T11:29:16Z</time></trkpt><trkpt lat="43.243027583566466" lon="12.995139557343585"><ele>381.33333333333337</ele><time>2026-04-04T11:29:17Z</time></trkpt><trkpt lat="43.24311822366632" lon="12.995346736420537"><ele>380.0</ele><time>2026-04-04T11:29:18Z</time></trkpt><trkpt lat="43.24320788754257" lon="12.99555260679091"><ele>379.33333333333337</ele><time>2026-04-04T11:29:19Z</time></trkpt><trkpt lat="43.24329478506129" lon="12.9957526245211"><ele>378.6666666666667</ele><time>2026-04-04T11:29:20Z</time></trkpt><trkpt lat="43.24337595095876" lon="12.99593950333546"><ele>378.0</ele><time>2026-04-04T11:29:21Z</time></trkpt><trkpt lat="43.243461443144255" lon="12.996131998874722"><ele>377.6666666666667</ele><time>2026-04-04T11:29:22Z</time></trkpt><trkpt lat="43.24354846214323" lon="12.996327932226617"><ele>377.33333333333337</ele><time>2026-04-04T11:29:23Z</time></trkpt><trkpt lat="43.243637219753445" lon="12.996527612685405"><ele>377.0</ele><time>2026-04-04T11:29:24Z</time></trkpt><trkpt lat="43.243722193040526" lon="12.996718886689443"><ele>376.33333333333337</ele><time>2026-04-04T11:29:25Z</time></trkpt><trkpt lat="43.243805595810244" lon="12.996908118167825"><ele>375.6666666666667</ele><time>2026-04-04T11:29:26Z</time></trkpt><trkpt lat="43.24388831862632" lon="12.997096046892107"><ele>375.0</ele><time>2026-04-04T11:29:27Z</time></trkpt><trkpt lat="43.24396657612831" lon="12.997273063210942"><ele>374.5</ele><time>2026-04-04T11:29:28Z</time></trkpt><trkpt lat="43.244036856138" lon="12.997432062030471"><ele>374.0</ele><time>2026-04-04T11:29:29Z</time></trkpt><trkpt lat="43.24411304118938" lon="12.997604420293436"><ele>373.5</ele><time>2026-04-04T11:29:30Z</time></trkpt><trkpt lat="43.24419609866673" lon="12.997792326427936"><ele>373.0</ele><time>2026-04-04T11:29:31Z</time></trkpt><trkpt lat="43.24427606631813" lon="12.997974244167857"><ele>373.0</ele><time>2026-04-04T11:29:32Z</time></trkpt><trkpt lat="43.24436690722718" lon="12.998153258779002"><ele>373.0</ele><time>2026-04-04T11:29:33Z</time></trkpt><trkpt lat="43.244432211681314" lon="12.998337505635218"><ele>373.0</ele><time>2026-04-04T11:29:34Z</time></trkpt><trkpt lat="43.24449896833253" lon="12.998500629758684"><ele>373.0</ele><time>2026-04-04T11:29:35Z</time></trkpt><trkpt lat="43.24456848352402" lon="12.998663631449302"><ele>373.0</ele><time>2026-04-04T11:29:36Z</time></trkpt><trkpt lat="43.24463271930683" lon="12.998800894280778"><ele>373.0</ele><time>2026-04-04T11:29:37Z</time></trkpt><trkpt lat="43.244693129723366" lon="12.99893352710081"><ele>373.0</ele><time>2026-04-04T11:29:38Z</time></trkpt><trkpt lat="43.244756323899594" lon="12.999063010410655"><ele>373.0</ele><time>2026-04-04T11:29:39Z</time></trkpt><trkpt lat="43.24481213043025" lon="12.999163493908748"><ele>373.0</ele><time>2026-04-04T11:29:40Z</time></trkpt><trkpt lat="43.244828951826186" lon="12.999287066731812"><ele>373.0</ele><time>2026-04-04T11:29:41Z</time></trkpt><trkpt lat="43.244860406294364" lon="12.999377895679658"><ele>373.0</ele><time>2026-04-04T11:29:42Z</time></trkpt><trkpt lat="43.24484953786681" lon="12.999489267357777"><ele>373.0</ele><time>2026-04-04T11:29:43Z</time></trkpt><trkpt lat="43.24488627981067" lon="12.999572576823551"><ele>373.0</ele><time>2026-04-04T11:29:44Z</time></trkpt><trkpt lat="43.2449288681243" lon="12.999655902249863"><ele>373.0</ele><time>2026-04-04T11:29:45Z</time></trkpt><trkpt lat="43.24498645024578" lon="12.999715820522939"><ele>373.0</ele><time>2026-04-04T11:29:46Z</time></trkpt><trkpt lat="43.245043449201475" lon="12.999782233597491"><ele>373.0</ele><time>2026-04-04T11:29:47Z</time></trkpt><trkpt lat="43.24510606746201" lon="12.99984722734294"><ele>373.0</ele><time>2026-04-04T11:29:48Z</time></trkpt><trkpt lat="43.24514933219141" lon="12.999928188204358"><ele>373.0</ele><time>2026-04-04T11:29:49Z</time></trkpt><trkpt lat="43.245191267272475" lon="13.000009946479127"><ele>373.0</ele><time>2026-04-04T11:29:50Z</time></trkpt><trkpt lat="43.2452223680026" lon="13.000115589666198"><ele>373.0</ele><time>2026-04-04T11:29:51Z</time></trkpt><trkpt lat="43.245248119689855" lon="13.000215231009285"><ele>373.0</ele><time>2026-04-04T11:29:52Z</time></trkpt><trkpt lat="43.245319838313485" lon="13.000336673447286"><ele>373.0</ele><time>2026-04-04T11:29:54Z</time></trkpt><trkpt lat="43.24540465537018" lon="13.000220894471674"><ele>373.0</ele><time>2026-04-04T11:29:56Z</time></trkpt><trkpt lat="43.24551458860913" lon="13.000089878845735"><ele>373.0</ele><time>2026-04-04T11:29:57Z</time></trkpt><trkpt lat="43.245622559730016" lon="12.999961201528253"><ele>373.0</ele><time>2026-04-04T11:29:58Z</time></trkpt><trkpt lat="43.245687103285235" lon="12.999841573140438"><ele>373.0</ele><time>2026-04-04T11:29:59Z</time></trkpt><trkpt lat="43.24576931752417" lon="12.99975609073357"><ele>372.8333333333333</ele><time>2026-04-04T11:30:00Z</time></trkpt><trkpt lat="43.245834012355786" lon="12.999678989083806"><ele>372.66666666666663</ele><time>2026-04-04T11:30:01Z</time></trkpt><trkpt lat="43.245889972550366" lon="12.999612297060173"><ele>372.5</ele><time>2026-04-04T11:30:02Z</time></trkpt><trkpt lat="43.245930619625796" lon="12.999538039076082"><ele>372.3333333333333</ele><time>2026-04-04T11:30:03Z</time></trkpt><trkpt lat="43.24598563766837" lon="12.99961631629993"><ele>372.1666666666667</ele><time>2026-04-04T11:30:05Z</time></trkpt><trkpt lat="43.24602848710272" lon="12.999688251421386"><ele>372.0</ele><time>2026-04-04T11:30:06Z</time></trkpt><trkpt lat="43.24607777108343" lon="12.999779784714228"><ele>372.0</ele><time>2026-04-04T11:30:08Z</time></trkpt><trkpt lat="43.246109359723164" lon="12.999897186867562"><ele>372.0</ele><time>2026-04-04T11:30:10Z</time></trkpt><trkpt lat="43.24628913929757" lon="12.999803739913967"><ele>372.0</ele><time>2026-04-04T11:30:11Z</time></trkpt><trkpt lat="43.24635601497117" lon="12.999832658143584"><ele>372.0</ele><time>2026-04-04T11:30:15Z</time></trkpt><trkpt lat="43.246303283565055" lon="12.999893930378457"><ele>372.0</ele><time>2026-04-04T11:30:21Z</time></trkpt><trkpt lat="43.246256312122824" lon="12.99997422182839"><ele>372.0</ele><time>2026-04-04T11:30:33Z</time></trkpt><trkpt lat="43.24629577137895" lon="13.000070929734333"><ele>372.0</ele><time>2026-04-04T11:30:45Z</time></trkpt><trkpt lat="43.24627237162963" lon="13.000167823450788"><ele>372.0</ele><time>2026-04-04T11:30:49Z</time></trkpt><trkpt lat="43.24624481100444" lon="13.000293429615676"><ele>372.0</ele><time>2026-04-04T11:30:51Z</time></trkpt><trkpt lat="43.246171860618745" lon="12.999928903546113"><ele>372.0</ele><time>2026-04-04T11:37:09.12Z</time></trkpt></trkseg></trk></gpx>